<?xml version="1.0" encoding="UTF-8" standalone="no" ?>
<gpx xmlns="http://www.topografix.com/GPX/1/1" xmlns:xsi="http://www.w3.org/2001/XMLSchema-instance" xsi:schemaLocation="http://www.topografix.com/GPX/1/1 http://www.topografix.com/GPX/1/1/gpx.xsd" version="1.1" creator="VisuGPX - https://www.visugpx.com">
  <metadata>
    <name>PIERREFICHE D LARZAC</name>
    <desc><![CDATA[SORTIE ENDURO. On empreinte 2 traces balisées "enduro rouge"   une autre descente ]]></desc>
  </metadata>
  <trk>
    <name><![CDATA[25_09_2016 8_45 AM]]></name>
    <desc><![CDATA[Total: 31.0km]]></desc>
    <trkseg>
      <trkpt lat="44.10659" lon="3.21745">
        <ele>735.9</ele>
        <time>2016-09-25T06:45:33Z</time>
      </trkpt>
      <trkpt lat="44.10659" lon="3.21745">
        <ele>735.9</ele>
        <time>2016-09-25T06:45:34Z</time>
      </trkpt>
      <trkpt lat="44.1066" lon="3.21746">
        <ele>740.7</ele>
        <time>2016-09-25T06:45:41Z</time>
      </trkpt>
      <trkpt lat="44.10659" lon="3.21756">
        <ele>733.1</ele>
        <time>2016-09-25T06:45:46Z</time>
      </trkpt>
      <trkpt lat="44.10675" lon="3.21739">
        <ele>748.1</ele>
        <time>2016-09-25T06:47:11Z</time>
      </trkpt>
      <trkpt lat="44.10683" lon="3.21739">
        <ele>748.2</ele>
        <time>2016-09-25T06:47:14Z</time>
      </trkpt>
      <trkpt lat="44.10692" lon="3.21737">
        <ele>748.4</ele>
        <time>2016-09-25T06:47:17Z</time>
      </trkpt>
      <trkpt lat="44.10701" lon="3.21737">
        <ele>748.4</ele>
        <time>2016-09-25T06:47:21Z</time>
      </trkpt>
      <trkpt lat="44.10708" lon="3.21739">
        <ele>748.4</ele>
        <time>2016-09-25T06:47:24Z</time>
      </trkpt>
      <trkpt lat="44.10715" lon="3.21742">
        <ele>748.3</ele>
        <time>2016-09-25T06:47:27Z</time>
      </trkpt>
      <trkpt lat="44.10723" lon="3.21746">
        <ele>748.2</ele>
        <time>2016-09-25T06:47:31Z</time>
      </trkpt>
      <trkpt lat="44.10731" lon="3.21745">
        <ele>747.8</ele>
        <time>2016-09-25T06:47:35Z</time>
      </trkpt>
      <trkpt lat="44.1074" lon="3.21746">
        <ele>747.3</ele>
        <time>2016-09-25T06:47:39Z</time>
      </trkpt>
      <trkpt lat="44.10748" lon="3.21746">
        <ele>747</ele>
        <time>2016-09-25T06:47:42Z</time>
      </trkpt>
      <trkpt lat="44.10756" lon="3.21747">
        <ele>746.8</ele>
        <time>2016-09-25T06:47:45Z</time>
      </trkpt>
      <trkpt lat="44.10766" lon="3.21747">
        <ele>746.5</ele>
        <time>2016-09-25T06:47:49Z</time>
      </trkpt>
      <trkpt lat="44.10773" lon="3.21747">
        <ele>746.2</ele>
        <time>2016-09-25T06:47:52Z</time>
      </trkpt>
      <trkpt lat="44.10781" lon="3.21748">
        <ele>746.2</ele>
        <time>2016-09-25T06:47:55Z</time>
      </trkpt>
      <trkpt lat="44.1079" lon="3.2175">
        <ele>746.2</ele>
        <time>2016-09-25T06:47:58Z</time>
      </trkpt>
      <trkpt lat="44.10798" lon="3.21754">
        <ele>746.2</ele>
        <time>2016-09-25T06:48:02Z</time>
      </trkpt>
      <trkpt lat="44.10802" lon="3.21764">
        <ele>746.3</ele>
        <time>2016-09-25T06:48:06Z</time>
      </trkpt>
      <trkpt lat="44.10802" lon="3.21774">
        <ele>746.4</ele>
        <time>2016-09-25T06:48:09Z</time>
      </trkpt>
      <trkpt lat="44.10803" lon="3.21789">
        <ele>746.5</ele>
        <time>2016-09-25T06:48:12Z</time>
      </trkpt>
      <trkpt lat="44.10809" lon="3.21799">
        <ele>746.1</ele>
        <time>2016-09-25T06:48:14Z</time>
      </trkpt>
      <trkpt lat="44.10816" lon="3.21809">
        <ele>746.1</ele>
        <time>2016-09-25T06:48:16Z</time>
      </trkpt>
      <trkpt lat="44.10825" lon="3.21822">
        <ele>745.4</ele>
        <time>2016-09-25T06:48:18Z</time>
      </trkpt>
      <trkpt lat="44.10832" lon="3.21839">
        <ele>743.8</ele>
        <time>2016-09-25T06:48:20Z</time>
      </trkpt>
      <trkpt lat="44.10836" lon="3.21849">
        <ele>742.9</ele>
        <time>2016-09-25T06:48:21Z</time>
      </trkpt>
      <trkpt lat="44.10839" lon="3.21859">
        <ele>742</ele>
        <time>2016-09-25T06:48:22Z</time>
      </trkpt>
      <trkpt lat="44.10845" lon="3.21869">
        <ele>741</ele>
        <time>2016-09-25T06:48:23Z</time>
      </trkpt>
      <trkpt lat="44.10855" lon="3.21881">
        <ele>739.9</ele>
        <time>2016-09-25T06:48:25Z</time>
      </trkpt>
      <trkpt lat="44.10866" lon="3.21891">
        <ele>739.7</ele>
        <time>2016-09-25T06:48:27Z</time>
      </trkpt>
      <trkpt lat="44.10875" lon="3.219">
        <ele>739.7</ele>
        <time>2016-09-25T06:48:29Z</time>
      </trkpt>
      <trkpt lat="44.10884" lon="3.21907">
        <ele>740.2</ele>
        <time>2016-09-25T06:48:31Z</time>
      </trkpt>
      <trkpt lat="44.10891" lon="3.21912">
        <ele>740.8</ele>
        <time>2016-09-25T06:48:33Z</time>
      </trkpt>
      <trkpt lat="44.109" lon="3.2192">
        <ele>740.8</ele>
        <time>2016-09-25T06:48:36Z</time>
      </trkpt>
      <trkpt lat="44.10908" lon="3.21929">
        <ele>740.9</ele>
        <time>2016-09-25T06:48:39Z</time>
      </trkpt>
      <trkpt lat="44.10916" lon="3.21934">
        <ele>741</ele>
        <time>2016-09-25T06:48:43Z</time>
      </trkpt>
      <trkpt lat="44.10923" lon="3.2194">
        <ele>741.1</ele>
        <time>2016-09-25T06:48:46Z</time>
      </trkpt>
      <trkpt lat="44.10929" lon="3.21947">
        <ele>741.2</ele>
        <time>2016-09-25T06:48:49Z</time>
      </trkpt>
      <trkpt lat="44.10934" lon="3.21956">
        <ele>741.5</ele>
        <time>2016-09-25T06:48:53Z</time>
      </trkpt>
      <trkpt lat="44.1094" lon="3.21963">
        <ele>741.7</ele>
        <time>2016-09-25T06:48:58Z</time>
      </trkpt>
      <trkpt lat="44.10945" lon="3.21973">
        <ele>741.9</ele>
        <time>2016-09-25T06:49:02Z</time>
      </trkpt>
      <trkpt lat="44.10951" lon="3.21982">
        <ele>742</ele>
        <time>2016-09-25T06:49:06Z</time>
      </trkpt>
      <trkpt lat="44.10957" lon="3.2199">
        <ele>742.1</ele>
        <time>2016-09-25T06:49:10Z</time>
      </trkpt>
      <trkpt lat="44.10963" lon="3.21999">
        <ele>742.3</ele>
        <time>2016-09-25T06:49:14Z</time>
      </trkpt>
      <trkpt lat="44.10967" lon="3.22009">
        <ele>742.5</ele>
        <time>2016-09-25T06:49:18Z</time>
      </trkpt>
      <trkpt lat="44.10972" lon="3.22019">
        <ele>742.6</ele>
        <time>2016-09-25T06:49:21Z</time>
      </trkpt>
      <trkpt lat="44.10978" lon="3.22029">
        <ele>742.7</ele>
        <time>2016-09-25T06:49:24Z</time>
      </trkpt>
      <trkpt lat="44.10986" lon="3.22036">
        <ele>743</ele>
        <time>2016-09-25T06:49:27Z</time>
      </trkpt>
      <trkpt lat="44.10995" lon="3.22041">
        <ele>743.4</ele>
        <time>2016-09-25T06:49:30Z</time>
      </trkpt>
      <trkpt lat="44.11003" lon="3.22047">
        <ele>743.8</ele>
        <time>2016-09-25T06:49:33Z</time>
      </trkpt>
      <trkpt lat="44.11011" lon="3.22052">
        <ele>744.2</ele>
        <time>2016-09-25T06:49:36Z</time>
      </trkpt>
      <trkpt lat="44.11018" lon="3.22058">
        <ele>744.5</ele>
        <time>2016-09-25T06:49:39Z</time>
      </trkpt>
      <trkpt lat="44.11025" lon="3.22068">
        <ele>744.8</ele>
        <time>2016-09-25T06:49:42Z</time>
      </trkpt>
      <trkpt lat="44.1103" lon="3.2208">
        <ele>745.1</ele>
        <time>2016-09-25T06:49:45Z</time>
      </trkpt>
      <trkpt lat="44.11032" lon="3.22093">
        <ele>745.2</ele>
        <time>2016-09-25T06:49:48Z</time>
      </trkpt>
      <trkpt lat="44.11032" lon="3.22104">
        <ele>745.2</ele>
        <time>2016-09-25T06:49:51Z</time>
      </trkpt>
      <trkpt lat="44.11028" lon="3.22116">
        <ele>745.3</ele>
        <time>2016-09-25T06:49:54Z</time>
      </trkpt>
      <trkpt lat="44.11025" lon="3.22129">
        <ele>745.5</ele>
        <time>2016-09-25T06:49:58Z</time>
      </trkpt>
      <trkpt lat="44.11023" lon="3.22139">
        <ele>745.9</ele>
        <time>2016-09-25T06:50:02Z</time>
      </trkpt>
      <trkpt lat="44.11023" lon="3.2215">
        <ele>746.3</ele>
        <time>2016-09-25T06:50:06Z</time>
      </trkpt>
      <trkpt lat="44.11022" lon="3.2216">
        <ele>746.7</ele>
        <time>2016-09-25T06:50:10Z</time>
      </trkpt>
      <trkpt lat="44.1102" lon="3.22171">
        <ele>747.2</ele>
        <time>2016-09-25T06:50:14Z</time>
      </trkpt>
      <trkpt lat="44.11019" lon="3.22182">
        <ele>747.5</ele>
        <time>2016-09-25T06:50:18Z</time>
      </trkpt>
      <trkpt lat="44.11018" lon="3.22193">
        <ele>747.9</ele>
        <time>2016-09-25T06:50:22Z</time>
      </trkpt>
      <trkpt lat="44.11018" lon="3.22204">
        <ele>748.3</ele>
        <time>2016-09-25T06:50:26Z</time>
      </trkpt>
      <trkpt lat="44.11017" lon="3.22216">
        <ele>748.7</ele>
        <time>2016-09-25T06:50:31Z</time>
      </trkpt>
      <trkpt lat="44.11015" lon="3.22227">
        <ele>749.4</ele>
        <time>2016-09-25T06:50:36Z</time>
      </trkpt>
      <trkpt lat="44.11014" lon="3.22239">
        <ele>750.2</ele>
        <time>2016-09-25T06:50:41Z</time>
      </trkpt>
      <trkpt lat="44.11014" lon="3.22249">
        <ele>751</ele>
        <time>2016-09-25T06:50:45Z</time>
      </trkpt>
      <trkpt lat="44.11014" lon="3.2226">
        <ele>751.6</ele>
        <time>2016-09-25T06:50:49Z</time>
      </trkpt>
      <trkpt lat="44.11012" lon="3.22271">
        <ele>752.2</ele>
        <time>2016-09-25T06:50:54Z</time>
      </trkpt>
      <trkpt lat="44.1101" lon="3.22281">
        <ele>753</ele>
        <time>2016-09-25T06:50:58Z</time>
      </trkpt>
      <trkpt lat="44.11008" lon="3.22293">
        <ele>754</ele>
        <time>2016-09-25T06:51:03Z</time>
      </trkpt>
      <trkpt lat="44.11007" lon="3.22303">
        <ele>754.8</ele>
        <time>2016-09-25T06:51:07Z</time>
      </trkpt>
      <trkpt lat="44.11006" lon="3.22314">
        <ele>755.6</ele>
        <time>2016-09-25T06:51:12Z</time>
      </trkpt>
      <trkpt lat="44.11005" lon="3.22324">
        <ele>756.3</ele>
        <time>2016-09-25T06:51:16Z</time>
      </trkpt>
      <trkpt lat="44.11005" lon="3.22335">
        <ele>757.1</ele>
        <time>2016-09-25T06:51:20Z</time>
      </trkpt>
      <trkpt lat="44.11004" lon="3.22346">
        <ele>758.1</ele>
        <time>2016-09-25T06:51:25Z</time>
      </trkpt>
      <trkpt lat="44.11002" lon="3.22358">
        <ele>758.8</ele>
        <time>2016-09-25T06:51:29Z</time>
      </trkpt>
      <trkpt lat="44.10999" lon="3.22368">
        <ele>759.4</ele>
        <time>2016-09-25T06:51:33Z</time>
      </trkpt>
      <trkpt lat="44.10998" lon="3.2238">
        <ele>760.4</ele>
        <time>2016-09-25T06:51:38Z</time>
      </trkpt>
      <trkpt lat="44.10999" lon="3.22391">
        <ele>761.3</ele>
        <time>2016-09-25T06:51:42Z</time>
      </trkpt>
      <trkpt lat="44.10997" lon="3.22402">
        <ele>762</ele>
        <time>2016-09-25T06:51:46Z</time>
      </trkpt>
      <trkpt lat="44.10996" lon="3.22414">
        <ele>763</ele>
        <time>2016-09-25T06:51:51Z</time>
      </trkpt>
      <trkpt lat="44.10994" lon="3.22425">
        <ele>763.6</ele>
        <time>2016-09-25T06:51:55Z</time>
      </trkpt>
      <trkpt lat="44.10992" lon="3.22437">
        <ele>764.6</ele>
        <time>2016-09-25T06:52:00Z</time>
      </trkpt>
      <trkpt lat="44.10991" lon="3.22447">
        <ele>765.3</ele>
        <time>2016-09-25T06:52:04Z</time>
      </trkpt>
      <trkpt lat="44.10991" lon="3.22459">
        <ele>766.1</ele>
        <time>2016-09-25T06:52:09Z</time>
      </trkpt>
      <trkpt lat="44.1099" lon="3.22471">
        <ele>767</ele>
        <time>2016-09-25T06:52:14Z</time>
      </trkpt>
      <trkpt lat="44.10988" lon="3.22482">
        <ele>767.8</ele>
        <time>2016-09-25T06:52:18Z</time>
      </trkpt>
      <trkpt lat="44.10989" lon="3.22492">
        <ele>768.7</ele>
        <time>2016-09-25T06:52:23Z</time>
      </trkpt>
      <trkpt lat="44.10987" lon="3.22504">
        <ele>769.9</ele>
        <time>2016-09-25T06:52:28Z</time>
      </trkpt>
      <trkpt lat="44.10986" lon="3.22516">
        <ele>770.9</ele>
        <time>2016-09-25T06:52:33Z</time>
      </trkpt>
      <trkpt lat="44.10986" lon="3.22526">
        <ele>771.6</ele>
        <time>2016-09-25T06:52:38Z</time>
      </trkpt>
      <trkpt lat="44.10987" lon="3.22537">
        <ele>772.6</ele>
        <time>2016-09-25T06:52:43Z</time>
      </trkpt>
      <trkpt lat="44.10987" lon="3.22547">
        <ele>773.5</ele>
        <time>2016-09-25T06:52:48Z</time>
      </trkpt>
      <trkpt lat="44.10986" lon="3.22559">
        <ele>774.5</ele>
        <time>2016-09-25T06:52:53Z</time>
      </trkpt>
      <trkpt lat="44.10985" lon="3.2257">
        <ele>775.6</ele>
        <time>2016-09-25T06:52:58Z</time>
      </trkpt>
      <trkpt lat="44.10982" lon="3.22581">
        <ele>777</ele>
        <time>2016-09-25T06:53:04Z</time>
      </trkpt>
      <trkpt lat="44.10978" lon="3.22593">
        <ele>778</ele>
        <time>2016-09-25T06:53:08Z</time>
      </trkpt>
      <trkpt lat="44.10975" lon="3.22603">
        <ele>778.7</ele>
        <time>2016-09-25T06:53:12Z</time>
      </trkpt>
      <trkpt lat="44.10972" lon="3.22613">
        <ele>779.1</ele>
        <time>2016-09-25T06:53:16Z</time>
      </trkpt>
      <trkpt lat="44.10969" lon="3.22623">
        <ele>779.3</ele>
        <time>2016-09-25T06:53:19Z</time>
      </trkpt>
      <trkpt lat="44.10967" lon="3.22633">
        <ele>779.6</ele>
        <time>2016-09-25T06:53:22Z</time>
      </trkpt>
      <trkpt lat="44.10965" lon="3.22646">
        <ele>780</ele>
        <time>2016-09-25T06:53:26Z</time>
      </trkpt>
      <trkpt lat="44.10964" lon="3.22657">
        <ele>780.4</ele>
        <time>2016-09-25T06:53:30Z</time>
      </trkpt>
      <trkpt lat="44.10965" lon="3.22668">
        <ele>780.8</ele>
        <time>2016-09-25T06:53:34Z</time>
      </trkpt>
      <trkpt lat="44.10966" lon="3.22681">
        <ele>781.6</ele>
        <time>2016-09-25T06:53:39Z</time>
      </trkpt>
      <trkpt lat="44.10963" lon="3.22694">
        <ele>782.2</ele>
        <time>2016-09-25T06:53:43Z</time>
      </trkpt>
      <trkpt lat="44.10959" lon="3.22705">
        <ele>783.1</ele>
        <time>2016-09-25T06:53:48Z</time>
      </trkpt>
      <trkpt lat="44.10954" lon="3.22713">
        <ele>784</ele>
        <time>2016-09-25T06:53:52Z</time>
      </trkpt>
      <trkpt lat="44.10949" lon="3.22721">
        <ele>785.1</ele>
        <time>2016-09-25T06:53:56Z</time>
      </trkpt>
      <trkpt lat="44.10943" lon="3.22729">
        <ele>786.1</ele>
        <time>2016-09-25T06:54:00Z</time>
      </trkpt>
      <trkpt lat="44.10938" lon="3.22737">
        <ele>786.9</ele>
        <time>2016-09-25T06:54:04Z</time>
      </trkpt>
      <trkpt lat="44.10932" lon="3.22743">
        <ele>787.5</ele>
        <time>2016-09-25T06:54:07Z</time>
      </trkpt>
      <trkpt lat="44.10926" lon="3.2275">
        <ele>788.4</ele>
        <time>2016-09-25T06:54:11Z</time>
      </trkpt>
      <trkpt lat="44.10919" lon="3.22759">
        <ele>789.1</ele>
        <time>2016-09-25T06:54:15Z</time>
      </trkpt>
      <trkpt lat="44.10913" lon="3.22765">
        <ele>789.9</ele>
        <time>2016-09-25T06:54:19Z</time>
      </trkpt>
      <trkpt lat="44.10906" lon="3.22771">
        <ele>790.7</ele>
        <time>2016-09-25T06:54:23Z</time>
      </trkpt>
      <trkpt lat="44.10898" lon="3.22778">
        <ele>791.9</ele>
        <time>2016-09-25T06:54:28Z</time>
      </trkpt>
      <trkpt lat="44.10892" lon="3.22787">
        <ele>792.9</ele>
        <time>2016-09-25T06:54:32Z</time>
      </trkpt>
      <trkpt lat="44.10887" lon="3.22796">
        <ele>793.6</ele>
        <time>2016-09-25T06:54:35Z</time>
      </trkpt>
      <trkpt lat="44.10882" lon="3.22808">
        <ele>794.2</ele>
        <time>2016-09-25T06:54:38Z</time>
      </trkpt>
      <trkpt lat="44.10877" lon="3.22816">
        <ele>795.4</ele>
        <time>2016-09-25T06:54:40Z</time>
      </trkpt>
      <trkpt lat="44.10873" lon="3.22826">
        <ele>796.6</ele>
        <time>2016-09-25T06:54:42Z</time>
      </trkpt>
      <trkpt lat="44.10868" lon="3.22837">
        <ele>797.3</ele>
        <time>2016-09-25T06:54:44Z</time>
      </trkpt>
      <trkpt lat="44.10863" lon="3.22849">
        <ele>798.1</ele>
        <time>2016-09-25T06:54:46Z</time>
      </trkpt>
      <trkpt lat="44.10857" lon="3.2286">
        <ele>797.5</ele>
        <time>2016-09-25T06:54:48Z</time>
      </trkpt>
      <trkpt lat="44.10853" lon="3.22872">
        <ele>796.2</ele>
        <time>2016-09-25T06:54:50Z</time>
      </trkpt>
      <trkpt lat="44.10851" lon="3.22886">
        <ele>795.6</ele>
        <time>2016-09-25T06:54:52Z</time>
      </trkpt>
      <trkpt lat="44.10851" lon="3.22902">
        <ele>795.4</ele>
        <time>2016-09-25T06:54:54Z</time>
      </trkpt>
      <trkpt lat="44.10849" lon="3.22921">
        <ele>794.8</ele>
        <time>2016-09-25T06:54:56Z</time>
      </trkpt>
      <trkpt lat="44.1085" lon="3.22937">
        <ele>793.9</ele>
        <time>2016-09-25T06:54:58Z</time>
      </trkpt>
      <trkpt lat="44.10851" lon="3.22953">
        <ele>792.3</ele>
        <time>2016-09-25T06:55:00Z</time>
      </trkpt>
      <trkpt lat="44.10852" lon="3.2297">
        <ele>791.4</ele>
        <time>2016-09-25T06:55:02Z</time>
      </trkpt>
      <trkpt lat="44.10852" lon="3.22985">
        <ele>791.4</ele>
        <time>2016-09-25T06:55:04Z</time>
      </trkpt>
      <trkpt lat="44.10853" lon="3.22999">
        <ele>791.6</ele>
        <time>2016-09-25T06:55:06Z</time>
      </trkpt>
      <trkpt lat="44.10849" lon="3.23012">
        <ele>791.6</ele>
        <time>2016-09-25T06:55:08Z</time>
      </trkpt>
      <trkpt lat="44.10843" lon="3.23021">
        <ele>791.7</ele>
        <time>2016-09-25T06:55:10Z</time>
      </trkpt>
      <trkpt lat="44.1084" lon="3.23031">
        <ele>792.2</ele>
        <time>2016-09-25T06:55:12Z</time>
      </trkpt>
      <trkpt lat="44.10838" lon="3.23045">
        <ele>792.7</ele>
        <time>2016-09-25T06:55:15Z</time>
      </trkpt>
      <trkpt lat="44.10836" lon="3.23059">
        <ele>792.7</ele>
        <time>2016-09-25T06:55:18Z</time>
      </trkpt>
      <trkpt lat="44.10833" lon="3.23072">
        <ele>792.7</ele>
        <time>2016-09-25T06:55:21Z</time>
      </trkpt>
      <trkpt lat="44.1083" lon="3.23085">
        <ele>792.7</ele>
        <time>2016-09-25T06:55:24Z</time>
      </trkpt>
      <trkpt lat="44.10827" lon="3.23096">
        <ele>792.8</ele>
        <time>2016-09-25T06:55:27Z</time>
      </trkpt>
      <trkpt lat="44.10823" lon="3.23106">
        <ele>793</ele>
        <time>2016-09-25T06:55:30Z</time>
      </trkpt>
      <trkpt lat="44.1082" lon="3.23116">
        <ele>793.2</ele>
        <time>2016-09-25T06:55:33Z</time>
      </trkpt>
      <trkpt lat="44.10818" lon="3.23126">
        <ele>793.6</ele>
        <time>2016-09-25T06:55:36Z</time>
      </trkpt>
      <trkpt lat="44.10817" lon="3.23138">
        <ele>794.1</ele>
        <time>2016-09-25T06:55:40Z</time>
      </trkpt>
      <trkpt lat="44.10815" lon="3.2315">
        <ele>794.4</ele>
        <time>2016-09-25T06:55:44Z</time>
      </trkpt>
      <trkpt lat="44.10813" lon="3.23161">
        <ele>795</ele>
        <time>2016-09-25T06:55:48Z</time>
      </trkpt>
      <trkpt lat="44.10812" lon="3.23172">
        <ele>795.9</ele>
        <time>2016-09-25T06:55:53Z</time>
      </trkpt>
      <trkpt lat="44.10811" lon="3.23183">
        <ele>796.6</ele>
        <time>2016-09-25T06:55:58Z</time>
      </trkpt>
      <trkpt lat="44.10809" lon="3.23194">
        <ele>797.5</ele>
        <time>2016-09-25T06:56:04Z</time>
      </trkpt>
      <trkpt lat="44.10808" lon="3.23205">
        <ele>798.2</ele>
        <time>2016-09-25T06:56:08Z</time>
      </trkpt>
      <trkpt lat="44.10807" lon="3.23216">
        <ele>799.3</ele>
        <time>2016-09-25T06:56:14Z</time>
      </trkpt>
      <trkpt lat="44.10804" lon="3.23226">
        <ele>800.1</ele>
        <time>2016-09-25T06:56:19Z</time>
      </trkpt>
      <trkpt lat="44.10803" lon="3.23238">
        <ele>801.1</ele>
        <time>2016-09-25T06:56:24Z</time>
      </trkpt>
      <trkpt lat="44.10801" lon="3.23248">
        <ele>802.5</ele>
        <time>2016-09-25T06:56:30Z</time>
      </trkpt>
      <trkpt lat="44.10798" lon="3.2326">
        <ele>803.5</ele>
        <time>2016-09-25T06:56:35Z</time>
      </trkpt>
      <trkpt lat="44.10798" lon="3.23271">
        <ele>804.2</ele>
        <time>2016-09-25T06:56:41Z</time>
      </trkpt>
      <trkpt lat="44.10799" lon="3.23282">
        <ele>805.9</ele>
        <time>2016-09-25T06:56:48Z</time>
      </trkpt>
      <trkpt lat="44.10799" lon="3.23293">
        <ele>806.9</ele>
        <time>2016-09-25T06:56:53Z</time>
      </trkpt>
      <trkpt lat="44.10799" lon="3.23304">
        <ele>807.7</ele>
        <time>2016-09-25T06:56:58Z</time>
      </trkpt>
      <trkpt lat="44.108" lon="3.23316">
        <ele>808.3</ele>
        <time>2016-09-25T06:57:02Z</time>
      </trkpt>
      <trkpt lat="44.108" lon="3.23326">
        <ele>809</ele>
        <time>2016-09-25T06:57:06Z</time>
      </trkpt>
      <trkpt lat="44.108" lon="3.23338">
        <ele>809.8</ele>
        <time>2016-09-25T06:57:10Z</time>
      </trkpt>
      <trkpt lat="44.108" lon="3.23349">
        <ele>810.8</ele>
        <time>2016-09-25T06:57:15Z</time>
      </trkpt>
      <trkpt lat="44.10801" lon="3.23361">
        <ele>811.9</ele>
        <time>2016-09-25T06:57:20Z</time>
      </trkpt>
      <trkpt lat="44.10802" lon="3.23373">
        <ele>813.1</ele>
        <time>2016-09-25T06:57:26Z</time>
      </trkpt>
      <trkpt lat="44.10802" lon="3.23385">
        <ele>814.4</ele>
        <time>2016-09-25T06:57:31Z</time>
      </trkpt>
      <trkpt lat="44.10803" lon="3.23396">
        <ele>815.4</ele>
        <time>2016-09-25T06:57:35Z</time>
      </trkpt>
      <trkpt lat="44.10803" lon="3.23407">
        <ele>816.2</ele>
        <time>2016-09-25T06:57:39Z</time>
      </trkpt>
      <trkpt lat="44.10802" lon="3.23418">
        <ele>817</ele>
        <time>2016-09-25T06:57:44Z</time>
      </trkpt>
      <trkpt lat="44.10802" lon="3.2343">
        <ele>817.7</ele>
        <time>2016-09-25T06:57:50Z</time>
      </trkpt>
      <trkpt lat="44.10801" lon="3.2344">
        <ele>818.6</ele>
        <time>2016-09-25T06:57:55Z</time>
      </trkpt>
      <trkpt lat="44.10802" lon="3.23452">
        <ele>819.4</ele>
        <time>2016-09-25T06:57:59Z</time>
      </trkpt>
      <trkpt lat="44.10801" lon="3.23463">
        <ele>820.2</ele>
        <time>2016-09-25T06:58:04Z</time>
      </trkpt>
      <trkpt lat="44.10801" lon="3.23475">
        <ele>821.3</ele>
        <time>2016-09-25T06:58:11Z</time>
      </trkpt>
      <trkpt lat="44.10804" lon="3.23487">
        <ele>822.2</ele>
        <time>2016-09-25T06:58:16Z</time>
      </trkpt>
      <trkpt lat="44.1081" lon="3.23493">
        <ele>823</ele>
        <time>2016-09-25T06:58:21Z</time>
      </trkpt>
      <trkpt lat="44.10818" lon="3.23498">
        <ele>823.6</ele>
        <time>2016-09-25T06:58:26Z</time>
      </trkpt>
      <trkpt lat="44.10826" lon="3.23498">
        <ele>823.6</ele>
        <time>2016-09-25T06:58:29Z</time>
      </trkpt>
      <trkpt lat="44.10832" lon="3.23503">
        <ele>824.1</ele>
        <time>2016-09-25T06:58:31Z</time>
      </trkpt>
      <trkpt lat="44.10839" lon="3.23511">
        <ele>825.3</ele>
        <time>2016-09-25T06:58:33Z</time>
      </trkpt>
      <trkpt lat="44.10845" lon="3.23517">
        <ele>826</ele>
        <time>2016-09-25T06:58:35Z</time>
      </trkpt>
      <trkpt lat="44.10855" lon="3.2352">
        <ele>826.1</ele>
        <time>2016-09-25T06:58:38Z</time>
      </trkpt>
      <trkpt lat="44.10862" lon="3.23521">
        <ele>826.2</ele>
        <time>2016-09-25T06:58:40Z</time>
      </trkpt>
      <trkpt lat="44.1087" lon="3.23524">
        <ele>826.4</ele>
        <time>2016-09-25T06:58:42Z</time>
      </trkpt>
      <trkpt lat="44.10879" lon="3.23528">
        <ele>826.5</ele>
        <time>2016-09-25T06:58:45Z</time>
      </trkpt>
      <trkpt lat="44.10888" lon="3.23529">
        <ele>826.7</ele>
        <time>2016-09-25T06:58:48Z</time>
      </trkpt>
      <trkpt lat="44.109" lon="3.23526">
        <ele>827.3</ele>
        <time>2016-09-25T06:58:51Z</time>
      </trkpt>
      <trkpt lat="44.10908" lon="3.23521">
        <ele>827.7</ele>
        <time>2016-09-25T06:58:53Z</time>
      </trkpt>
      <trkpt lat="44.10917" lon="3.23517">
        <ele>827.7</ele>
        <time>2016-09-25T06:58:55Z</time>
      </trkpt>
      <trkpt lat="44.10925" lon="3.2352">
        <ele>827.7</ele>
        <time>2016-09-25T06:58:57Z</time>
      </trkpt>
      <trkpt lat="44.10929" lon="3.2353">
        <ele>827.6</ele>
        <time>2016-09-25T06:59:00Z</time>
      </trkpt>
      <trkpt lat="44.10931" lon="3.23545">
        <ele>827.4</ele>
        <time>2016-09-25T06:59:03Z</time>
      </trkpt>
      <trkpt lat="44.10933" lon="3.23555">
        <ele>826.7</ele>
        <time>2016-09-25T06:59:05Z</time>
      </trkpt>
      <trkpt lat="44.10936" lon="3.23567">
        <ele>825.5</ele>
        <time>2016-09-25T06:59:07Z</time>
      </trkpt>
      <trkpt lat="44.10938" lon="3.23577">
        <ele>825.4</ele>
        <time>2016-09-25T06:59:09Z</time>
      </trkpt>
      <trkpt lat="44.1094" lon="3.23587">
        <ele>824.8</ele>
        <time>2016-09-25T06:59:15Z</time>
      </trkpt>
      <trkpt lat="44.10943" lon="3.23598">
        <ele>824.4</ele>
        <time>2016-09-25T06:59:19Z</time>
      </trkpt>
      <trkpt lat="44.10946" lon="3.23613">
        <ele>823.2</ele>
        <time>2016-09-25T06:59:22Z</time>
      </trkpt>
      <trkpt lat="44.10948" lon="3.23624">
        <ele>822.1</ele>
        <time>2016-09-25T06:59:24Z</time>
      </trkpt>
      <trkpt lat="44.10951" lon="3.23635">
        <ele>821.3</ele>
        <time>2016-09-25T06:59:26Z</time>
      </trkpt>
      <trkpt lat="44.10953" lon="3.23647">
        <ele>820.5</ele>
        <time>2016-09-25T06:59:28Z</time>
      </trkpt>
      <trkpt lat="44.10956" lon="3.23662">
        <ele>820.1</ele>
        <time>2016-09-25T06:59:31Z</time>
      </trkpt>
      <trkpt lat="44.10959" lon="3.23675">
        <ele>819.9</ele>
        <time>2016-09-25T06:59:34Z</time>
      </trkpt>
      <trkpt lat="44.10961" lon="3.23685">
        <ele>819.8</ele>
        <time>2016-09-25T06:59:36Z</time>
      </trkpt>
      <trkpt lat="44.10963" lon="3.23695">
        <ele>819.7</ele>
        <time>2016-09-25T06:59:38Z</time>
      </trkpt>
      <trkpt lat="44.10964" lon="3.23707">
        <ele>819.6</ele>
        <time>2016-09-25T06:59:41Z</time>
      </trkpt>
      <trkpt lat="44.10962" lon="3.23717">
        <ele>819.4</ele>
        <time>2016-09-25T06:59:44Z</time>
      </trkpt>
      <trkpt lat="44.1096" lon="3.2373">
        <ele>819.4</ele>
        <time>2016-09-25T06:59:47Z</time>
      </trkpt>
      <trkpt lat="44.10956" lon="3.23743">
        <ele>819.3</ele>
        <time>2016-09-25T06:59:50Z</time>
      </trkpt>
      <trkpt lat="44.10953" lon="3.23754">
        <ele>819.3</ele>
        <time>2016-09-25T06:59:53Z</time>
      </trkpt>
      <trkpt lat="44.10951" lon="3.23765">
        <ele>819.3</ele>
        <time>2016-09-25T06:59:56Z</time>
      </trkpt>
      <trkpt lat="44.10948" lon="3.23776">
        <ele>819.4</ele>
        <time>2016-09-25T06:59:59Z</time>
      </trkpt>
      <trkpt lat="44.10946" lon="3.23787">
        <ele>819.5</ele>
        <time>2016-09-25T07:00:02Z</time>
      </trkpt>
      <trkpt lat="44.10943" lon="3.23798">
        <ele>819.7</ele>
        <time>2016-09-25T07:00:05Z</time>
      </trkpt>
      <trkpt lat="44.10942" lon="3.23809">
        <ele>819.9</ele>
        <time>2016-09-25T07:00:08Z</time>
      </trkpt>
      <trkpt lat="44.10941" lon="3.23819">
        <ele>820</ele>
        <time>2016-09-25T07:00:11Z</time>
      </trkpt>
      <trkpt lat="44.10939" lon="3.23832">
        <ele>820</ele>
        <time>2016-09-25T07:00:15Z</time>
      </trkpt>
      <trkpt lat="44.10938" lon="3.23842">
        <ele>820.2</ele>
        <time>2016-09-25T07:00:18Z</time>
      </trkpt>
      <trkpt lat="44.10936" lon="3.23855">
        <ele>820.4</ele>
        <time>2016-09-25T07:00:22Z</time>
      </trkpt>
      <trkpt lat="44.10935" lon="3.23865">
        <ele>820.7</ele>
        <time>2016-09-25T07:00:25Z</time>
      </trkpt>
      <trkpt lat="44.10934" lon="3.23875">
        <ele>821</ele>
        <time>2016-09-25T07:00:28Z</time>
      </trkpt>
      <trkpt lat="44.10933" lon="3.23887">
        <ele>821.4</ele>
        <time>2016-09-25T07:00:31Z</time>
      </trkpt>
      <trkpt lat="44.10931" lon="3.23896">
        <ele>821.8</ele>
        <time>2016-09-25T07:00:34Z</time>
      </trkpt>
      <trkpt lat="44.1093" lon="3.23908">
        <ele>822.2</ele>
        <time>2016-09-25T07:00:37Z</time>
      </trkpt>
      <trkpt lat="44.10928" lon="3.23918">
        <ele>822.7</ele>
        <time>2016-09-25T07:00:40Z</time>
      </trkpt>
      <trkpt lat="44.10926" lon="3.23928">
        <ele>823</ele>
        <time>2016-09-25T07:00:43Z</time>
      </trkpt>
      <trkpt lat="44.10922" lon="3.23938">
        <ele>823.4</ele>
        <time>2016-09-25T07:00:46Z</time>
      </trkpt>
      <trkpt lat="44.10918" lon="3.23947">
        <ele>823.9</ele>
        <time>2016-09-25T07:00:49Z</time>
      </trkpt>
      <trkpt lat="44.10915" lon="3.23959">
        <ele>824.4</ele>
        <time>2016-09-25T07:00:53Z</time>
      </trkpt>
      <trkpt lat="44.10911" lon="3.23971">
        <ele>824.9</ele>
        <time>2016-09-25T07:00:57Z</time>
      </trkpt>
      <trkpt lat="44.10908" lon="3.2398">
        <ele>825.3</ele>
        <time>2016-09-25T07:01:00Z</time>
      </trkpt>
      <trkpt lat="44.10904" lon="3.23991">
        <ele>825.6</ele>
        <time>2016-09-25T07:01:03Z</time>
      </trkpt>
      <trkpt lat="44.10901" lon="3.24004">
        <ele>825.9</ele>
        <time>2016-09-25T07:01:06Z</time>
      </trkpt>
      <trkpt lat="44.10902" lon="3.24017">
        <ele>826</ele>
        <time>2016-09-25T07:01:09Z</time>
      </trkpt>
      <trkpt lat="44.10907" lon="3.2403">
        <ele>826.1</ele>
        <time>2016-09-25T07:01:12Z</time>
      </trkpt>
      <trkpt lat="44.10911" lon="3.2404">
        <ele>826.1</ele>
        <time>2016-09-25T07:01:14Z</time>
      </trkpt>
      <trkpt lat="44.10914" lon="3.24049">
        <ele>826.4</ele>
        <time>2016-09-25T07:01:16Z</time>
      </trkpt>
      <trkpt lat="44.10919" lon="3.24064">
        <ele>825.7</ele>
        <time>2016-09-25T07:01:19Z</time>
      </trkpt>
      <trkpt lat="44.10921" lon="3.24076">
        <ele>824.9</ele>
        <time>2016-09-25T07:01:21Z</time>
      </trkpt>
      <trkpt lat="44.10923" lon="3.24086">
        <ele>824.6</ele>
        <time>2016-09-25T07:01:23Z</time>
      </trkpt>
      <trkpt lat="44.10927" lon="3.24096">
        <ele>824.6</ele>
        <time>2016-09-25T07:01:25Z</time>
      </trkpt>
      <trkpt lat="44.10927" lon="3.24106">
        <ele>824.7</ele>
        <time>2016-09-25T07:01:27Z</time>
      </trkpt>
      <trkpt lat="44.10923" lon="3.24121">
        <ele>824.7</ele>
        <time>2016-09-25T07:01:30Z</time>
      </trkpt>
      <trkpt lat="44.10921" lon="3.24132">
        <ele>825.2</ele>
        <time>2016-09-25T07:01:32Z</time>
      </trkpt>
      <trkpt lat="44.10918" lon="3.24146">
        <ele>825.7</ele>
        <time>2016-09-25T07:01:34Z</time>
      </trkpt>
      <trkpt lat="44.10911" lon="3.24158">
        <ele>825.4</ele>
        <time>2016-09-25T07:01:36Z</time>
      </trkpt>
      <trkpt lat="44.10907" lon="3.24173">
        <ele>824.4</ele>
        <time>2016-09-25T07:01:38Z</time>
      </trkpt>
      <trkpt lat="44.10905" lon="3.24192">
        <ele>823.6</ele>
        <time>2016-09-25T07:01:40Z</time>
      </trkpt>
      <trkpt lat="44.10906" lon="3.24206">
        <ele>822.3</ele>
        <time>2016-09-25T07:01:42Z</time>
      </trkpt>
      <trkpt lat="44.10907" lon="3.24222">
        <ele>821.3</ele>
        <time>2016-09-25T07:01:44Z</time>
      </trkpt>
      <trkpt lat="44.1091" lon="3.24235">
        <ele>820.4</ele>
        <time>2016-09-25T07:01:46Z</time>
      </trkpt>
      <trkpt lat="44.10908" lon="3.24246">
        <ele>820.7</ele>
        <time>2016-09-25T07:01:48Z</time>
      </trkpt>
      <trkpt lat="44.10904" lon="3.24258">
        <ele>820.9</ele>
        <time>2016-09-25T07:01:50Z</time>
      </trkpt>
      <trkpt lat="44.10901" lon="3.24268">
        <ele>820.9</ele>
        <time>2016-09-25T07:01:54Z</time>
      </trkpt>
      <trkpt lat="44.10902" lon="3.24271">
        <ele>820.9</ele>
        <time>2016-09-25T07:02:01Z</time>
      </trkpt>
      <trkpt lat="44.10906" lon="3.24282">
        <ele>818.8</ele>
        <time>2016-09-25T07:05:56Z</time>
      </trkpt>
      <trkpt lat="44.10913" lon="3.24287">
        <ele>818.8</ele>
        <time>2016-09-25T07:06:00Z</time>
      </trkpt>
      <trkpt lat="44.10921" lon="3.24286">
        <ele>818.8</ele>
        <time>2016-09-25T07:06:04Z</time>
      </trkpt>
      <trkpt lat="44.10929" lon="3.24287">
        <ele>819.1</ele>
        <time>2016-09-25T07:06:08Z</time>
      </trkpt>
      <trkpt lat="44.10937" lon="3.2429">
        <ele>819.4</ele>
        <time>2016-09-25T07:06:13Z</time>
      </trkpt>
      <trkpt lat="44.10945" lon="3.24297">
        <ele>819.5</ele>
        <time>2016-09-25T07:06:18Z</time>
      </trkpt>
      <trkpt lat="44.10953" lon="3.24302">
        <ele>819.6</ele>
        <time>2016-09-25T07:06:22Z</time>
      </trkpt>
      <trkpt lat="44.1096" lon="3.24308">
        <ele>819.9</ele>
        <time>2016-09-25T07:06:26Z</time>
      </trkpt>
      <trkpt lat="44.10968" lon="3.24312">
        <ele>820.2</ele>
        <time>2016-09-25T07:06:30Z</time>
      </trkpt>
      <trkpt lat="44.10976" lon="3.24312">
        <ele>820.4</ele>
        <time>2016-09-25T07:06:34Z</time>
      </trkpt>
      <trkpt lat="44.10983" lon="3.24307">
        <ele>820.6</ele>
        <time>2016-09-25T07:06:39Z</time>
      </trkpt>
      <trkpt lat="44.1099" lon="3.24301">
        <ele>821.1</ele>
        <time>2016-09-25T07:06:44Z</time>
      </trkpt>
      <trkpt lat="44.10997" lon="3.24294">
        <ele>821.6</ele>
        <time>2016-09-25T07:06:50Z</time>
      </trkpt>
      <trkpt lat="44.11003" lon="3.24291">
        <ele>822.1</ele>
        <time>2016-09-25T07:06:55Z</time>
      </trkpt>
      <trkpt lat="44.11012" lon="3.24287">
        <ele>822.5</ele>
        <time>2016-09-25T07:07:00Z</time>
      </trkpt>
      <trkpt lat="44.11019" lon="3.24284">
        <ele>822.6</ele>
        <time>2016-09-25T07:07:05Z</time>
      </trkpt>
      <trkpt lat="44.11026" lon="3.24283">
        <ele>822.6</ele>
        <time>2016-09-25T07:07:09Z</time>
      </trkpt>
      <trkpt lat="44.11034" lon="3.2428">
        <ele>822.9</ele>
        <time>2016-09-25T07:07:14Z</time>
      </trkpt>
      <trkpt lat="44.11043" lon="3.24277">
        <ele>823.2</ele>
        <time>2016-09-25T07:07:18Z</time>
      </trkpt>
      <trkpt lat="44.1105" lon="3.24274">
        <ele>823.8</ele>
        <time>2016-09-25T07:07:22Z</time>
      </trkpt>
      <trkpt lat="44.11057" lon="3.2427">
        <ele>824.3</ele>
        <time>2016-09-25T07:07:27Z</time>
      </trkpt>
      <trkpt lat="44.11065" lon="3.24266">
        <ele>824.7</ele>
        <time>2016-09-25T07:07:31Z</time>
      </trkpt>
      <trkpt lat="44.11072" lon="3.24262">
        <ele>824.8</ele>
        <time>2016-09-25T07:07:34Z</time>
      </trkpt>
      <trkpt lat="44.1108" lon="3.24259">
        <ele>824.9</ele>
        <time>2016-09-25T07:07:39Z</time>
      </trkpt>
      <trkpt lat="44.11089" lon="3.2426">
        <ele>825</ele>
        <time>2016-09-25T07:07:44Z</time>
      </trkpt>
      <trkpt lat="44.11097" lon="3.24262">
        <ele>825</ele>
        <time>2016-09-25T07:07:48Z</time>
      </trkpt>
      <trkpt lat="44.11106" lon="3.24265">
        <ele>824.7</ele>
        <time>2016-09-25T07:07:54Z</time>
      </trkpt>
      <trkpt lat="44.11112" lon="3.24267">
        <ele>824</ele>
        <time>2016-09-25T07:08:01Z</time>
      </trkpt>
      <trkpt lat="44.11117" lon="3.2427">
        <ele>824.4</ele>
        <time>2016-09-25T07:08:30Z</time>
      </trkpt>
      <trkpt lat="44.11124" lon="3.24274">
        <ele>824.4</ele>
        <time>2016-09-25T07:08:34Z</time>
      </trkpt>
      <trkpt lat="44.11132" lon="3.24278">
        <ele>824.3</ele>
        <time>2016-09-25T07:08:38Z</time>
      </trkpt>
      <trkpt lat="44.1114" lon="3.2428">
        <ele>824.3</ele>
        <time>2016-09-25T07:08:42Z</time>
      </trkpt>
      <trkpt lat="44.11147" lon="3.24282">
        <ele>824.2</ele>
        <time>2016-09-25T07:08:45Z</time>
      </trkpt>
      <trkpt lat="44.11155" lon="3.24289">
        <ele>823.8</ele>
        <time>2016-09-25T07:08:48Z</time>
      </trkpt>
      <trkpt lat="44.11162" lon="3.24286">
        <ele>823.5</ele>
        <time>2016-09-25T07:08:51Z</time>
      </trkpt>
      <trkpt lat="44.11171" lon="3.24292">
        <ele>822.2</ele>
        <time>2016-09-25T07:08:54Z</time>
      </trkpt>
      <trkpt lat="44.11178" lon="3.24298">
        <ele>821.7</ele>
        <time>2016-09-25T07:08:57Z</time>
      </trkpt>
      <trkpt lat="44.11186" lon="3.24307">
        <ele>821.2</ele>
        <time>2016-09-25T07:09:00Z</time>
      </trkpt>
      <trkpt lat="44.11193" lon="3.24316">
        <ele>818.3</ele>
        <time>2016-09-25T07:09:02Z</time>
      </trkpt>
      <trkpt lat="44.11195" lon="3.24326">
        <ele>815.8</ele>
        <time>2016-09-25T07:09:04Z</time>
      </trkpt>
      <trkpt lat="44.11204" lon="3.24329">
        <ele>815</ele>
        <time>2016-09-25T07:09:07Z</time>
      </trkpt>
      <trkpt lat="44.11216" lon="3.24321">
        <ele>810.9</ele>
        <time>2016-09-25T07:09:10Z</time>
      </trkpt>
      <trkpt lat="44.11223" lon="3.24312">
        <ele>806.1</ele>
        <time>2016-09-25T07:09:12Z</time>
      </trkpt>
      <trkpt lat="44.11229" lon="3.24303">
        <ele>802.4</ele>
        <time>2016-09-25T07:09:14Z</time>
      </trkpt>
      <trkpt lat="44.11238" lon="3.24297">
        <ele>800.1</ele>
        <time>2016-09-25T07:09:16Z</time>
      </trkpt>
      <trkpt lat="44.11245" lon="3.24284">
        <ele>798.3</ele>
        <time>2016-09-25T07:09:18Z</time>
      </trkpt>
      <trkpt lat="44.11253" lon="3.24273">
        <ele>796.7</ele>
        <time>2016-09-25T07:09:20Z</time>
      </trkpt>
      <trkpt lat="44.1126" lon="3.24266">
        <ele>796.4</ele>
        <time>2016-09-25T07:09:22Z</time>
      </trkpt>
      <trkpt lat="44.11268" lon="3.24257">
        <ele>796.3</ele>
        <time>2016-09-25T07:09:24Z</time>
      </trkpt>
      <trkpt lat="44.11276" lon="3.24248">
        <ele>796.2</ele>
        <time>2016-09-25T07:09:27Z</time>
      </trkpt>
      <trkpt lat="44.11286" lon="3.24243">
        <ele>796</ele>
        <time>2016-09-25T07:09:30Z</time>
      </trkpt>
      <trkpt lat="44.11293" lon="3.2424">
        <ele>795.2</ele>
        <time>2016-09-25T07:09:32Z</time>
      </trkpt>
      <trkpt lat="44.113" lon="3.24232">
        <ele>794.5</ele>
        <time>2016-09-25T07:09:34Z</time>
      </trkpt>
      <trkpt lat="44.11306" lon="3.24225">
        <ele>794.4</ele>
        <time>2016-09-25T07:09:36Z</time>
      </trkpt>
      <trkpt lat="44.11313" lon="3.24221">
        <ele>794.1</ele>
        <time>2016-09-25T07:09:39Z</time>
      </trkpt>
      <trkpt lat="44.11316" lon="3.24229">
        <ele>792.7</ele>
        <time>2016-09-25T07:09:46Z</time>
      </trkpt>
      <trkpt lat="44.11324" lon="3.24224">
        <ele>789.7</ele>
        <time>2016-09-25T07:09:49Z</time>
      </trkpt>
      <trkpt lat="44.11332" lon="3.24216">
        <ele>785.7</ele>
        <time>2016-09-25T07:09:51Z</time>
      </trkpt>
      <trkpt lat="44.1134" lon="3.24209">
        <ele>783.5</ele>
        <time>2016-09-25T07:09:53Z</time>
      </trkpt>
      <trkpt lat="44.11343" lon="3.24217">
        <ele>777.8</ele>
        <time>2016-09-25T07:10:00Z</time>
      </trkpt>
      <trkpt lat="44.1134" lon="3.24227">
        <ele>774.8</ele>
        <time>2016-09-25T07:10:02Z</time>
      </trkpt>
      <trkpt lat="44.11338" lon="3.24237">
        <ele>774.3</ele>
        <time>2016-09-25T07:10:05Z</time>
      </trkpt>
      <trkpt lat="44.11347" lon="3.24236">
        <ele>770.3</ele>
        <time>2016-09-25T07:10:11Z</time>
      </trkpt>
      <trkpt lat="44.11352" lon="3.24228">
        <ele>766.9</ele>
        <time>2016-09-25T07:10:13Z</time>
      </trkpt>
      <trkpt lat="44.11361" lon="3.24218">
        <ele>765.5</ele>
        <time>2016-09-25T07:10:16Z</time>
      </trkpt>
      <trkpt lat="44.11362" lon="3.24227">
        <ele>763.4</ele>
        <time>2016-09-25T07:10:23Z</time>
      </trkpt>
      <trkpt lat="44.11359" lon="3.24239">
        <ele>763.1</ele>
        <time>2016-09-25T07:10:25Z</time>
      </trkpt>
      <trkpt lat="44.11355" lon="3.24248">
        <ele>762.8</ele>
        <time>2016-09-25T07:10:27Z</time>
      </trkpt>
      <trkpt lat="44.11361" lon="3.24249">
        <ele>761.2</ele>
        <time>2016-09-25T07:10:34Z</time>
      </trkpt>
      <trkpt lat="44.11368" lon="3.24241">
        <ele>760.5</ele>
        <time>2016-09-25T07:10:37Z</time>
      </trkpt>
      <trkpt lat="44.11375" lon="3.2423">
        <ele>755.8</ele>
        <time>2016-09-25T07:10:39Z</time>
      </trkpt>
      <trkpt lat="44.1138" lon="3.2422">
        <ele>752.2</ele>
        <time>2016-09-25T07:10:41Z</time>
      </trkpt>
      <trkpt lat="44.11384" lon="3.24211">
        <ele>751.9</ele>
        <time>2016-09-25T07:10:43Z</time>
      </trkpt>
      <trkpt lat="44.11385" lon="3.24224">
        <ele>748.8</ele>
        <time>2016-09-25T07:10:49Z</time>
      </trkpt>
      <trkpt lat="44.11382" lon="3.24234">
        <ele>746.5</ele>
        <time>2016-09-25T07:10:51Z</time>
      </trkpt>
      <trkpt lat="44.11379" lon="3.24249">
        <ele>744.6</ele>
        <time>2016-09-25T07:10:53Z</time>
      </trkpt>
      <trkpt lat="44.11376" lon="3.2426">
        <ele>744.3</ele>
        <time>2016-09-25T07:10:56Z</time>
      </trkpt>
      <trkpt lat="44.11374" lon="3.24271">
        <ele>743.8</ele>
        <time>2016-09-25T07:10:59Z</time>
      </trkpt>
      <trkpt lat="44.11382" lon="3.24262">
        <ele>741.6</ele>
        <time>2016-09-25T07:11:05Z</time>
      </trkpt>
      <trkpt lat="44.11388" lon="3.24249">
        <ele>738.5</ele>
        <time>2016-09-25T07:11:08Z</time>
      </trkpt>
      <trkpt lat="44.11396" lon="3.2424">
        <ele>737.6</ele>
        <time>2016-09-25T07:11:10Z</time>
      </trkpt>
      <trkpt lat="44.11403" lon="3.24229">
        <ele>735.6</ele>
        <time>2016-09-25T07:11:12Z</time>
      </trkpt>
      <trkpt lat="44.11408" lon="3.24235">
        <ele>733.1</ele>
        <time>2016-09-25T07:11:19Z</time>
      </trkpt>
      <trkpt lat="44.11405" lon="3.24247">
        <ele>732.7</ele>
        <time>2016-09-25T07:11:22Z</time>
      </trkpt>
      <trkpt lat="44.11412" lon="3.24239">
        <ele>731.5</ele>
        <time>2016-09-25T07:11:29Z</time>
      </trkpt>
      <trkpt lat="44.11418" lon="3.24233">
        <ele>729.4</ele>
        <time>2016-09-25T07:11:31Z</time>
      </trkpt>
      <trkpt lat="44.11424" lon="3.24227">
        <ele>728.8</ele>
        <time>2016-09-25T07:11:35Z</time>
      </trkpt>
      <trkpt lat="44.11422" lon="3.24241">
        <ele>725.2</ele>
        <time>2016-09-25T07:11:39Z</time>
      </trkpt>
      <trkpt lat="44.1142" lon="3.24251">
        <ele>722.7</ele>
        <time>2016-09-25T07:11:41Z</time>
      </trkpt>
      <trkpt lat="44.11416" lon="3.24265">
        <ele>718.7</ele>
        <time>2016-09-25T07:11:43Z</time>
      </trkpt>
      <trkpt lat="44.11415" lon="3.24279">
        <ele>715.5</ele>
        <time>2016-09-25T07:11:45Z</time>
      </trkpt>
      <trkpt lat="44.11415" lon="3.24294">
        <ele>711.8</ele>
        <time>2016-09-25T07:11:47Z</time>
      </trkpt>
      <trkpt lat="44.11417" lon="3.24303">
        <ele>711.4</ele>
        <time>2016-09-25T07:11:49Z</time>
      </trkpt>
      <trkpt lat="44.11418" lon="3.24314">
        <ele>710.7</ele>
        <time>2016-09-25T07:11:52Z</time>
      </trkpt>
      <trkpt lat="44.11418" lon="3.24326">
        <ele>709.7</ele>
        <time>2016-09-25T07:11:56Z</time>
      </trkpt>
      <trkpt lat="44.11422" lon="3.24314">
        <ele>708.4</ele>
        <time>2016-09-25T07:12:03Z</time>
      </trkpt>
      <trkpt lat="44.11425" lon="3.24304">
        <ele>708.1</ele>
        <time>2016-09-25T07:12:05Z</time>
      </trkpt>
      <trkpt lat="44.11428" lon="3.24297">
        <ele>706.5</ele>
        <time>2016-09-25T07:12:12Z</time>
      </trkpt>
      <trkpt lat="44.11436" lon="3.24299">
        <ele>697.7</ele>
        <time>2016-09-25T07:12:54Z</time>
      </trkpt>
      <trkpt lat="44.11434" lon="3.24284">
        <ele>697.4</ele>
        <time>2016-09-25T07:13:12Z</time>
      </trkpt>
      <trkpt lat="44.11441" lon="3.24274">
        <ele>696</ele>
        <time>2016-09-25T07:13:14Z</time>
      </trkpt>
      <trkpt lat="44.11448" lon="3.24266">
        <ele>695.7</ele>
        <time>2016-09-25T07:13:18Z</time>
      </trkpt>
      <trkpt lat="44.11446" lon="3.24278">
        <ele>693.5</ele>
        <time>2016-09-25T07:13:23Z</time>
      </trkpt>
      <trkpt lat="44.11454" lon="3.24281">
        <ele>691.4</ele>
        <time>2016-09-25T07:13:28Z</time>
      </trkpt>
      <trkpt lat="44.11462" lon="3.24277">
        <ele>691</ele>
        <time>2016-09-25T07:13:30Z</time>
      </trkpt>
      <trkpt lat="44.11467" lon="3.24275">
        <ele>689.5</ele>
        <time>2016-09-25T07:13:37Z</time>
      </trkpt>
      <trkpt lat="44.11464" lon="3.24286">
        <ele>688.4</ele>
        <time>2016-09-25T07:13:42Z</time>
      </trkpt>
      <trkpt lat="44.11476" lon="3.24286">
        <ele>684.6</ele>
        <time>2016-09-25T07:13:49Z</time>
      </trkpt>
      <trkpt lat="44.11487" lon="3.24283">
        <ele>680.3</ele>
        <time>2016-09-25T07:13:51Z</time>
      </trkpt>
      <trkpt lat="44.11497" lon="3.24278">
        <ele>677</ele>
        <time>2016-09-25T07:13:53Z</time>
      </trkpt>
      <trkpt lat="44.11507" lon="3.24276">
        <ele>675.4</ele>
        <time>2016-09-25T07:13:55Z</time>
      </trkpt>
      <trkpt lat="44.11518" lon="3.24275">
        <ele>672.3</ele>
        <time>2016-09-25T07:13:57Z</time>
      </trkpt>
      <trkpt lat="44.11526" lon="3.24274">
        <ele>672</ele>
        <time>2016-09-25T07:13:59Z</time>
      </trkpt>
      <trkpt lat="44.11536" lon="3.24271">
        <ele>671.2</ele>
        <time>2016-09-25T07:14:02Z</time>
      </trkpt>
      <trkpt lat="44.11543" lon="3.24274">
        <ele>670.6</ele>
        <time>2016-09-25T07:14:04Z</time>
      </trkpt>
      <trkpt lat="44.11541" lon="3.2426">
        <ele>666.6</ele>
        <time>2016-09-25T07:14:08Z</time>
      </trkpt>
      <trkpt lat="44.11545" lon="3.24252">
        <ele>665.6</ele>
        <time>2016-09-25T07:14:12Z</time>
      </trkpt>
      <trkpt lat="44.11551" lon="3.24258">
        <ele>659.9</ele>
        <time>2016-09-25T07:14:14Z</time>
      </trkpt>
      <trkpt lat="44.1156" lon="3.24261">
        <ele>657.1</ele>
        <time>2016-09-25T07:14:16Z</time>
      </trkpt>
      <trkpt lat="44.11568" lon="3.24265">
        <ele>652.9</ele>
        <time>2016-09-25T07:14:18Z</time>
      </trkpt>
      <trkpt lat="44.11575" lon="3.24274">
        <ele>649.5</ele>
        <time>2016-09-25T07:14:20Z</time>
      </trkpt>
      <trkpt lat="44.11585" lon="3.24284">
        <ele>646.3</ele>
        <time>2016-09-25T07:14:22Z</time>
      </trkpt>
      <trkpt lat="44.11596" lon="3.24291">
        <ele>644.2</ele>
        <time>2016-09-25T07:14:24Z</time>
      </trkpt>
      <trkpt lat="44.11602" lon="3.24303">
        <ele>642.8</ele>
        <time>2016-09-25T07:14:27Z</time>
      </trkpt>
      <trkpt lat="44.11613" lon="3.24305">
        <ele>641.6</ele>
        <time>2016-09-25T07:14:30Z</time>
      </trkpt>
      <trkpt lat="44.11623" lon="3.24305">
        <ele>640</ele>
        <time>2016-09-25T07:14:32Z</time>
      </trkpt>
      <trkpt lat="44.11629" lon="3.24313">
        <ele>639.7</ele>
        <time>2016-09-25T07:14:35Z</time>
      </trkpt>
      <trkpt lat="44.11638" lon="3.24313">
        <ele>639.3</ele>
        <time>2016-09-25T07:14:38Z</time>
      </trkpt>
      <trkpt lat="44.1164" lon="3.24303">
        <ele>638.6</ele>
        <time>2016-09-25T07:14:42Z</time>
      </trkpt>
      <trkpt lat="44.1165" lon="3.24306">
        <ele>638</ele>
        <time>2016-09-25T07:14:45Z</time>
      </trkpt>
      <trkpt lat="44.11651" lon="3.24322">
        <ele>634.4</ele>
        <time>2016-09-25T07:14:49Z</time>
      </trkpt>
      <trkpt lat="44.11646" lon="3.2433">
        <ele>633.6</ele>
        <time>2016-09-25T07:14:52Z</time>
      </trkpt>
      <trkpt lat="44.11654" lon="3.2433">
        <ele>627.5</ele>
        <time>2016-09-25T07:14:56Z</time>
      </trkpt>
      <trkpt lat="44.11664" lon="3.24327">
        <ele>623.8</ele>
        <time>2016-09-25T07:14:58Z</time>
      </trkpt>
      <trkpt lat="44.1167" lon="3.24317">
        <ele>623.1</ele>
        <time>2016-09-25T07:15:02Z</time>
      </trkpt>
      <trkpt lat="44.11669" lon="3.24305">
        <ele>622.4</ele>
        <time>2016-09-25T07:15:05Z</time>
      </trkpt>
      <trkpt lat="44.11664" lon="3.24295">
        <ele>621.8</ele>
        <time>2016-09-25T07:15:08Z</time>
      </trkpt>
      <trkpt lat="44.11673" lon="3.24296">
        <ele>620.4</ele>
        <time>2016-09-25T07:15:13Z</time>
      </trkpt>
      <trkpt lat="44.11679" lon="3.24306">
        <ele>614.8</ele>
        <time>2016-09-25T07:15:15Z</time>
      </trkpt>
      <trkpt lat="44.11688" lon="3.24316">
        <ele>610</ele>
        <time>2016-09-25T07:15:17Z</time>
      </trkpt>
      <trkpt lat="44.11693" lon="3.24325">
        <ele>607.2</ele>
        <time>2016-09-25T07:15:19Z</time>
      </trkpt>
      <trkpt lat="44.11695" lon="3.24315">
        <ele>603.7</ele>
        <time>2016-09-25T07:15:25Z</time>
      </trkpt>
      <trkpt lat="44.11692" lon="3.24306">
        <ele>603.5</ele>
        <time>2016-09-25T07:15:27Z</time>
      </trkpt>
      <trkpt lat="44.11688" lon="3.24295">
        <ele>602.1</ele>
        <time>2016-09-25T07:15:29Z</time>
      </trkpt>
      <trkpt lat="44.11683" lon="3.24285">
        <ele>601.9</ele>
        <time>2016-09-25T07:15:31Z</time>
      </trkpt>
      <trkpt lat="44.11695" lon="3.24287">
        <ele>597.1</ele>
        <time>2016-09-25T07:15:37Z</time>
      </trkpt>
      <trkpt lat="44.11703" lon="3.24296">
        <ele>593.9</ele>
        <time>2016-09-25T07:15:39Z</time>
      </trkpt>
      <trkpt lat="44.11709" lon="3.24302">
        <ele>592.8</ele>
        <time>2016-09-25T07:15:40Z</time>
      </trkpt>
      <trkpt lat="44.11719" lon="3.24309">
        <ele>589.6</ele>
        <time>2016-09-25T07:15:42Z</time>
      </trkpt>
      <trkpt lat="44.11728" lon="3.24319">
        <ele>585.9</ele>
        <time>2016-09-25T07:15:44Z</time>
      </trkpt>
      <trkpt lat="44.11736" lon="3.24328">
        <ele>584.3</ele>
        <time>2016-09-25T07:15:46Z</time>
      </trkpt>
      <trkpt lat="44.11742" lon="3.24336">
        <ele>583</ele>
        <time>2016-09-25T07:15:48Z</time>
      </trkpt>
      <trkpt lat="44.11747" lon="3.24346">
        <ele>580.3</ele>
        <time>2016-09-25T07:15:50Z</time>
      </trkpt>
      <trkpt lat="44.11746" lon="3.24358">
        <ele>578</ele>
        <time>2016-09-25T07:15:52Z</time>
      </trkpt>
      <trkpt lat="44.1174" lon="3.24367">
        <ele>576.6</ele>
        <time>2016-09-25T07:15:54Z</time>
      </trkpt>
      <trkpt lat="44.11749" lon="3.24369">
        <ele>575.4</ele>
        <time>2016-09-25T07:15:59Z</time>
      </trkpt>
      <trkpt lat="44.1176" lon="3.24364">
        <ele>574.7</ele>
        <time>2016-09-25T07:16:01Z</time>
      </trkpt>
      <trkpt lat="44.11769" lon="3.24353">
        <ele>572.7</ele>
        <time>2016-09-25T07:16:03Z</time>
      </trkpt>
      <trkpt lat="44.11768" lon="3.24366">
        <ele>568.3</ele>
        <time>2016-09-25T07:16:09Z</time>
      </trkpt>
      <trkpt lat="44.11763" lon="3.24379">
        <ele>566.1</ele>
        <time>2016-09-25T07:16:11Z</time>
      </trkpt>
      <trkpt lat="44.11757" lon="3.2439">
        <ele>565.9</ele>
        <time>2016-09-25T07:16:14Z</time>
      </trkpt>
      <trkpt lat="44.11765" lon="3.24391">
        <ele>564</ele>
        <time>2016-09-25T07:16:18Z</time>
      </trkpt>
      <trkpt lat="44.11774" lon="3.24386">
        <ele>561.4</ele>
        <time>2016-09-25T07:16:20Z</time>
      </trkpt>
      <trkpt lat="44.1178" lon="3.24381">
        <ele>560.2</ele>
        <time>2016-09-25T07:16:21Z</time>
      </trkpt>
      <trkpt lat="44.11792" lon="3.24371">
        <ele>558.3</ele>
        <time>2016-09-25T07:16:23Z</time>
      </trkpt>
      <trkpt lat="44.11797" lon="3.24363">
        <ele>557.3</ele>
        <time>2016-09-25T07:16:24Z</time>
      </trkpt>
      <trkpt lat="44.11802" lon="3.24356">
        <ele>556.4</ele>
        <time>2016-09-25T07:16:25Z</time>
      </trkpt>
      <trkpt lat="44.11811" lon="3.24348">
        <ele>554</ele>
        <time>2016-09-25T07:16:27Z</time>
      </trkpt>
      <trkpt lat="44.1182" lon="3.24346">
        <ele>552.5</ele>
        <time>2016-09-25T07:16:29Z</time>
      </trkpt>
      <trkpt lat="44.11828" lon="3.24348">
        <ele>551.8</ele>
        <time>2016-09-25T07:16:32Z</time>
      </trkpt>
      <trkpt lat="44.11835" lon="3.24345">
        <ele>551</ele>
        <time>2016-09-25T07:16:35Z</time>
      </trkpt>
      <trkpt lat="44.11843" lon="3.24341">
        <ele>550.1</ele>
        <time>2016-09-25T07:16:38Z</time>
      </trkpt>
      <trkpt lat="44.1185" lon="3.24339">
        <ele>549.4</ele>
        <time>2016-09-25T07:16:40Z</time>
      </trkpt>
      <trkpt lat="44.11859" lon="3.24344">
        <ele>548.3</ele>
        <time>2016-09-25T07:16:43Z</time>
      </trkpt>
      <trkpt lat="44.11864" lon="3.24355">
        <ele>543.3</ele>
        <time>2016-09-25T07:16:46Z</time>
      </trkpt>
      <trkpt lat="44.11863" lon="3.24367">
        <ele>542.4</ele>
        <time>2016-09-25T07:16:49Z</time>
      </trkpt>
      <trkpt lat="44.11862" lon="3.24374">
        <ele>540.1</ele>
        <time>2016-09-25T07:16:56Z</time>
      </trkpt>
      <trkpt lat="44.11864" lon="3.24372">
        <ele>537.6</ele>
        <time>2016-09-25T07:17:03Z</time>
      </trkpt>
      <trkpt lat="44.11865" lon="3.24378">
        <ele>535.1</ele>
        <time>2016-09-25T07:17:10Z</time>
      </trkpt>
      <trkpt lat="44.11867" lon="3.24386">
        <ele>532.8</ele>
        <time>2016-09-25T07:17:17Z</time>
      </trkpt>
      <trkpt lat="44.11867" lon="3.24395">
        <ele>527.8</ele>
        <time>2016-09-25T07:17:40Z</time>
      </trkpt>
      <trkpt lat="44.11867" lon="3.24402">
        <ele>525.7</ele>
        <time>2016-09-25T07:17:47Z</time>
      </trkpt>
      <trkpt lat="44.1187" lon="3.24399">
        <ele>521</ele>
        <time>2016-09-25T07:18:07Z</time>
      </trkpt>
      <trkpt lat="44.11876" lon="3.24392">
        <ele>520.6</ele>
        <time>2016-09-25T07:18:09Z</time>
      </trkpt>
      <trkpt lat="44.1188" lon="3.24402">
        <ele>519.3</ele>
        <time>2016-09-25T07:18:14Z</time>
      </trkpt>
      <trkpt lat="44.11881" lon="3.24414">
        <ele>513.8</ele>
        <time>2016-09-25T07:18:16Z</time>
      </trkpt>
      <trkpt lat="44.11888" lon="3.24417">
        <ele>512.2</ele>
        <time>2016-09-25T07:18:21Z</time>
      </trkpt>
      <trkpt lat="44.11888" lon="3.24428">
        <ele>505.5</ele>
        <time>2016-09-25T07:18:27Z</time>
      </trkpt>
      <trkpt lat="44.11883" lon="3.24437">
        <ele>500.9</ele>
        <time>2016-09-25T07:18:29Z</time>
      </trkpt>
      <trkpt lat="44.11878" lon="3.24449">
        <ele>497.8</ele>
        <time>2016-09-25T07:18:31Z</time>
      </trkpt>
      <trkpt lat="44.11876" lon="3.2446">
        <ele>496.4</ele>
        <time>2016-09-25T07:18:33Z</time>
      </trkpt>
      <trkpt lat="44.11885" lon="3.24457">
        <ele>489.7</ele>
        <time>2016-09-25T07:18:39Z</time>
      </trkpt>
      <trkpt lat="44.11891" lon="3.24449">
        <ele>486</ele>
        <time>2016-09-25T07:18:41Z</time>
      </trkpt>
      <trkpt lat="44.11895" lon="3.2444">
        <ele>483.7</ele>
        <time>2016-09-25T07:18:43Z</time>
      </trkpt>
      <trkpt lat="44.11901" lon="3.24426">
        <ele>481.3</ele>
        <time>2016-09-25T07:18:45Z</time>
      </trkpt>
      <trkpt lat="44.11906" lon="3.24418">
        <ele>481</ele>
        <time>2016-09-25T07:18:47Z</time>
      </trkpt>
      <trkpt lat="44.11909" lon="3.24434">
        <ele>478.7</ele>
        <time>2016-09-25T07:18:52Z</time>
      </trkpt>
      <trkpt lat="44.11911" lon="3.24446">
        <ele>475.3</ele>
        <time>2016-09-25T07:18:54Z</time>
      </trkpt>
      <trkpt lat="44.11912" lon="3.24463">
        <ele>473.3</ele>
        <time>2016-09-25T07:18:56Z</time>
      </trkpt>
      <trkpt lat="44.11908" lon="3.24474">
        <ele>472.1</ele>
        <time>2016-09-25T07:18:58Z</time>
      </trkpt>
      <trkpt lat="44.11916" lon="3.2448">
        <ele>471.6</ele>
        <time>2016-09-25T07:19:02Z</time>
      </trkpt>
      <trkpt lat="44.11915" lon="3.24482">
        <ele>471.1</ele>
        <time>2016-09-25T07:19:09Z</time>
      </trkpt>
      <trkpt lat="44.11921" lon="3.24488">
        <ele>466.8</ele>
        <time>2016-09-25T07:22:08Z</time>
      </trkpt>
      <trkpt lat="44.11929" lon="3.24492">
        <ele>464.4</ele>
        <time>2016-09-25T07:22:10Z</time>
      </trkpt>
      <trkpt lat="44.11937" lon="3.24495">
        <ele>464.3</ele>
        <time>2016-09-25T07:22:12Z</time>
      </trkpt>
      <trkpt lat="44.11945" lon="3.24498">
        <ele>464.2</ele>
        <time>2016-09-25T07:22:15Z</time>
      </trkpt>
      <trkpt lat="44.11952" lon="3.24504">
        <ele>464.2</ele>
        <time>2016-09-25T07:22:18Z</time>
      </trkpt>
      <trkpt lat="44.11953" lon="3.24516">
        <ele>464.3</ele>
        <time>2016-09-25T07:22:22Z</time>
      </trkpt>
      <trkpt lat="44.11951" lon="3.24526">
        <ele>464.5</ele>
        <time>2016-09-25T07:22:25Z</time>
      </trkpt>
      <trkpt lat="44.11952" lon="3.24538">
        <ele>464.6</ele>
        <time>2016-09-25T07:22:29Z</time>
      </trkpt>
      <trkpt lat="44.11958" lon="3.24546">
        <ele>464.8</ele>
        <time>2016-09-25T07:22:33Z</time>
      </trkpt>
      <trkpt lat="44.11956" lon="3.24557">
        <ele>465.2</ele>
        <time>2016-09-25T07:22:39Z</time>
      </trkpt>
      <trkpt lat="44.1195" lon="3.24564">
        <ele>465.1</ele>
        <time>2016-09-25T07:22:42Z</time>
      </trkpt>
      <trkpt lat="44.11944" lon="3.24571">
        <ele>465</ele>
        <time>2016-09-25T07:22:45Z</time>
      </trkpt>
      <trkpt lat="44.11938" lon="3.24577">
        <ele>465</ele>
        <time>2016-09-25T07:22:48Z</time>
      </trkpt>
      <trkpt lat="44.11931" lon="3.24581">
        <ele>465.1</ele>
        <time>2016-09-25T07:22:51Z</time>
      </trkpt>
      <trkpt lat="44.11923" lon="3.24586">
        <ele>465.2</ele>
        <time>2016-09-25T07:22:55Z</time>
      </trkpt>
      <trkpt lat="44.11913" lon="3.24589">
        <ele>465.3</ele>
        <time>2016-09-25T07:22:59Z</time>
      </trkpt>
      <trkpt lat="44.11905" lon="3.24592">
        <ele>465.3</ele>
        <time>2016-09-25T07:23:03Z</time>
      </trkpt>
      <trkpt lat="44.11896" lon="3.24595">
        <ele>465.2</ele>
        <time>2016-09-25T07:23:07Z</time>
      </trkpt>
      <trkpt lat="44.11888" lon="3.24599">
        <ele>465.2</ele>
        <time>2016-09-25T07:23:12Z</time>
      </trkpt>
      <trkpt lat="44.1188" lon="3.24602">
        <ele>465.4</ele>
        <time>2016-09-25T07:23:17Z</time>
      </trkpt>
      <trkpt lat="44.11872" lon="3.24604">
        <ele>465.7</ele>
        <time>2016-09-25T07:23:22Z</time>
      </trkpt>
      <trkpt lat="44.11863" lon="3.24606">
        <ele>465.6</ele>
        <time>2016-09-25T07:23:27Z</time>
      </trkpt>
      <trkpt lat="44.11856" lon="3.24608">
        <ele>465.6</ele>
        <time>2016-09-25T07:23:32Z</time>
      </trkpt>
      <trkpt lat="44.11848" lon="3.24611">
        <ele>465.4</ele>
        <time>2016-09-25T07:23:38Z</time>
      </trkpt>
      <trkpt lat="44.11842" lon="3.24616">
        <ele>465.9</ele>
        <time>2016-09-25T07:23:44Z</time>
      </trkpt>
      <trkpt lat="44.11836" lon="3.24619">
        <ele>466.5</ele>
        <time>2016-09-25T07:23:51Z</time>
      </trkpt>
      <trkpt lat="44.11825" lon="3.24619">
        <ele>467.1</ele>
        <time>2016-09-25T07:23:56Z</time>
      </trkpt>
      <trkpt lat="44.11819" lon="3.24624">
        <ele>467.5</ele>
        <time>2016-09-25T07:24:00Z</time>
      </trkpt>
      <trkpt lat="44.11811" lon="3.24627">
        <ele>467.9</ele>
        <time>2016-09-25T07:24:04Z</time>
      </trkpt>
      <trkpt lat="44.11804" lon="3.24627">
        <ele>468.5</ele>
        <time>2016-09-25T07:24:09Z</time>
      </trkpt>
      <trkpt lat="44.11796" lon="3.24627">
        <ele>469</ele>
        <time>2016-09-25T07:24:14Z</time>
      </trkpt>
      <trkpt lat="44.11789" lon="3.24632">
        <ele>469.8</ele>
        <time>2016-09-25T07:24:19Z</time>
      </trkpt>
      <trkpt lat="44.11782" lon="3.24637">
        <ele>470.7</ele>
        <time>2016-09-25T07:24:24Z</time>
      </trkpt>
      <trkpt lat="44.11775" lon="3.24643">
        <ele>471.5</ele>
        <time>2016-09-25T07:24:29Z</time>
      </trkpt>
      <trkpt lat="44.11768" lon="3.24649">
        <ele>472.3</ele>
        <time>2016-09-25T07:24:34Z</time>
      </trkpt>
      <trkpt lat="44.11762" lon="3.24654">
        <ele>473.4</ele>
        <time>2016-09-25T07:24:40Z</time>
      </trkpt>
      <trkpt lat="44.11755" lon="3.24658">
        <ele>474.3</ele>
        <time>2016-09-25T07:24:44Z</time>
      </trkpt>
      <trkpt lat="44.11749" lon="3.24666">
        <ele>475</ele>
        <time>2016-09-25T07:24:48Z</time>
      </trkpt>
      <trkpt lat="44.11742" lon="3.24674">
        <ele>475.6</ele>
        <time>2016-09-25T07:24:53Z</time>
      </trkpt>
      <trkpt lat="44.11738" lon="3.24684">
        <ele>476.3</ele>
        <time>2016-09-25T07:24:59Z</time>
      </trkpt>
      <trkpt lat="44.11733" lon="3.24694">
        <ele>476.7</ele>
        <time>2016-09-25T07:25:05Z</time>
      </trkpt>
      <trkpt lat="44.11728" lon="3.24702">
        <ele>477</ele>
        <time>2016-09-25T07:25:10Z</time>
      </trkpt>
      <trkpt lat="44.11723" lon="3.2471">
        <ele>478</ele>
        <time>2016-09-25T07:25:16Z</time>
      </trkpt>
      <trkpt lat="44.11718" lon="3.2472">
        <ele>479</ele>
        <time>2016-09-25T07:25:21Z</time>
      </trkpt>
      <trkpt lat="44.11711" lon="3.24727">
        <ele>479.8</ele>
        <time>2016-09-25T07:25:26Z</time>
      </trkpt>
      <trkpt lat="44.11707" lon="3.24735">
        <ele>480.9</ele>
        <time>2016-09-25T07:25:33Z</time>
      </trkpt>
      <trkpt lat="44.11715" lon="3.24734">
        <ele>482</ele>
        <time>2016-09-25T07:25:39Z</time>
      </trkpt>
      <trkpt lat="44.11722" lon="3.2473">
        <ele>483.2</ele>
        <time>2016-09-25T07:25:45Z</time>
      </trkpt>
      <trkpt lat="44.11728" lon="3.24723">
        <ele>484.3</ele>
        <time>2016-09-25T07:25:50Z</time>
      </trkpt>
      <trkpt lat="44.11733" lon="3.24716">
        <ele>485.5</ele>
        <time>2016-09-25T07:25:56Z</time>
      </trkpt>
      <trkpt lat="44.11739" lon="3.24709">
        <ele>486.5</ele>
        <time>2016-09-25T07:26:01Z</time>
      </trkpt>
      <trkpt lat="44.11746" lon="3.24704">
        <ele>487.5</ele>
        <time>2016-09-25T07:26:07Z</time>
      </trkpt>
      <trkpt lat="44.11754" lon="3.24698">
        <ele>488.3</ele>
        <time>2016-09-25T07:26:12Z</time>
      </trkpt>
      <trkpt lat="44.11761" lon="3.24693">
        <ele>489.5</ele>
        <time>2016-09-25T07:26:18Z</time>
      </trkpt>
      <trkpt lat="44.11769" lon="3.24692">
        <ele>490.7</ele>
        <time>2016-09-25T07:26:23Z</time>
      </trkpt>
      <trkpt lat="44.11777" lon="3.24688">
        <ele>491.8</ele>
        <time>2016-09-25T07:26:29Z</time>
      </trkpt>
      <trkpt lat="44.11785" lon="3.24685">
        <ele>492.4</ele>
        <time>2016-09-25T07:26:34Z</time>
      </trkpt>
      <trkpt lat="44.11792" lon="3.24681">
        <ele>492.9</ele>
        <time>2016-09-25T07:26:39Z</time>
      </trkpt>
      <trkpt lat="44.11799" lon="3.24681">
        <ele>493.5</ele>
        <time>2016-09-25T07:26:44Z</time>
      </trkpt>
      <trkpt lat="44.11799" lon="3.24685">
        <ele>494.3</ele>
        <time>2016-09-25T07:26:51Z</time>
      </trkpt>
      <trkpt lat="44.11792" lon="3.24691">
        <ele>495.1</ele>
        <time>2016-09-25T07:26:57Z</time>
      </trkpt>
      <trkpt lat="44.11784" lon="3.24697">
        <ele>495.9</ele>
        <time>2016-09-25T07:27:02Z</time>
      </trkpt>
      <trkpt lat="44.11778" lon="3.24705">
        <ele>497.1</ele>
        <time>2016-09-25T07:27:09Z</time>
      </trkpt>
      <trkpt lat="44.11771" lon="3.24712">
        <ele>498.8</ele>
        <time>2016-09-25T07:27:16Z</time>
      </trkpt>
      <trkpt lat="44.11766" lon="3.24721">
        <ele>500.1</ele>
        <time>2016-09-25T07:27:22Z</time>
      </trkpt>
      <trkpt lat="44.1176" lon="3.24728">
        <ele>500.7</ele>
        <time>2016-09-25T07:27:26Z</time>
      </trkpt>
      <trkpt lat="44.11755" lon="3.24736">
        <ele>501.5</ele>
        <time>2016-09-25T07:27:32Z</time>
      </trkpt>
      <trkpt lat="44.11749" lon="3.24745">
        <ele>502.5</ele>
        <time>2016-09-25T07:27:38Z</time>
      </trkpt>
      <trkpt lat="44.11744" lon="3.24753">
        <ele>503</ele>
        <time>2016-09-25T07:27:43Z</time>
      </trkpt>
      <trkpt lat="44.1174" lon="3.24762">
        <ele>503.8</ele>
        <time>2016-09-25T07:27:50Z</time>
      </trkpt>
      <trkpt lat="44.11735" lon="3.24771">
        <ele>504.3</ele>
        <time>2016-09-25T07:27:56Z</time>
      </trkpt>
      <trkpt lat="44.11729" lon="3.24779">
        <ele>505.1</ele>
        <time>2016-09-25T07:28:02Z</time>
      </trkpt>
      <trkpt lat="44.11721" lon="3.24778">
        <ele>506.1</ele>
        <time>2016-09-25T07:28:07Z</time>
      </trkpt>
      <trkpt lat="44.11723" lon="3.24785">
        <ele>506.9</ele>
        <time>2016-09-25T07:28:14Z</time>
      </trkpt>
      <trkpt lat="44.1173" lon="3.24784">
        <ele>507.6</ele>
        <time>2016-09-25T07:28:20Z</time>
      </trkpt>
      <trkpt lat="44.11737" lon="3.24777">
        <ele>508.2</ele>
        <time>2016-09-25T07:28:25Z</time>
      </trkpt>
      <trkpt lat="44.11744" lon="3.24772">
        <ele>509.2</ele>
        <time>2016-09-25T07:28:29Z</time>
      </trkpt>
      <trkpt lat="44.11751" lon="3.24766">
        <ele>510.4</ele>
        <time>2016-09-25T07:28:34Z</time>
      </trkpt>
      <trkpt lat="44.11758" lon="3.24761">
        <ele>511.3</ele>
        <time>2016-09-25T07:28:38Z</time>
      </trkpt>
      <trkpt lat="44.11766" lon="3.24757">
        <ele>512.4</ele>
        <time>2016-09-25T07:28:44Z</time>
      </trkpt>
      <trkpt lat="44.11774" lon="3.24753">
        <ele>514</ele>
        <time>2016-09-25T07:28:50Z</time>
      </trkpt>
      <trkpt lat="44.11782" lon="3.24749">
        <ele>515</ele>
        <time>2016-09-25T07:28:55Z</time>
      </trkpt>
      <trkpt lat="44.11789" lon="3.24746">
        <ele>516.1</ele>
        <time>2016-09-25T07:29:00Z</time>
      </trkpt>
      <trkpt lat="44.11796" lon="3.24741">
        <ele>517.1</ele>
        <time>2016-09-25T07:29:05Z</time>
      </trkpt>
      <trkpt lat="44.11804" lon="3.24738">
        <ele>517.5</ele>
        <time>2016-09-25T07:29:09Z</time>
      </trkpt>
      <trkpt lat="44.11811" lon="3.24735">
        <ele>518</ele>
        <time>2016-09-25T07:29:16Z</time>
      </trkpt>
      <trkpt lat="44.11804" lon="3.24744">
        <ele>518.7</ele>
        <time>2016-09-25T07:29:22Z</time>
      </trkpt>
      <trkpt lat="44.11798" lon="3.2475">
        <ele>519.4</ele>
        <time>2016-09-25T07:29:27Z</time>
      </trkpt>
      <trkpt lat="44.11791" lon="3.24756">
        <ele>520.2</ele>
        <time>2016-09-25T07:29:32Z</time>
      </trkpt>
      <trkpt lat="44.11784" lon="3.24763">
        <ele>521.2</ele>
        <time>2016-09-25T07:29:37Z</time>
      </trkpt>
      <trkpt lat="44.11778" lon="3.2477">
        <ele>521.9</ele>
        <time>2016-09-25T07:29:42Z</time>
      </trkpt>
      <trkpt lat="44.11772" lon="3.24778">
        <ele>523</ele>
        <time>2016-09-25T07:29:48Z</time>
      </trkpt>
      <trkpt lat="44.11766" lon="3.24786">
        <ele>523.8</ele>
        <time>2016-09-25T07:29:53Z</time>
      </trkpt>
      <trkpt lat="44.11761" lon="3.24793">
        <ele>524.8</ele>
        <time>2016-09-25T07:29:58Z</time>
      </trkpt>
      <trkpt lat="44.11754" lon="3.24799">
        <ele>525.9</ele>
        <time>2016-09-25T07:30:04Z</time>
      </trkpt>
      <trkpt lat="44.11749" lon="3.24805">
        <ele>526.7</ele>
        <time>2016-09-25T07:30:08Z</time>
      </trkpt>
      <trkpt lat="44.11741" lon="3.24811">
        <ele>527</ele>
        <time>2016-09-25T07:30:13Z</time>
      </trkpt>
      <trkpt lat="44.11734" lon="3.24815">
        <ele>527.4</ele>
        <time>2016-09-25T07:30:19Z</time>
      </trkpt>
      <trkpt lat="44.11727" lon="3.24818">
        <ele>527.6</ele>
        <time>2016-09-25T07:30:23Z</time>
      </trkpt>
      <trkpt lat="44.11719" lon="3.24815">
        <ele>528.1</ele>
        <time>2016-09-25T07:30:28Z</time>
      </trkpt>
      <trkpt lat="44.11711" lon="3.24813">
        <ele>528.8</ele>
        <time>2016-09-25T07:30:35Z</time>
      </trkpt>
      <trkpt lat="44.11705" lon="3.24818">
        <ele>529.2</ele>
        <time>2016-09-25T07:30:40Z</time>
      </trkpt>
      <trkpt lat="44.11699" lon="3.24824">
        <ele>529.7</ele>
        <time>2016-09-25T07:30:44Z</time>
      </trkpt>
      <trkpt lat="44.11693" lon="3.24829">
        <ele>530.7</ele>
        <time>2016-09-25T07:30:49Z</time>
      </trkpt>
      <trkpt lat="44.11687" lon="3.24835">
        <ele>531.7</ele>
        <time>2016-09-25T07:30:54Z</time>
      </trkpt>
      <trkpt lat="44.11681" lon="3.24842">
        <ele>532.8</ele>
        <time>2016-09-25T07:30:59Z</time>
      </trkpt>
      <trkpt lat="44.11674" lon="3.24848">
        <ele>533.6</ele>
        <time>2016-09-25T07:31:03Z</time>
      </trkpt>
      <trkpt lat="44.11678" lon="3.24854">
        <ele>534.8</ele>
        <time>2016-09-25T07:31:10Z</time>
      </trkpt>
      <trkpt lat="44.11685" lon="3.24852">
        <ele>535.8</ele>
        <time>2016-09-25T07:31:15Z</time>
      </trkpt>
      <trkpt lat="44.11693" lon="3.24848">
        <ele>536.7</ele>
        <time>2016-09-25T07:31:19Z</time>
      </trkpt>
      <trkpt lat="44.117" lon="3.24845">
        <ele>537.6</ele>
        <time>2016-09-25T07:31:24Z</time>
      </trkpt>
      <trkpt lat="44.11709" lon="3.24845">
        <ele>538.3</ele>
        <time>2016-09-25T07:31:30Z</time>
      </trkpt>
      <trkpt lat="44.11717" lon="3.24845">
        <ele>539.1</ele>
        <time>2016-09-25T07:31:36Z</time>
      </trkpt>
      <trkpt lat="44.11726" lon="3.24842">
        <ele>540</ele>
        <time>2016-09-25T07:31:42Z</time>
      </trkpt>
      <trkpt lat="44.11733" lon="3.24841">
        <ele>540.1</ele>
        <time>2016-09-25T07:31:46Z</time>
      </trkpt>
      <trkpt lat="44.11741" lon="3.24838">
        <ele>540.8</ele>
        <time>2016-09-25T07:31:52Z</time>
      </trkpt>
      <trkpt lat="44.11748" lon="3.24834">
        <ele>541.7</ele>
        <time>2016-09-25T07:31:57Z</time>
      </trkpt>
      <trkpt lat="44.11756" lon="3.24832">
        <ele>543</ele>
        <time>2016-09-25T07:32:04Z</time>
      </trkpt>
      <trkpt lat="44.11763" lon="3.2483">
        <ele>543.7</ele>
        <time>2016-09-25T07:32:08Z</time>
      </trkpt>
      <trkpt lat="44.11771" lon="3.24827">
        <ele>544.3</ele>
        <time>2016-09-25T07:32:12Z</time>
      </trkpt>
      <trkpt lat="44.1178" lon="3.24824">
        <ele>545.4</ele>
        <time>2016-09-25T07:32:18Z</time>
      </trkpt>
      <trkpt lat="44.11787" lon="3.24822">
        <ele>546.7</ele>
        <time>2016-09-25T07:32:24Z</time>
      </trkpt>
      <trkpt lat="44.11796" lon="3.2482">
        <ele>547.7</ele>
        <time>2016-09-25T07:32:29Z</time>
      </trkpt>
      <trkpt lat="44.11804" lon="3.24815">
        <ele>549.1</ele>
        <time>2016-09-25T07:32:35Z</time>
      </trkpt>
      <trkpt lat="44.11811" lon="3.24811">
        <ele>550.2</ele>
        <time>2016-09-25T07:32:40Z</time>
      </trkpt>
      <trkpt lat="44.11818" lon="3.24808">
        <ele>550.8</ele>
        <time>2016-09-25T07:32:44Z</time>
      </trkpt>
      <trkpt lat="44.11825" lon="3.24806">
        <ele>551.4</ele>
        <time>2016-09-25T07:32:48Z</time>
      </trkpt>
      <trkpt lat="44.11833" lon="3.24803">
        <ele>552.2</ele>
        <time>2016-09-25T07:32:53Z</time>
      </trkpt>
      <trkpt lat="44.11842" lon="3.248">
        <ele>553</ele>
        <time>2016-09-25T07:32:58Z</time>
      </trkpt>
      <trkpt lat="44.11851" lon="3.24797">
        <ele>553.9</ele>
        <time>2016-09-25T07:33:04Z</time>
      </trkpt>
      <trkpt lat="44.11859" lon="3.24796">
        <ele>554.9</ele>
        <time>2016-09-25T07:33:11Z</time>
      </trkpt>
      <trkpt lat="44.11866" lon="3.24794">
        <ele>556</ele>
        <time>2016-09-25T07:33:17Z</time>
      </trkpt>
      <trkpt lat="44.11875" lon="3.24792">
        <ele>556.9</ele>
        <time>2016-09-25T07:33:22Z</time>
      </trkpt>
      <trkpt lat="44.11882" lon="3.24788">
        <ele>557.7</ele>
        <time>2016-09-25T07:33:27Z</time>
      </trkpt>
      <trkpt lat="44.11889" lon="3.24786">
        <ele>558.6</ele>
        <time>2016-09-25T07:33:33Z</time>
      </trkpt>
      <trkpt lat="44.11896" lon="3.24786">
        <ele>559.1</ele>
        <time>2016-09-25T07:33:37Z</time>
      </trkpt>
      <trkpt lat="44.11905" lon="3.24786">
        <ele>559.3</ele>
        <time>2016-09-25T07:33:42Z</time>
      </trkpt>
      <trkpt lat="44.11913" lon="3.24788">
        <ele>559.7</ele>
        <time>2016-09-25T07:33:48Z</time>
      </trkpt>
      <trkpt lat="44.1192" lon="3.24792">
        <ele>560.4</ele>
        <time>2016-09-25T07:33:53Z</time>
      </trkpt>
      <trkpt lat="44.11927" lon="3.24797">
        <ele>561.2</ele>
        <time>2016-09-25T07:33:59Z</time>
      </trkpt>
      <trkpt lat="44.11934" lon="3.24802">
        <ele>561.9</ele>
        <time>2016-09-25T07:34:04Z</time>
      </trkpt>
      <trkpt lat="44.11939" lon="3.24811">
        <ele>562.4</ele>
        <time>2016-09-25T07:34:10Z</time>
      </trkpt>
      <trkpt lat="44.11943" lon="3.24821">
        <ele>562.7</ele>
        <time>2016-09-25T07:34:16Z</time>
      </trkpt>
      <trkpt lat="44.11946" lon="3.2483">
        <ele>562.9</ele>
        <time>2016-09-25T07:34:20Z</time>
      </trkpt>
      <trkpt lat="44.11947" lon="3.24841">
        <ele>563.3</ele>
        <time>2016-09-25T07:34:24Z</time>
      </trkpt>
      <trkpt lat="44.11949" lon="3.24854">
        <ele>563.8</ele>
        <time>2016-09-25T07:34:29Z</time>
      </trkpt>
      <trkpt lat="44.1195" lon="3.24864">
        <ele>564.5</ele>
        <time>2016-09-25T07:34:34Z</time>
      </trkpt>
      <trkpt lat="44.11952" lon="3.24875">
        <ele>565.1</ele>
        <time>2016-09-25T07:34:40Z</time>
      </trkpt>
      <trkpt lat="44.11956" lon="3.24885">
        <ele>565.7</ele>
        <time>2016-09-25T07:34:45Z</time>
      </trkpt>
      <trkpt lat="44.11963" lon="3.24888">
        <ele>566.4</ele>
        <time>2016-09-25T07:34:49Z</time>
      </trkpt>
      <trkpt lat="44.1197" lon="3.24882">
        <ele>567.4</ele>
        <time>2016-09-25T07:34:54Z</time>
      </trkpt>
      <trkpt lat="44.11976" lon="3.24875">
        <ele>568.1</ele>
        <time>2016-09-25T07:34:57Z</time>
      </trkpt>
      <trkpt lat="44.11982" lon="3.24868">
        <ele>569</ele>
        <time>2016-09-25T07:35:01Z</time>
      </trkpt>
      <trkpt lat="44.11989" lon="3.24864">
        <ele>569.8</ele>
        <time>2016-09-25T07:35:05Z</time>
      </trkpt>
      <trkpt lat="44.11996" lon="3.24861">
        <ele>570.7</ele>
        <time>2016-09-25T07:35:09Z</time>
      </trkpt>
      <trkpt lat="44.12005" lon="3.24858">
        <ele>571.6</ele>
        <time>2016-09-25T07:35:13Z</time>
      </trkpt>
      <trkpt lat="44.12014" lon="3.24857">
        <ele>572.3</ele>
        <time>2016-09-25T07:35:17Z</time>
      </trkpt>
      <trkpt lat="44.12025" lon="3.24856">
        <ele>572.4</ele>
        <time>2016-09-25T07:35:21Z</time>
      </trkpt>
      <trkpt lat="44.12033" lon="3.24857">
        <ele>572.5</ele>
        <time>2016-09-25T07:35:24Z</time>
      </trkpt>
      <trkpt lat="44.12043" lon="3.24859">
        <ele>572.8</ele>
        <time>2016-09-25T07:35:28Z</time>
      </trkpt>
      <trkpt lat="44.12051" lon="3.24862">
        <ele>573</ele>
        <time>2016-09-25T07:35:30Z</time>
      </trkpt>
      <trkpt lat="44.12059" lon="3.24862">
        <ele>573.2</ele>
        <time>2016-09-25T07:35:33Z</time>
      </trkpt>
      <trkpt lat="44.12067" lon="3.24864">
        <ele>573.3</ele>
        <time>2016-09-25T07:35:36Z</time>
      </trkpt>
      <trkpt lat="44.12075" lon="3.24866">
        <ele>573.6</ele>
        <time>2016-09-25T07:35:39Z</time>
      </trkpt>
      <trkpt lat="44.12083" lon="3.24867">
        <ele>573.8</ele>
        <time>2016-09-25T07:35:43Z</time>
      </trkpt>
      <trkpt lat="44.1209" lon="3.24865">
        <ele>574.1</ele>
        <time>2016-09-25T07:35:47Z</time>
      </trkpt>
      <trkpt lat="44.12097" lon="3.24862">
        <ele>574.6</ele>
        <time>2016-09-25T07:35:52Z</time>
      </trkpt>
      <trkpt lat="44.12105" lon="3.24856">
        <ele>575.3</ele>
        <time>2016-09-25T07:35:56Z</time>
      </trkpt>
      <trkpt lat="44.1211" lon="3.24847">
        <ele>575.7</ele>
        <time>2016-09-25T07:36:02Z</time>
      </trkpt>
      <trkpt lat="44.12112" lon="3.24836">
        <ele>576.2</ele>
        <time>2016-09-25T07:36:07Z</time>
      </trkpt>
      <trkpt lat="44.12115" lon="3.24827">
        <ele>576.8</ele>
        <time>2016-09-25T07:36:11Z</time>
      </trkpt>
      <trkpt lat="44.12117" lon="3.24815">
        <ele>577.5</ele>
        <time>2016-09-25T07:36:17Z</time>
      </trkpt>
      <trkpt lat="44.12119" lon="3.24805">
        <ele>578.1</ele>
        <time>2016-09-25T07:36:21Z</time>
      </trkpt>
      <trkpt lat="44.1212" lon="3.24793">
        <ele>578.5</ele>
        <time>2016-09-25T07:36:27Z</time>
      </trkpt>
      <trkpt lat="44.12119" lon="3.24781">
        <ele>579.1</ele>
        <time>2016-09-25T07:36:32Z</time>
      </trkpt>
      <trkpt lat="44.12117" lon="3.2477">
        <ele>579.8</ele>
        <time>2016-09-25T07:36:37Z</time>
      </trkpt>
      <trkpt lat="44.12117" lon="3.24761">
        <ele>580.5</ele>
        <time>2016-09-25T07:36:42Z</time>
      </trkpt>
      <trkpt lat="44.12118" lon="3.24751">
        <ele>581.1</ele>
        <time>2016-09-25T07:36:46Z</time>
      </trkpt>
      <trkpt lat="44.12117" lon="3.2474">
        <ele>581.5</ele>
        <time>2016-09-25T07:36:50Z</time>
      </trkpt>
      <trkpt lat="44.12115" lon="3.24728">
        <ele>581.8</ele>
        <time>2016-09-25T07:36:54Z</time>
      </trkpt>
      <trkpt lat="44.12113" lon="3.24716">
        <ele>582</ele>
        <time>2016-09-25T07:36:57Z</time>
      </trkpt>
      <trkpt lat="44.12111" lon="3.24706">
        <ele>582.2</ele>
        <time>2016-09-25T07:37:01Z</time>
      </trkpt>
      <trkpt lat="44.12111" lon="3.24695">
        <ele>582.7</ele>
        <time>2016-09-25T07:37:05Z</time>
      </trkpt>
      <trkpt lat="44.12113" lon="3.24683">
        <ele>583.2</ele>
        <time>2016-09-25T07:37:09Z</time>
      </trkpt>
      <trkpt lat="44.12118" lon="3.24672">
        <ele>584</ele>
        <time>2016-09-25T07:37:13Z</time>
      </trkpt>
      <trkpt lat="44.12123" lon="3.24664">
        <ele>584.7</ele>
        <time>2016-09-25T07:37:17Z</time>
      </trkpt>
      <trkpt lat="44.1213" lon="3.24659">
        <ele>585.2</ele>
        <time>2016-09-25T07:37:21Z</time>
      </trkpt>
      <trkpt lat="44.12138" lon="3.24654">
        <ele>586.3</ele>
        <time>2016-09-25T07:37:26Z</time>
      </trkpt>
      <trkpt lat="44.12146" lon="3.24649">
        <ele>586.8</ele>
        <time>2016-09-25T07:37:30Z</time>
      </trkpt>
      <trkpt lat="44.12153" lon="3.24643">
        <ele>587.4</ele>
        <time>2016-09-25T07:37:34Z</time>
      </trkpt>
      <trkpt lat="44.1216" lon="3.24637">
        <ele>588.3</ele>
        <time>2016-09-25T07:37:39Z</time>
      </trkpt>
      <trkpt lat="44.12168" lon="3.24633">
        <ele>589.1</ele>
        <time>2016-09-25T07:37:44Z</time>
      </trkpt>
      <trkpt lat="44.12175" lon="3.2463">
        <ele>590.1</ele>
        <time>2016-09-25T07:37:49Z</time>
      </trkpt>
      <trkpt lat="44.12183" lon="3.24627">
        <ele>590.7</ele>
        <time>2016-09-25T07:37:53Z</time>
      </trkpt>
      <trkpt lat="44.12191" lon="3.24623">
        <ele>591.6</ele>
        <time>2016-09-25T07:37:58Z</time>
      </trkpt>
      <trkpt lat="44.12198" lon="3.24621">
        <ele>592.8</ele>
        <time>2016-09-25T07:38:04Z</time>
      </trkpt>
      <trkpt lat="44.12206" lon="3.24618">
        <ele>594.1</ele>
        <time>2016-09-25T07:38:10Z</time>
      </trkpt>
      <trkpt lat="44.12214" lon="3.24616">
        <ele>595.4</ele>
        <time>2016-09-25T07:38:16Z</time>
      </trkpt>
      <trkpt lat="44.12222" lon="3.24611">
        <ele>596</ele>
        <time>2016-09-25T07:38:21Z</time>
      </trkpt>
      <trkpt lat="44.1223" lon="3.24608">
        <ele>596.9</ele>
        <time>2016-09-25T07:38:27Z</time>
      </trkpt>
      <trkpt lat="44.12238" lon="3.24607">
        <ele>597.7</ele>
        <time>2016-09-25T07:38:33Z</time>
      </trkpt>
      <trkpt lat="44.12246" lon="3.24607">
        <ele>598.4</ele>
        <time>2016-09-25T07:38:39Z</time>
      </trkpt>
      <trkpt lat="44.12254" lon="3.24608">
        <ele>599.1</ele>
        <time>2016-09-25T07:38:44Z</time>
      </trkpt>
      <trkpt lat="44.12261" lon="3.24611">
        <ele>599.8</ele>
        <time>2016-09-25T07:38:51Z</time>
      </trkpt>
      <trkpt lat="44.1227" lon="3.24611">
        <ele>600.7</ele>
        <time>2016-09-25T07:38:57Z</time>
      </trkpt>
      <trkpt lat="44.12277" lon="3.24616">
        <ele>601.4</ele>
        <time>2016-09-25T07:39:03Z</time>
      </trkpt>
      <trkpt lat="44.12284" lon="3.2462">
        <ele>602.2</ele>
        <time>2016-09-25T07:39:09Z</time>
      </trkpt>
      <trkpt lat="44.12292" lon="3.24618">
        <ele>603.4</ele>
        <time>2016-09-25T07:39:16Z</time>
      </trkpt>
      <trkpt lat="44.123" lon="3.24618">
        <ele>604.3</ele>
        <time>2016-09-25T07:39:20Z</time>
      </trkpt>
      <trkpt lat="44.12308" lon="3.24621">
        <ele>605.4</ele>
        <time>2016-09-25T07:39:25Z</time>
      </trkpt>
      <trkpt lat="44.12311" lon="3.2462">
        <ele>606.6</ele>
        <time>2016-09-25T07:39:32Z</time>
      </trkpt>
      <trkpt lat="44.12316" lon="3.24621">
        <ele>608.7</ele>
        <time>2016-09-25T07:39:39Z</time>
      </trkpt>
      <trkpt lat="44.12321" lon="3.24621">
        <ele>610.1</ele>
        <time>2016-09-25T07:39:46Z</time>
      </trkpt>
      <trkpt lat="44.12326" lon="3.24626">
        <ele>611.7</ele>
        <time>2016-09-25T07:39:53Z</time>
      </trkpt>
      <trkpt lat="44.12332" lon="3.24625">
        <ele>612.8</ele>
        <time>2016-09-25T07:40:00Z</time>
      </trkpt>
      <trkpt lat="44.12333" lon="3.24624">
        <ele>613.3</ele>
        <time>2016-09-25T07:40:07Z</time>
      </trkpt>
      <trkpt lat="44.12335" lon="3.24627">
        <ele>614.7</ele>
        <time>2016-09-25T07:40:34Z</time>
      </trkpt>
      <trkpt lat="44.12334" lon="3.24624">
        <ele>615.2</ele>
        <time>2016-09-25T07:40:45Z</time>
      </trkpt>
      <trkpt lat="44.1233" lon="3.24622">
        <ele>615.4</ele>
        <time>2016-09-25T07:41:03Z</time>
      </trkpt>
      <trkpt lat="44.12329" lon="3.24618">
        <ele>615.6</ele>
        <time>2016-09-25T07:41:10Z</time>
      </trkpt>
      <trkpt lat="44.12342" lon="3.2462">
        <ele>616.7</ele>
        <time>2016-09-25T07:43:11Z</time>
      </trkpt>
      <trkpt lat="44.12348" lon="3.24616">
        <ele>618</ele>
        <time>2016-09-25T07:43:18Z</time>
      </trkpt>
      <trkpt lat="44.12354" lon="3.2461">
        <ele>618.3</ele>
        <time>2016-09-25T07:43:23Z</time>
      </trkpt>
      <trkpt lat="44.1236" lon="3.24602">
        <ele>618.7</ele>
        <time>2016-09-25T07:43:28Z</time>
      </trkpt>
      <trkpt lat="44.12364" lon="3.24591">
        <ele>619.1</ele>
        <time>2016-09-25T07:43:33Z</time>
      </trkpt>
      <trkpt lat="44.12368" lon="3.24581">
        <ele>619.8</ele>
        <time>2016-09-25T07:43:39Z</time>
      </trkpt>
      <trkpt lat="44.12374" lon="3.24573">
        <ele>620.5</ele>
        <time>2016-09-25T07:43:44Z</time>
      </trkpt>
      <trkpt lat="44.12381" lon="3.24568">
        <ele>621.3</ele>
        <time>2016-09-25T07:43:49Z</time>
      </trkpt>
      <trkpt lat="44.12388" lon="3.24562">
        <ele>622.4</ele>
        <time>2016-09-25T07:43:56Z</time>
      </trkpt>
      <trkpt lat="44.12395" lon="3.24556">
        <ele>623.1</ele>
        <time>2016-09-25T07:44:03Z</time>
      </trkpt>
      <trkpt lat="44.12403" lon="3.24551">
        <ele>624.3</ele>
        <time>2016-09-25T07:44:08Z</time>
      </trkpt>
      <trkpt lat="44.1241" lon="3.24546">
        <ele>625.4</ele>
        <time>2016-09-25T07:44:13Z</time>
      </trkpt>
      <trkpt lat="44.12418" lon="3.24543">
        <ele>626.3</ele>
        <time>2016-09-25T07:44:19Z</time>
      </trkpt>
      <trkpt lat="44.12425" lon="3.24538">
        <ele>627.5</ele>
        <time>2016-09-25T07:44:24Z</time>
      </trkpt>
      <trkpt lat="44.12431" lon="3.24533">
        <ele>628.2</ele>
        <time>2016-09-25T07:44:29Z</time>
      </trkpt>
      <trkpt lat="44.1244" lon="3.2453">
        <ele>628.6</ele>
        <time>2016-09-25T07:44:35Z</time>
      </trkpt>
      <trkpt lat="44.12447" lon="3.24527">
        <ele>629</ele>
        <time>2016-09-25T07:44:40Z</time>
      </trkpt>
      <trkpt lat="44.12454" lon="3.24523">
        <ele>629.5</ele>
        <time>2016-09-25T07:44:46Z</time>
      </trkpt>
      <trkpt lat="44.12461" lon="3.24518">
        <ele>630</ele>
        <time>2016-09-25T07:44:51Z</time>
      </trkpt>
      <trkpt lat="44.12468" lon="3.24513">
        <ele>631.1</ele>
        <time>2016-09-25T07:44:58Z</time>
      </trkpt>
      <trkpt lat="44.12474" lon="3.24509">
        <ele>632</ele>
        <time>2016-09-25T07:45:03Z</time>
      </trkpt>
      <trkpt lat="44.12482" lon="3.24503">
        <ele>633.1</ele>
        <time>2016-09-25T07:45:09Z</time>
      </trkpt>
      <trkpt lat="44.12489" lon="3.24498">
        <ele>633.8</ele>
        <time>2016-09-25T07:45:15Z</time>
      </trkpt>
      <trkpt lat="44.12496" lon="3.24493">
        <ele>634.9</ele>
        <time>2016-09-25T07:45:21Z</time>
      </trkpt>
      <trkpt lat="44.12504" lon="3.24489">
        <ele>635.5</ele>
        <time>2016-09-25T07:45:27Z</time>
      </trkpt>
      <trkpt lat="44.12512" lon="3.24488">
        <ele>636.4</ele>
        <time>2016-09-25T07:45:34Z</time>
      </trkpt>
      <trkpt lat="44.12521" lon="3.24486">
        <ele>637.2</ele>
        <time>2016-09-25T07:45:41Z</time>
      </trkpt>
      <trkpt lat="44.12528" lon="3.24486">
        <ele>637.8</ele>
        <time>2016-09-25T07:45:46Z</time>
      </trkpt>
      <trkpt lat="44.12535" lon="3.24488">
        <ele>638.2</ele>
        <time>2016-09-25T07:45:51Z</time>
      </trkpt>
      <trkpt lat="44.12543" lon="3.24484">
        <ele>639</ele>
        <time>2016-09-25T07:45:57Z</time>
      </trkpt>
      <trkpt lat="44.1255" lon="3.24485">
        <ele>639.6</ele>
        <time>2016-09-25T07:46:04Z</time>
      </trkpt>
      <trkpt lat="44.12557" lon="3.24489">
        <ele>640.4</ele>
        <time>2016-09-25T07:46:09Z</time>
      </trkpt>
      <trkpt lat="44.12564" lon="3.24494">
        <ele>641.1</ele>
        <time>2016-09-25T07:46:14Z</time>
      </trkpt>
      <trkpt lat="44.12569" lon="3.24501">
        <ele>641.8</ele>
        <time>2016-09-25T07:46:20Z</time>
      </trkpt>
      <trkpt lat="44.12574" lon="3.24512">
        <ele>642.6</ele>
        <time>2016-09-25T07:46:27Z</time>
      </trkpt>
      <trkpt lat="44.12578" lon="3.24521">
        <ele>643.7</ele>
        <time>2016-09-25T07:46:32Z</time>
      </trkpt>
      <trkpt lat="44.12582" lon="3.24529">
        <ele>644.9</ele>
        <time>2016-09-25T07:46:39Z</time>
      </trkpt>
      <trkpt lat="44.12586" lon="3.24537">
        <ele>646</ele>
        <time>2016-09-25T07:46:45Z</time>
      </trkpt>
      <trkpt lat="44.1259" lon="3.24546">
        <ele>647.3</ele>
        <time>2016-09-25T07:46:51Z</time>
      </trkpt>
      <trkpt lat="44.12594" lon="3.24556">
        <ele>648.5</ele>
        <time>2016-09-25T07:46:58Z</time>
      </trkpt>
      <trkpt lat="44.12601" lon="3.24565">
        <ele>649.5</ele>
        <time>2016-09-25T07:47:04Z</time>
      </trkpt>
      <trkpt lat="44.12607" lon="3.24572">
        <ele>650.6</ele>
        <time>2016-09-25T07:47:10Z</time>
      </trkpt>
      <trkpt lat="44.12611" lon="3.24578">
        <ele>652</ele>
        <time>2016-09-25T07:47:17Z</time>
      </trkpt>
      <trkpt lat="44.12616" lon="3.24586">
        <ele>652.9</ele>
        <time>2016-09-25T07:47:22Z</time>
      </trkpt>
      <trkpt lat="44.12621" lon="3.24594">
        <ele>654</ele>
        <time>2016-09-25T07:47:28Z</time>
      </trkpt>
      <trkpt lat="44.12626" lon="3.24604">
        <ele>654.7</ele>
        <time>2016-09-25T07:47:33Z</time>
      </trkpt>
      <trkpt lat="44.12632" lon="3.24612">
        <ele>655.4</ele>
        <time>2016-09-25T07:47:40Z</time>
      </trkpt>
      <trkpt lat="44.12637" lon="3.24619">
        <ele>656.6</ele>
        <time>2016-09-25T07:47:46Z</time>
      </trkpt>
      <trkpt lat="44.12642" lon="3.24627">
        <ele>657.9</ele>
        <time>2016-09-25T07:47:51Z</time>
      </trkpt>
      <trkpt lat="44.12648" lon="3.24635">
        <ele>659.4</ele>
        <time>2016-09-25T07:47:58Z</time>
      </trkpt>
      <trkpt lat="44.12655" lon="3.2464">
        <ele>660.4</ele>
        <time>2016-09-25T07:48:04Z</time>
      </trkpt>
      <trkpt lat="44.12661" lon="3.24646">
        <ele>660.8</ele>
        <time>2016-09-25T07:48:08Z</time>
      </trkpt>
      <trkpt lat="44.12668" lon="3.24652">
        <ele>661.3</ele>
        <time>2016-09-25T07:48:12Z</time>
      </trkpt>
      <trkpt lat="44.12674" lon="3.24659">
        <ele>662</ele>
        <time>2016-09-25T07:48:18Z</time>
      </trkpt>
      <trkpt lat="44.12678" lon="3.24668">
        <ele>662.6</ele>
        <time>2016-09-25T07:48:23Z</time>
      </trkpt>
      <trkpt lat="44.1268" lon="3.24679">
        <ele>663.2</ele>
        <time>2016-09-25T07:48:29Z</time>
      </trkpt>
      <trkpt lat="44.12687" lon="3.24685">
        <ele>663.9</ele>
        <time>2016-09-25T07:48:34Z</time>
      </trkpt>
      <trkpt lat="44.12695" lon="3.24687">
        <ele>664.7</ele>
        <time>2016-09-25T07:48:39Z</time>
      </trkpt>
      <trkpt lat="44.12702" lon="3.24693">
        <ele>665.7</ele>
        <time>2016-09-25T07:48:43Z</time>
      </trkpt>
      <trkpt lat="44.12708" lon="3.247">
        <ele>666.5</ele>
        <time>2016-09-25T07:48:48Z</time>
      </trkpt>
      <trkpt lat="44.12714" lon="3.24705">
        <ele>666.9</ele>
        <time>2016-09-25T07:48:53Z</time>
      </trkpt>
      <trkpt lat="44.12722" lon="3.24711">
        <ele>667.6</ele>
        <time>2016-09-25T07:48:58Z</time>
      </trkpt>
      <trkpt lat="44.12728" lon="3.24716">
        <ele>668.6</ele>
        <time>2016-09-25T07:49:04Z</time>
      </trkpt>
      <trkpt lat="44.12734" lon="3.24723">
        <ele>669.4</ele>
        <time>2016-09-25T07:49:10Z</time>
      </trkpt>
      <trkpt lat="44.1274" lon="3.24731">
        <ele>670.4</ele>
        <time>2016-09-25T07:49:16Z</time>
      </trkpt>
      <trkpt lat="44.12734" lon="3.24727">
        <ele>671.6</ele>
        <time>2016-09-25T07:49:23Z</time>
      </trkpt>
      <trkpt lat="44.12724" lon="3.24722">
        <ele>672.5</ele>
        <time>2016-09-25T07:49:28Z</time>
      </trkpt>
      <trkpt lat="44.12716" lon="3.24718">
        <ele>672.8</ele>
        <time>2016-09-25T07:49:31Z</time>
      </trkpt>
      <trkpt lat="44.12709" lon="3.24713">
        <ele>673.5</ele>
        <time>2016-09-25T07:49:35Z</time>
      </trkpt>
      <trkpt lat="44.12701" lon="3.24707">
        <ele>674.3</ele>
        <time>2016-09-25T07:49:39Z</time>
      </trkpt>
      <trkpt lat="44.12693" lon="3.24704">
        <ele>675.1</ele>
        <time>2016-09-25T07:49:43Z</time>
      </trkpt>
      <trkpt lat="44.12685" lon="3.24702">
        <ele>675.9</ele>
        <time>2016-09-25T07:49:47Z</time>
      </trkpt>
      <trkpt lat="44.12677" lon="3.24697">
        <ele>676.6</ele>
        <time>2016-09-25T07:49:51Z</time>
      </trkpt>
      <trkpt lat="44.12671" lon="3.2469">
        <ele>677.4</ele>
        <time>2016-09-25T07:49:56Z</time>
      </trkpt>
      <trkpt lat="44.12665" lon="3.24681">
        <ele>677.8</ele>
        <time>2016-09-25T07:49:59Z</time>
      </trkpt>
      <trkpt lat="44.12657" lon="3.24675">
        <ele>678.1</ele>
        <time>2016-09-25T07:50:03Z</time>
      </trkpt>
      <trkpt lat="44.1265" lon="3.2467">
        <ele>678.2</ele>
        <time>2016-09-25T07:50:06Z</time>
      </trkpt>
      <trkpt lat="44.12642" lon="3.24666">
        <ele>678.4</ele>
        <time>2016-09-25T07:50:09Z</time>
      </trkpt>
      <trkpt lat="44.12636" lon="3.24661">
        <ele>678.7</ele>
        <time>2016-09-25T07:50:12Z</time>
      </trkpt>
      <trkpt lat="44.12629" lon="3.24653">
        <ele>679.1</ele>
        <time>2016-09-25T07:50:16Z</time>
      </trkpt>
      <trkpt lat="44.12622" lon="3.24646">
        <ele>679.5</ele>
        <time>2016-09-25T07:50:20Z</time>
      </trkpt>
      <trkpt lat="44.12614" lon="3.2464">
        <ele>679.7</ele>
        <time>2016-09-25T07:50:24Z</time>
      </trkpt>
      <trkpt lat="44.12608" lon="3.24634">
        <ele>679.8</ele>
        <time>2016-09-25T07:50:27Z</time>
      </trkpt>
      <trkpt lat="44.12601" lon="3.24626">
        <ele>680</ele>
        <time>2016-09-25T07:50:30Z</time>
      </trkpt>
      <trkpt lat="44.12593" lon="3.24621">
        <ele>680.3</ele>
        <time>2016-09-25T07:50:33Z</time>
      </trkpt>
      <trkpt lat="44.12586" lon="3.24617">
        <ele>680.6</ele>
        <time>2016-09-25T07:50:36Z</time>
      </trkpt>
      <trkpt lat="44.12579" lon="3.24611">
        <ele>681.1</ele>
        <time>2016-09-25T07:50:40Z</time>
      </trkpt>
      <trkpt lat="44.12573" lon="3.24604">
        <ele>681.5</ele>
        <time>2016-09-25T07:50:43Z</time>
      </trkpt>
      <trkpt lat="44.12565" lon="3.24595">
        <ele>682.2</ele>
        <time>2016-09-25T07:50:47Z</time>
      </trkpt>
      <trkpt lat="44.12557" lon="3.24591">
        <ele>682.6</ele>
        <time>2016-09-25T07:50:51Z</time>
      </trkpt>
      <trkpt lat="44.12562" lon="3.24599">
        <ele>683.1</ele>
        <time>2016-09-25T07:50:56Z</time>
      </trkpt>
      <trkpt lat="44.12567" lon="3.24607">
        <ele>683.8</ele>
        <time>2016-09-25T07:51:01Z</time>
      </trkpt>
      <trkpt lat="44.12573" lon="3.24616">
        <ele>684.7</ele>
        <time>2016-09-25T07:51:06Z</time>
      </trkpt>
      <trkpt lat="44.1258" lon="3.24626">
        <ele>685.2</ele>
        <time>2016-09-25T07:51:10Z</time>
      </trkpt>
      <trkpt lat="44.12586" lon="3.24632">
        <ele>685.3</ele>
        <time>2016-09-25T07:51:13Z</time>
      </trkpt>
      <trkpt lat="44.12592" lon="3.24639">
        <ele>685.7</ele>
        <time>2016-09-25T07:51:17Z</time>
      </trkpt>
      <trkpt lat="44.12598" lon="3.24646">
        <ele>686.2</ele>
        <time>2016-09-25T07:51:22Z</time>
      </trkpt>
      <trkpt lat="44.12604" lon="3.24654">
        <ele>686.6</ele>
        <time>2016-09-25T07:51:26Z</time>
      </trkpt>
      <trkpt lat="44.12609" lon="3.24661">
        <ele>686.9</ele>
        <time>2016-09-25T07:51:29Z</time>
      </trkpt>
      <trkpt lat="44.12616" lon="3.24669">
        <ele>687.8</ele>
        <time>2016-09-25T07:51:34Z</time>
      </trkpt>
      <trkpt lat="44.12622" lon="3.24678">
        <ele>688.6</ele>
        <time>2016-09-25T07:51:39Z</time>
      </trkpt>
      <trkpt lat="44.12628" lon="3.24687">
        <ele>689.4</ele>
        <time>2016-09-25T07:51:44Z</time>
      </trkpt>
      <trkpt lat="44.12634" lon="3.24693">
        <ele>690.1</ele>
        <time>2016-09-25T07:51:48Z</time>
      </trkpt>
      <trkpt lat="44.12639" lon="3.247">
        <ele>690.7</ele>
        <time>2016-09-25T07:51:52Z</time>
      </trkpt>
      <trkpt lat="44.12643" lon="3.24709">
        <ele>691.3</ele>
        <time>2016-09-25T07:51:56Z</time>
      </trkpt>
      <trkpt lat="44.12648" lon="3.24716">
        <ele>691.9</ele>
        <time>2016-09-25T07:52:00Z</time>
      </trkpt>
      <trkpt lat="44.12652" lon="3.24727">
        <ele>693.1</ele>
        <time>2016-09-25T07:52:06Z</time>
      </trkpt>
      <trkpt lat="44.12657" lon="3.24736">
        <ele>693.7</ele>
        <time>2016-09-25T07:52:11Z</time>
      </trkpt>
      <trkpt lat="44.12666" lon="3.24741">
        <ele>694.4</ele>
        <time>2016-09-25T07:52:16Z</time>
      </trkpt>
      <trkpt lat="44.12673" lon="3.24743">
        <ele>695.2</ele>
        <time>2016-09-25T07:52:21Z</time>
      </trkpt>
      <trkpt lat="44.12681" lon="3.24745">
        <ele>695.9</ele>
        <time>2016-09-25T07:52:26Z</time>
      </trkpt>
      <trkpt lat="44.12689" lon="3.24752">
        <ele>696.6</ele>
        <time>2016-09-25T07:52:32Z</time>
      </trkpt>
      <trkpt lat="44.12696" lon="3.2476">
        <ele>697.2</ele>
        <time>2016-09-25T07:52:37Z</time>
      </trkpt>
      <trkpt lat="44.12703" lon="3.24768">
        <ele>698.1</ele>
        <time>2016-09-25T07:52:42Z</time>
      </trkpt>
      <trkpt lat="44.12709" lon="3.24777">
        <ele>699.1</ele>
        <time>2016-09-25T07:52:48Z</time>
      </trkpt>
      <trkpt lat="44.12713" lon="3.24785">
        <ele>700</ele>
        <time>2016-09-25T07:52:53Z</time>
      </trkpt>
      <trkpt lat="44.1272" lon="3.24791">
        <ele>701</ele>
        <time>2016-09-25T07:52:59Z</time>
      </trkpt>
      <trkpt lat="44.12726" lon="3.24797">
        <ele>701.9</ele>
        <time>2016-09-25T07:53:06Z</time>
      </trkpt>
      <trkpt lat="44.12733" lon="3.24801">
        <ele>702.8</ele>
        <time>2016-09-25T07:53:11Z</time>
      </trkpt>
      <trkpt lat="44.12741" lon="3.24804">
        <ele>704.1</ele>
        <time>2016-09-25T07:53:17Z</time>
      </trkpt>
      <trkpt lat="44.1275" lon="3.24807">
        <ele>705.1</ele>
        <time>2016-09-25T07:53:23Z</time>
      </trkpt>
      <trkpt lat="44.12758" lon="3.24808">
        <ele>706.2</ele>
        <time>2016-09-25T07:53:28Z</time>
      </trkpt>
      <trkpt lat="44.12765" lon="3.24808">
        <ele>707.2</ele>
        <time>2016-09-25T07:53:33Z</time>
      </trkpt>
      <trkpt lat="44.12771" lon="3.24812">
        <ele>708.5</ele>
        <time>2016-09-25T07:53:40Z</time>
      </trkpt>
      <trkpt lat="44.12772" lon="3.24817">
        <ele>710.1</ele>
        <time>2016-09-25T07:53:59Z</time>
      </trkpt>
      <trkpt lat="44.12773" lon="3.24822">
        <ele>710.5</ele>
        <time>2016-09-25T07:54:06Z</time>
      </trkpt>
      <trkpt lat="44.12776" lon="3.24826">
        <ele>708.7</ele>
        <time>2016-09-25T07:54:20Z</time>
      </trkpt>
      <trkpt lat="44.12783" lon="3.24826">
        <ele>708.5</ele>
        <time>2016-09-25T07:54:27Z</time>
      </trkpt>
      <trkpt lat="44.12791" lon="3.24824">
        <ele>709.6</ele>
        <time>2016-09-25T07:54:33Z</time>
      </trkpt>
      <trkpt lat="44.12799" lon="3.24823">
        <ele>710.3</ele>
        <time>2016-09-25T07:54:38Z</time>
      </trkpt>
      <trkpt lat="44.12807" lon="3.2482">
        <ele>711.2</ele>
        <time>2016-09-25T07:54:44Z</time>
      </trkpt>
      <trkpt lat="44.12814" lon="3.24822">
        <ele>711.8</ele>
        <time>2016-09-25T07:54:49Z</time>
      </trkpt>
      <trkpt lat="44.12822" lon="3.24823">
        <ele>712.7</ele>
        <time>2016-09-25T07:54:54Z</time>
      </trkpt>
      <trkpt lat="44.1283" lon="3.24823">
        <ele>713.6</ele>
        <time>2016-09-25T07:54:59Z</time>
      </trkpt>
      <trkpt lat="44.12838" lon="3.24822">
        <ele>715.1</ele>
        <time>2016-09-25T07:55:06Z</time>
      </trkpt>
      <trkpt lat="44.12845" lon="3.24817">
        <ele>716.1</ele>
        <time>2016-09-25T07:55:11Z</time>
      </trkpt>
      <trkpt lat="44.12853" lon="3.24816">
        <ele>717.5</ele>
        <time>2016-09-25T07:55:16Z</time>
      </trkpt>
      <trkpt lat="44.12861" lon="3.24816">
        <ele>718.7</ele>
        <time>2016-09-25T07:55:21Z</time>
      </trkpt>
      <trkpt lat="44.12868" lon="3.24812">
        <ele>719.7</ele>
        <time>2016-09-25T07:55:27Z</time>
      </trkpt>
      <trkpt lat="44.12874" lon="3.24807">
        <ele>721.1</ele>
        <time>2016-09-25T07:55:33Z</time>
      </trkpt>
      <trkpt lat="44.12882" lon="3.24802">
        <ele>722.2</ele>
        <time>2016-09-25T07:55:39Z</time>
      </trkpt>
      <trkpt lat="44.12888" lon="3.24797">
        <ele>723</ele>
        <time>2016-09-25T07:55:44Z</time>
      </trkpt>
      <trkpt lat="44.12894" lon="3.24794">
        <ele>724.4</ele>
        <time>2016-09-25T07:55:51Z</time>
      </trkpt>
      <trkpt lat="44.12901" lon="3.2479">
        <ele>725.1</ele>
        <time>2016-09-25T07:55:57Z</time>
      </trkpt>
      <trkpt lat="44.12909" lon="3.24788">
        <ele>726.3</ele>
        <time>2016-09-25T07:56:03Z</time>
      </trkpt>
      <trkpt lat="44.12917" lon="3.24789">
        <ele>726.7</ele>
        <time>2016-09-25T07:56:08Z</time>
      </trkpt>
      <trkpt lat="44.12925" lon="3.24792">
        <ele>727.1</ele>
        <time>2016-09-25T07:56:14Z</time>
      </trkpt>
      <trkpt lat="44.12933" lon="3.24794">
        <ele>727.6</ele>
        <time>2016-09-25T07:56:19Z</time>
      </trkpt>
      <trkpt lat="44.12939" lon="3.248">
        <ele>728.3</ele>
        <time>2016-09-25T07:56:24Z</time>
      </trkpt>
      <trkpt lat="44.12945" lon="3.24807">
        <ele>729</ele>
        <time>2016-09-25T07:56:30Z</time>
      </trkpt>
      <trkpt lat="44.12953" lon="3.24809">
        <ele>729.9</ele>
        <time>2016-09-25T07:56:36Z</time>
      </trkpt>
      <trkpt lat="44.1296" lon="3.24807">
        <ele>730.6</ele>
        <time>2016-09-25T07:56:42Z</time>
      </trkpt>
      <trkpt lat="44.12968" lon="3.24804">
        <ele>731.5</ele>
        <time>2016-09-25T07:56:48Z</time>
      </trkpt>
      <trkpt lat="44.12975" lon="3.248">
        <ele>732.2</ele>
        <time>2016-09-25T07:56:52Z</time>
      </trkpt>
      <trkpt lat="44.12982" lon="3.24796">
        <ele>733.1</ele>
        <time>2016-09-25T07:56:58Z</time>
      </trkpt>
      <trkpt lat="44.12988" lon="3.24789">
        <ele>734.1</ele>
        <time>2016-09-25T07:57:03Z</time>
      </trkpt>
      <trkpt lat="44.12995" lon="3.24787">
        <ele>734.8</ele>
        <time>2016-09-25T07:57:09Z</time>
      </trkpt>
      <trkpt lat="44.13002" lon="3.24783">
        <ele>735.7</ele>
        <time>2016-09-25T07:57:16Z</time>
      </trkpt>
      <trkpt lat="44.13009" lon="3.2478">
        <ele>736.7</ele>
        <time>2016-09-25T07:57:23Z</time>
      </trkpt>
      <trkpt lat="44.13018" lon="3.24778">
        <ele>737.5</ele>
        <time>2016-09-25T07:57:29Z</time>
      </trkpt>
      <trkpt lat="44.13026" lon="3.24778">
        <ele>738.9</ele>
        <time>2016-09-25T07:57:36Z</time>
      </trkpt>
      <trkpt lat="44.13034" lon="3.24783">
        <ele>739.8</ele>
        <time>2016-09-25T07:57:42Z</time>
      </trkpt>
      <trkpt lat="44.13041" lon="3.24788">
        <ele>740.8</ele>
        <time>2016-09-25T07:57:48Z</time>
      </trkpt>
      <trkpt lat="44.13047" lon="3.24795">
        <ele>741.5</ele>
        <time>2016-09-25T07:57:54Z</time>
      </trkpt>
      <trkpt lat="44.13053" lon="3.24802">
        <ele>742.3</ele>
        <time>2016-09-25T07:58:00Z</time>
      </trkpt>
      <trkpt lat="44.1306" lon="3.24808">
        <ele>743.1</ele>
        <time>2016-09-25T07:58:05Z</time>
      </trkpt>
      <trkpt lat="44.13066" lon="3.24813">
        <ele>744</ele>
        <time>2016-09-25T07:58:12Z</time>
      </trkpt>
      <trkpt lat="44.13073" lon="3.24817">
        <ele>744.6</ele>
        <time>2016-09-25T07:58:17Z</time>
      </trkpt>
      <trkpt lat="44.1308" lon="3.24823">
        <ele>745.4</ele>
        <time>2016-09-25T07:58:23Z</time>
      </trkpt>
      <trkpt lat="44.13086" lon="3.24827">
        <ele>746.5</ele>
        <time>2016-09-25T07:58:30Z</time>
      </trkpt>
      <trkpt lat="44.13094" lon="3.2483">
        <ele>747.8</ele>
        <time>2016-09-25T07:58:37Z</time>
      </trkpt>
      <trkpt lat="44.131" lon="3.24835">
        <ele>748.6</ele>
        <time>2016-09-25T07:58:42Z</time>
      </trkpt>
      <trkpt lat="44.13107" lon="3.2484">
        <ele>749.5</ele>
        <time>2016-09-25T07:58:48Z</time>
      </trkpt>
      <trkpt lat="44.13114" lon="3.24844">
        <ele>750.7</ele>
        <time>2016-09-25T07:58:54Z</time>
      </trkpt>
      <trkpt lat="44.13121" lon="3.24848">
        <ele>751.9</ele>
        <time>2016-09-25T07:59:01Z</time>
      </trkpt>
      <trkpt lat="44.13127" lon="3.24854">
        <ele>753</ele>
        <time>2016-09-25T07:59:07Z</time>
      </trkpt>
      <trkpt lat="44.13133" lon="3.24861">
        <ele>753.9</ele>
        <time>2016-09-25T07:59:12Z</time>
      </trkpt>
      <trkpt lat="44.13133" lon="3.2487">
        <ele>755.4</ele>
        <time>2016-09-25T07:59:19Z</time>
      </trkpt>
      <trkpt lat="44.13127" lon="3.24863">
        <ele>756.7</ele>
        <time>2016-09-25T07:59:25Z</time>
      </trkpt>
      <trkpt lat="44.13121" lon="3.24859">
        <ele>758</ele>
        <time>2016-09-25T07:59:30Z</time>
      </trkpt>
      <trkpt lat="44.13113" lon="3.24857">
        <ele>759.5</ele>
        <time>2016-09-25T07:59:36Z</time>
      </trkpt>
      <trkpt lat="44.13105" lon="3.24857">
        <ele>760.7</ele>
        <time>2016-09-25T07:59:41Z</time>
      </trkpt>
      <trkpt lat="44.13098" lon="3.24856">
        <ele>761.5</ele>
        <time>2016-09-25T07:59:46Z</time>
      </trkpt>
      <trkpt lat="44.1309" lon="3.24857">
        <ele>762.3</ele>
        <time>2016-09-25T07:59:52Z</time>
      </trkpt>
      <trkpt lat="44.13082" lon="3.24857">
        <ele>763</ele>
        <time>2016-09-25T07:59:57Z</time>
      </trkpt>
      <trkpt lat="44.13075" lon="3.24858">
        <ele>763.5</ele>
        <time>2016-09-25T08:00:03Z</time>
      </trkpt>
      <trkpt lat="44.13067" lon="3.24859">
        <ele>764.1</ele>
        <time>2016-09-25T08:00:09Z</time>
      </trkpt>
      <trkpt lat="44.13058" lon="3.24859">
        <ele>764.8</ele>
        <time>2016-09-25T08:00:14Z</time>
      </trkpt>
      <trkpt lat="44.1305" lon="3.24859">
        <ele>765.5</ele>
        <time>2016-09-25T08:00:19Z</time>
      </trkpt>
      <trkpt lat="44.13043" lon="3.24859">
        <ele>766.6</ele>
        <time>2016-09-25T08:00:25Z</time>
      </trkpt>
      <trkpt lat="44.13035" lon="3.24861">
        <ele>767.5</ele>
        <time>2016-09-25T08:00:31Z</time>
      </trkpt>
      <trkpt lat="44.13027" lon="3.24861">
        <ele>768.1</ele>
        <time>2016-09-25T08:00:36Z</time>
      </trkpt>
      <trkpt lat="44.13019" lon="3.2486">
        <ele>768.6</ele>
        <time>2016-09-25T08:00:41Z</time>
      </trkpt>
      <trkpt lat="44.13012" lon="3.2486">
        <ele>769.2</ele>
        <time>2016-09-25T08:00:46Z</time>
      </trkpt>
      <trkpt lat="44.13005" lon="3.24866">
        <ele>769.6</ele>
        <time>2016-09-25T08:00:50Z</time>
      </trkpt>
      <trkpt lat="44.13009" lon="3.24877">
        <ele>770.4</ele>
        <time>2016-09-25T08:00:57Z</time>
      </trkpt>
      <trkpt lat="44.13016" lon="3.2488">
        <ele>770.9</ele>
        <time>2016-09-25T08:01:01Z</time>
      </trkpt>
      <trkpt lat="44.13024" lon="3.24881">
        <ele>771.5</ele>
        <time>2016-09-25T08:01:05Z</time>
      </trkpt>
      <trkpt lat="44.13031" lon="3.24882">
        <ele>772</ele>
        <time>2016-09-25T08:01:09Z</time>
      </trkpt>
      <trkpt lat="44.13039" lon="3.24883">
        <ele>773</ele>
        <time>2016-09-25T08:01:14Z</time>
      </trkpt>
      <trkpt lat="44.13047" lon="3.24884">
        <ele>774.3</ele>
        <time>2016-09-25T08:01:19Z</time>
      </trkpt>
      <trkpt lat="44.13055" lon="3.24886">
        <ele>775.5</ele>
        <time>2016-09-25T08:01:24Z</time>
      </trkpt>
      <trkpt lat="44.13062" lon="3.2489">
        <ele>776.1</ele>
        <time>2016-09-25T08:01:28Z</time>
      </trkpt>
      <trkpt lat="44.13071" lon="3.24893">
        <ele>776.9</ele>
        <time>2016-09-25T08:01:33Z</time>
      </trkpt>
      <trkpt lat="44.13079" lon="3.24896">
        <ele>777.7</ele>
        <time>2016-09-25T08:01:38Z</time>
      </trkpt>
      <trkpt lat="44.13087" lon="3.24901">
        <ele>778.2</ele>
        <time>2016-09-25T08:01:43Z</time>
      </trkpt>
      <trkpt lat="44.13094" lon="3.24907">
        <ele>778.7</ele>
        <time>2016-09-25T08:01:48Z</time>
      </trkpt>
      <trkpt lat="44.13101" lon="3.24913">
        <ele>779.2</ele>
        <time>2016-09-25T08:01:52Z</time>
      </trkpt>
      <trkpt lat="44.13106" lon="3.2492">
        <ele>779.5</ele>
        <time>2016-09-25T08:01:56Z</time>
      </trkpt>
      <trkpt lat="44.13113" lon="3.24928">
        <ele>780.3</ele>
        <time>2016-09-25T08:02:01Z</time>
      </trkpt>
      <trkpt lat="44.1312" lon="3.24936">
        <ele>780.9</ele>
        <time>2016-09-25T08:02:06Z</time>
      </trkpt>
      <trkpt lat="44.13127" lon="3.24943">
        <ele>781.6</ele>
        <time>2016-09-25T08:02:10Z</time>
      </trkpt>
      <trkpt lat="44.13134" lon="3.24948">
        <ele>782.5</ele>
        <time>2016-09-25T08:02:15Z</time>
      </trkpt>
      <trkpt lat="44.13141" lon="3.24955">
        <ele>783.4</ele>
        <time>2016-09-25T08:02:20Z</time>
      </trkpt>
      <trkpt lat="44.13147" lon="3.24962">
        <ele>784.4</ele>
        <time>2016-09-25T08:02:25Z</time>
      </trkpt>
      <trkpt lat="44.13153" lon="3.24971">
        <ele>785.4</ele>
        <time>2016-09-25T08:02:30Z</time>
      </trkpt>
      <trkpt lat="44.13159" lon="3.24978">
        <ele>786.4</ele>
        <time>2016-09-25T08:02:35Z</time>
      </trkpt>
      <trkpt lat="44.13166" lon="3.24987">
        <ele>787.3</ele>
        <time>2016-09-25T08:02:39Z</time>
      </trkpt>
      <trkpt lat="44.13174" lon="3.24995">
        <ele>788.2</ele>
        <time>2016-09-25T08:02:44Z</time>
      </trkpt>
      <trkpt lat="44.1318" lon="3.25002">
        <ele>788.7</ele>
        <time>2016-09-25T08:02:48Z</time>
      </trkpt>
      <trkpt lat="44.13187" lon="3.25011">
        <ele>789.4</ele>
        <time>2016-09-25T08:02:52Z</time>
      </trkpt>
      <trkpt lat="44.13192" lon="3.25017">
        <ele>789.8</ele>
        <time>2016-09-25T08:02:56Z</time>
      </trkpt>
      <trkpt lat="44.13198" lon="3.25024">
        <ele>790.3</ele>
        <time>2016-09-25T08:03:00Z</time>
      </trkpt>
      <trkpt lat="44.13204" lon="3.25033">
        <ele>791</ele>
        <time>2016-09-25T08:03:05Z</time>
      </trkpt>
      <trkpt lat="44.1321" lon="3.25041">
        <ele>791.4</ele>
        <time>2016-09-25T08:03:09Z</time>
      </trkpt>
      <trkpt lat="44.13216" lon="3.2505">
        <ele>791.9</ele>
        <time>2016-09-25T08:03:13Z</time>
      </trkpt>
      <trkpt lat="44.13221" lon="3.25058">
        <ele>792.4</ele>
        <time>2016-09-25T08:03:17Z</time>
      </trkpt>
      <trkpt lat="44.13225" lon="3.25066">
        <ele>792.8</ele>
        <time>2016-09-25T08:03:21Z</time>
      </trkpt>
      <trkpt lat="44.13231" lon="3.25075">
        <ele>793.4</ele>
        <time>2016-09-25T08:03:25Z</time>
      </trkpt>
      <trkpt lat="44.13238" lon="3.25079">
        <ele>794.1</ele>
        <time>2016-09-25T08:03:29Z</time>
      </trkpt>
      <trkpt lat="44.13246" lon="3.25083">
        <ele>795.3</ele>
        <time>2016-09-25T08:03:34Z</time>
      </trkpt>
      <trkpt lat="44.13256" lon="3.25084">
        <ele>796.4</ele>
        <time>2016-09-25T08:03:39Z</time>
      </trkpt>
      <trkpt lat="44.13263" lon="3.25082">
        <ele>797</ele>
        <time>2016-09-25T08:03:42Z</time>
      </trkpt>
      <trkpt lat="44.13272" lon="3.2508">
        <ele>797.7</ele>
        <time>2016-09-25T08:03:46Z</time>
      </trkpt>
      <trkpt lat="44.1328" lon="3.25078">
        <ele>798.4</ele>
        <time>2016-09-25T08:03:50Z</time>
      </trkpt>
      <trkpt lat="44.13288" lon="3.25078">
        <ele>799.3</ele>
        <time>2016-09-25T08:03:54Z</time>
      </trkpt>
      <trkpt lat="44.13296" lon="3.25078">
        <ele>800.2</ele>
        <time>2016-09-25T08:03:58Z</time>
      </trkpt>
      <trkpt lat="44.13304" lon="3.25083">
        <ele>801</ele>
        <time>2016-09-25T08:04:02Z</time>
      </trkpt>
      <trkpt lat="44.13313" lon="3.25086">
        <ele>801.6</ele>
        <time>2016-09-25T08:04:06Z</time>
      </trkpt>
      <trkpt lat="44.13321" lon="3.25092">
        <ele>802.2</ele>
        <time>2016-09-25T08:04:10Z</time>
      </trkpt>
      <trkpt lat="44.13328" lon="3.25099">
        <ele>802.7</ele>
        <time>2016-09-25T08:04:14Z</time>
      </trkpt>
      <trkpt lat="44.13336" lon="3.25106">
        <ele>803.2</ele>
        <time>2016-09-25T08:04:18Z</time>
      </trkpt>
      <trkpt lat="44.13342" lon="3.25112">
        <ele>803.6</ele>
        <time>2016-09-25T08:04:21Z</time>
      </trkpt>
      <trkpt lat="44.13349" lon="3.2512">
        <ele>804.3</ele>
        <time>2016-09-25T08:04:25Z</time>
      </trkpt>
      <trkpt lat="44.13354" lon="3.25127">
        <ele>804.8</ele>
        <time>2016-09-25T08:04:28Z</time>
      </trkpt>
      <trkpt lat="44.1336" lon="3.25133">
        <ele>805.3</ele>
        <time>2016-09-25T08:04:31Z</time>
      </trkpt>
      <trkpt lat="44.13367" lon="3.2514">
        <ele>805.8</ele>
        <time>2016-09-25T08:04:34Z</time>
      </trkpt>
      <trkpt lat="44.13374" lon="3.25146">
        <ele>806.3</ele>
        <time>2016-09-25T08:04:37Z</time>
      </trkpt>
      <trkpt lat="44.13382" lon="3.25153">
        <ele>806.9</ele>
        <time>2016-09-25T08:04:41Z</time>
      </trkpt>
      <trkpt lat="44.13388" lon="3.25159">
        <ele>807.4</ele>
        <time>2016-09-25T08:04:44Z</time>
      </trkpt>
      <trkpt lat="44.13394" lon="3.25164">
        <ele>807.8</ele>
        <time>2016-09-25T08:04:47Z</time>
      </trkpt>
      <trkpt lat="44.13401" lon="3.25171">
        <ele>808.2</ele>
        <time>2016-09-25T08:04:50Z</time>
      </trkpt>
      <trkpt lat="44.13409" lon="3.25177">
        <ele>808.6</ele>
        <time>2016-09-25T08:04:53Z</time>
      </trkpt>
      <trkpt lat="44.13417" lon="3.25182">
        <ele>809</ele>
        <time>2016-09-25T08:04:56Z</time>
      </trkpt>
      <trkpt lat="44.13424" lon="3.25188">
        <ele>809.4</ele>
        <time>2016-09-25T08:04:59Z</time>
      </trkpt>
      <trkpt lat="44.1343" lon="3.25193">
        <ele>809.8</ele>
        <time>2016-09-25T08:05:02Z</time>
      </trkpt>
      <trkpt lat="44.13437" lon="3.25199">
        <ele>810.2</ele>
        <time>2016-09-25T08:05:05Z</time>
      </trkpt>
      <trkpt lat="44.13445" lon="3.25205">
        <ele>810.7</ele>
        <time>2016-09-25T08:05:09Z</time>
      </trkpt>
      <trkpt lat="44.13451" lon="3.25211">
        <ele>811.2</ele>
        <time>2016-09-25T08:05:12Z</time>
      </trkpt>
      <trkpt lat="44.13459" lon="3.25218">
        <ele>811.7</ele>
        <time>2016-09-25T08:05:16Z</time>
      </trkpt>
      <trkpt lat="44.13467" lon="3.25225">
        <ele>812.1</ele>
        <time>2016-09-25T08:05:20Z</time>
      </trkpt>
      <trkpt lat="44.13473" lon="3.25233">
        <ele>812.6</ele>
        <time>2016-09-25T08:05:23Z</time>
      </trkpt>
      <trkpt lat="44.13478" lon="3.2524">
        <ele>813.1</ele>
        <time>2016-09-25T08:05:26Z</time>
      </trkpt>
      <trkpt lat="44.13484" lon="3.25247">
        <ele>813.7</ele>
        <time>2016-09-25T08:05:29Z</time>
      </trkpt>
      <trkpt lat="44.1349" lon="3.25254">
        <ele>814.1</ele>
        <time>2016-09-25T08:05:32Z</time>
      </trkpt>
      <trkpt lat="44.13496" lon="3.25262">
        <ele>814.5</ele>
        <time>2016-09-25T08:05:35Z</time>
      </trkpt>
      <trkpt lat="44.13503" lon="3.2527">
        <ele>815</ele>
        <time>2016-09-25T08:05:39Z</time>
      </trkpt>
      <trkpt lat="44.1351" lon="3.25279">
        <ele>815.6</ele>
        <time>2016-09-25T08:05:43Z</time>
      </trkpt>
      <trkpt lat="44.13517" lon="3.25287">
        <ele>816</ele>
        <time>2016-09-25T08:05:47Z</time>
      </trkpt>
      <trkpt lat="44.13522" lon="3.25293">
        <ele>816.3</ele>
        <time>2016-09-25T08:05:50Z</time>
      </trkpt>
      <trkpt lat="44.13529" lon="3.25302">
        <ele>816.8</ele>
        <time>2016-09-25T08:05:54Z</time>
      </trkpt>
      <trkpt lat="44.13535" lon="3.2531">
        <ele>817.2</ele>
        <time>2016-09-25T08:05:58Z</time>
      </trkpt>
      <trkpt lat="44.13541" lon="3.25318">
        <ele>817.7</ele>
        <time>2016-09-25T08:06:02Z</time>
      </trkpt>
      <trkpt lat="44.13548" lon="3.25326">
        <ele>818.2</ele>
        <time>2016-09-25T08:06:06Z</time>
      </trkpt>
      <trkpt lat="44.13553" lon="3.25333">
        <ele>818.7</ele>
        <time>2016-09-25T08:06:10Z</time>
      </trkpt>
      <trkpt lat="44.1356" lon="3.25342">
        <ele>819.3</ele>
        <time>2016-09-25T08:06:15Z</time>
      </trkpt>
      <trkpt lat="44.13567" lon="3.2535">
        <ele>819.8</ele>
        <time>2016-09-25T08:06:19Z</time>
      </trkpt>
      <trkpt lat="44.13572" lon="3.25357">
        <ele>820.1</ele>
        <time>2016-09-25T08:06:22Z</time>
      </trkpt>
      <trkpt lat="44.13577" lon="3.25364">
        <ele>820.5</ele>
        <time>2016-09-25T08:06:25Z</time>
      </trkpt>
      <trkpt lat="44.13582" lon="3.25371">
        <ele>820.9</ele>
        <time>2016-09-25T08:06:28Z</time>
      </trkpt>
      <trkpt lat="44.13589" lon="3.2538">
        <ele>821.3</ele>
        <time>2016-09-25T08:06:32Z</time>
      </trkpt>
      <trkpt lat="44.13593" lon="3.25389">
        <ele>821.6</ele>
        <time>2016-09-25T08:06:35Z</time>
      </trkpt>
      <trkpt lat="44.13598" lon="3.25399">
        <ele>822</ele>
        <time>2016-09-25T08:06:39Z</time>
      </trkpt>
      <trkpt lat="44.13601" lon="3.2541">
        <ele>822.4</ele>
        <time>2016-09-25T08:06:43Z</time>
      </trkpt>
      <trkpt lat="44.13605" lon="3.25422">
        <ele>822.9</ele>
        <time>2016-09-25T08:06:47Z</time>
      </trkpt>
      <trkpt lat="44.13608" lon="3.25431">
        <ele>823.5</ele>
        <time>2016-09-25T08:06:50Z</time>
      </trkpt>
      <trkpt lat="44.13611" lon="3.25442">
        <ele>824.4</ele>
        <time>2016-09-25T08:06:55Z</time>
      </trkpt>
      <trkpt lat="44.13613" lon="3.25455">
        <ele>824.9</ele>
        <time>2016-09-25T08:06:59Z</time>
      </trkpt>
      <trkpt lat="44.13616" lon="3.25466">
        <ele>825.3</ele>
        <time>2016-09-25T08:07:03Z</time>
      </trkpt>
      <trkpt lat="44.13619" lon="3.25477">
        <ele>825.8</ele>
        <time>2016-09-25T08:07:07Z</time>
      </trkpt>
      <trkpt lat="44.13622" lon="3.25488">
        <ele>826.3</ele>
        <time>2016-09-25T08:07:11Z</time>
      </trkpt>
      <trkpt lat="44.13626" lon="3.25497">
        <ele>826.9</ele>
        <time>2016-09-25T08:07:15Z</time>
      </trkpt>
      <trkpt lat="44.13629" lon="3.25509">
        <ele>827.5</ele>
        <time>2016-09-25T08:07:20Z</time>
      </trkpt>
      <trkpt lat="44.13632" lon="3.2552">
        <ele>828</ele>
        <time>2016-09-25T08:07:24Z</time>
      </trkpt>
      <trkpt lat="44.13636" lon="3.25529">
        <ele>828.6</ele>
        <time>2016-09-25T08:07:29Z</time>
      </trkpt>
      <trkpt lat="44.1364" lon="3.2554">
        <ele>829</ele>
        <time>2016-09-25T08:07:33Z</time>
      </trkpt>
      <trkpt lat="44.13643" lon="3.2555">
        <ele>829.4</ele>
        <time>2016-09-25T08:07:37Z</time>
      </trkpt>
      <trkpt lat="44.13647" lon="3.25559">
        <ele>829.7</ele>
        <time>2016-09-25T08:07:41Z</time>
      </trkpt>
      <trkpt lat="44.13651" lon="3.25568">
        <ele>830</ele>
        <time>2016-09-25T08:07:45Z</time>
      </trkpt>
      <trkpt lat="44.13656" lon="3.25575">
        <ele>830.5</ele>
        <time>2016-09-25T08:07:51Z</time>
      </trkpt>
      <trkpt lat="44.13663" lon="3.25582">
        <ele>830.6</ele>
        <time>2016-09-25T08:07:56Z</time>
      </trkpt>
      <trkpt lat="44.13667" lon="3.25592">
        <ele>830.7</ele>
        <time>2016-09-25T08:08:00Z</time>
      </trkpt>
      <trkpt lat="44.13672" lon="3.256">
        <ele>830.8</ele>
        <time>2016-09-25T08:08:05Z</time>
      </trkpt>
      <trkpt lat="44.13676" lon="3.2561">
        <ele>831</ele>
        <time>2016-09-25T08:08:10Z</time>
      </trkpt>
      <trkpt lat="44.13681" lon="3.25619">
        <ele>831.1</ele>
        <time>2016-09-25T08:08:15Z</time>
      </trkpt>
      <trkpt lat="44.13685" lon="3.25628">
        <ele>831.2</ele>
        <time>2016-09-25T08:08:20Z</time>
      </trkpt>
      <trkpt lat="44.1369" lon="3.25639">
        <ele>831.3</ele>
        <time>2016-09-25T08:08:25Z</time>
      </trkpt>
      <trkpt lat="44.13693" lon="3.2565">
        <ele>831.5</ele>
        <time>2016-09-25T08:08:30Z</time>
      </trkpt>
      <trkpt lat="44.13695" lon="3.25662">
        <ele>831.6</ele>
        <time>2016-09-25T08:08:35Z</time>
      </trkpt>
      <trkpt lat="44.13696" lon="3.25673">
        <ele>831.8</ele>
        <time>2016-09-25T08:08:39Z</time>
      </trkpt>
      <trkpt lat="44.13696" lon="3.25683">
        <ele>831.9</ele>
        <time>2016-09-25T08:08:43Z</time>
      </trkpt>
      <trkpt lat="44.13696" lon="3.25693">
        <ele>832.1</ele>
        <time>2016-09-25T08:08:47Z</time>
      </trkpt>
      <trkpt lat="44.13695" lon="3.25706">
        <ele>832.1</ele>
        <time>2016-09-25T08:08:51Z</time>
      </trkpt>
      <trkpt lat="44.13695" lon="3.25716">
        <ele>832.2</ele>
        <time>2016-09-25T08:08:55Z</time>
      </trkpt>
      <trkpt lat="44.13694" lon="3.25728">
        <ele>832.3</ele>
        <time>2016-09-25T08:08:59Z</time>
      </trkpt>
      <trkpt lat="44.13693" lon="3.25741">
        <ele>832.4</ele>
        <time>2016-09-25T08:09:03Z</time>
      </trkpt>
      <trkpt lat="44.13692" lon="3.25753">
        <ele>832.6</ele>
        <time>2016-09-25T08:09:07Z</time>
      </trkpt>
      <trkpt lat="44.13691" lon="3.25766">
        <ele>832.7</ele>
        <time>2016-09-25T08:09:11Z</time>
      </trkpt>
      <trkpt lat="44.13691" lon="3.25777">
        <ele>832.8</ele>
        <time>2016-09-25T08:09:15Z</time>
      </trkpt>
      <trkpt lat="44.1369" lon="3.25791">
        <ele>833</ele>
        <time>2016-09-25T08:09:19Z</time>
      </trkpt>
      <trkpt lat="44.1369" lon="3.25801">
        <ele>833.1</ele>
        <time>2016-09-25T08:09:22Z</time>
      </trkpt>
      <trkpt lat="44.13689" lon="3.25814">
        <ele>833.2</ele>
        <time>2016-09-25T08:09:25Z</time>
      </trkpt>
      <trkpt lat="44.13689" lon="3.25827">
        <ele>833.3</ele>
        <time>2016-09-25T08:09:28Z</time>
      </trkpt>
      <trkpt lat="44.13689" lon="3.25838">
        <ele>833.4</ele>
        <time>2016-09-25T08:09:31Z</time>
      </trkpt>
      <trkpt lat="44.1369" lon="3.25849">
        <ele>833.4</ele>
        <time>2016-09-25T08:09:34Z</time>
      </trkpt>
      <trkpt lat="44.13691" lon="3.25861">
        <ele>833.5</ele>
        <time>2016-09-25T08:09:37Z</time>
      </trkpt>
      <trkpt lat="44.13693" lon="3.25873">
        <ele>833.5</ele>
        <time>2016-09-25T08:09:40Z</time>
      </trkpt>
      <trkpt lat="44.13695" lon="3.25885">
        <ele>833.6</ele>
        <time>2016-09-25T08:09:43Z</time>
      </trkpt>
      <trkpt lat="44.13698" lon="3.25898">
        <ele>833.6</ele>
        <time>2016-09-25T08:09:46Z</time>
      </trkpt>
      <trkpt lat="44.13702" lon="3.2591">
        <ele>833.7</ele>
        <time>2016-09-25T08:09:49Z</time>
      </trkpt>
      <trkpt lat="44.13707" lon="3.25924">
        <ele>833.8</ele>
        <time>2016-09-25T08:09:52Z</time>
      </trkpt>
      <trkpt lat="44.13711" lon="3.25936">
        <ele>833.9</ele>
        <time>2016-09-25T08:09:55Z</time>
      </trkpt>
      <trkpt lat="44.13714" lon="3.25948">
        <ele>834</ele>
        <time>2016-09-25T08:09:58Z</time>
      </trkpt>
      <trkpt lat="44.13718" lon="3.25958">
        <ele>834.1</ele>
        <time>2016-09-25T08:10:00Z</time>
      </trkpt>
      <trkpt lat="44.13722" lon="3.2597">
        <ele>834.2</ele>
        <time>2016-09-25T08:10:03Z</time>
      </trkpt>
      <trkpt lat="44.13726" lon="3.25983">
        <ele>834.3</ele>
        <time>2016-09-25T08:10:06Z</time>
      </trkpt>
      <trkpt lat="44.1373" lon="3.25996">
        <ele>834.4</ele>
        <time>2016-09-25T08:10:09Z</time>
      </trkpt>
      <trkpt lat="44.13734" lon="3.26009">
        <ele>834.4</ele>
        <time>2016-09-25T08:10:12Z</time>
      </trkpt>
      <trkpt lat="44.13738" lon="3.26022">
        <ele>834.5</ele>
        <time>2016-09-25T08:10:15Z</time>
      </trkpt>
      <trkpt lat="44.13742" lon="3.26035">
        <ele>834.6</ele>
        <time>2016-09-25T08:10:18Z</time>
      </trkpt>
      <trkpt lat="44.13747" lon="3.26048">
        <ele>834.7</ele>
        <time>2016-09-25T08:10:21Z</time>
      </trkpt>
      <trkpt lat="44.13751" lon="3.26059">
        <ele>834.8</ele>
        <time>2016-09-25T08:10:24Z</time>
      </trkpt>
      <trkpt lat="44.13756" lon="3.26071">
        <ele>835</ele>
        <time>2016-09-25T08:10:27Z</time>
      </trkpt>
      <trkpt lat="44.13761" lon="3.26082">
        <ele>835.2</ele>
        <time>2016-09-25T08:10:30Z</time>
      </trkpt>
      <trkpt lat="44.13767" lon="3.26095">
        <ele>835.4</ele>
        <time>2016-09-25T08:10:33Z</time>
      </trkpt>
      <trkpt lat="44.13772" lon="3.26103">
        <ele>835.7</ele>
        <time>2016-09-25T08:10:35Z</time>
      </trkpt>
      <trkpt lat="44.13778" lon="3.26114">
        <ele>836</ele>
        <time>2016-09-25T08:10:38Z</time>
      </trkpt>
      <trkpt lat="44.13784" lon="3.26124">
        <ele>836.3</ele>
        <time>2016-09-25T08:10:41Z</time>
      </trkpt>
      <trkpt lat="44.13791" lon="3.26134">
        <ele>836.6</ele>
        <time>2016-09-25T08:10:44Z</time>
      </trkpt>
      <trkpt lat="44.13797" lon="3.26144">
        <ele>836.8</ele>
        <time>2016-09-25T08:10:47Z</time>
      </trkpt>
      <trkpt lat="44.13804" lon="3.26155">
        <ele>837</ele>
        <time>2016-09-25T08:10:50Z</time>
      </trkpt>
      <trkpt lat="44.1381" lon="3.26166">
        <ele>837.2</ele>
        <time>2016-09-25T08:10:53Z</time>
      </trkpt>
      <trkpt lat="44.13817" lon="3.26178">
        <ele>837.4</ele>
        <time>2016-09-25T08:10:56Z</time>
      </trkpt>
      <trkpt lat="44.13824" lon="3.26189">
        <ele>837.6</ele>
        <time>2016-09-25T08:10:59Z</time>
      </trkpt>
      <trkpt lat="44.13831" lon="3.262">
        <ele>837.8</ele>
        <time>2016-09-25T08:11:02Z</time>
      </trkpt>
      <trkpt lat="44.13838" lon="3.26211">
        <ele>838</ele>
        <time>2016-09-25T08:11:05Z</time>
      </trkpt>
      <trkpt lat="44.13842" lon="3.26219">
        <ele>838.1</ele>
        <time>2016-09-25T08:11:07Z</time>
      </trkpt>
      <trkpt lat="44.13848" lon="3.2623">
        <ele>838.4</ele>
        <time>2016-09-25T08:11:10Z</time>
      </trkpt>
      <trkpt lat="44.13855" lon="3.26241">
        <ele>838.7</ele>
        <time>2016-09-25T08:11:13Z</time>
      </trkpt>
      <trkpt lat="44.13861" lon="3.26252">
        <ele>838.9</ele>
        <time>2016-09-25T08:11:16Z</time>
      </trkpt>
      <trkpt lat="44.13868" lon="3.26263">
        <ele>839.1</ele>
        <time>2016-09-25T08:11:19Z</time>
      </trkpt>
      <trkpt lat="44.13873" lon="3.26271">
        <ele>839.6</ele>
        <time>2016-09-25T08:11:21Z</time>
      </trkpt>
      <trkpt lat="44.13878" lon="3.26279">
        <ele>840</ele>
        <time>2016-09-25T08:11:23Z</time>
      </trkpt>
      <trkpt lat="44.13884" lon="3.26289">
        <ele>840.4</ele>
        <time>2016-09-25T08:11:25Z</time>
      </trkpt>
      <trkpt lat="44.1389" lon="3.26299">
        <ele>840.9</ele>
        <time>2016-09-25T08:11:27Z</time>
      </trkpt>
      <trkpt lat="44.13895" lon="3.26308">
        <ele>841.3</ele>
        <time>2016-09-25T08:11:29Z</time>
      </trkpt>
      <trkpt lat="44.13901" lon="3.26317">
        <ele>841.6</ele>
        <time>2016-09-25T08:11:31Z</time>
      </trkpt>
      <trkpt lat="44.13908" lon="3.26327">
        <ele>841.7</ele>
        <time>2016-09-25T08:11:33Z</time>
      </trkpt>
      <trkpt lat="44.13914" lon="3.26338">
        <ele>841.8</ele>
        <time>2016-09-25T08:11:35Z</time>
      </trkpt>
      <trkpt lat="44.13922" lon="3.26348">
        <ele>841.8</ele>
        <time>2016-09-25T08:11:37Z</time>
      </trkpt>
      <trkpt lat="44.13931" lon="3.2636">
        <ele>841.6</ele>
        <time>2016-09-25T08:11:39Z</time>
      </trkpt>
      <trkpt lat="44.13938" lon="3.26371">
        <ele>841.5</ele>
        <time>2016-09-25T08:11:41Z</time>
      </trkpt>
      <trkpt lat="44.13945" lon="3.26382">
        <ele>841.8</ele>
        <time>2016-09-25T08:11:43Z</time>
      </trkpt>
      <trkpt lat="44.13952" lon="3.26394">
        <ele>842.6</ele>
        <time>2016-09-25T08:11:45Z</time>
      </trkpt>
      <trkpt lat="44.13958" lon="3.26406">
        <ele>843.7</ele>
        <time>2016-09-25T08:11:47Z</time>
      </trkpt>
      <trkpt lat="44.13964" lon="3.26417">
        <ele>844.6</ele>
        <time>2016-09-25T08:11:49Z</time>
      </trkpt>
      <trkpt lat="44.1397" lon="3.26427">
        <ele>845.5</ele>
        <time>2016-09-25T08:11:51Z</time>
      </trkpt>
      <trkpt lat="44.13976" lon="3.26436">
        <ele>846.3</ele>
        <time>2016-09-25T08:11:53Z</time>
      </trkpt>
      <trkpt lat="44.13982" lon="3.26445">
        <ele>846.8</ele>
        <time>2016-09-25T08:11:55Z</time>
      </trkpt>
      <trkpt lat="44.13988" lon="3.26453">
        <ele>847.1</ele>
        <time>2016-09-25T08:11:57Z</time>
      </trkpt>
      <trkpt lat="44.13993" lon="3.26462">
        <ele>847.5</ele>
        <time>2016-09-25T08:11:59Z</time>
      </trkpt>
      <trkpt lat="44.14" lon="3.26473">
        <ele>846.7</ele>
        <time>2016-09-25T08:12:02Z</time>
      </trkpt>
      <trkpt lat="44.14006" lon="3.26481">
        <ele>846.8</ele>
        <time>2016-09-25T08:12:04Z</time>
      </trkpt>
      <trkpt lat="44.14011" lon="3.26489">
        <ele>847.1</ele>
        <time>2016-09-25T08:12:06Z</time>
      </trkpt>
      <trkpt lat="44.14016" lon="3.26497">
        <ele>847.9</ele>
        <time>2016-09-25T08:12:08Z</time>
      </trkpt>
      <trkpt lat="44.14021" lon="3.26505">
        <ele>848.9</ele>
        <time>2016-09-25T08:12:10Z</time>
      </trkpt>
      <trkpt lat="44.14026" lon="3.26513">
        <ele>849.2</ele>
        <time>2016-09-25T08:12:12Z</time>
      </trkpt>
      <trkpt lat="44.1403" lon="3.26521">
        <ele>849.1</ele>
        <time>2016-09-25T08:12:14Z</time>
      </trkpt>
      <trkpt lat="44.14035" lon="3.2653">
        <ele>849</ele>
        <time>2016-09-25T08:12:16Z</time>
      </trkpt>
      <trkpt lat="44.14038" lon="3.26539">
        <ele>848.2</ele>
        <time>2016-09-25T08:12:18Z</time>
      </trkpt>
      <trkpt lat="44.14041" lon="3.26549">
        <ele>847.1</ele>
        <time>2016-09-25T08:12:20Z</time>
      </trkpt>
      <trkpt lat="44.14045" lon="3.26559">
        <ele>846.7</ele>
        <time>2016-09-25T08:12:22Z</time>
      </trkpt>
      <trkpt lat="44.14048" lon="3.26569">
        <ele>846.8</ele>
        <time>2016-09-25T08:12:24Z</time>
      </trkpt>
      <trkpt lat="44.14052" lon="3.2658">
        <ele>846.5</ele>
        <time>2016-09-25T08:12:26Z</time>
      </trkpt>
      <trkpt lat="44.14056" lon="3.26589">
        <ele>845.9</ele>
        <time>2016-09-25T08:12:28Z</time>
      </trkpt>
      <trkpt lat="44.14059" lon="3.26598">
        <ele>845.7</ele>
        <time>2016-09-25T08:12:30Z</time>
      </trkpt>
      <trkpt lat="44.14063" lon="3.26609">
        <ele>845.7</ele>
        <time>2016-09-25T08:12:32Z</time>
      </trkpt>
      <trkpt lat="44.14065" lon="3.26619">
        <ele>845.9</ele>
        <time>2016-09-25T08:12:34Z</time>
      </trkpt>
      <trkpt lat="44.14064" lon="3.2663">
        <ele>846.2</ele>
        <time>2016-09-25T08:12:37Z</time>
      </trkpt>
      <trkpt lat="44.14054" lon="3.26634">
        <ele>846.5</ele>
        <time>2016-09-25T08:12:40Z</time>
      </trkpt>
      <trkpt lat="44.14045" lon="3.26635">
        <ele>846.8</ele>
        <time>2016-09-25T08:12:42Z</time>
      </trkpt>
      <trkpt lat="44.14036" lon="3.26638">
        <ele>846.7</ele>
        <time>2016-09-25T08:12:44Z</time>
      </trkpt>
      <trkpt lat="44.14025" lon="3.2664">
        <ele>846.5</ele>
        <time>2016-09-25T08:12:46Z</time>
      </trkpt>
      <trkpt lat="44.14015" lon="3.26643">
        <ele>846.3</ele>
        <time>2016-09-25T08:12:48Z</time>
      </trkpt>
      <trkpt lat="44.14004" lon="3.26646">
        <ele>846</ele>
        <time>2016-09-25T08:12:50Z</time>
      </trkpt>
      <trkpt lat="44.13994" lon="3.26651">
        <ele>845.6</ele>
        <time>2016-09-25T08:12:52Z</time>
      </trkpt>
      <trkpt lat="44.13982" lon="3.26655">
        <ele>845.4</ele>
        <time>2016-09-25T08:12:54Z</time>
      </trkpt>
      <trkpt lat="44.1397" lon="3.26659">
        <ele>845.3</ele>
        <time>2016-09-25T08:12:56Z</time>
      </trkpt>
      <trkpt lat="44.13959" lon="3.26664">
        <ele>845</ele>
        <time>2016-09-25T08:12:58Z</time>
      </trkpt>
      <trkpt lat="44.13947" lon="3.26667">
        <ele>844.8</ele>
        <time>2016-09-25T08:13:00Z</time>
      </trkpt>
      <trkpt lat="44.13936" lon="3.26671">
        <ele>844.5</ele>
        <time>2016-09-25T08:13:02Z</time>
      </trkpt>
      <trkpt lat="44.13925" lon="3.26675">
        <ele>844.2</ele>
        <time>2016-09-25T08:13:04Z</time>
      </trkpt>
      <trkpt lat="44.13914" lon="3.2668">
        <ele>843.9</ele>
        <time>2016-09-25T08:13:06Z</time>
      </trkpt>
      <trkpt lat="44.13902" lon="3.26684">
        <ele>843.7</ele>
        <time>2016-09-25T08:13:08Z</time>
      </trkpt>
      <trkpt lat="44.13892" lon="3.26687">
        <ele>843.4</ele>
        <time>2016-09-25T08:13:10Z</time>
      </trkpt>
      <trkpt lat="44.13882" lon="3.26692">
        <ele>843.2</ele>
        <time>2016-09-25T08:13:12Z</time>
      </trkpt>
      <trkpt lat="44.13872" lon="3.26695">
        <ele>843</ele>
        <time>2016-09-25T08:13:14Z</time>
      </trkpt>
      <trkpt lat="44.13863" lon="3.26699">
        <ele>842.7</ele>
        <time>2016-09-25T08:13:16Z</time>
      </trkpt>
      <trkpt lat="44.13853" lon="3.26702">
        <ele>842.5</ele>
        <time>2016-09-25T08:13:18Z</time>
      </trkpt>
      <trkpt lat="44.13844" lon="3.26706">
        <ele>842.3</ele>
        <time>2016-09-25T08:13:20Z</time>
      </trkpt>
      <trkpt lat="44.13834" lon="3.26709">
        <ele>842</ele>
        <time>2016-09-25T08:13:22Z</time>
      </trkpt>
      <trkpt lat="44.13826" lon="3.26712">
        <ele>841.8</ele>
        <time>2016-09-25T08:13:24Z</time>
      </trkpt>
      <trkpt lat="44.13817" lon="3.26715">
        <ele>841.7</ele>
        <time>2016-09-25T08:13:26Z</time>
      </trkpt>
      <trkpt lat="44.13809" lon="3.26718">
        <ele>841.6</ele>
        <time>2016-09-25T08:13:28Z</time>
      </trkpt>
      <trkpt lat="44.13802" lon="3.26721">
        <ele>841.3</ele>
        <time>2016-09-25T08:13:30Z</time>
      </trkpt>
      <trkpt lat="44.13795" lon="3.26725">
        <ele>840.8</ele>
        <time>2016-09-25T08:13:32Z</time>
      </trkpt>
      <trkpt lat="44.13786" lon="3.26728">
        <ele>840.3</ele>
        <time>2016-09-25T08:13:34Z</time>
      </trkpt>
      <trkpt lat="44.13777" lon="3.26733">
        <ele>840.1</ele>
        <time>2016-09-25T08:13:36Z</time>
      </trkpt>
      <trkpt lat="44.13767" lon="3.26738">
        <ele>840.3</ele>
        <time>2016-09-25T08:13:38Z</time>
      </trkpt>
      <trkpt lat="44.13758" lon="3.26742">
        <ele>839.9</ele>
        <time>2016-09-25T08:13:40Z</time>
      </trkpt>
      <trkpt lat="44.13748" lon="3.26748">
        <ele>839.7</ele>
        <time>2016-09-25T08:13:42Z</time>
      </trkpt>
      <trkpt lat="44.13739" lon="3.26753">
        <ele>839.6</ele>
        <time>2016-09-25T08:13:44Z</time>
      </trkpt>
      <trkpt lat="44.13729" lon="3.2676">
        <ele>839.8</ele>
        <time>2016-09-25T08:13:46Z</time>
      </trkpt>
      <trkpt lat="44.13721" lon="3.26766">
        <ele>840.1</ele>
        <time>2016-09-25T08:13:48Z</time>
      </trkpt>
      <trkpt lat="44.13713" lon="3.26772">
        <ele>840.2</ele>
        <time>2016-09-25T08:13:50Z</time>
      </trkpt>
      <trkpt lat="44.13705" lon="3.26777">
        <ele>840.2</ele>
        <time>2016-09-25T08:13:52Z</time>
      </trkpt>
      <trkpt lat="44.13696" lon="3.26784">
        <ele>840.1</ele>
        <time>2016-09-25T08:13:54Z</time>
      </trkpt>
      <trkpt lat="44.13688" lon="3.26791">
        <ele>840</ele>
        <time>2016-09-25T08:13:56Z</time>
      </trkpt>
      <trkpt lat="44.13679" lon="3.26799">
        <ele>839.9</ele>
        <time>2016-09-25T08:13:58Z</time>
      </trkpt>
      <trkpt lat="44.13671" lon="3.26806">
        <ele>839.7</ele>
        <time>2016-09-25T08:14:00Z</time>
      </trkpt>
      <trkpt lat="44.13663" lon="3.26813">
        <ele>839.7</ele>
        <time>2016-09-25T08:14:02Z</time>
      </trkpt>
      <trkpt lat="44.13655" lon="3.2682">
        <ele>839.6</ele>
        <time>2016-09-25T08:14:04Z</time>
      </trkpt>
      <trkpt lat="44.13646" lon="3.26827">
        <ele>839.5</ele>
        <time>2016-09-25T08:14:06Z</time>
      </trkpt>
      <trkpt lat="44.13638" lon="3.26835">
        <ele>839.4</ele>
        <time>2016-09-25T08:14:08Z</time>
      </trkpt>
      <trkpt lat="44.13629" lon="3.26842">
        <ele>839.4</ele>
        <time>2016-09-25T08:14:10Z</time>
      </trkpt>
      <trkpt lat="44.13621" lon="3.2685">
        <ele>839.4</ele>
        <time>2016-09-25T08:14:12Z</time>
      </trkpt>
      <trkpt lat="44.13612" lon="3.26859">
        <ele>839.4</ele>
        <time>2016-09-25T08:14:14Z</time>
      </trkpt>
      <trkpt lat="44.13603" lon="3.26867">
        <ele>839.6</ele>
        <time>2016-09-25T08:14:16Z</time>
      </trkpt>
      <trkpt lat="44.13593" lon="3.26876">
        <ele>839.6</ele>
        <time>2016-09-25T08:14:18Z</time>
      </trkpt>
      <trkpt lat="44.13584" lon="3.26885">
        <ele>839.6</ele>
        <time>2016-09-25T08:14:20Z</time>
      </trkpt>
      <trkpt lat="44.13577" lon="3.26893">
        <ele>839.1</ele>
        <time>2016-09-25T08:14:22Z</time>
      </trkpt>
      <trkpt lat="44.13569" lon="3.26901">
        <ele>838.6</ele>
        <time>2016-09-25T08:14:24Z</time>
      </trkpt>
      <trkpt lat="44.1356" lon="3.26908">
        <ele>838.1</ele>
        <time>2016-09-25T08:14:26Z</time>
      </trkpt>
      <trkpt lat="44.13552" lon="3.26915">
        <ele>837.9</ele>
        <time>2016-09-25T08:14:28Z</time>
      </trkpt>
      <trkpt lat="44.13543" lon="3.26922">
        <ele>838.3</ele>
        <time>2016-09-25T08:14:30Z</time>
      </trkpt>
      <trkpt lat="44.13537" lon="3.26928">
        <ele>838.4</ele>
        <time>2016-09-25T08:14:32Z</time>
      </trkpt>
      <trkpt lat="44.13529" lon="3.26935">
        <ele>838.6</ele>
        <time>2016-09-25T08:14:34Z</time>
      </trkpt>
      <trkpt lat="44.13521" lon="3.26941">
        <ele>838.7</ele>
        <time>2016-09-25T08:14:36Z</time>
      </trkpt>
      <trkpt lat="44.13514" lon="3.26947">
        <ele>838.8</ele>
        <time>2016-09-25T08:14:38Z</time>
      </trkpt>
      <trkpt lat="44.13507" lon="3.26953">
        <ele>838.9</ele>
        <time>2016-09-25T08:14:40Z</time>
      </trkpt>
      <trkpt lat="44.13499" lon="3.26959">
        <ele>839.5</ele>
        <time>2016-09-25T08:14:42Z</time>
      </trkpt>
      <trkpt lat="44.13488" lon="3.26967">
        <ele>839.9</ele>
        <time>2016-09-25T08:14:45Z</time>
      </trkpt>
      <trkpt lat="44.13481" lon="3.26973">
        <ele>840.5</ele>
        <time>2016-09-25T08:14:47Z</time>
      </trkpt>
      <trkpt lat="44.13474" lon="3.26978">
        <ele>841.1</ele>
        <time>2016-09-25T08:14:49Z</time>
      </trkpt>
      <trkpt lat="44.13467" lon="3.26983">
        <ele>841.6</ele>
        <time>2016-09-25T08:14:51Z</time>
      </trkpt>
      <trkpt lat="44.1346" lon="3.26988">
        <ele>842.1</ele>
        <time>2016-09-25T08:14:53Z</time>
      </trkpt>
      <trkpt lat="44.13451" lon="3.26995">
        <ele>841.7</ele>
        <time>2016-09-25T08:14:56Z</time>
      </trkpt>
      <trkpt lat="44.13444" lon="3.27001">
        <ele>841.5</ele>
        <time>2016-09-25T08:14:58Z</time>
      </trkpt>
      <trkpt lat="44.13437" lon="3.27006">
        <ele>841.4</ele>
        <time>2016-09-25T08:15:00Z</time>
      </trkpt>
      <trkpt lat="44.1343" lon="3.27011">
        <ele>841.5</ele>
        <time>2016-09-25T08:15:02Z</time>
      </trkpt>
      <trkpt lat="44.13421" lon="3.27016">
        <ele>842.2</ele>
        <time>2016-09-25T08:15:04Z</time>
      </trkpt>
      <trkpt lat="44.13415" lon="3.27021">
        <ele>843.2</ele>
        <time>2016-09-25T08:15:06Z</time>
      </trkpt>
      <trkpt lat="44.13408" lon="3.27027">
        <ele>844.1</ele>
        <time>2016-09-25T08:15:08Z</time>
      </trkpt>
      <trkpt lat="44.13401" lon="3.27033">
        <ele>844.7</ele>
        <time>2016-09-25T08:15:10Z</time>
      </trkpt>
      <trkpt lat="44.13394" lon="3.27039">
        <ele>845.2</ele>
        <time>2016-09-25T08:15:12Z</time>
      </trkpt>
      <trkpt lat="44.13387" lon="3.27044">
        <ele>845.4</ele>
        <time>2016-09-25T08:15:14Z</time>
      </trkpt>
      <trkpt lat="44.13379" lon="3.27049">
        <ele>846</ele>
        <time>2016-09-25T08:15:16Z</time>
      </trkpt>
      <trkpt lat="44.13373" lon="3.27055">
        <ele>846.3</ele>
        <time>2016-09-25T08:15:18Z</time>
      </trkpt>
      <trkpt lat="44.13366" lon="3.2706">
        <ele>846.3</ele>
        <time>2016-09-25T08:15:20Z</time>
      </trkpt>
      <trkpt lat="44.13359" lon="3.27066">
        <ele>846.4</ele>
        <time>2016-09-25T08:15:22Z</time>
      </trkpt>
      <trkpt lat="44.13353" lon="3.27071">
        <ele>846.2</ele>
        <time>2016-09-25T08:15:24Z</time>
      </trkpt>
      <trkpt lat="44.13345" lon="3.27077">
        <ele>845.9</ele>
        <time>2016-09-25T08:15:26Z</time>
      </trkpt>
      <trkpt lat="44.13338" lon="3.27083">
        <ele>845.8</ele>
        <time>2016-09-25T08:15:28Z</time>
      </trkpt>
      <trkpt lat="44.13331" lon="3.27089">
        <ele>845.6</ele>
        <time>2016-09-25T08:15:30Z</time>
      </trkpt>
      <trkpt lat="44.13322" lon="3.27096">
        <ele>846</ele>
        <time>2016-09-25T08:15:32Z</time>
      </trkpt>
      <trkpt lat="44.13315" lon="3.27101">
        <ele>845.9</ele>
        <time>2016-09-25T08:15:34Z</time>
      </trkpt>
      <trkpt lat="44.13307" lon="3.27108">
        <ele>846.3</ele>
        <time>2016-09-25T08:15:36Z</time>
      </trkpt>
      <trkpt lat="44.133" lon="3.27113">
        <ele>846.4</ele>
        <time>2016-09-25T08:15:38Z</time>
      </trkpt>
      <trkpt lat="44.13292" lon="3.27119">
        <ele>846.3</ele>
        <time>2016-09-25T08:15:40Z</time>
      </trkpt>
      <trkpt lat="44.13285" lon="3.27125">
        <ele>846</ele>
        <time>2016-09-25T08:15:42Z</time>
      </trkpt>
      <trkpt lat="44.13278" lon="3.27132">
        <ele>845.8</ele>
        <time>2016-09-25T08:15:44Z</time>
      </trkpt>
      <trkpt lat="44.1327" lon="3.27138">
        <ele>845.9</ele>
        <time>2016-09-25T08:15:46Z</time>
      </trkpt>
      <trkpt lat="44.13262" lon="3.27145">
        <ele>846</ele>
        <time>2016-09-25T08:15:48Z</time>
      </trkpt>
      <trkpt lat="44.13254" lon="3.27151">
        <ele>845.7</ele>
        <time>2016-09-25T08:15:50Z</time>
      </trkpt>
      <trkpt lat="44.13246" lon="3.27159">
        <ele>845.6</ele>
        <time>2016-09-25T08:15:52Z</time>
      </trkpt>
      <trkpt lat="44.13237" lon="3.27165">
        <ele>845.9</ele>
        <time>2016-09-25T08:15:54Z</time>
      </trkpt>
      <trkpt lat="44.13228" lon="3.27172">
        <ele>845.7</ele>
        <time>2016-09-25T08:15:56Z</time>
      </trkpt>
      <trkpt lat="44.13219" lon="3.27179">
        <ele>846</ele>
        <time>2016-09-25T08:15:58Z</time>
      </trkpt>
      <trkpt lat="44.13211" lon="3.27185">
        <ele>846.1</ele>
        <time>2016-09-25T08:16:00Z</time>
      </trkpt>
      <trkpt lat="44.13201" lon="3.27191">
        <ele>845.8</ele>
        <time>2016-09-25T08:16:02Z</time>
      </trkpt>
      <trkpt lat="44.13193" lon="3.27197">
        <ele>845.5</ele>
        <time>2016-09-25T08:16:04Z</time>
      </trkpt>
      <trkpt lat="44.13186" lon="3.27202">
        <ele>845.2</ele>
        <time>2016-09-25T08:16:06Z</time>
      </trkpt>
      <trkpt lat="44.13178" lon="3.27208">
        <ele>845.1</ele>
        <time>2016-09-25T08:16:08Z</time>
      </trkpt>
      <trkpt lat="44.13169" lon="3.27214">
        <ele>845.2</ele>
        <time>2016-09-25T08:16:10Z</time>
      </trkpt>
      <trkpt lat="44.13161" lon="3.2722">
        <ele>845.6</ele>
        <time>2016-09-25T08:16:12Z</time>
      </trkpt>
      <trkpt lat="44.13153" lon="3.27227">
        <ele>845.4</ele>
        <time>2016-09-25T08:16:15Z</time>
      </trkpt>
      <trkpt lat="44.13145" lon="3.27233">
        <ele>845.7</ele>
        <time>2016-09-25T08:16:17Z</time>
      </trkpt>
      <trkpt lat="44.13138" lon="3.27238">
        <ele>846</ele>
        <time>2016-09-25T08:16:19Z</time>
      </trkpt>
      <trkpt lat="44.13129" lon="3.27245">
        <ele>846.1</ele>
        <time>2016-09-25T08:16:22Z</time>
      </trkpt>
      <trkpt lat="44.13121" lon="3.27252">
        <ele>846.1</ele>
        <time>2016-09-25T08:16:25Z</time>
      </trkpt>
      <trkpt lat="44.13112" lon="3.27259">
        <ele>846.3</ele>
        <time>2016-09-25T08:16:28Z</time>
      </trkpt>
      <trkpt lat="44.13105" lon="3.27264">
        <ele>846.3</ele>
        <time>2016-09-25T08:16:30Z</time>
      </trkpt>
      <trkpt lat="44.13096" lon="3.27271">
        <ele>846.5</ele>
        <time>2016-09-25T08:16:33Z</time>
      </trkpt>
      <trkpt lat="44.13087" lon="3.27277">
        <ele>846.7</ele>
        <time>2016-09-25T08:16:36Z</time>
      </trkpt>
      <trkpt lat="44.13078" lon="3.27283">
        <ele>846.9</ele>
        <time>2016-09-25T08:16:39Z</time>
      </trkpt>
      <trkpt lat="44.13069" lon="3.27289">
        <ele>847.2</ele>
        <time>2016-09-25T08:16:42Z</time>
      </trkpt>
      <trkpt lat="44.1306" lon="3.27295">
        <ele>847.4</ele>
        <time>2016-09-25T08:16:45Z</time>
      </trkpt>
      <trkpt lat="44.13051" lon="3.273">
        <ele>847.7</ele>
        <time>2016-09-25T08:16:48Z</time>
      </trkpt>
      <trkpt lat="44.13042" lon="3.27306">
        <ele>848</ele>
        <time>2016-09-25T08:16:51Z</time>
      </trkpt>
      <trkpt lat="44.13035" lon="3.27309">
        <ele>848.3</ele>
        <time>2016-09-25T08:16:54Z</time>
      </trkpt>
      <trkpt lat="44.13027" lon="3.27314">
        <ele>848.8</ele>
        <time>2016-09-25T08:16:58Z</time>
      </trkpt>
      <trkpt lat="44.13019" lon="3.27318">
        <ele>849.1</ele>
        <time>2016-09-25T08:17:01Z</time>
      </trkpt>
      <trkpt lat="44.13011" lon="3.27325">
        <ele>849.4</ele>
        <time>2016-09-25T08:17:04Z</time>
      </trkpt>
      <trkpt lat="44.13002" lon="3.27331">
        <ele>849.7</ele>
        <time>2016-09-25T08:17:07Z</time>
      </trkpt>
      <trkpt lat="44.12995" lon="3.27336">
        <ele>849.9</ele>
        <time>2016-09-25T08:17:09Z</time>
      </trkpt>
      <trkpt lat="44.12987" lon="3.27341">
        <ele>850.3</ele>
        <time>2016-09-25T08:17:11Z</time>
      </trkpt>
      <trkpt lat="44.12979" lon="3.27347">
        <ele>850.8</ele>
        <time>2016-09-25T08:17:14Z</time>
      </trkpt>
      <trkpt lat="44.12971" lon="3.27353">
        <ele>851.3</ele>
        <time>2016-09-25T08:17:17Z</time>
      </trkpt>
      <trkpt lat="44.12962" lon="3.27361">
        <ele>851.9</ele>
        <time>2016-09-25T08:17:20Z</time>
      </trkpt>
      <trkpt lat="44.12954" lon="3.2737">
        <ele>852.5</ele>
        <time>2016-09-25T08:17:23Z</time>
      </trkpt>
      <trkpt lat="44.12947" lon="3.27379">
        <ele>853</ele>
        <time>2016-09-25T08:17:26Z</time>
      </trkpt>
      <trkpt lat="44.12939" lon="3.27389">
        <ele>853.5</ele>
        <time>2016-09-25T08:17:29Z</time>
      </trkpt>
      <trkpt lat="44.12933" lon="3.27399">
        <ele>853.9</ele>
        <time>2016-09-25T08:17:32Z</time>
      </trkpt>
      <trkpt lat="44.12927" lon="3.27408">
        <ele>854.4</ele>
        <time>2016-09-25T08:17:35Z</time>
      </trkpt>
      <trkpt lat="44.12921" lon="3.27416">
        <ele>854.7</ele>
        <time>2016-09-25T08:17:38Z</time>
      </trkpt>
      <trkpt lat="44.12914" lon="3.27425">
        <ele>855.1</ele>
        <time>2016-09-25T08:17:41Z</time>
      </trkpt>
      <trkpt lat="44.12908" lon="3.27432">
        <ele>855.6</ele>
        <time>2016-09-25T08:17:44Z</time>
      </trkpt>
      <trkpt lat="44.12901" lon="3.2744">
        <ele>856.1</ele>
        <time>2016-09-25T08:17:47Z</time>
      </trkpt>
      <trkpt lat="44.12894" lon="3.27446">
        <ele>856.6</ele>
        <time>2016-09-25T08:17:50Z</time>
      </trkpt>
      <trkpt lat="44.12886" lon="3.27455">
        <ele>857.1</ele>
        <time>2016-09-25T08:17:53Z</time>
      </trkpt>
      <trkpt lat="44.12881" lon="3.27462">
        <ele>857.5</ele>
        <time>2016-09-25T08:17:56Z</time>
      </trkpt>
      <trkpt lat="44.12873" lon="3.27469">
        <ele>857.8</ele>
        <time>2016-09-25T08:17:59Z</time>
      </trkpt>
      <trkpt lat="44.12867" lon="3.27473">
        <ele>858.3</ele>
        <time>2016-09-25T08:18:02Z</time>
      </trkpt>
      <trkpt lat="44.1286" lon="3.27479">
        <ele>858.8</ele>
        <time>2016-09-25T08:18:05Z</time>
      </trkpt>
      <trkpt lat="44.12854" lon="3.27487">
        <ele>859.4</ele>
        <time>2016-09-25T08:18:09Z</time>
      </trkpt>
      <trkpt lat="44.12848" lon="3.27494">
        <ele>860.3</ele>
        <time>2016-09-25T08:18:14Z</time>
      </trkpt>
      <trkpt lat="44.1284" lon="3.27499">
        <ele>861.1</ele>
        <time>2016-09-25T08:18:19Z</time>
      </trkpt>
      <trkpt lat="44.12832" lon="3.27504">
        <ele>861.7</ele>
        <time>2016-09-25T08:18:23Z</time>
      </trkpt>
      <trkpt lat="44.12823" lon="3.27508">
        <ele>862.3</ele>
        <time>2016-09-25T08:18:27Z</time>
      </trkpt>
      <trkpt lat="44.12815" lon="3.2751">
        <ele>862.8</ele>
        <time>2016-09-25T08:18:30Z</time>
      </trkpt>
      <trkpt lat="44.12804" lon="3.27515">
        <ele>864.8</ele>
        <time>2016-09-25T08:18:33Z</time>
      </trkpt>
      <trkpt lat="44.12796" lon="3.27522">
        <ele>865.5</ele>
        <time>2016-09-25T08:18:35Z</time>
      </trkpt>
      <trkpt lat="44.12787" lon="3.27532">
        <ele>865.7</ele>
        <time>2016-09-25T08:18:37Z</time>
      </trkpt>
      <trkpt lat="44.12779" lon="3.27545">
        <ele>865.6</ele>
        <time>2016-09-25T08:18:39Z</time>
      </trkpt>
      <trkpt lat="44.12774" lon="3.27552">
        <ele>865.7</ele>
        <time>2016-09-25T08:18:40Z</time>
      </trkpt>
      <trkpt lat="44.12769" lon="3.2756">
        <ele>865.7</ele>
        <time>2016-09-25T08:18:41Z</time>
      </trkpt>
      <trkpt lat="44.12765" lon="3.27569">
        <ele>865.8</ele>
        <time>2016-09-25T08:18:42Z</time>
      </trkpt>
      <trkpt lat="44.1276" lon="3.27578">
        <ele>865.8</ele>
        <time>2016-09-25T08:18:43Z</time>
      </trkpt>
      <trkpt lat="44.12751" lon="3.27596">
        <ele>865.6</ele>
        <time>2016-09-25T08:18:45Z</time>
      </trkpt>
      <trkpt lat="44.12746" lon="3.27602">
        <ele>865.4</ele>
        <time>2016-09-25T08:18:46Z</time>
      </trkpt>
      <trkpt lat="44.12739" lon="3.27609">
        <ele>865</ele>
        <time>2016-09-25T08:18:47Z</time>
      </trkpt>
      <trkpt lat="44.12733" lon="3.27616">
        <ele>864.4</ele>
        <time>2016-09-25T08:18:48Z</time>
      </trkpt>
      <trkpt lat="44.12725" lon="3.27623">
        <ele>863.5</ele>
        <time>2016-09-25T08:18:49Z</time>
      </trkpt>
      <trkpt lat="44.12717" lon="3.27631">
        <ele>862.6</ele>
        <time>2016-09-25T08:18:50Z</time>
      </trkpt>
      <trkpt lat="44.1271" lon="3.27637">
        <ele>861.8</ele>
        <time>2016-09-25T08:18:51Z</time>
      </trkpt>
      <trkpt lat="44.12702" lon="3.27644">
        <ele>861.3</ele>
        <time>2016-09-25T08:18:52Z</time>
      </trkpt>
      <trkpt lat="44.12694" lon="3.2765">
        <ele>861</ele>
        <time>2016-09-25T08:18:53Z</time>
      </trkpt>
      <trkpt lat="44.12686" lon="3.27657">
        <ele>860.8</ele>
        <time>2016-09-25T08:18:54Z</time>
      </trkpt>
      <trkpt lat="44.12678" lon="3.27663">
        <ele>860.5</ele>
        <time>2016-09-25T08:18:55Z</time>
      </trkpt>
      <trkpt lat="44.12672" lon="3.27671">
        <ele>860.4</ele>
        <time>2016-09-25T08:18:56Z</time>
      </trkpt>
      <trkpt lat="44.12661" lon="3.27685">
        <ele>859.5</ele>
        <time>2016-09-25T08:18:58Z</time>
      </trkpt>
      <trkpt lat="44.12652" lon="3.277">
        <ele>859.6</ele>
        <time>2016-09-25T08:19:00Z</time>
      </trkpt>
      <trkpt lat="44.12645" lon="3.27712">
        <ele>859.5</ele>
        <time>2016-09-25T08:19:02Z</time>
      </trkpt>
      <trkpt lat="44.12637" lon="3.27724">
        <ele>859.5</ele>
        <time>2016-09-25T08:19:04Z</time>
      </trkpt>
      <trkpt lat="44.12628" lon="3.27733">
        <ele>859.9</ele>
        <time>2016-09-25T08:19:06Z</time>
      </trkpt>
      <trkpt lat="44.12619" lon="3.27738">
        <ele>860.6</ele>
        <time>2016-09-25T08:19:08Z</time>
      </trkpt>
      <trkpt lat="44.12609" lon="3.27739">
        <ele>861.4</ele>
        <time>2016-09-25T08:19:10Z</time>
      </trkpt>
      <trkpt lat="44.12601" lon="3.27741">
        <ele>862.1</ele>
        <time>2016-09-25T08:19:12Z</time>
      </trkpt>
      <trkpt lat="44.12592" lon="3.27742">
        <ele>862.7</ele>
        <time>2016-09-25T08:19:14Z</time>
      </trkpt>
      <trkpt lat="44.12584" lon="3.27743">
        <ele>863.8</ele>
        <time>2016-09-25T08:19:16Z</time>
      </trkpt>
      <trkpt lat="44.12575" lon="3.27744">
        <ele>864.9</ele>
        <time>2016-09-25T08:19:18Z</time>
      </trkpt>
      <trkpt lat="44.12568" lon="3.27744">
        <ele>865.7</ele>
        <time>2016-09-25T08:19:20Z</time>
      </trkpt>
      <trkpt lat="44.1256" lon="3.27745">
        <ele>866.1</ele>
        <time>2016-09-25T08:19:22Z</time>
      </trkpt>
      <trkpt lat="44.12553" lon="3.27746">
        <ele>866.3</ele>
        <time>2016-09-25T08:19:24Z</time>
      </trkpt>
      <trkpt lat="44.12544" lon="3.27745">
        <ele>866.4</ele>
        <time>2016-09-25T08:19:27Z</time>
      </trkpt>
      <trkpt lat="44.12535" lon="3.27745">
        <ele>866.6</ele>
        <time>2016-09-25T08:19:30Z</time>
      </trkpt>
      <trkpt lat="44.12526" lon="3.27746">
        <ele>866.7</ele>
        <time>2016-09-25T08:19:33Z</time>
      </trkpt>
      <trkpt lat="44.12518" lon="3.27747">
        <ele>866.8</ele>
        <time>2016-09-25T08:19:36Z</time>
      </trkpt>
      <trkpt lat="44.12509" lon="3.27748">
        <ele>867</ele>
        <time>2016-09-25T08:19:39Z</time>
      </trkpt>
      <trkpt lat="44.12499" lon="3.2775">
        <ele>867.1</ele>
        <time>2016-09-25T08:19:43Z</time>
      </trkpt>
      <trkpt lat="44.1249" lon="3.27756">
        <ele>867.3</ele>
        <time>2016-09-25T08:19:46Z</time>
      </trkpt>
      <trkpt lat="44.12484" lon="3.27763">
        <ele>867.4</ele>
        <time>2016-09-25T08:19:49Z</time>
      </trkpt>
      <trkpt lat="44.12478" lon="3.27774">
        <ele>867.7</ele>
        <time>2016-09-25T08:19:53Z</time>
      </trkpt>
      <trkpt lat="44.12475" lon="3.27783">
        <ele>868.1</ele>
        <time>2016-09-25T08:19:57Z</time>
      </trkpt>
      <trkpt lat="44.12472" lon="3.27793">
        <ele>868.8</ele>
        <time>2016-09-25T08:20:02Z</time>
      </trkpt>
      <trkpt lat="44.12469" lon="3.27803">
        <ele>869.5</ele>
        <time>2016-09-25T08:20:06Z</time>
      </trkpt>
      <trkpt lat="44.12468" lon="3.27816">
        <ele>870.3</ele>
        <time>2016-09-25T08:20:11Z</time>
      </trkpt>
      <trkpt lat="44.12466" lon="3.27828">
        <ele>870.9</ele>
        <time>2016-09-25T08:20:15Z</time>
      </trkpt>
      <trkpt lat="44.12464" lon="3.27838">
        <ele>871.8</ele>
        <time>2016-09-25T08:20:20Z</time>
      </trkpt>
      <trkpt lat="44.12461" lon="3.27851">
        <ele>872.6</ele>
        <time>2016-09-25T08:20:25Z</time>
      </trkpt>
      <trkpt lat="44.12459" lon="3.27861">
        <ele>873.3</ele>
        <time>2016-09-25T08:20:29Z</time>
      </trkpt>
      <trkpt lat="44.12457" lon="3.27872">
        <ele>874.1</ele>
        <time>2016-09-25T08:20:33Z</time>
      </trkpt>
      <trkpt lat="44.12454" lon="3.27884">
        <ele>875.1</ele>
        <time>2016-09-25T08:20:38Z</time>
      </trkpt>
      <trkpt lat="44.12453" lon="3.27894">
        <ele>875.8</ele>
        <time>2016-09-25T08:20:42Z</time>
      </trkpt>
      <trkpt lat="44.12451" lon="3.27906">
        <ele>876.6</ele>
        <time>2016-09-25T08:20:47Z</time>
      </trkpt>
      <trkpt lat="44.12449" lon="3.27917">
        <ele>877.4</ele>
        <time>2016-09-25T08:20:52Z</time>
      </trkpt>
      <trkpt lat="44.12446" lon="3.27928">
        <ele>878.1</ele>
        <time>2016-09-25T08:20:56Z</time>
      </trkpt>
      <trkpt lat="44.12444" lon="3.27941">
        <ele>878.8</ele>
        <time>2016-09-25T08:21:00Z</time>
      </trkpt>
      <trkpt lat="44.12442" lon="3.27952">
        <ele>879.4</ele>
        <time>2016-09-25T08:21:04Z</time>
      </trkpt>
      <trkpt lat="44.1244" lon="3.27963">
        <ele>880.1</ele>
        <time>2016-09-25T08:21:08Z</time>
      </trkpt>
      <trkpt lat="44.12439" lon="3.27974">
        <ele>880.8</ele>
        <time>2016-09-25T08:21:12Z</time>
      </trkpt>
      <trkpt lat="44.12437" lon="3.27984">
        <ele>881.5</ele>
        <time>2016-09-25T08:21:16Z</time>
      </trkpt>
      <trkpt lat="44.12435" lon="3.27994">
        <ele>882.3</ele>
        <time>2016-09-25T08:21:20Z</time>
      </trkpt>
      <trkpt lat="44.12432" lon="3.28003">
        <ele>882.9</ele>
        <time>2016-09-25T08:21:24Z</time>
      </trkpt>
      <trkpt lat="44.12429" lon="3.28014">
        <ele>883.4</ele>
        <time>2016-09-25T08:21:28Z</time>
      </trkpt>
      <trkpt lat="44.12424" lon="3.28022">
        <ele>884</ele>
        <time>2016-09-25T08:21:32Z</time>
      </trkpt>
      <trkpt lat="44.1242" lon="3.28031">
        <ele>884.5</ele>
        <time>2016-09-25T08:21:36Z</time>
      </trkpt>
      <trkpt lat="44.12414" lon="3.28038">
        <ele>885.1</ele>
        <time>2016-09-25T08:21:40Z</time>
      </trkpt>
      <trkpt lat="44.12409" lon="3.28046">
        <ele>885.7</ele>
        <time>2016-09-25T08:21:44Z</time>
      </trkpt>
      <trkpt lat="44.12404" lon="3.28054">
        <ele>886.4</ele>
        <time>2016-09-25T08:21:48Z</time>
      </trkpt>
      <trkpt lat="44.12399" lon="3.28063">
        <ele>887.4</ele>
        <time>2016-09-25T08:21:53Z</time>
      </trkpt>
      <trkpt lat="44.12394" lon="3.28071">
        <ele>888.2</ele>
        <time>2016-09-25T08:21:57Z</time>
      </trkpt>
      <trkpt lat="44.12391" lon="3.28081">
        <ele>889</ele>
        <time>2016-09-25T08:22:01Z</time>
      </trkpt>
      <trkpt lat="44.12389" lon="3.28093">
        <ele>889.9</ele>
        <time>2016-09-25T08:22:05Z</time>
      </trkpt>
      <trkpt lat="44.12387" lon="3.28104">
        <ele>890.6</ele>
        <time>2016-09-25T08:22:09Z</time>
      </trkpt>
      <trkpt lat="44.12386" lon="3.28113">
        <ele>891.5</ele>
        <time>2016-09-25T08:22:13Z</time>
      </trkpt>
      <trkpt lat="44.12384" lon="3.28125">
        <ele>892.4</ele>
        <time>2016-09-25T08:22:17Z</time>
      </trkpt>
      <trkpt lat="44.12382" lon="3.28136">
        <ele>893.2</ele>
        <time>2016-09-25T08:22:21Z</time>
      </trkpt>
      <trkpt lat="44.12379" lon="3.28146">
        <ele>894</ele>
        <time>2016-09-25T08:22:25Z</time>
      </trkpt>
      <trkpt lat="44.12376" lon="3.28157">
        <ele>894.8</ele>
        <time>2016-09-25T08:22:29Z</time>
      </trkpt>
      <trkpt lat="44.12371" lon="3.28166">
        <ele>895.6</ele>
        <time>2016-09-25T08:22:32Z</time>
      </trkpt>
      <trkpt lat="44.12368" lon="3.28176">
        <ele>896.1</ele>
        <time>2016-09-25T08:22:35Z</time>
      </trkpt>
      <trkpt lat="44.12363" lon="3.28187">
        <ele>896.5</ele>
        <time>2016-09-25T08:22:38Z</time>
      </trkpt>
      <trkpt lat="44.12358" lon="3.28198">
        <ele>897</ele>
        <time>2016-09-25T08:22:42Z</time>
      </trkpt>
      <trkpt lat="44.12354" lon="3.28207">
        <ele>897.4</ele>
        <time>2016-09-25T08:22:45Z</time>
      </trkpt>
      <trkpt lat="44.12349" lon="3.28216">
        <ele>897.7</ele>
        <time>2016-09-25T08:22:48Z</time>
      </trkpt>
      <trkpt lat="44.12345" lon="3.28227">
        <ele>898.1</ele>
        <time>2016-09-25T08:22:51Z</time>
      </trkpt>
      <trkpt lat="44.1234" lon="3.28238">
        <ele>898.4</ele>
        <time>2016-09-25T08:22:54Z</time>
      </trkpt>
      <trkpt lat="44.12335" lon="3.28249">
        <ele>898.9</ele>
        <time>2016-09-25T08:22:57Z</time>
      </trkpt>
      <trkpt lat="44.1233" lon="3.28262">
        <ele>900.9</ele>
        <time>2016-09-25T08:23:00Z</time>
      </trkpt>
      <trkpt lat="44.12326" lon="3.28272">
        <ele>903.5</ele>
        <time>2016-09-25T08:23:02Z</time>
      </trkpt>
      <trkpt lat="44.12322" lon="3.28283">
        <ele>904.9</ele>
        <time>2016-09-25T08:23:04Z</time>
      </trkpt>
      <trkpt lat="44.12317" lon="3.28293">
        <ele>904.9</ele>
        <time>2016-09-25T08:23:06Z</time>
      </trkpt>
      <trkpt lat="44.12312" lon="3.28304">
        <ele>904.7</ele>
        <time>2016-09-25T08:23:08Z</time>
      </trkpt>
      <trkpt lat="44.12308" lon="3.28315">
        <ele>904.7</ele>
        <time>2016-09-25T08:23:10Z</time>
      </trkpt>
      <trkpt lat="44.12303" lon="3.28325">
        <ele>904.2</ele>
        <time>2016-09-25T08:23:12Z</time>
      </trkpt>
      <trkpt lat="44.12299" lon="3.28334">
        <ele>903.5</ele>
        <time>2016-09-25T08:23:14Z</time>
      </trkpt>
      <trkpt lat="44.12294" lon="3.28346">
        <ele>903.7</ele>
        <time>2016-09-25T08:23:16Z</time>
      </trkpt>
      <trkpt lat="44.12289" lon="3.28358">
        <ele>904.4</ele>
        <time>2016-09-25T08:23:18Z</time>
      </trkpt>
      <trkpt lat="44.12284" lon="3.28369">
        <ele>905.1</ele>
        <time>2016-09-25T08:23:20Z</time>
      </trkpt>
      <trkpt lat="44.1228" lon="3.28378">
        <ele>905.7</ele>
        <time>2016-09-25T08:23:22Z</time>
      </trkpt>
      <trkpt lat="44.12275" lon="3.28391">
        <ele>905.7</ele>
        <time>2016-09-25T08:23:25Z</time>
      </trkpt>
      <trkpt lat="44.12271" lon="3.28401">
        <ele>905.8</ele>
        <time>2016-09-25T08:23:28Z</time>
      </trkpt>
      <trkpt lat="44.12266" lon="3.28413">
        <ele>905.8</ele>
        <time>2016-09-25T08:23:31Z</time>
      </trkpt>
      <trkpt lat="44.12263" lon="3.28422">
        <ele>905.8</ele>
        <time>2016-09-25T08:23:33Z</time>
      </trkpt>
      <trkpt lat="44.1226" lon="3.2843">
        <ele>905.7</ele>
        <time>2016-09-25T08:23:35Z</time>
      </trkpt>
      <trkpt lat="44.12254" lon="3.28443">
        <ele>905.7</ele>
        <time>2016-09-25T08:23:38Z</time>
      </trkpt>
      <trkpt lat="44.1225" lon="3.28452">
        <ele>905.8</ele>
        <time>2016-09-25T08:23:40Z</time>
      </trkpt>
      <trkpt lat="44.12244" lon="3.28463">
        <ele>905.9</ele>
        <time>2016-09-25T08:23:43Z</time>
      </trkpt>
      <trkpt lat="44.1224" lon="3.28471">
        <ele>905.6</ele>
        <time>2016-09-25T08:23:45Z</time>
      </trkpt>
      <trkpt lat="44.12235" lon="3.2848">
        <ele>905.3</ele>
        <time>2016-09-25T08:23:47Z</time>
      </trkpt>
      <trkpt lat="44.1223" lon="3.28488">
        <ele>905.1</ele>
        <time>2016-09-25T08:23:49Z</time>
      </trkpt>
      <trkpt lat="44.12226" lon="3.28496">
        <ele>905.1</ele>
        <time>2016-09-25T08:23:51Z</time>
      </trkpt>
      <trkpt lat="44.1222" lon="3.28504">
        <ele>905.1</ele>
        <time>2016-09-25T08:23:53Z</time>
      </trkpt>
      <trkpt lat="44.12215" lon="3.28514">
        <ele>905.2</ele>
        <time>2016-09-25T08:23:55Z</time>
      </trkpt>
      <trkpt lat="44.12208" lon="3.28525">
        <ele>905.7</ele>
        <time>2016-09-25T08:23:58Z</time>
      </trkpt>
      <trkpt lat="44.12201" lon="3.28535">
        <ele>905.8</ele>
        <time>2016-09-25T08:24:00Z</time>
      </trkpt>
      <trkpt lat="44.12196" lon="3.28545">
        <ele>905.7</ele>
        <time>2016-09-25T08:24:02Z</time>
      </trkpt>
      <trkpt lat="44.12189" lon="3.28554">
        <ele>905.4</ele>
        <time>2016-09-25T08:24:04Z</time>
      </trkpt>
      <trkpt lat="44.12183" lon="3.28566">
        <ele>905</ele>
        <time>2016-09-25T08:24:06Z</time>
      </trkpt>
      <trkpt lat="44.12176" lon="3.28577">
        <ele>904.3</ele>
        <time>2016-09-25T08:24:08Z</time>
      </trkpt>
      <trkpt lat="44.1217" lon="3.28588">
        <ele>903.2</ele>
        <time>2016-09-25T08:24:10Z</time>
      </trkpt>
      <trkpt lat="44.12163" lon="3.286">
        <ele>902.6</ele>
        <time>2016-09-25T08:24:12Z</time>
      </trkpt>
      <trkpt lat="44.12155" lon="3.28613">
        <ele>902.1</ele>
        <time>2016-09-25T08:24:14Z</time>
      </trkpt>
      <trkpt lat="44.12148" lon="3.28626">
        <ele>901.8</ele>
        <time>2016-09-25T08:24:16Z</time>
      </trkpt>
      <trkpt lat="44.1214" lon="3.28639">
        <ele>901.7</ele>
        <time>2016-09-25T08:24:18Z</time>
      </trkpt>
      <trkpt lat="44.12132" lon="3.28652">
        <ele>901.3</ele>
        <time>2016-09-25T08:24:20Z</time>
      </trkpt>
      <trkpt lat="44.12125" lon="3.28664">
        <ele>900.3</ele>
        <time>2016-09-25T08:24:22Z</time>
      </trkpt>
      <trkpt lat="44.12117" lon="3.28678">
        <ele>899.8</ele>
        <time>2016-09-25T08:24:24Z</time>
      </trkpt>
      <trkpt lat="44.1211" lon="3.28691">
        <ele>899.4</ele>
        <time>2016-09-25T08:24:26Z</time>
      </trkpt>
      <trkpt lat="44.12102" lon="3.28704">
        <ele>898.8</ele>
        <time>2016-09-25T08:24:28Z</time>
      </trkpt>
      <trkpt lat="44.12095" lon="3.28716">
        <ele>898.4</ele>
        <time>2016-09-25T08:24:30Z</time>
      </trkpt>
      <trkpt lat="44.12088" lon="3.28729">
        <ele>898</ele>
        <time>2016-09-25T08:24:32Z</time>
      </trkpt>
      <trkpt lat="44.12081" lon="3.28741">
        <ele>897.8</ele>
        <time>2016-09-25T08:24:34Z</time>
      </trkpt>
      <trkpt lat="44.12074" lon="3.28753">
        <ele>897.3</ele>
        <time>2016-09-25T08:24:36Z</time>
      </trkpt>
      <trkpt lat="44.12066" lon="3.28766">
        <ele>897</ele>
        <time>2016-09-25T08:24:38Z</time>
      </trkpt>
      <trkpt lat="44.12059" lon="3.28778">
        <ele>896.9</ele>
        <time>2016-09-25T08:24:40Z</time>
      </trkpt>
      <trkpt lat="44.12053" lon="3.28787">
        <ele>897.4</ele>
        <time>2016-09-25T08:24:42Z</time>
      </trkpt>
      <trkpt lat="44.12046" lon="3.28799">
        <ele>897.4</ele>
        <time>2016-09-25T08:24:44Z</time>
      </trkpt>
      <trkpt lat="44.12042" lon="3.28808">
        <ele>897.5</ele>
        <time>2016-09-25T08:24:46Z</time>
      </trkpt>
      <trkpt lat="44.12037" lon="3.28816">
        <ele>897.6</ele>
        <time>2016-09-25T08:24:48Z</time>
      </trkpt>
      <trkpt lat="44.12032" lon="3.28824">
        <ele>897.7</ele>
        <time>2016-09-25T08:24:50Z</time>
      </trkpt>
      <trkpt lat="44.12027" lon="3.28832">
        <ele>897.7</ele>
        <time>2016-09-25T08:24:52Z</time>
      </trkpt>
      <trkpt lat="44.12022" lon="3.28841">
        <ele>898.3</ele>
        <time>2016-09-25T08:24:54Z</time>
      </trkpt>
      <trkpt lat="44.12015" lon="3.28852">
        <ele>898.6</ele>
        <time>2016-09-25T08:24:57Z</time>
      </trkpt>
      <trkpt lat="44.12009" lon="3.28864">
        <ele>898.7</ele>
        <time>2016-09-25T08:25:00Z</time>
      </trkpt>
      <trkpt lat="44.12005" lon="3.28873">
        <ele>898.7</ele>
        <time>2016-09-25T08:25:02Z</time>
      </trkpt>
      <trkpt lat="44.12" lon="3.28886">
        <ele>898.8</ele>
        <time>2016-09-25T08:25:05Z</time>
      </trkpt>
      <trkpt lat="44.11995" lon="3.28898">
        <ele>898.9</ele>
        <time>2016-09-25T08:25:08Z</time>
      </trkpt>
      <trkpt lat="44.11991" lon="3.28907">
        <ele>899.3</ele>
        <time>2016-09-25T08:25:10Z</time>
      </trkpt>
      <trkpt lat="44.11987" lon="3.28916">
        <ele>899.7</ele>
        <time>2016-09-25T08:25:12Z</time>
      </trkpt>
      <trkpt lat="44.11983" lon="3.28926">
        <ele>900.1</ele>
        <time>2016-09-25T08:25:14Z</time>
      </trkpt>
      <trkpt lat="44.1198" lon="3.28935">
        <ele>900.1</ele>
        <time>2016-09-25T08:25:16Z</time>
      </trkpt>
      <trkpt lat="44.11976" lon="3.28944">
        <ele>900.5</ele>
        <time>2016-09-25T08:25:18Z</time>
      </trkpt>
      <trkpt lat="44.11973" lon="3.28954">
        <ele>900.8</ele>
        <time>2016-09-25T08:25:20Z</time>
      </trkpt>
      <trkpt lat="44.11969" lon="3.28963">
        <ele>901</ele>
        <time>2016-09-25T08:25:22Z</time>
      </trkpt>
      <trkpt lat="44.11966" lon="3.28973">
        <ele>901.3</ele>
        <time>2016-09-25T08:25:24Z</time>
      </trkpt>
      <trkpt lat="44.11962" lon="3.28983">
        <ele>901.3</ele>
        <time>2016-09-25T08:25:26Z</time>
      </trkpt>
      <trkpt lat="44.11959" lon="3.28993">
        <ele>901.4</ele>
        <time>2016-09-25T08:25:28Z</time>
      </trkpt>
      <trkpt lat="44.11954" lon="3.29004">
        <ele>901.5</ele>
        <time>2016-09-25T08:25:30Z</time>
      </trkpt>
      <trkpt lat="44.11948" lon="3.29016">
        <ele>901.1</ele>
        <time>2016-09-25T08:25:32Z</time>
      </trkpt>
      <trkpt lat="44.11941" lon="3.29029">
        <ele>900</ele>
        <time>2016-09-25T08:25:34Z</time>
      </trkpt>
      <trkpt lat="44.11932" lon="3.29041">
        <ele>898.7</ele>
        <time>2016-09-25T08:25:36Z</time>
      </trkpt>
      <trkpt lat="44.11923" lon="3.29051">
        <ele>898</ele>
        <time>2016-09-25T08:25:38Z</time>
      </trkpt>
      <trkpt lat="44.11911" lon="3.2906">
        <ele>897.6</ele>
        <time>2016-09-25T08:25:40Z</time>
      </trkpt>
      <trkpt lat="44.11898" lon="3.29068">
        <ele>897.2</ele>
        <time>2016-09-25T08:25:42Z</time>
      </trkpt>
      <trkpt lat="44.11885" lon="3.29074">
        <ele>896.4</ele>
        <time>2016-09-25T08:25:44Z</time>
      </trkpt>
      <trkpt lat="44.11872" lon="3.2908">
        <ele>895.7</ele>
        <time>2016-09-25T08:25:46Z</time>
      </trkpt>
      <trkpt lat="44.11858" lon="3.29084">
        <ele>895.3</ele>
        <time>2016-09-25T08:25:48Z</time>
      </trkpt>
      <trkpt lat="44.11845" lon="3.29085">
        <ele>895.1</ele>
        <time>2016-09-25T08:25:50Z</time>
      </trkpt>
      <trkpt lat="44.11837" lon="3.29085">
        <ele>895.1</ele>
        <time>2016-09-25T08:25:51Z</time>
      </trkpt>
      <trkpt lat="44.1183" lon="3.29081">
        <ele>895.1</ele>
        <time>2016-09-25T08:25:52Z</time>
      </trkpt>
      <trkpt lat="44.11823" lon="3.29077">
        <ele>894.8</ele>
        <time>2016-09-25T08:25:53Z</time>
      </trkpt>
      <trkpt lat="44.11817" lon="3.29071">
        <ele>894.4</ele>
        <time>2016-09-25T08:25:54Z</time>
      </trkpt>
      <trkpt lat="44.11807" lon="3.29059">
        <ele>893.9</ele>
        <time>2016-09-25T08:25:56Z</time>
      </trkpt>
      <trkpt lat="44.11796" lon="3.29052">
        <ele>893.2</ele>
        <time>2016-09-25T08:25:58Z</time>
      </trkpt>
      <trkpt lat="44.11784" lon="3.2905">
        <ele>892.1</ele>
        <time>2016-09-25T08:26:00Z</time>
      </trkpt>
      <trkpt lat="44.11772" lon="3.29051">
        <ele>891.6</ele>
        <time>2016-09-25T08:26:02Z</time>
      </trkpt>
      <trkpt lat="44.11759" lon="3.29055">
        <ele>891</ele>
        <time>2016-09-25T08:26:04Z</time>
      </trkpt>
      <trkpt lat="44.11752" lon="3.29058">
        <ele>890.5</ele>
        <time>2016-09-25T08:26:05Z</time>
      </trkpt>
      <trkpt lat="44.11744" lon="3.29062">
        <ele>890.1</ele>
        <time>2016-09-25T08:26:06Z</time>
      </trkpt>
      <trkpt lat="44.11737" lon="3.29065">
        <ele>889.8</ele>
        <time>2016-09-25T08:26:07Z</time>
      </trkpt>
      <trkpt lat="44.1173" lon="3.29069">
        <ele>889.5</ele>
        <time>2016-09-25T08:26:08Z</time>
      </trkpt>
      <trkpt lat="44.11723" lon="3.29073">
        <ele>889</ele>
        <time>2016-09-25T08:26:09Z</time>
      </trkpt>
      <trkpt lat="44.11716" lon="3.29076">
        <ele>888.5</ele>
        <time>2016-09-25T08:26:10Z</time>
      </trkpt>
      <trkpt lat="44.11702" lon="3.29083">
        <ele>887.7</ele>
        <time>2016-09-25T08:26:12Z</time>
      </trkpt>
      <trkpt lat="44.11694" lon="3.29086">
        <ele>887.1</ele>
        <time>2016-09-25T08:26:13Z</time>
      </trkpt>
      <trkpt lat="44.11687" lon="3.2909">
        <ele>886.6</ele>
        <time>2016-09-25T08:26:14Z</time>
      </trkpt>
      <trkpt lat="44.11679" lon="3.29093">
        <ele>886.1</ele>
        <time>2016-09-25T08:26:15Z</time>
      </trkpt>
      <trkpt lat="44.11672" lon="3.29096">
        <ele>885.5</ele>
        <time>2016-09-25T08:26:16Z</time>
      </trkpt>
      <trkpt lat="44.11664" lon="3.29099">
        <ele>884.8</ele>
        <time>2016-09-25T08:26:17Z</time>
      </trkpt>
      <trkpt lat="44.11656" lon="3.29102">
        <ele>884</ele>
        <time>2016-09-25T08:26:18Z</time>
      </trkpt>
      <trkpt lat="44.11647" lon="3.29106">
        <ele>883.1</ele>
        <time>2016-09-25T08:26:19Z</time>
      </trkpt>
      <trkpt lat="44.11638" lon="3.2911">
        <ele>882.2</ele>
        <time>2016-09-25T08:26:20Z</time>
      </trkpt>
      <trkpt lat="44.11629" lon="3.29114">
        <ele>881.3</ele>
        <time>2016-09-25T08:26:21Z</time>
      </trkpt>
      <trkpt lat="44.11621" lon="3.29117">
        <ele>880.4</ele>
        <time>2016-09-25T08:26:22Z</time>
      </trkpt>
      <trkpt lat="44.11612" lon="3.29121">
        <ele>879.6</ele>
        <time>2016-09-25T08:26:23Z</time>
      </trkpt>
      <trkpt lat="44.11605" lon="3.29124">
        <ele>878.8</ele>
        <time>2016-09-25T08:26:24Z</time>
      </trkpt>
      <trkpt lat="44.11598" lon="3.29127">
        <ele>877.9</ele>
        <time>2016-09-25T08:26:25Z</time>
      </trkpt>
      <trkpt lat="44.11584" lon="3.29133">
        <ele>876.3</ele>
        <time>2016-09-25T08:26:27Z</time>
      </trkpt>
      <trkpt lat="44.11571" lon="3.2914">
        <ele>874.8</ele>
        <time>2016-09-25T08:26:29Z</time>
      </trkpt>
      <trkpt lat="44.1156" lon="3.29147">
        <ele>873.3</ele>
        <time>2016-09-25T08:26:31Z</time>
      </trkpt>
      <trkpt lat="44.11548" lon="3.29155">
        <ele>871.8</ele>
        <time>2016-09-25T08:26:33Z</time>
      </trkpt>
      <trkpt lat="44.11537" lon="3.29165">
        <ele>870.3</ele>
        <time>2016-09-25T08:26:35Z</time>
      </trkpt>
      <trkpt lat="44.11524" lon="3.29175">
        <ele>869</ele>
        <time>2016-09-25T08:26:37Z</time>
      </trkpt>
      <trkpt lat="44.11518" lon="3.2918">
        <ele>868.4</ele>
        <time>2016-09-25T08:26:38Z</time>
      </trkpt>
      <trkpt lat="44.11506" lon="3.29192">
        <ele>866.7</ele>
        <time>2016-09-25T08:26:40Z</time>
      </trkpt>
      <trkpt lat="44.115" lon="3.29199">
        <ele>866</ele>
        <time>2016-09-25T08:26:41Z</time>
      </trkpt>
      <trkpt lat="44.11493" lon="3.29206">
        <ele>865.3</ele>
        <time>2016-09-25T08:26:42Z</time>
      </trkpt>
      <trkpt lat="44.11488" lon="3.29214">
        <ele>864.5</ele>
        <time>2016-09-25T08:26:43Z</time>
      </trkpt>
      <trkpt lat="44.11483" lon="3.29222">
        <ele>863.8</ele>
        <time>2016-09-25T08:26:44Z</time>
      </trkpt>
      <trkpt lat="44.11474" lon="3.29237">
        <ele>862.1</ele>
        <time>2016-09-25T08:26:46Z</time>
      </trkpt>
      <trkpt lat="44.11466" lon="3.29248">
        <ele>860.7</ele>
        <time>2016-09-25T08:26:48Z</time>
      </trkpt>
      <trkpt lat="44.11458" lon="3.29256">
        <ele>859.9</ele>
        <time>2016-09-25T08:26:50Z</time>
      </trkpt>
      <trkpt lat="44.11451" lon="3.2926">
        <ele>859.7</ele>
        <time>2016-09-25T08:26:54Z</time>
      </trkpt>
      <trkpt lat="44.11445" lon="3.29263">
        <ele>858.9</ele>
        <time>2016-09-25T08:27:01Z</time>
      </trkpt>
      <trkpt lat="44.11436" lon="3.29262">
        <ele>858.4</ele>
        <time>2016-09-25T08:27:06Z</time>
      </trkpt>
      <trkpt lat="44.11428" lon="3.29263">
        <ele>857.6</ele>
        <time>2016-09-25T08:27:20Z</time>
      </trkpt>
      <trkpt lat="44.11428" lon="3.29263">
        <ele>854.8</ele>
        <time>2016-09-25T08:33:11Z</time>
      </trkpt>
      <trkpt lat="44.11427" lon="3.29255">
        <ele>854.3</ele>
        <time>2016-09-25T08:33:57Z</time>
      </trkpt>
      <trkpt lat="44.11426" lon="3.29245">
        <ele>854.2</ele>
        <time>2016-09-25T08:34:00Z</time>
      </trkpt>
      <trkpt lat="44.11422" lon="3.29234">
        <ele>854</ele>
        <time>2016-09-25T08:34:03Z</time>
      </trkpt>
      <trkpt lat="44.11418" lon="3.29224">
        <ele>853.3</ele>
        <time>2016-09-25T08:34:05Z</time>
      </trkpt>
      <trkpt lat="44.11412" lon="3.29211">
        <ele>852.7</ele>
        <time>2016-09-25T08:34:07Z</time>
      </trkpt>
      <trkpt lat="44.11406" lon="3.29199">
        <ele>852.1</ele>
        <time>2016-09-25T08:34:09Z</time>
      </trkpt>
      <trkpt lat="44.114" lon="3.29184">
        <ele>851.7</ele>
        <time>2016-09-25T08:34:11Z</time>
      </trkpt>
      <trkpt lat="44.11392" lon="3.2917">
        <ele>851.6</ele>
        <time>2016-09-25T08:34:13Z</time>
      </trkpt>
      <trkpt lat="44.11387" lon="3.29153">
        <ele>851.2</ele>
        <time>2016-09-25T08:34:15Z</time>
      </trkpt>
      <trkpt lat="44.11384" lon="3.29135">
        <ele>850</ele>
        <time>2016-09-25T08:34:17Z</time>
      </trkpt>
      <trkpt lat="44.11383" lon="3.29116">
        <ele>848</ele>
        <time>2016-09-25T08:34:19Z</time>
      </trkpt>
      <trkpt lat="44.11382" lon="3.291">
        <ele>846.7</ele>
        <time>2016-09-25T08:34:21Z</time>
      </trkpt>
      <trkpt lat="44.1138" lon="3.29082">
        <ele>845.8</ele>
        <time>2016-09-25T08:34:23Z</time>
      </trkpt>
      <trkpt lat="44.11381" lon="3.29065">
        <ele>844.9</ele>
        <time>2016-09-25T08:34:25Z</time>
      </trkpt>
      <trkpt lat="44.11382" lon="3.29054">
        <ele>844.5</ele>
        <time>2016-09-25T08:34:27Z</time>
      </trkpt>
      <trkpt lat="44.11386" lon="3.29043">
        <ele>844</ele>
        <time>2016-09-25T08:34:30Z</time>
      </trkpt>
      <trkpt lat="44.11386" lon="3.2903">
        <ele>843.4</ele>
        <time>2016-09-25T08:34:32Z</time>
      </trkpt>
      <trkpt lat="44.11383" lon="3.29015">
        <ele>842.7</ele>
        <time>2016-09-25T08:34:34Z</time>
      </trkpt>
      <trkpt lat="44.1138" lon="3.29003">
        <ele>842.3</ele>
        <time>2016-09-25T08:34:37Z</time>
      </trkpt>
      <trkpt lat="44.11377" lon="3.2899">
        <ele>842</ele>
        <time>2016-09-25T08:34:40Z</time>
      </trkpt>
      <trkpt lat="44.11375" lon="3.28984">
        <ele>841.6</ele>
        <time>2016-09-25T08:34:47Z</time>
      </trkpt>
      <trkpt lat="44.11382" lon="3.28979">
        <ele>841.4</ele>
        <time>2016-09-25T08:34:53Z</time>
      </trkpt>
      <trkpt lat="44.11386" lon="3.28978">
        <ele>840.8</ele>
        <time>2016-09-25T08:35:00Z</time>
      </trkpt>
      <trkpt lat="44.11389" lon="3.28977">
        <ele>840.7</ele>
        <time>2016-09-25T08:35:07Z</time>
      </trkpt>
      <trkpt lat="44.11389" lon="3.28967">
        <ele>841.2</ele>
        <time>2016-09-25T08:35:17Z</time>
      </trkpt>
      <trkpt lat="44.11389" lon="3.28955">
        <ele>841.1</ele>
        <time>2016-09-25T08:35:19Z</time>
      </trkpt>
      <trkpt lat="44.1139" lon="3.28945">
        <ele>841</ele>
        <time>2016-09-25T08:35:21Z</time>
      </trkpt>
      <trkpt lat="44.11392" lon="3.28934">
        <ele>841</ele>
        <time>2016-09-25T08:35:23Z</time>
      </trkpt>
      <trkpt lat="44.11393" lon="3.28921">
        <ele>841</ele>
        <time>2016-09-25T08:35:26Z</time>
      </trkpt>
      <trkpt lat="44.11397" lon="3.28911">
        <ele>840.9</ele>
        <time>2016-09-25T08:35:29Z</time>
      </trkpt>
      <trkpt lat="44.11403" lon="3.28903">
        <ele>840.8</ele>
        <time>2016-09-25T08:35:33Z</time>
      </trkpt>
      <trkpt lat="44.11408" lon="3.28895">
        <ele>840.5</ele>
        <time>2016-09-25T08:35:38Z</time>
      </trkpt>
      <trkpt lat="44.11409" lon="3.28893">
        <ele>840.5</ele>
        <time>2016-09-25T08:35:45Z</time>
      </trkpt>
      <trkpt lat="44.11415" lon="3.28889">
        <ele>841</ele>
        <time>2016-09-25T08:35:56Z</time>
      </trkpt>
      <trkpt lat="44.1142" lon="3.28885">
        <ele>841.6</ele>
        <time>2016-09-25T08:36:03Z</time>
      </trkpt>
      <trkpt lat="44.11425" lon="3.28878">
        <ele>842.3</ele>
        <time>2016-09-25T08:36:10Z</time>
      </trkpt>
      <trkpt lat="44.11431" lon="3.28873">
        <ele>843.4</ele>
        <time>2016-09-25T08:36:17Z</time>
      </trkpt>
      <trkpt lat="44.11436" lon="3.28866">
        <ele>844.2</ele>
        <time>2016-09-25T08:36:24Z</time>
      </trkpt>
      <trkpt lat="44.1144" lon="3.2886">
        <ele>845.7</ele>
        <time>2016-09-25T08:36:31Z</time>
      </trkpt>
      <trkpt lat="44.11443" lon="3.28851">
        <ele>846.6</ele>
        <time>2016-09-25T08:36:38Z</time>
      </trkpt>
      <trkpt lat="44.11447" lon="3.28843">
        <ele>846.9</ele>
        <time>2016-09-25T08:36:43Z</time>
      </trkpt>
      <trkpt lat="44.11451" lon="3.28833">
        <ele>847.4</ele>
        <time>2016-09-25T08:36:49Z</time>
      </trkpt>
      <trkpt lat="44.11453" lon="3.28823">
        <ele>847.8</ele>
        <time>2016-09-25T08:36:53Z</time>
      </trkpt>
      <trkpt lat="44.11455" lon="3.28812">
        <ele>848.1</ele>
        <time>2016-09-25T08:36:57Z</time>
      </trkpt>
      <trkpt lat="44.11457" lon="3.28801">
        <ele>848.5</ele>
        <time>2016-09-25T08:37:02Z</time>
      </trkpt>
      <trkpt lat="44.1146" lon="3.28789">
        <ele>848.9</ele>
        <time>2016-09-25T08:37:06Z</time>
      </trkpt>
      <trkpt lat="44.11461" lon="3.28778">
        <ele>849.2</ele>
        <time>2016-09-25T08:37:10Z</time>
      </trkpt>
      <trkpt lat="44.11462" lon="3.28767">
        <ele>849.4</ele>
        <time>2016-09-25T08:37:13Z</time>
      </trkpt>
      <trkpt lat="44.11465" lon="3.28757">
        <ele>849.7</ele>
        <time>2016-09-25T08:37:16Z</time>
      </trkpt>
      <trkpt lat="44.11467" lon="3.28746">
        <ele>849.8</ele>
        <time>2016-09-25T08:37:19Z</time>
      </trkpt>
      <trkpt lat="44.11468" lon="3.28736">
        <ele>849.9</ele>
        <time>2016-09-25T08:37:21Z</time>
      </trkpt>
      <trkpt lat="44.11471" lon="3.28726">
        <ele>850</ele>
        <time>2016-09-25T08:37:23Z</time>
      </trkpt>
      <trkpt lat="44.11474" lon="3.28713">
        <ele>850</ele>
        <time>2016-09-25T08:37:26Z</time>
      </trkpt>
      <trkpt lat="44.11478" lon="3.28703">
        <ele>850</ele>
        <time>2016-09-25T08:37:28Z</time>
      </trkpt>
      <trkpt lat="44.11483" lon="3.28694">
        <ele>849.5</ele>
        <time>2016-09-25T08:37:30Z</time>
      </trkpt>
      <trkpt lat="44.11491" lon="3.28685">
        <ele>849.5</ele>
        <time>2016-09-25T08:37:32Z</time>
      </trkpt>
      <trkpt lat="44.11498" lon="3.28671">
        <ele>847.9</ele>
        <time>2016-09-25T08:37:34Z</time>
      </trkpt>
      <trkpt lat="44.11505" lon="3.28654">
        <ele>846.3</ele>
        <time>2016-09-25T08:37:36Z</time>
      </trkpt>
      <trkpt lat="44.11509" lon="3.28645">
        <ele>845.4</ele>
        <time>2016-09-25T08:37:37Z</time>
      </trkpt>
      <trkpt lat="44.11517" lon="3.28628">
        <ele>844</ele>
        <time>2016-09-25T08:37:39Z</time>
      </trkpt>
      <trkpt lat="44.11521" lon="3.28619">
        <ele>843.5</ele>
        <time>2016-09-25T08:37:40Z</time>
      </trkpt>
      <trkpt lat="44.11526" lon="3.28609">
        <ele>842.9</ele>
        <time>2016-09-25T08:37:41Z</time>
      </trkpt>
      <trkpt lat="44.11529" lon="3.28599">
        <ele>842</ele>
        <time>2016-09-25T08:37:42Z</time>
      </trkpt>
      <trkpt lat="44.11532" lon="3.28589">
        <ele>840.8</ele>
        <time>2016-09-25T08:37:43Z</time>
      </trkpt>
      <trkpt lat="44.11536" lon="3.28577">
        <ele>839.6</ele>
        <time>2016-09-25T08:37:44Z</time>
      </trkpt>
      <trkpt lat="44.11538" lon="3.28567">
        <ele>838.7</ele>
        <time>2016-09-25T08:37:45Z</time>
      </trkpt>
      <trkpt lat="44.11541" lon="3.28556">
        <ele>837.7</ele>
        <time>2016-09-25T08:37:46Z</time>
      </trkpt>
      <trkpt lat="44.11544" lon="3.28545">
        <ele>836.5</ele>
        <time>2016-09-25T08:37:47Z</time>
      </trkpt>
      <trkpt lat="44.11546" lon="3.28535">
        <ele>835.4</ele>
        <time>2016-09-25T08:37:48Z</time>
      </trkpt>
      <trkpt lat="44.11549" lon="3.28525">
        <ele>834.5</ele>
        <time>2016-09-25T08:37:49Z</time>
      </trkpt>
      <trkpt lat="44.11553" lon="3.28509">
        <ele>832.2</ele>
        <time>2016-09-25T08:37:51Z</time>
      </trkpt>
      <trkpt lat="44.11561" lon="3.28498">
        <ele>830.1</ele>
        <time>2016-09-25T08:37:53Z</time>
      </trkpt>
      <trkpt lat="44.1157" lon="3.28486">
        <ele>827</ele>
        <time>2016-09-25T08:37:55Z</time>
      </trkpt>
      <trkpt lat="44.11578" lon="3.28471">
        <ele>824.7</ele>
        <time>2016-09-25T08:37:57Z</time>
      </trkpt>
      <trkpt lat="44.11585" lon="3.28459">
        <ele>822.7</ele>
        <time>2016-09-25T08:37:59Z</time>
      </trkpt>
      <trkpt lat="44.11593" lon="3.28445">
        <ele>821.2</ele>
        <time>2016-09-25T08:38:01Z</time>
      </trkpt>
      <trkpt lat="44.11601" lon="3.28432">
        <ele>819.2</ele>
        <time>2016-09-25T08:38:03Z</time>
      </trkpt>
      <trkpt lat="44.1161" lon="3.28416">
        <ele>817.5</ele>
        <time>2016-09-25T08:38:05Z</time>
      </trkpt>
      <trkpt lat="44.11616" lon="3.28406">
        <ele>815.5</ele>
        <time>2016-09-25T08:38:07Z</time>
      </trkpt>
      <trkpt lat="44.11623" lon="3.28395">
        <ele>814.2</ele>
        <time>2016-09-25T08:38:09Z</time>
      </trkpt>
      <trkpt lat="44.1163" lon="3.28386">
        <ele>813.7</ele>
        <time>2016-09-25T08:38:11Z</time>
      </trkpt>
      <trkpt lat="44.11638" lon="3.28375">
        <ele>812.6</ele>
        <time>2016-09-25T08:38:13Z</time>
      </trkpt>
      <trkpt lat="44.11643" lon="3.28367">
        <ele>811.7</ele>
        <time>2016-09-25T08:38:15Z</time>
      </trkpt>
      <trkpt lat="44.11649" lon="3.28357">
        <ele>810.8</ele>
        <time>2016-09-25T08:38:17Z</time>
      </trkpt>
      <trkpt lat="44.11654" lon="3.28349">
        <ele>810.5</ele>
        <time>2016-09-25T08:38:19Z</time>
      </trkpt>
      <trkpt lat="44.11658" lon="3.28343">
        <ele>810</ele>
        <time>2016-09-25T08:38:26Z</time>
      </trkpt>
      <trkpt lat="44.11664" lon="3.28338">
        <ele>809.8</ele>
        <time>2016-09-25T08:38:41Z</time>
      </trkpt>
      <trkpt lat="44.11672" lon="3.28329">
        <ele>809.8</ele>
        <time>2016-09-25T08:38:44Z</time>
      </trkpt>
      <trkpt lat="44.11677" lon="3.28315">
        <ele>808.6</ele>
        <time>2016-09-25T08:38:46Z</time>
      </trkpt>
      <trkpt lat="44.1168" lon="3.283">
        <ele>806.6</ele>
        <time>2016-09-25T08:38:48Z</time>
      </trkpt>
      <trkpt lat="44.11685" lon="3.28285">
        <ele>804.5</ele>
        <time>2016-09-25T08:38:50Z</time>
      </trkpt>
      <trkpt lat="44.11688" lon="3.2827">
        <ele>803.2</ele>
        <time>2016-09-25T08:38:52Z</time>
      </trkpt>
      <trkpt lat="44.11692" lon="3.28253">
        <ele>800.6</ele>
        <time>2016-09-25T08:38:54Z</time>
      </trkpt>
      <trkpt lat="44.11694" lon="3.28242">
        <ele>799.3</ele>
        <time>2016-09-25T08:38:55Z</time>
      </trkpt>
      <trkpt lat="44.11697" lon="3.28232">
        <ele>798.4</ele>
        <time>2016-09-25T08:38:56Z</time>
      </trkpt>
      <trkpt lat="44.11699" lon="3.28217">
        <ele>797</ele>
        <time>2016-09-25T08:38:58Z</time>
      </trkpt>
      <trkpt lat="44.11702" lon="3.28205">
        <ele>796.3</ele>
        <time>2016-09-25T08:39:00Z</time>
      </trkpt>
      <trkpt lat="44.11702" lon="3.28194">
        <ele>795.3</ele>
        <time>2016-09-25T08:39:02Z</time>
      </trkpt>
      <trkpt lat="44.117" lon="3.28182">
        <ele>793.5</ele>
        <time>2016-09-25T08:39:04Z</time>
      </trkpt>
      <trkpt lat="44.11699" lon="3.28169">
        <ele>792.3</ele>
        <time>2016-09-25T08:39:06Z</time>
      </trkpt>
      <trkpt lat="44.11696" lon="3.28154">
        <ele>791.5</ele>
        <time>2016-09-25T08:39:08Z</time>
      </trkpt>
      <trkpt lat="44.1169" lon="3.2814">
        <ele>790.6</ele>
        <time>2016-09-25T08:39:10Z</time>
      </trkpt>
      <trkpt lat="44.11684" lon="3.28132">
        <ele>790.2</ele>
        <time>2016-09-25T08:39:11Z</time>
      </trkpt>
      <trkpt lat="44.11679" lon="3.28124">
        <ele>789.7</ele>
        <time>2016-09-25T08:39:12Z</time>
      </trkpt>
      <trkpt lat="44.11667" lon="3.28113">
        <ele>788.3</ele>
        <time>2016-09-25T08:39:14Z</time>
      </trkpt>
      <trkpt lat="44.11661" lon="3.28107">
        <ele>787.1</ele>
        <time>2016-09-25T08:39:15Z</time>
      </trkpt>
      <trkpt lat="44.11655" lon="3.28102">
        <ele>785.9</ele>
        <time>2016-09-25T08:39:16Z</time>
      </trkpt>
      <trkpt lat="44.11643" lon="3.28094">
        <ele>783.7</ele>
        <time>2016-09-25T08:39:18Z</time>
      </trkpt>
      <trkpt lat="44.11633" lon="3.28086">
        <ele>781.8</ele>
        <time>2016-09-25T08:39:20Z</time>
      </trkpt>
      <trkpt lat="44.11621" lon="3.28077">
        <ele>778.9</ele>
        <time>2016-09-25T08:39:22Z</time>
      </trkpt>
      <trkpt lat="44.11614" lon="3.28075">
        <ele>777.4</ele>
        <time>2016-09-25T08:39:23Z</time>
      </trkpt>
      <trkpt lat="44.11601" lon="3.28072">
        <ele>774.9</ele>
        <time>2016-09-25T08:39:25Z</time>
      </trkpt>
      <trkpt lat="44.11591" lon="3.28074">
        <ele>773.9</ele>
        <time>2016-09-25T08:39:27Z</time>
      </trkpt>
      <trkpt lat="44.11581" lon="3.28074">
        <ele>772.2</ele>
        <time>2016-09-25T08:39:29Z</time>
      </trkpt>
      <trkpt lat="44.11573" lon="3.28072">
        <ele>771.5</ele>
        <time>2016-09-25T08:39:31Z</time>
      </trkpt>
      <trkpt lat="44.11563" lon="3.28068">
        <ele>771.4</ele>
        <time>2016-09-25T08:39:34Z</time>
      </trkpt>
      <trkpt lat="44.11554" lon="3.28068">
        <ele>771.7</ele>
        <time>2016-09-25T08:39:36Z</time>
      </trkpt>
      <trkpt lat="44.11544" lon="3.28067">
        <ele>772</ele>
        <time>2016-09-25T08:39:38Z</time>
      </trkpt>
      <trkpt lat="44.11533" lon="3.28066">
        <ele>771.1</ele>
        <time>2016-09-25T08:39:40Z</time>
      </trkpt>
      <trkpt lat="44.1152" lon="3.28065">
        <ele>770.5</ele>
        <time>2016-09-25T08:39:42Z</time>
      </trkpt>
      <trkpt lat="44.11507" lon="3.28061">
        <ele>768.9</ele>
        <time>2016-09-25T08:39:44Z</time>
      </trkpt>
      <trkpt lat="44.11494" lon="3.28053">
        <ele>767.4</ele>
        <time>2016-09-25T08:39:46Z</time>
      </trkpt>
      <trkpt lat="44.11484" lon="3.28041">
        <ele>766.3</ele>
        <time>2016-09-25T08:39:48Z</time>
      </trkpt>
      <trkpt lat="44.1148" lon="3.28031">
        <ele>765.6</ele>
        <time>2016-09-25T08:39:49Z</time>
      </trkpt>
      <trkpt lat="44.11476" lon="3.28022">
        <ele>765.2</ele>
        <time>2016-09-25T08:39:50Z</time>
      </trkpt>
      <trkpt lat="44.11471" lon="3.28007">
        <ele>764.5</ele>
        <time>2016-09-25T08:39:52Z</time>
      </trkpt>
      <trkpt lat="44.11465" lon="3.27993">
        <ele>763.4</ele>
        <time>2016-09-25T08:39:54Z</time>
      </trkpt>
      <trkpt lat="44.11459" lon="3.27981">
        <ele>760.7</ele>
        <time>2016-09-25T08:39:56Z</time>
      </trkpt>
      <trkpt lat="44.11449" lon="3.27975">
        <ele>757.4</ele>
        <time>2016-09-25T08:39:58Z</time>
      </trkpt>
      <trkpt lat="44.11438" lon="3.27969">
        <ele>754.7</ele>
        <time>2016-09-25T08:40:00Z</time>
      </trkpt>
      <trkpt lat="44.11426" lon="3.27967">
        <ele>753.2</ele>
        <time>2016-09-25T08:40:02Z</time>
      </trkpt>
      <trkpt lat="44.11419" lon="3.2796">
        <ele>751.8</ele>
        <time>2016-09-25T08:40:04Z</time>
      </trkpt>
      <trkpt lat="44.11412" lon="3.27955">
        <ele>751.5</ele>
        <time>2016-09-25T08:40:09Z</time>
      </trkpt>
      <trkpt lat="44.11403" lon="3.27953">
        <ele>751.1</ele>
        <time>2016-09-25T08:40:13Z</time>
      </trkpt>
      <trkpt lat="44.11397" lon="3.27947">
        <ele>751.1</ele>
        <time>2016-09-25T08:40:15Z</time>
      </trkpt>
      <trkpt lat="44.11389" lon="3.27937">
        <ele>751.3</ele>
        <time>2016-09-25T08:40:17Z</time>
      </trkpt>
      <trkpt lat="44.11382" lon="3.27927">
        <ele>750.9</ele>
        <time>2016-09-25T08:40:19Z</time>
      </trkpt>
      <trkpt lat="44.11375" lon="3.27917">
        <ele>749.6</ele>
        <time>2016-09-25T08:40:21Z</time>
      </trkpt>
      <trkpt lat="44.11364" lon="3.27911">
        <ele>747.4</ele>
        <time>2016-09-25T08:40:23Z</time>
      </trkpt>
      <trkpt lat="44.11353" lon="3.27905">
        <ele>745.5</ele>
        <time>2016-09-25T08:40:25Z</time>
      </trkpt>
      <trkpt lat="44.11342" lon="3.27894">
        <ele>743.4</ele>
        <time>2016-09-25T08:40:27Z</time>
      </trkpt>
      <trkpt lat="44.11335" lon="3.27889">
        <ele>742.2</ele>
        <time>2016-09-25T08:40:28Z</time>
      </trkpt>
      <trkpt lat="44.11328" lon="3.27884">
        <ele>741.1</ele>
        <time>2016-09-25T08:40:29Z</time>
      </trkpt>
      <trkpt lat="44.11317" lon="3.27879">
        <ele>739.9</ele>
        <time>2016-09-25T08:40:31Z</time>
      </trkpt>
      <trkpt lat="44.11308" lon="3.27873">
        <ele>737.9</ele>
        <time>2016-09-25T08:40:33Z</time>
      </trkpt>
      <trkpt lat="44.11296" lon="3.27868">
        <ele>736.7</ele>
        <time>2016-09-25T08:40:35Z</time>
      </trkpt>
      <trkpt lat="44.11283" lon="3.27865">
        <ele>736.4</ele>
        <time>2016-09-25T08:40:37Z</time>
      </trkpt>
      <trkpt lat="44.11272" lon="3.27863">
        <ele>735.9</ele>
        <time>2016-09-25T08:40:39Z</time>
      </trkpt>
      <trkpt lat="44.11264" lon="3.27856">
        <ele>734.6</ele>
        <time>2016-09-25T08:40:41Z</time>
      </trkpt>
      <trkpt lat="44.11253" lon="3.27849">
        <ele>733.4</ele>
        <time>2016-09-25T08:40:43Z</time>
      </trkpt>
      <trkpt lat="44.11246" lon="3.27845">
        <ele>731.9</ele>
        <time>2016-09-25T08:40:45Z</time>
      </trkpt>
      <trkpt lat="44.11238" lon="3.27842">
        <ele>730.8</ele>
        <time>2016-09-25T08:40:47Z</time>
      </trkpt>
      <trkpt lat="44.1123" lon="3.27841">
        <ele>730.5</ele>
        <time>2016-09-25T08:40:49Z</time>
      </trkpt>
      <trkpt lat="44.11222" lon="3.27841">
        <ele>730.1</ele>
        <time>2016-09-25T08:40:51Z</time>
      </trkpt>
      <trkpt lat="44.11213" lon="3.27845">
        <ele>726.3</ele>
        <time>2016-09-25T08:40:53Z</time>
      </trkpt>
      <trkpt lat="44.11204" lon="3.2785">
        <ele>724.4</ele>
        <time>2016-09-25T08:40:55Z</time>
      </trkpt>
      <trkpt lat="44.11193" lon="3.27851">
        <ele>723.3</ele>
        <time>2016-09-25T08:40:57Z</time>
      </trkpt>
      <trkpt lat="44.11182" lon="3.27851">
        <ele>721.9</ele>
        <time>2016-09-25T08:40:59Z</time>
      </trkpt>
      <trkpt lat="44.11171" lon="3.27845">
        <ele>719.9</ele>
        <time>2016-09-25T08:41:01Z</time>
      </trkpt>
      <trkpt lat="44.11162" lon="3.27841">
        <ele>718.5</ele>
        <time>2016-09-25T08:41:03Z</time>
      </trkpt>
      <trkpt lat="44.11152" lon="3.2784">
        <ele>717.2</ele>
        <time>2016-09-25T08:41:05Z</time>
      </trkpt>
      <trkpt lat="44.11141" lon="3.27842">
        <ele>715.5</ele>
        <time>2016-09-25T08:41:07Z</time>
      </trkpt>
      <trkpt lat="44.1113" lon="3.27844">
        <ele>713.2</ele>
        <time>2016-09-25T08:41:09Z</time>
      </trkpt>
      <trkpt lat="44.1112" lon="3.27839">
        <ele>711.4</ele>
        <time>2016-09-25T08:41:12Z</time>
      </trkpt>
      <trkpt lat="44.11109" lon="3.27833">
        <ele>706.7</ele>
        <time>2016-09-25T08:41:15Z</time>
      </trkpt>
      <trkpt lat="44.111" lon="3.27827">
        <ele>705.8</ele>
        <time>2016-09-25T08:41:17Z</time>
      </trkpt>
      <trkpt lat="44.11095" lon="3.27819">
        <ele>705.1</ele>
        <time>2016-09-25T08:41:19Z</time>
      </trkpt>
      <trkpt lat="44.11089" lon="3.27807">
        <ele>705.2</ele>
        <time>2016-09-25T08:41:22Z</time>
      </trkpt>
      <trkpt lat="44.11089" lon="3.27796">
        <ele>703.8</ele>
        <time>2016-09-25T08:41:24Z</time>
      </trkpt>
      <trkpt lat="44.11085" lon="3.27784">
        <ele>702</ele>
        <time>2016-09-25T08:41:26Z</time>
      </trkpt>
      <trkpt lat="44.11087" lon="3.27772">
        <ele>700.8</ele>
        <time>2016-09-25T08:41:29Z</time>
      </trkpt>
      <trkpt lat="44.11082" lon="3.2776">
        <ele>699.6</ele>
        <time>2016-09-25T08:41:31Z</time>
      </trkpt>
      <trkpt lat="44.1108" lon="3.27749">
        <ele>699.4</ele>
        <time>2016-09-25T08:41:36Z</time>
      </trkpt>
      <trkpt lat="44.11078" lon="3.27738">
        <ele>699</ele>
        <time>2016-09-25T08:41:39Z</time>
      </trkpt>
      <trkpt lat="44.11074" lon="3.27722">
        <ele>699</ele>
        <time>2016-09-25T08:41:41Z</time>
      </trkpt>
      <trkpt lat="44.11069" lon="3.27708">
        <ele>698</ele>
        <time>2016-09-25T08:41:43Z</time>
      </trkpt>
      <trkpt lat="44.11061" lon="3.27699">
        <ele>697.9</ele>
        <time>2016-09-25T08:41:46Z</time>
      </trkpt>
      <trkpt lat="44.11055" lon="3.27689">
        <ele>696.4</ele>
        <time>2016-09-25T08:41:48Z</time>
      </trkpt>
      <trkpt lat="44.11048" lon="3.27681">
        <ele>695.6</ele>
        <time>2016-09-25T08:41:54Z</time>
      </trkpt>
      <trkpt lat="44.11046" lon="3.2768">
        <ele>694.9</ele>
        <time>2016-09-25T08:42:01Z</time>
      </trkpt>
      <trkpt lat="44.1105" lon="3.27665">
        <ele>694.2</ele>
        <time>2016-09-25T08:42:12Z</time>
      </trkpt>
      <trkpt lat="44.11051" lon="3.27653">
        <ele>693.3</ele>
        <time>2016-09-25T08:43:29Z</time>
      </trkpt>
      <trkpt lat="44.11052" lon="3.27643">
        <ele>693.1</ele>
        <time>2016-09-25T08:43:32Z</time>
      </trkpt>
      <trkpt lat="44.11056" lon="3.27629">
        <ele>692.9</ele>
        <time>2016-09-25T08:43:35Z</time>
      </trkpt>
      <trkpt lat="44.11055" lon="3.27618">
        <ele>692.6</ele>
        <time>2016-09-25T08:43:37Z</time>
      </trkpt>
      <trkpt lat="44.11055" lon="3.27607">
        <ele>692.4</ele>
        <time>2016-09-25T08:43:39Z</time>
      </trkpt>
      <trkpt lat="44.11051" lon="3.27597">
        <ele>692.1</ele>
        <time>2016-09-25T08:43:42Z</time>
      </trkpt>
      <trkpt lat="44.11051" lon="3.27586">
        <ele>691.8</ele>
        <time>2016-09-25T08:43:45Z</time>
      </trkpt>
      <trkpt lat="44.11052" lon="3.27573">
        <ele>691.3</ele>
        <time>2016-09-25T08:43:48Z</time>
      </trkpt>
      <trkpt lat="44.11053" lon="3.27559">
        <ele>691</ele>
        <time>2016-09-25T08:43:51Z</time>
      </trkpt>
      <trkpt lat="44.11053" lon="3.27547">
        <ele>690.9</ele>
        <time>2016-09-25T08:43:53Z</time>
      </trkpt>
      <trkpt lat="44.11053" lon="3.27536">
        <ele>690.7</ele>
        <time>2016-09-25T08:43:56Z</time>
      </trkpt>
      <trkpt lat="44.11051" lon="3.27526">
        <ele>689.9</ele>
        <time>2016-09-25T08:43:58Z</time>
      </trkpt>
      <trkpt lat="44.11046" lon="3.27515">
        <ele>688.5</ele>
        <time>2016-09-25T08:44:00Z</time>
      </trkpt>
      <trkpt lat="44.11044" lon="3.27504">
        <ele>687.7</ele>
        <time>2016-09-25T08:44:02Z</time>
      </trkpt>
      <trkpt lat="44.11047" lon="3.27493">
        <ele>685</ele>
        <time>2016-09-25T08:44:05Z</time>
      </trkpt>
      <trkpt lat="44.11048" lon="3.27477">
        <ele>682.9</ele>
        <time>2016-09-25T08:44:08Z</time>
      </trkpt>
      <trkpt lat="44.11043" lon="3.27469">
        <ele>682.9</ele>
        <time>2016-09-25T08:44:10Z</time>
      </trkpt>
      <trkpt lat="44.11036" lon="3.27465">
        <ele>682.9</ele>
        <time>2016-09-25T08:44:12Z</time>
      </trkpt>
      <trkpt lat="44.11029" lon="3.27461">
        <ele>682.5</ele>
        <time>2016-09-25T08:44:14Z</time>
      </trkpt>
      <trkpt lat="44.1102" lon="3.27457">
        <ele>682.1</ele>
        <time>2016-09-25T08:44:16Z</time>
      </trkpt>
      <trkpt lat="44.11014" lon="3.27449">
        <ele>681.9</ele>
        <time>2016-09-25T08:44:18Z</time>
      </trkpt>
      <trkpt lat="44.11008" lon="3.27441">
        <ele>681.6</ele>
        <time>2016-09-25T08:44:20Z</time>
      </trkpt>
      <trkpt lat="44.11002" lon="3.27433">
        <ele>678.5</ele>
        <time>2016-09-25T08:44:22Z</time>
      </trkpt>
      <trkpt lat="44.10996" lon="3.27425">
        <ele>678.2</ele>
        <time>2016-09-25T08:44:25Z</time>
      </trkpt>
      <trkpt lat="44.10996" lon="3.27436">
        <ele>676.1</ele>
        <time>2016-09-25T08:44:28Z</time>
      </trkpt>
      <trkpt lat="44.1099" lon="3.2743">
        <ele>674.5</ele>
        <time>2016-09-25T08:44:35Z</time>
      </trkpt>
      <trkpt lat="44.10984" lon="3.2742">
        <ele>672.3</ele>
        <time>2016-09-25T08:44:37Z</time>
      </trkpt>
      <trkpt lat="44.10982" lon="3.27406">
        <ele>670.8</ele>
        <time>2016-09-25T08:44:40Z</time>
      </trkpt>
      <trkpt lat="44.10984" lon="3.27395">
        <ele>670.2</ele>
        <time>2016-09-25T08:44:44Z</time>
      </trkpt>
      <trkpt lat="44.10985" lon="3.27383">
        <ele>669.7</ele>
        <time>2016-09-25T08:44:47Z</time>
      </trkpt>
      <trkpt lat="44.10985" lon="3.27381">
        <ele>669.1</ele>
        <time>2016-09-25T08:44:54Z</time>
      </trkpt>
      <trkpt lat="44.10984" lon="3.27367">
        <ele>667.3</ele>
        <time>2016-09-25T08:45:04Z</time>
      </trkpt>
      <trkpt lat="44.10985" lon="3.27354">
        <ele>666.8</ele>
        <time>2016-09-25T08:45:07Z</time>
      </trkpt>
      <trkpt lat="44.10983" lon="3.27344">
        <ele>665.4</ele>
        <time>2016-09-25T08:45:09Z</time>
      </trkpt>
      <trkpt lat="44.1098" lon="3.27334">
        <ele>665.1</ele>
        <time>2016-09-25T08:45:11Z</time>
      </trkpt>
      <trkpt lat="44.10975" lon="3.2732">
        <ele>661.1</ele>
        <time>2016-09-25T08:45:14Z</time>
      </trkpt>
      <trkpt lat="44.10973" lon="3.27308">
        <ele>658.5</ele>
        <time>2016-09-25T08:45:16Z</time>
      </trkpt>
      <trkpt lat="44.1097" lon="3.27299">
        <ele>657.2</ele>
        <time>2016-09-25T08:45:18Z</time>
      </trkpt>
      <trkpt lat="44.1097" lon="3.27289">
        <ele>656.9</ele>
        <time>2016-09-25T08:45:23Z</time>
      </trkpt>
      <trkpt lat="44.10971" lon="3.27278">
        <ele>656.6</ele>
        <time>2016-09-25T08:45:25Z</time>
      </trkpt>
      <trkpt lat="44.10972" lon="3.27266">
        <ele>656.3</ele>
        <time>2016-09-25T08:45:28Z</time>
      </trkpt>
      <trkpt lat="44.10973" lon="3.27252">
        <ele>656</ele>
        <time>2016-09-25T08:45:31Z</time>
      </trkpt>
      <trkpt lat="44.10975" lon="3.2724">
        <ele>655.6</ele>
        <time>2016-09-25T08:45:34Z</time>
      </trkpt>
      <trkpt lat="44.10976" lon="3.2723">
        <ele>655.4</ele>
        <time>2016-09-25T08:45:36Z</time>
      </trkpt>
      <trkpt lat="44.1098" lon="3.2722">
        <ele>655.3</ele>
        <time>2016-09-25T08:45:39Z</time>
      </trkpt>
      <trkpt lat="44.1098" lon="3.27208">
        <ele>655.4</ele>
        <time>2016-09-25T08:45:44Z</time>
      </trkpt>
      <trkpt lat="44.10973" lon="3.27202">
        <ele>655.6</ele>
        <time>2016-09-25T08:45:47Z</time>
      </trkpt>
      <trkpt lat="44.10965" lon="3.27195">
        <ele>655.8</ele>
        <time>2016-09-25T08:45:50Z</time>
      </trkpt>
      <trkpt lat="44.10958" lon="3.2719">
        <ele>655.8</ele>
        <time>2016-09-25T08:45:52Z</time>
      </trkpt>
      <trkpt lat="44.10951" lon="3.27184">
        <ele>655.8</ele>
        <time>2016-09-25T08:45:56Z</time>
      </trkpt>
      <trkpt lat="44.10946" lon="3.27173">
        <ele>655.7</ele>
        <time>2016-09-25T08:46:00Z</time>
      </trkpt>
      <trkpt lat="44.10943" lon="3.27163">
        <ele>655.6</ele>
        <time>2016-09-25T08:46:04Z</time>
      </trkpt>
      <trkpt lat="44.10943" lon="3.27153">
        <ele>655.7</ele>
        <time>2016-09-25T08:46:08Z</time>
      </trkpt>
      <trkpt lat="44.10942" lon="3.27142">
        <ele>655.7</ele>
        <time>2016-09-25T08:46:12Z</time>
      </trkpt>
      <trkpt lat="44.10943" lon="3.27132">
        <ele>655.6</ele>
        <time>2016-09-25T08:46:16Z</time>
      </trkpt>
      <trkpt lat="44.10944" lon="3.2712">
        <ele>655.9</ele>
        <time>2016-09-25T08:46:21Z</time>
      </trkpt>
      <trkpt lat="44.10945" lon="3.27109">
        <ele>656.2</ele>
        <time>2016-09-25T08:46:26Z</time>
      </trkpt>
      <trkpt lat="44.10946" lon="3.27099">
        <ele>656.6</ele>
        <time>2016-09-25T08:46:33Z</time>
      </trkpt>
      <trkpt lat="44.10946" lon="3.27089">
        <ele>657.2</ele>
        <time>2016-09-25T08:46:38Z</time>
      </trkpt>
      <trkpt lat="44.10944" lon="3.27078">
        <ele>657.9</ele>
        <time>2016-09-25T08:46:44Z</time>
      </trkpt>
      <trkpt lat="44.10945" lon="3.27068">
        <ele>658.6</ele>
        <time>2016-09-25T08:46:50Z</time>
      </trkpt>
      <trkpt lat="44.10945" lon="3.27058">
        <ele>659.6</ele>
        <time>2016-09-25T08:46:56Z</time>
      </trkpt>
      <trkpt lat="44.10945" lon="3.27046">
        <ele>660.3</ele>
        <time>2016-09-25T08:47:02Z</time>
      </trkpt>
      <trkpt lat="44.10948" lon="3.27036">
        <ele>661.2</ele>
        <time>2016-09-25T08:47:08Z</time>
      </trkpt>
      <trkpt lat="44.10949" lon="3.27025">
        <ele>662</ele>
        <time>2016-09-25T08:47:14Z</time>
      </trkpt>
      <trkpt lat="44.10947" lon="3.27016">
        <ele>663.2</ele>
        <time>2016-09-25T08:47:21Z</time>
      </trkpt>
      <trkpt lat="44.10947" lon="3.27013">
        <ele>664.8</ele>
        <time>2016-09-25T08:47:28Z</time>
      </trkpt>
      <trkpt lat="44.10944" lon="3.27007">
        <ele>666.7</ele>
        <time>2016-09-25T08:47:35Z</time>
      </trkpt>
      <trkpt lat="44.10941" lon="3.26998">
        <ele>668.3</ele>
        <time>2016-09-25T08:47:42Z</time>
      </trkpt>
      <trkpt lat="44.10938" lon="3.2699">
        <ele>669.3</ele>
        <time>2016-09-25T08:47:49Z</time>
      </trkpt>
      <trkpt lat="44.10937" lon="3.2699">
        <ele>670.4</ele>
        <time>2016-09-25T08:48:49Z</time>
      </trkpt>
      <trkpt lat="44.10939" lon="3.26985">
        <ele>671.3</ele>
        <time>2016-09-25T08:49:35Z</time>
      </trkpt>
      <trkpt lat="44.1094" lon="3.26974">
        <ele>671.8</ele>
        <time>2016-09-25T08:49:55Z</time>
      </trkpt>
      <trkpt lat="44.10938" lon="3.26961">
        <ele>671.7</ele>
        <time>2016-09-25T08:49:58Z</time>
      </trkpt>
      <trkpt lat="44.10934" lon="3.26949">
        <ele>671.7</ele>
        <time>2016-09-25T08:50:01Z</time>
      </trkpt>
      <trkpt lat="44.10928" lon="3.26941">
        <ele>671.7</ele>
        <time>2016-09-25T08:50:04Z</time>
      </trkpt>
      <trkpt lat="44.10937" lon="3.26932">
        <ele>670.5</ele>
        <time>2016-09-25T08:50:09Z</time>
      </trkpt>
      <trkpt lat="44.10946" lon="3.26931">
        <ele>670.3</ele>
        <time>2016-09-25T08:50:12Z</time>
      </trkpt>
      <trkpt lat="44.1095" lon="3.26919">
        <ele>670</ele>
        <time>2016-09-25T08:50:16Z</time>
      </trkpt>
      <trkpt lat="44.10949" lon="3.26907">
        <ele>669.7</ele>
        <time>2016-09-25T08:50:18Z</time>
      </trkpt>
      <trkpt lat="44.10946" lon="3.26894">
        <ele>669.4</ele>
        <time>2016-09-25T08:50:21Z</time>
      </trkpt>
      <trkpt lat="44.10943" lon="3.26885">
        <ele>669.2</ele>
        <time>2016-09-25T08:50:23Z</time>
      </trkpt>
      <trkpt lat="44.1094" lon="3.26874">
        <ele>669</ele>
        <time>2016-09-25T08:50:25Z</time>
      </trkpt>
      <trkpt lat="44.10938" lon="3.26863">
        <ele>668.8</ele>
        <time>2016-09-25T08:50:27Z</time>
      </trkpt>
      <trkpt lat="44.10934" lon="3.26852">
        <ele>668.5</ele>
        <time>2016-09-25T08:50:30Z</time>
      </trkpt>
      <trkpt lat="44.10931" lon="3.26842">
        <ele>668.1</ele>
        <time>2016-09-25T08:50:33Z</time>
      </trkpt>
      <trkpt lat="44.10929" lon="3.26832">
        <ele>667.7</ele>
        <time>2016-09-25T08:50:38Z</time>
      </trkpt>
      <trkpt lat="44.10923" lon="3.26823">
        <ele>667.6</ele>
        <time>2016-09-25T08:50:43Z</time>
      </trkpt>
      <trkpt lat="44.10918" lon="3.26815">
        <ele>667.6</ele>
        <time>2016-09-25T08:50:46Z</time>
      </trkpt>
      <trkpt lat="44.10912" lon="3.26808">
        <ele>667.5</ele>
        <time>2016-09-25T08:50:49Z</time>
      </trkpt>
      <trkpt lat="44.10908" lon="3.26799">
        <ele>667.5</ele>
        <time>2016-09-25T08:50:54Z</time>
      </trkpt>
      <trkpt lat="44.10902" lon="3.26791">
        <ele>667.5</ele>
        <time>2016-09-25T08:50:58Z</time>
      </trkpt>
      <trkpt lat="44.10896" lon="3.2677">
        <ele>667.1</ele>
        <time>2016-09-25T08:51:10Z</time>
      </trkpt>
      <trkpt lat="44.10888" lon="3.26764">
        <ele>667.1</ele>
        <time>2016-09-25T08:51:12Z</time>
      </trkpt>
      <trkpt lat="44.10882" lon="3.26758">
        <ele>667</ele>
        <time>2016-09-25T08:51:14Z</time>
      </trkpt>
      <trkpt lat="44.10875" lon="3.26755">
        <ele>667</ele>
        <time>2016-09-25T08:51:16Z</time>
      </trkpt>
      <trkpt lat="44.10868" lon="3.26754">
        <ele>666.9</ele>
        <time>2016-09-25T08:51:18Z</time>
      </trkpt>
      <trkpt lat="44.10859" lon="3.26761">
        <ele>666.4</ele>
        <time>2016-09-25T08:51:22Z</time>
      </trkpt>
      <trkpt lat="44.10859" lon="3.26749">
        <ele>665.5</ele>
        <time>2016-09-25T08:51:28Z</time>
      </trkpt>
      <trkpt lat="44.10859" lon="3.26738">
        <ele>662.3</ele>
        <time>2016-09-25T08:51:30Z</time>
      </trkpt>
      <trkpt lat="44.10859" lon="3.26728">
        <ele>660.9</ele>
        <time>2016-09-25T08:51:32Z</time>
      </trkpt>
      <trkpt lat="44.10857" lon="3.26717">
        <ele>658.4</ele>
        <time>2016-09-25T08:51:34Z</time>
      </trkpt>
      <trkpt lat="44.10852" lon="3.26706">
        <ele>657</ele>
        <time>2016-09-25T08:51:37Z</time>
      </trkpt>
      <trkpt lat="44.10845" lon="3.26704">
        <ele>656.6</ele>
        <time>2016-09-25T08:51:41Z</time>
      </trkpt>
      <trkpt lat="44.10845" lon="3.26692">
        <ele>656.1</ele>
        <time>2016-09-25T08:51:44Z</time>
      </trkpt>
      <trkpt lat="44.10837" lon="3.26684">
        <ele>655.8</ele>
        <time>2016-09-25T08:51:47Z</time>
      </trkpt>
      <trkpt lat="44.1083" lon="3.2668">
        <ele>653.7</ele>
        <time>2016-09-25T08:51:51Z</time>
      </trkpt>
      <trkpt lat="44.10828" lon="3.26678">
        <ele>652.6</ele>
        <time>2016-09-25T08:51:58Z</time>
      </trkpt>
      <trkpt lat="44.1082" lon="3.26677">
        <ele>652</ele>
        <time>2016-09-25T08:52:03Z</time>
      </trkpt>
      <trkpt lat="44.10811" lon="3.26673">
        <ele>651.5</ele>
        <time>2016-09-25T08:52:07Z</time>
      </trkpt>
      <trkpt lat="44.10803" lon="3.26667">
        <ele>651.1</ele>
        <time>2016-09-25T08:52:11Z</time>
      </trkpt>
      <trkpt lat="44.10797" lon="3.26661">
        <ele>650.8</ele>
        <time>2016-09-25T08:52:15Z</time>
      </trkpt>
      <trkpt lat="44.10795" lon="3.26648">
        <ele>650.2</ele>
        <time>2016-09-25T08:52:19Z</time>
      </trkpt>
      <trkpt lat="44.10797" lon="3.26637">
        <ele>649.9</ele>
        <time>2016-09-25T08:52:21Z</time>
      </trkpt>
      <trkpt lat="44.10795" lon="3.26627">
        <ele>649.3</ele>
        <time>2016-09-25T08:52:25Z</time>
      </trkpt>
      <trkpt lat="44.10788" lon="3.26619">
        <ele>648.9</ele>
        <time>2016-09-25T08:52:28Z</time>
      </trkpt>
      <trkpt lat="44.10786" lon="3.26608">
        <ele>648.4</ele>
        <time>2016-09-25T08:52:31Z</time>
      </trkpt>
      <trkpt lat="44.10792" lon="3.26598">
        <ele>646.6</ele>
        <time>2016-09-25T08:52:34Z</time>
      </trkpt>
      <trkpt lat="44.10799" lon="3.2659">
        <ele>644</ele>
        <time>2016-09-25T08:52:36Z</time>
      </trkpt>
      <trkpt lat="44.10803" lon="3.26576">
        <ele>642.4</ele>
        <time>2016-09-25T08:52:39Z</time>
      </trkpt>
      <trkpt lat="44.10805" lon="3.26565">
        <ele>640.4</ele>
        <time>2016-09-25T08:52:41Z</time>
      </trkpt>
      <trkpt lat="44.10811" lon="3.26558">
        <ele>637.7</ele>
        <time>2016-09-25T08:52:43Z</time>
      </trkpt>
      <trkpt lat="44.10824" lon="3.26552">
        <ele>636.4</ele>
        <time>2016-09-25T08:52:45Z</time>
      </trkpt>
      <trkpt lat="44.10831" lon="3.2655">
        <ele>635.1</ele>
        <time>2016-09-25T08:52:48Z</time>
      </trkpt>
      <trkpt lat="44.10839" lon="3.26551">
        <ele>634.5</ele>
        <time>2016-09-25T08:52:51Z</time>
      </trkpt>
      <trkpt lat="44.10846" lon="3.26543">
        <ele>633.9</ele>
        <time>2016-09-25T08:52:56Z</time>
      </trkpt>
      <trkpt lat="44.10852" lon="3.26535">
        <ele>633.6</ele>
        <time>2016-09-25T08:52:59Z</time>
      </trkpt>
      <trkpt lat="44.10857" lon="3.26528">
        <ele>633.2</ele>
        <time>2016-09-25T08:53:06Z</time>
      </trkpt>
      <trkpt lat="44.10857" lon="3.26536">
        <ele>633.6</ele>
        <time>2016-09-25T08:53:18Z</time>
      </trkpt>
      <trkpt lat="44.10863" lon="3.26542">
        <ele>633.9</ele>
        <time>2016-09-25T08:53:25Z</time>
      </trkpt>
      <trkpt lat="44.10864" lon="3.26536">
        <ele>633.3</ele>
        <time>2016-09-25T08:53:32Z</time>
      </trkpt>
      <trkpt lat="44.10864" lon="3.26535">
        <ele>632.8</ele>
        <time>2016-09-25T08:56:23Z</time>
      </trkpt>
      <trkpt lat="44.10866" lon="3.26533">
        <ele>634.8</ele>
        <time>2016-09-25T09:01:08Z</time>
      </trkpt>
      <trkpt lat="44.10875" lon="3.26531">
        <ele>635.5</ele>
        <time>2016-09-25T09:01:20Z</time>
      </trkpt>
      <trkpt lat="44.10883" lon="3.26531">
        <ele>635.5</ele>
        <time>2016-09-25T09:01:25Z</time>
      </trkpt>
      <trkpt lat="44.10891" lon="3.26527">
        <ele>635.6</ele>
        <time>2016-09-25T09:01:30Z</time>
      </trkpt>
      <trkpt lat="44.10899" lon="3.26527">
        <ele>635.7</ele>
        <time>2016-09-25T09:01:35Z</time>
      </trkpt>
      <trkpt lat="44.10905" lon="3.26522">
        <ele>636</ele>
        <time>2016-09-25T09:01:42Z</time>
      </trkpt>
      <trkpt lat="44.10909" lon="3.26513">
        <ele>636.7</ele>
        <time>2016-09-25T09:01:56Z</time>
      </trkpt>
      <trkpt lat="44.10913" lon="3.26511">
        <ele>636.8</ele>
        <time>2016-09-25T09:02:03Z</time>
      </trkpt>
      <trkpt lat="44.10916" lon="3.26509">
        <ele>637.2</ele>
        <time>2016-09-25T09:02:10Z</time>
      </trkpt>
      <trkpt lat="44.10921" lon="3.26506">
        <ele>637.7</ele>
        <time>2016-09-25T09:02:17Z</time>
      </trkpt>
      <trkpt lat="44.10925" lon="3.265">
        <ele>638.5</ele>
        <time>2016-09-25T09:02:24Z</time>
      </trkpt>
      <trkpt lat="44.10929" lon="3.26493">
        <ele>638.8</ele>
        <time>2016-09-25T09:02:31Z</time>
      </trkpt>
      <trkpt lat="44.10937" lon="3.26478">
        <ele>639.9</ele>
        <time>2016-09-25T09:02:45Z</time>
      </trkpt>
      <trkpt lat="44.10944" lon="3.26473">
        <ele>640</ele>
        <time>2016-09-25T09:02:49Z</time>
      </trkpt>
      <trkpt lat="44.10951" lon="3.26473">
        <ele>640.2</ele>
        <time>2016-09-25T09:02:56Z</time>
      </trkpt>
      <trkpt lat="44.1096" lon="3.26472">
        <ele>641</ele>
        <time>2016-09-25T09:03:17Z</time>
      </trkpt>
      <trkpt lat="44.10965" lon="3.26474">
        <ele>641.3</ele>
        <time>2016-09-25T09:03:24Z</time>
      </trkpt>
      <trkpt lat="44.10969" lon="3.26476">
        <ele>641.8</ele>
        <time>2016-09-25T09:03:31Z</time>
      </trkpt>
      <trkpt lat="44.10976" lon="3.26481">
        <ele>642.3</ele>
        <time>2016-09-25T09:03:38Z</time>
      </trkpt>
      <trkpt lat="44.10979" lon="3.2648">
        <ele>642.8</ele>
        <time>2016-09-25T09:03:45Z</time>
      </trkpt>
      <trkpt lat="44.10983" lon="3.26481">
        <ele>643.4</ele>
        <time>2016-09-25T09:03:52Z</time>
      </trkpt>
      <trkpt lat="44.10987" lon="3.26479">
        <ele>644.2</ele>
        <time>2016-09-25T09:03:59Z</time>
      </trkpt>
      <trkpt lat="44.10991" lon="3.26476">
        <ele>645.2</ele>
        <time>2016-09-25T09:04:06Z</time>
      </trkpt>
      <trkpt lat="44.10996" lon="3.26474">
        <ele>646.5</ele>
        <time>2016-09-25T09:04:13Z</time>
      </trkpt>
      <trkpt lat="44.11003" lon="3.26471">
        <ele>647.4</ele>
        <time>2016-09-25T09:04:20Z</time>
      </trkpt>
      <trkpt lat="44.11011" lon="3.26464">
        <ele>648.6</ele>
        <time>2016-09-25T09:04:33Z</time>
      </trkpt>
      <trkpt lat="44.11018" lon="3.26458">
        <ele>649.3</ele>
        <time>2016-09-25T09:04:37Z</time>
      </trkpt>
      <trkpt lat="44.11026" lon="3.26452">
        <ele>650.1</ele>
        <time>2016-09-25T09:04:42Z</time>
      </trkpt>
      <trkpt lat="44.11033" lon="3.26445">
        <ele>651</ele>
        <time>2016-09-25T09:04:47Z</time>
      </trkpt>
      <trkpt lat="44.11039" lon="3.2644">
        <ele>651.4</ele>
        <time>2016-09-25T09:04:51Z</time>
      </trkpt>
      <trkpt lat="44.11046" lon="3.26438">
        <ele>652</ele>
        <time>2016-09-25T09:04:55Z</time>
      </trkpt>
      <trkpt lat="44.11054" lon="3.26436">
        <ele>653.1</ele>
        <time>2016-09-25T09:05:02Z</time>
      </trkpt>
      <trkpt lat="44.11061" lon="3.26433">
        <ele>653.9</ele>
        <time>2016-09-25T09:05:08Z</time>
      </trkpt>
      <trkpt lat="44.11068" lon="3.26429">
        <ele>654.4</ele>
        <time>2016-09-25T09:05:12Z</time>
      </trkpt>
      <trkpt lat="44.11077" lon="3.26429">
        <ele>655.3</ele>
        <time>2016-09-25T09:05:17Z</time>
      </trkpt>
      <trkpt lat="44.11085" lon="3.26426">
        <ele>656.1</ele>
        <time>2016-09-25T09:05:22Z</time>
      </trkpt>
      <trkpt lat="44.11094" lon="3.26425">
        <ele>656.7</ele>
        <time>2016-09-25T09:05:26Z</time>
      </trkpt>
      <trkpt lat="44.11101" lon="3.26423">
        <ele>657.4</ele>
        <time>2016-09-25T09:05:31Z</time>
      </trkpt>
      <trkpt lat="44.11109" lon="3.26418">
        <ele>657.8</ele>
        <time>2016-09-25T09:05:35Z</time>
      </trkpt>
      <trkpt lat="44.11116" lon="3.26413">
        <ele>658.3</ele>
        <time>2016-09-25T09:05:40Z</time>
      </trkpt>
      <trkpt lat="44.11124" lon="3.26408">
        <ele>659</ele>
        <time>2016-09-25T09:05:45Z</time>
      </trkpt>
      <trkpt lat="44.1113" lon="3.26403">
        <ele>659.4</ele>
        <time>2016-09-25T09:05:50Z</time>
      </trkpt>
      <trkpt lat="44.11137" lon="3.26397">
        <ele>660.1</ele>
        <time>2016-09-25T09:05:55Z</time>
      </trkpt>
      <trkpt lat="44.11143" lon="3.26389">
        <ele>660.7</ele>
        <time>2016-09-25T09:06:00Z</time>
      </trkpt>
      <trkpt lat="44.11148" lon="3.26382">
        <ele>661.3</ele>
        <time>2016-09-25T09:06:05Z</time>
      </trkpt>
      <trkpt lat="44.11153" lon="3.26374">
        <ele>661.9</ele>
        <time>2016-09-25T09:06:10Z</time>
      </trkpt>
      <trkpt lat="44.11158" lon="3.26366">
        <ele>662.7</ele>
        <time>2016-09-25T09:06:15Z</time>
      </trkpt>
      <trkpt lat="44.11164" lon="3.26356">
        <ele>663.6</ele>
        <time>2016-09-25T09:06:21Z</time>
      </trkpt>
      <trkpt lat="44.11168" lon="3.26345">
        <ele>664.1</ele>
        <time>2016-09-25T09:06:25Z</time>
      </trkpt>
      <trkpt lat="44.11171" lon="3.26333">
        <ele>664.4</ele>
        <time>2016-09-25T09:06:29Z</time>
      </trkpt>
      <trkpt lat="44.11175" lon="3.26322">
        <ele>664.7</ele>
        <time>2016-09-25T09:06:33Z</time>
      </trkpt>
      <trkpt lat="44.1118" lon="3.26313">
        <ele>665.2</ele>
        <time>2016-09-25T09:06:37Z</time>
      </trkpt>
      <trkpt lat="44.11184" lon="3.26305">
        <ele>666</ele>
        <time>2016-09-25T09:06:42Z</time>
      </trkpt>
      <trkpt lat="44.1119" lon="3.26299">
        <ele>666.8</ele>
        <time>2016-09-25T09:06:47Z</time>
      </trkpt>
      <trkpt lat="44.11198" lon="3.26293">
        <ele>667.6</ele>
        <time>2016-09-25T09:06:53Z</time>
      </trkpt>
      <trkpt lat="44.11204" lon="3.26287">
        <ele>668.6</ele>
        <time>2016-09-25T09:06:59Z</time>
      </trkpt>
      <trkpt lat="44.11212" lon="3.26286">
        <ele>669.7</ele>
        <time>2016-09-25T09:07:05Z</time>
      </trkpt>
      <trkpt lat="44.1122" lon="3.26285">
        <ele>671</ele>
        <time>2016-09-25T09:07:12Z</time>
      </trkpt>
      <trkpt lat="44.11222" lon="3.26286">
        <ele>672.1</ele>
        <time>2016-09-25T09:07:19Z</time>
      </trkpt>
      <trkpt lat="44.11225" lon="3.26287">
        <ele>673.3</ele>
        <time>2016-09-25T09:07:26Z</time>
      </trkpt>
      <trkpt lat="44.11229" lon="3.26287">
        <ele>674.5</ele>
        <time>2016-09-25T09:07:33Z</time>
      </trkpt>
      <trkpt lat="44.11233" lon="3.26289">
        <ele>675.8</ele>
        <time>2016-09-25T09:07:40Z</time>
      </trkpt>
      <trkpt lat="44.11237" lon="3.26292">
        <ele>676.9</ele>
        <time>2016-09-25T09:07:47Z</time>
      </trkpt>
      <trkpt lat="44.1124" lon="3.26293">
        <ele>677.8</ele>
        <time>2016-09-25T09:07:54Z</time>
      </trkpt>
      <trkpt lat="44.11244" lon="3.26295">
        <ele>678.8</ele>
        <time>2016-09-25T09:08:01Z</time>
      </trkpt>
      <trkpt lat="44.11248" lon="3.26298">
        <ele>679.9</ele>
        <time>2016-09-25T09:08:08Z</time>
      </trkpt>
      <trkpt lat="44.11254" lon="3.26307">
        <ele>682.5</ele>
        <time>2016-09-25T09:08:22Z</time>
      </trkpt>
      <trkpt lat="44.11257" lon="3.2631">
        <ele>683.3</ele>
        <time>2016-09-25T09:08:29Z</time>
      </trkpt>
      <trkpt lat="44.11261" lon="3.26313">
        <ele>685.2</ele>
        <time>2016-09-25T09:08:44Z</time>
      </trkpt>
      <trkpt lat="44.11266" lon="3.26318">
        <ele>686.2</ele>
        <time>2016-09-25T09:08:51Z</time>
      </trkpt>
      <trkpt lat="44.11271" lon="3.26321">
        <ele>687.1</ele>
        <time>2016-09-25T09:08:58Z</time>
      </trkpt>
      <trkpt lat="44.11275" lon="3.26326">
        <ele>688.1</ele>
        <time>2016-09-25T09:09:05Z</time>
      </trkpt>
      <trkpt lat="44.11279" lon="3.26329">
        <ele>689.1</ele>
        <time>2016-09-25T09:09:12Z</time>
      </trkpt>
      <trkpt lat="44.11283" lon="3.26331">
        <ele>690.2</ele>
        <time>2016-09-25T09:09:19Z</time>
      </trkpt>
      <trkpt lat="44.11286" lon="3.26332">
        <ele>691.4</ele>
        <time>2016-09-25T09:09:26Z</time>
      </trkpt>
      <trkpt lat="44.11288" lon="3.26332">
        <ele>692.6</ele>
        <time>2016-09-25T09:09:33Z</time>
      </trkpt>
      <trkpt lat="44.11292" lon="3.26333">
        <ele>694.1</ele>
        <time>2016-09-25T09:09:40Z</time>
      </trkpt>
      <trkpt lat="44.11295" lon="3.26336">
        <ele>695.5</ele>
        <time>2016-09-25T09:09:47Z</time>
      </trkpt>
      <trkpt lat="44.11298" lon="3.26341">
        <ele>696.8</ele>
        <time>2016-09-25T09:09:54Z</time>
      </trkpt>
      <trkpt lat="44.11303" lon="3.26345">
        <ele>697.8</ele>
        <time>2016-09-25T09:10:01Z</time>
      </trkpt>
      <trkpt lat="44.11308" lon="3.26345">
        <ele>698.6</ele>
        <time>2016-09-25T09:10:08Z</time>
      </trkpt>
      <trkpt lat="44.11314" lon="3.26346">
        <ele>699.5</ele>
        <time>2016-09-25T09:10:15Z</time>
      </trkpt>
      <trkpt lat="44.11317" lon="3.26345">
        <ele>700.6</ele>
        <time>2016-09-25T09:10:22Z</time>
      </trkpt>
      <trkpt lat="44.11326" lon="3.26347">
        <ele>701.3</ele>
        <time>2016-09-25T09:10:29Z</time>
      </trkpt>
      <trkpt lat="44.11331" lon="3.26349">
        <ele>702.2</ele>
        <time>2016-09-25T09:10:36Z</time>
      </trkpt>
      <trkpt lat="44.11339" lon="3.26355">
        <ele>703.9</ele>
        <time>2016-09-25T09:10:50Z</time>
      </trkpt>
      <trkpt lat="44.11341" lon="3.26361">
        <ele>705.1</ele>
        <time>2016-09-25T09:10:57Z</time>
      </trkpt>
      <trkpt lat="44.11348" lon="3.26366">
        <ele>707.5</ele>
        <time>2016-09-25T09:11:18Z</time>
      </trkpt>
      <trkpt lat="44.11355" lon="3.26373">
        <ele>708.3</ele>
        <time>2016-09-25T09:11:23Z</time>
      </trkpt>
      <trkpt lat="44.11361" lon="3.26379">
        <ele>709.1</ele>
        <time>2016-09-25T09:11:28Z</time>
      </trkpt>
      <trkpt lat="44.11368" lon="3.26384">
        <ele>709.8</ele>
        <time>2016-09-25T09:11:34Z</time>
      </trkpt>
      <trkpt lat="44.11373" lon="3.26393">
        <ele>710.5</ele>
        <time>2016-09-25T09:11:40Z</time>
      </trkpt>
      <trkpt lat="44.11381" lon="3.26398">
        <ele>711.3</ele>
        <time>2016-09-25T09:11:46Z</time>
      </trkpt>
      <trkpt lat="44.11389" lon="3.264">
        <ele>712</ele>
        <time>2016-09-25T09:11:52Z</time>
      </trkpt>
      <trkpt lat="44.11397" lon="3.26403">
        <ele>712.9</ele>
        <time>2016-09-25T09:11:59Z</time>
      </trkpt>
      <trkpt lat="44.11405" lon="3.26403">
        <ele>714</ele>
        <time>2016-09-25T09:12:06Z</time>
      </trkpt>
      <trkpt lat="44.11413" lon="3.26405">
        <ele>715.5</ele>
        <time>2016-09-25T09:12:12Z</time>
      </trkpt>
      <trkpt lat="44.11421" lon="3.26408">
        <ele>717.1</ele>
        <time>2016-09-25T09:12:19Z</time>
      </trkpt>
      <trkpt lat="44.11428" lon="3.2641">
        <ele>718.5</ele>
        <time>2016-09-25T09:12:25Z</time>
      </trkpt>
      <trkpt lat="44.11436" lon="3.26413">
        <ele>719.7</ele>
        <time>2016-09-25T09:12:31Z</time>
      </trkpt>
      <trkpt lat="44.11444" lon="3.26417">
        <ele>720.6</ele>
        <time>2016-09-25T09:12:37Z</time>
      </trkpt>
      <trkpt lat="44.11451" lon="3.2642">
        <ele>721.5</ele>
        <time>2016-09-25T09:12:42Z</time>
      </trkpt>
      <trkpt lat="44.11457" lon="3.2642">
        <ele>722.8</ele>
        <time>2016-09-25T09:12:49Z</time>
      </trkpt>
      <trkpt lat="44.11465" lon="3.26419">
        <ele>724.2</ele>
        <time>2016-09-25T09:12:56Z</time>
      </trkpt>
      <trkpt lat="44.11473" lon="3.26419">
        <ele>725.8</ele>
        <time>2016-09-25T09:13:03Z</time>
      </trkpt>
      <trkpt lat="44.11481" lon="3.26421">
        <ele>727.6</ele>
        <time>2016-09-25T09:13:10Z</time>
      </trkpt>
      <trkpt lat="44.11489" lon="3.26423">
        <ele>729.2</ele>
        <time>2016-09-25T09:13:16Z</time>
      </trkpt>
      <trkpt lat="44.11497" lon="3.26423">
        <ele>730.6</ele>
        <time>2016-09-25T09:13:23Z</time>
      </trkpt>
      <trkpt lat="44.11506" lon="3.26421">
        <ele>731.8</ele>
        <time>2016-09-25T09:13:29Z</time>
      </trkpt>
      <trkpt lat="44.11514" lon="3.26419">
        <ele>732.9</ele>
        <time>2016-09-25T09:13:35Z</time>
      </trkpt>
      <trkpt lat="44.11522" lon="3.26417">
        <ele>733.7</ele>
        <time>2016-09-25T09:13:40Z</time>
      </trkpt>
      <trkpt lat="44.1153" lon="3.26417">
        <ele>734.2</ele>
        <time>2016-09-25T09:13:45Z</time>
      </trkpt>
      <trkpt lat="44.11537" lon="3.26416">
        <ele>734.7</ele>
        <time>2016-09-25T09:13:49Z</time>
      </trkpt>
      <trkpt lat="44.11545" lon="3.26414">
        <ele>735.2</ele>
        <time>2016-09-25T09:13:53Z</time>
      </trkpt>
      <trkpt lat="44.11553" lon="3.26413">
        <ele>735.7</ele>
        <time>2016-09-25T09:13:58Z</time>
      </trkpt>
      <trkpt lat="44.11561" lon="3.26414">
        <ele>736.1</ele>
        <time>2016-09-25T09:14:02Z</time>
      </trkpt>
      <trkpt lat="44.11569" lon="3.26415">
        <ele>736.8</ele>
        <time>2016-09-25T09:14:07Z</time>
      </trkpt>
      <trkpt lat="44.11577" lon="3.26415">
        <ele>737.6</ele>
        <time>2016-09-25T09:14:12Z</time>
      </trkpt>
      <trkpt lat="44.11585" lon="3.26414">
        <ele>738.3</ele>
        <time>2016-09-25T09:14:17Z</time>
      </trkpt>
      <trkpt lat="44.11593" lon="3.26411">
        <ele>738.9</ele>
        <time>2016-09-25T09:14:22Z</time>
      </trkpt>
      <trkpt lat="44.11599" lon="3.2641">
        <ele>740.2</ele>
        <time>2016-09-25T09:14:29Z</time>
      </trkpt>
      <trkpt lat="44.11607" lon="3.26409">
        <ele>741.2</ele>
        <time>2016-09-25T09:14:34Z</time>
      </trkpt>
      <trkpt lat="44.11614" lon="3.26408">
        <ele>742.2</ele>
        <time>2016-09-25T09:14:39Z</time>
      </trkpt>
      <trkpt lat="44.11622" lon="3.26407">
        <ele>743.1</ele>
        <time>2016-09-25T09:14:44Z</time>
      </trkpt>
      <trkpt lat="44.11631" lon="3.26405">
        <ele>744.2</ele>
        <time>2016-09-25T09:14:50Z</time>
      </trkpt>
      <trkpt lat="44.11638" lon="3.264">
        <ele>744.7</ele>
        <time>2016-09-25T09:14:54Z</time>
      </trkpt>
      <trkpt lat="44.11646" lon="3.26395">
        <ele>745.4</ele>
        <time>2016-09-25T09:14:59Z</time>
      </trkpt>
      <trkpt lat="44.11653" lon="3.2639">
        <ele>745.9</ele>
        <time>2016-09-25T09:15:04Z</time>
      </trkpt>
      <trkpt lat="44.11659" lon="3.26386">
        <ele>746.4</ele>
        <time>2016-09-25T09:15:08Z</time>
      </trkpt>
      <trkpt lat="44.11668" lon="3.26382">
        <ele>747.1</ele>
        <time>2016-09-25T09:15:14Z</time>
      </trkpt>
      <trkpt lat="44.11674" lon="3.26377">
        <ele>747.5</ele>
        <time>2016-09-25T09:15:18Z</time>
      </trkpt>
      <trkpt lat="44.1168" lon="3.2637">
        <ele>748.1</ele>
        <time>2016-09-25T09:15:23Z</time>
      </trkpt>
      <trkpt lat="44.11687" lon="3.26363">
        <ele>748.7</ele>
        <time>2016-09-25T09:15:28Z</time>
      </trkpt>
      <trkpt lat="44.11693" lon="3.26355">
        <ele>749.3</ele>
        <time>2016-09-25T09:15:33Z</time>
      </trkpt>
      <trkpt lat="44.11699" lon="3.26347">
        <ele>750.1</ele>
        <time>2016-09-25T09:15:38Z</time>
      </trkpt>
      <trkpt lat="44.11705" lon="3.26338">
        <ele>750.7</ele>
        <time>2016-09-25T09:15:43Z</time>
      </trkpt>
      <trkpt lat="44.1171" lon="3.2633">
        <ele>751.1</ele>
        <time>2016-09-25T09:15:48Z</time>
      </trkpt>
      <trkpt lat="44.11713" lon="3.2632">
        <ele>751.6</ele>
        <time>2016-09-25T09:15:52Z</time>
      </trkpt>
      <trkpt lat="44.11716" lon="3.26309">
        <ele>752</ele>
        <time>2016-09-25T09:15:56Z</time>
      </trkpt>
      <trkpt lat="44.1172" lon="3.263">
        <ele>752.5</ele>
        <time>2016-09-25T09:16:00Z</time>
      </trkpt>
      <trkpt lat="44.11724" lon="3.26291">
        <ele>753.4</ele>
        <time>2016-09-25T09:16:05Z</time>
      </trkpt>
      <trkpt lat="44.11728" lon="3.26282">
        <ele>754</ele>
        <time>2016-09-25T09:16:09Z</time>
      </trkpt>
      <trkpt lat="44.11733" lon="3.26273">
        <ele>754.5</ele>
        <time>2016-09-25T09:16:13Z</time>
      </trkpt>
      <trkpt lat="44.11738" lon="3.26265">
        <ele>754.9</ele>
        <time>2016-09-25T09:16:16Z</time>
      </trkpt>
      <trkpt lat="44.11745" lon="3.26259">
        <ele>755.2</ele>
        <time>2016-09-25T09:16:19Z</time>
      </trkpt>
      <trkpt lat="44.11753" lon="3.26255">
        <ele>755.8</ele>
        <time>2016-09-25T09:16:24Z</time>
      </trkpt>
      <trkpt lat="44.11761" lon="3.26253">
        <ele>756.3</ele>
        <time>2016-09-25T09:16:28Z</time>
      </trkpt>
      <trkpt lat="44.1177" lon="3.26252">
        <ele>756.8</ele>
        <time>2016-09-25T09:16:32Z</time>
      </trkpt>
      <trkpt lat="44.11777" lon="3.26251">
        <ele>757.5</ele>
        <time>2016-09-25T09:16:36Z</time>
      </trkpt>
      <trkpt lat="44.11786" lon="3.26252">
        <ele>758.1</ele>
        <time>2016-09-25T09:16:40Z</time>
      </trkpt>
      <trkpt lat="44.11795" lon="3.26254">
        <ele>758.9</ele>
        <time>2016-09-25T09:16:44Z</time>
      </trkpt>
      <trkpt lat="44.11804" lon="3.26254">
        <ele>760</ele>
        <time>2016-09-25T09:16:49Z</time>
      </trkpt>
      <trkpt lat="44.11812" lon="3.26252">
        <ele>760.8</ele>
        <time>2016-09-25T09:16:53Z</time>
      </trkpt>
      <trkpt lat="44.1182" lon="3.26254">
        <ele>761.7</ele>
        <time>2016-09-25T09:16:57Z</time>
      </trkpt>
      <trkpt lat="44.11827" lon="3.26251">
        <ele>762.4</ele>
        <time>2016-09-25T09:17:01Z</time>
      </trkpt>
      <trkpt lat="44.11833" lon="3.26244">
        <ele>763.1</ele>
        <time>2016-09-25T09:17:05Z</time>
      </trkpt>
      <trkpt lat="44.11838" lon="3.26235">
        <ele>763.9</ele>
        <time>2016-09-25T09:17:09Z</time>
      </trkpt>
      <trkpt lat="44.11843" lon="3.26227">
        <ele>764.7</ele>
        <time>2016-09-25T09:17:14Z</time>
      </trkpt>
      <trkpt lat="44.11848" lon="3.26218">
        <ele>765.3</ele>
        <time>2016-09-25T09:17:19Z</time>
      </trkpt>
      <trkpt lat="44.11851" lon="3.26208">
        <ele>765.9</ele>
        <time>2016-09-25T09:17:24Z</time>
      </trkpt>
      <trkpt lat="44.11853" lon="3.26198">
        <ele>766.5</ele>
        <time>2016-09-25T09:17:29Z</time>
      </trkpt>
      <trkpt lat="44.11856" lon="3.26188">
        <ele>767.1</ele>
        <time>2016-09-25T09:17:34Z</time>
      </trkpt>
      <trkpt lat="44.11859" lon="3.26177">
        <ele>768</ele>
        <time>2016-09-25T09:17:40Z</time>
      </trkpt>
      <trkpt lat="44.11863" lon="3.26168">
        <ele>768.5</ele>
        <time>2016-09-25T09:17:45Z</time>
      </trkpt>
      <trkpt lat="44.11866" lon="3.26158">
        <ele>769.4</ele>
        <time>2016-09-25T09:17:51Z</time>
      </trkpt>
      <trkpt lat="44.1187" lon="3.26149">
        <ele>770</ele>
        <time>2016-09-25T09:17:56Z</time>
      </trkpt>
      <trkpt lat="44.11876" lon="3.26141">
        <ele>770.8</ele>
        <time>2016-09-25T09:18:02Z</time>
      </trkpt>
      <trkpt lat="44.11882" lon="3.26133">
        <ele>771.9</ele>
        <time>2016-09-25T09:18:08Z</time>
      </trkpt>
      <trkpt lat="44.11888" lon="3.26124">
        <ele>772.6</ele>
        <time>2016-09-25T09:18:13Z</time>
      </trkpt>
      <trkpt lat="44.11895" lon="3.26117">
        <ele>773.3</ele>
        <time>2016-09-25T09:18:18Z</time>
      </trkpt>
      <trkpt lat="44.11902" lon="3.26109">
        <ele>774.1</ele>
        <time>2016-09-25T09:18:23Z</time>
      </trkpt>
      <trkpt lat="44.11908" lon="3.26103">
        <ele>774.7</ele>
        <time>2016-09-25T09:18:27Z</time>
      </trkpt>
      <trkpt lat="44.11914" lon="3.26096">
        <ele>775.7</ele>
        <time>2016-09-25T09:18:32Z</time>
      </trkpt>
      <trkpt lat="44.11921" lon="3.26089">
        <ele>776.6</ele>
        <time>2016-09-25T09:18:37Z</time>
      </trkpt>
      <trkpt lat="44.11927" lon="3.26084">
        <ele>777.1</ele>
        <time>2016-09-25T09:18:41Z</time>
      </trkpt>
      <trkpt lat="44.11934" lon="3.26077">
        <ele>777.6</ele>
        <time>2016-09-25T09:18:45Z</time>
      </trkpt>
      <trkpt lat="44.1194" lon="3.26071">
        <ele>777.9</ele>
        <time>2016-09-25T09:18:48Z</time>
      </trkpt>
      <trkpt lat="44.11946" lon="3.26064">
        <ele>778.2</ele>
        <time>2016-09-25T09:18:51Z</time>
      </trkpt>
      <trkpt lat="44.11954" lon="3.26056">
        <ele>778.4</ele>
        <time>2016-09-25T09:18:54Z</time>
      </trkpt>
      <trkpt lat="44.11961" lon="3.26049">
        <ele>778.7</ele>
        <time>2016-09-25T09:18:57Z</time>
      </trkpt>
      <trkpt lat="44.11968" lon="3.26042">
        <ele>778.9</ele>
        <time>2016-09-25T09:19:00Z</time>
      </trkpt>
      <trkpt lat="44.11975" lon="3.26035">
        <ele>779.2</ele>
        <time>2016-09-25T09:19:04Z</time>
      </trkpt>
      <trkpt lat="44.11982" lon="3.26028">
        <ele>779.4</ele>
        <time>2016-09-25T09:19:08Z</time>
      </trkpt>
      <trkpt lat="44.11989" lon="3.26024">
        <ele>779.8</ele>
        <time>2016-09-25T09:19:12Z</time>
      </trkpt>
      <trkpt lat="44.11997" lon="3.26016">
        <ele>780.2</ele>
        <time>2016-09-25T09:19:16Z</time>
      </trkpt>
      <trkpt lat="44.12003" lon="3.26009">
        <ele>780.8</ele>
        <time>2016-09-25T09:19:20Z</time>
      </trkpt>
      <trkpt lat="44.12008" lon="3.26001">
        <ele>781.5</ele>
        <time>2016-09-25T09:19:25Z</time>
      </trkpt>
      <trkpt lat="44.12014" lon="3.25993">
        <ele>781.8</ele>
        <time>2016-09-25T09:19:28Z</time>
      </trkpt>
      <trkpt lat="44.12021" lon="3.25985">
        <ele>782.1</ele>
        <time>2016-09-25T09:19:32Z</time>
      </trkpt>
      <trkpt lat="44.12027" lon="3.25977">
        <ele>782.6</ele>
        <time>2016-09-25T09:19:36Z</time>
      </trkpt>
      <trkpt lat="44.12033" lon="3.25969">
        <ele>783.1</ele>
        <time>2016-09-25T09:19:40Z</time>
      </trkpt>
      <trkpt lat="44.12038" lon="3.25962">
        <ele>783.7</ele>
        <time>2016-09-25T09:19:44Z</time>
      </trkpt>
      <trkpt lat="44.12044" lon="3.25953">
        <ele>784.4</ele>
        <time>2016-09-25T09:19:48Z</time>
      </trkpt>
      <trkpt lat="44.1205" lon="3.25945">
        <ele>784.8</ele>
        <time>2016-09-25T09:19:51Z</time>
      </trkpt>
      <trkpt lat="44.12055" lon="3.25935">
        <ele>785.2</ele>
        <time>2016-09-25T09:19:54Z</time>
      </trkpt>
      <trkpt lat="44.1206" lon="3.25926">
        <ele>785.6</ele>
        <time>2016-09-25T09:19:57Z</time>
      </trkpt>
      <trkpt lat="44.12063" lon="3.25915">
        <ele>786</ele>
        <time>2016-09-25T09:20:01Z</time>
      </trkpt>
      <trkpt lat="44.12067" lon="3.25905">
        <ele>786.6</ele>
        <time>2016-09-25T09:20:06Z</time>
      </trkpt>
      <trkpt lat="44.1207" lon="3.25894">
        <ele>787.2</ele>
        <time>2016-09-25T09:20:10Z</time>
      </trkpt>
      <trkpt lat="44.12073" lon="3.25882">
        <ele>787.6</ele>
        <time>2016-09-25T09:20:13Z</time>
      </trkpt>
      <trkpt lat="44.12075" lon="3.2587">
        <ele>788</ele>
        <time>2016-09-25T09:20:16Z</time>
      </trkpt>
      <trkpt lat="44.12079" lon="3.25858">
        <ele>788.4</ele>
        <time>2016-09-25T09:20:19Z</time>
      </trkpt>
      <trkpt lat="44.12083" lon="3.25847">
        <ele>788.8</ele>
        <time>2016-09-25T09:20:22Z</time>
      </trkpt>
      <trkpt lat="44.12085" lon="3.25837">
        <ele>789.3</ele>
        <time>2016-09-25T09:20:25Z</time>
      </trkpt>
      <trkpt lat="44.12086" lon="3.25824">
        <ele>789.7</ele>
        <time>2016-09-25T09:20:28Z</time>
      </trkpt>
      <trkpt lat="44.12084" lon="3.25812">
        <ele>792.8</ele>
        <time>2016-09-25T09:20:30Z</time>
      </trkpt>
      <trkpt lat="44.12084" lon="3.25799">
        <ele>794.5</ele>
        <time>2016-09-25T09:20:32Z</time>
      </trkpt>
      <trkpt lat="44.12081" lon="3.25781">
        <ele>794.9</ele>
        <time>2016-09-25T09:20:34Z</time>
      </trkpt>
      <trkpt lat="44.12079" lon="3.25772">
        <ele>794.8</ele>
        <time>2016-09-25T09:20:35Z</time>
      </trkpt>
      <trkpt lat="44.12077" lon="3.25761">
        <ele>794.5</ele>
        <time>2016-09-25T09:20:36Z</time>
      </trkpt>
      <trkpt lat="44.12075" lon="3.2575">
        <ele>794.1</ele>
        <time>2016-09-25T09:20:37Z</time>
      </trkpt>
      <trkpt lat="44.12073" lon="3.25741">
        <ele>793.8</ele>
        <time>2016-09-25T09:20:38Z</time>
      </trkpt>
      <trkpt lat="44.12071" lon="3.2573">
        <ele>793.7</ele>
        <time>2016-09-25T09:20:39Z</time>
      </trkpt>
      <trkpt lat="44.12068" lon="3.25718">
        <ele>793.2</ele>
        <time>2016-09-25T09:20:40Z</time>
      </trkpt>
      <trkpt lat="44.12066" lon="3.25706">
        <ele>792.3</ele>
        <time>2016-09-25T09:20:41Z</time>
      </trkpt>
      <trkpt lat="44.12064" lon="3.25695">
        <ele>791.4</ele>
        <time>2016-09-25T09:20:42Z</time>
      </trkpt>
      <trkpt lat="44.12061" lon="3.25683">
        <ele>790.3</ele>
        <time>2016-09-25T09:20:43Z</time>
      </trkpt>
      <trkpt lat="44.12059" lon="3.25671">
        <ele>789.4</ele>
        <time>2016-09-25T09:20:44Z</time>
      </trkpt>
      <trkpt lat="44.12056" lon="3.25658">
        <ele>788.7</ele>
        <time>2016-09-25T09:20:45Z</time>
      </trkpt>
      <trkpt lat="44.12053" lon="3.25648">
        <ele>788.1</ele>
        <time>2016-09-25T09:20:46Z</time>
      </trkpt>
      <trkpt lat="44.12051" lon="3.25637">
        <ele>787.6</ele>
        <time>2016-09-25T09:20:47Z</time>
      </trkpt>
      <trkpt lat="44.12049" lon="3.25627">
        <ele>786.9</ele>
        <time>2016-09-25T09:20:48Z</time>
      </trkpt>
      <trkpt lat="44.12047" lon="3.25617">
        <ele>786.2</ele>
        <time>2016-09-25T09:20:49Z</time>
      </trkpt>
      <trkpt lat="44.12045" lon="3.25607">
        <ele>785.6</ele>
        <time>2016-09-25T09:20:50Z</time>
      </trkpt>
      <trkpt lat="44.12043" lon="3.25597">
        <ele>785.1</ele>
        <time>2016-09-25T09:20:51Z</time>
      </trkpt>
      <trkpt lat="44.12043" lon="3.25587">
        <ele>784.3</ele>
        <time>2016-09-25T09:20:52Z</time>
      </trkpt>
      <trkpt lat="44.12046" lon="3.25574">
        <ele>783.3</ele>
        <time>2016-09-25T09:20:54Z</time>
      </trkpt>
      <trkpt lat="44.1205" lon="3.25565">
        <ele>783</ele>
        <time>2016-09-25T09:20:58Z</time>
      </trkpt>
      <trkpt lat="44.12053" lon="3.25559">
        <ele>782.5</ele>
        <time>2016-09-25T09:21:05Z</time>
      </trkpt>
      <trkpt lat="44.12058" lon="3.25548">
        <ele>780.9</ele>
        <time>2016-09-25T09:22:14Z</time>
      </trkpt>
      <trkpt lat="44.12062" lon="3.25538">
        <ele>780.6</ele>
        <time>2016-09-25T09:22:17Z</time>
      </trkpt>
      <trkpt lat="44.12068" lon="3.25526">
        <ele>779.6</ele>
        <time>2016-09-25T09:22:20Z</time>
      </trkpt>
      <trkpt lat="44.12073" lon="3.25519">
        <ele>778.1</ele>
        <time>2016-09-25T09:22:22Z</time>
      </trkpt>
      <trkpt lat="44.12081" lon="3.25515">
        <ele>776.3</ele>
        <time>2016-09-25T09:22:24Z</time>
      </trkpt>
      <trkpt lat="44.12089" lon="3.25516">
        <ele>775.6</ele>
        <time>2016-09-25T09:22:26Z</time>
      </trkpt>
      <trkpt lat="44.12098" lon="3.25522">
        <ele>775.9</ele>
        <time>2016-09-25T09:22:28Z</time>
      </trkpt>
      <trkpt lat="44.1211" lon="3.25527">
        <ele>775.6</ele>
        <time>2016-09-25T09:22:30Z</time>
      </trkpt>
      <trkpt lat="44.12122" lon="3.25526">
        <ele>775.5</ele>
        <time>2016-09-25T09:22:32Z</time>
      </trkpt>
      <trkpt lat="44.12132" lon="3.25512">
        <ele>775.4</ele>
        <time>2016-09-25T09:22:34Z</time>
      </trkpt>
      <trkpt lat="44.12137" lon="3.25497">
        <ele>775.6</ele>
        <time>2016-09-25T09:22:36Z</time>
      </trkpt>
      <trkpt lat="44.12142" lon="3.25485">
        <ele>775.1</ele>
        <time>2016-09-25T09:22:38Z</time>
      </trkpt>
      <trkpt lat="44.12146" lon="3.25472">
        <ele>775.5</ele>
        <time>2016-09-25T09:22:40Z</time>
      </trkpt>
      <trkpt lat="44.1215" lon="3.25458">
        <ele>776.3</ele>
        <time>2016-09-25T09:22:42Z</time>
      </trkpt>
      <trkpt lat="44.12154" lon="3.25442">
        <ele>775.5</ele>
        <time>2016-09-25T09:22:44Z</time>
      </trkpt>
      <trkpt lat="44.12156" lon="3.25425">
        <ele>774.6</ele>
        <time>2016-09-25T09:22:46Z</time>
      </trkpt>
      <trkpt lat="44.12158" lon="3.25409">
        <ele>773.1</ele>
        <time>2016-09-25T09:22:48Z</time>
      </trkpt>
      <trkpt lat="44.12167" lon="3.25392">
        <ele>771.6</ele>
        <time>2016-09-25T09:22:50Z</time>
      </trkpt>
      <trkpt lat="44.12172" lon="3.25384">
        <ele>770.9</ele>
        <time>2016-09-25T09:22:51Z</time>
      </trkpt>
      <trkpt lat="44.12177" lon="3.25375">
        <ele>770.1</ele>
        <time>2016-09-25T09:22:52Z</time>
      </trkpt>
      <trkpt lat="44.12183" lon="3.25367">
        <ele>769.5</ele>
        <time>2016-09-25T09:22:53Z</time>
      </trkpt>
      <trkpt lat="44.12188" lon="3.25358">
        <ele>768.9</ele>
        <time>2016-09-25T09:22:54Z</time>
      </trkpt>
      <trkpt lat="44.12192" lon="3.25348">
        <ele>768.5</ele>
        <time>2016-09-25T09:22:55Z</time>
      </trkpt>
      <trkpt lat="44.12193" lon="3.25336">
        <ele>768.4</ele>
        <time>2016-09-25T09:22:56Z</time>
      </trkpt>
      <trkpt lat="44.12195" lon="3.25325">
        <ele>768.5</ele>
        <time>2016-09-25T09:22:57Z</time>
      </trkpt>
      <trkpt lat="44.12195" lon="3.25315">
        <ele>768.8</ele>
        <time>2016-09-25T09:22:58Z</time>
      </trkpt>
      <trkpt lat="44.12197" lon="3.25295">
        <ele>768.5</ele>
        <time>2016-09-25T09:23:00Z</time>
      </trkpt>
      <trkpt lat="44.12201" lon="3.25285">
        <ele>768</ele>
        <time>2016-09-25T09:23:01Z</time>
      </trkpt>
      <trkpt lat="44.12204" lon="3.25276">
        <ele>767.7</ele>
        <time>2016-09-25T09:23:02Z</time>
      </trkpt>
      <trkpt lat="44.12209" lon="3.25267">
        <ele>767.2</ele>
        <time>2016-09-25T09:23:03Z</time>
      </trkpt>
      <trkpt lat="44.12213" lon="3.25259">
        <ele>766.6</ele>
        <time>2016-09-25T09:23:04Z</time>
      </trkpt>
      <trkpt lat="44.12219" lon="3.2525">
        <ele>765.8</ele>
        <time>2016-09-25T09:23:05Z</time>
      </trkpt>
      <trkpt lat="44.12225" lon="3.25242">
        <ele>764.8</ele>
        <time>2016-09-25T09:23:06Z</time>
      </trkpt>
      <trkpt lat="44.12231" lon="3.25232">
        <ele>763.8</ele>
        <time>2016-09-25T09:23:07Z</time>
      </trkpt>
      <trkpt lat="44.12238" lon="3.25222">
        <ele>762.9</ele>
        <time>2016-09-25T09:23:08Z</time>
      </trkpt>
      <trkpt lat="44.12244" lon="3.25212">
        <ele>761.8</ele>
        <time>2016-09-25T09:23:09Z</time>
      </trkpt>
      <trkpt lat="44.1225" lon="3.25201">
        <ele>761.1</ele>
        <time>2016-09-25T09:23:10Z</time>
      </trkpt>
      <trkpt lat="44.12257" lon="3.25188">
        <ele>760.1</ele>
        <time>2016-09-25T09:23:11Z</time>
      </trkpt>
      <trkpt lat="44.12264" lon="3.25176">
        <ele>759.2</ele>
        <time>2016-09-25T09:23:12Z</time>
      </trkpt>
      <trkpt lat="44.1227" lon="3.25165">
        <ele>758</ele>
        <time>2016-09-25T09:23:13Z</time>
      </trkpt>
      <trkpt lat="44.12277" lon="3.25155">
        <ele>756.7</ele>
        <time>2016-09-25T09:23:14Z</time>
      </trkpt>
      <trkpt lat="44.12284" lon="3.25145">
        <ele>755.4</ele>
        <time>2016-09-25T09:23:15Z</time>
      </trkpt>
      <trkpt lat="44.12291" lon="3.25136">
        <ele>754.4</ele>
        <time>2016-09-25T09:23:16Z</time>
      </trkpt>
      <trkpt lat="44.12297" lon="3.25128">
        <ele>753.7</ele>
        <time>2016-09-25T09:23:17Z</time>
      </trkpt>
      <trkpt lat="44.12303" lon="3.2512">
        <ele>753.3</ele>
        <time>2016-09-25T09:23:18Z</time>
      </trkpt>
      <trkpt lat="44.12309" lon="3.25112">
        <ele>753.2</ele>
        <time>2016-09-25T09:23:19Z</time>
      </trkpt>
      <trkpt lat="44.12314" lon="3.25104">
        <ele>753</ele>
        <time>2016-09-25T09:23:20Z</time>
      </trkpt>
      <trkpt lat="44.12319" lon="3.25097">
        <ele>752.7</ele>
        <time>2016-09-25T09:23:21Z</time>
      </trkpt>
      <trkpt lat="44.12326" lon="3.25089">
        <ele>752.5</ele>
        <time>2016-09-25T09:23:22Z</time>
      </trkpt>
      <trkpt lat="44.12332" lon="3.2508">
        <ele>752.1</ele>
        <time>2016-09-25T09:23:23Z</time>
      </trkpt>
      <trkpt lat="44.12338" lon="3.25071">
        <ele>751.3</ele>
        <time>2016-09-25T09:23:24Z</time>
      </trkpt>
      <trkpt lat="44.12345" lon="3.2506">
        <ele>750.3</ele>
        <time>2016-09-25T09:23:25Z</time>
      </trkpt>
      <trkpt lat="44.12351" lon="3.25048">
        <ele>749.6</ele>
        <time>2016-09-25T09:23:26Z</time>
      </trkpt>
      <trkpt lat="44.12357" lon="3.25037">
        <ele>748.9</ele>
        <time>2016-09-25T09:23:27Z</time>
      </trkpt>
      <trkpt lat="44.12363" lon="3.25025">
        <ele>748.1</ele>
        <time>2016-09-25T09:23:28Z</time>
      </trkpt>
      <trkpt lat="44.12369" lon="3.25015">
        <ele>746.9</ele>
        <time>2016-09-25T09:23:29Z</time>
      </trkpt>
      <trkpt lat="44.12374" lon="3.25004">
        <ele>745.6</ele>
        <time>2016-09-25T09:23:30Z</time>
      </trkpt>
      <trkpt lat="44.12378" lon="3.24995">
        <ele>744.3</ele>
        <time>2016-09-25T09:23:31Z</time>
      </trkpt>
      <trkpt lat="44.12384" lon="3.24985">
        <ele>743.4</ele>
        <time>2016-09-25T09:23:32Z</time>
      </trkpt>
      <trkpt lat="44.12389" lon="3.24976">
        <ele>742.5</ele>
        <time>2016-09-25T09:23:33Z</time>
      </trkpt>
      <trkpt lat="44.12394" lon="3.24967">
        <ele>741.6</ele>
        <time>2016-09-25T09:23:34Z</time>
      </trkpt>
      <trkpt lat="44.12403" lon="3.24954">
        <ele>740.2</ele>
        <time>2016-09-25T09:23:36Z</time>
      </trkpt>
      <trkpt lat="44.12409" lon="3.24943">
        <ele>739.4</ele>
        <time>2016-09-25T09:23:38Z</time>
      </trkpt>
      <trkpt lat="44.12414" lon="3.24934">
        <ele>739.6</ele>
        <time>2016-09-25T09:23:40Z</time>
      </trkpt>
      <trkpt lat="44.12419" lon="3.24927">
        <ele>739.7</ele>
        <time>2016-09-25T09:23:42Z</time>
      </trkpt>
      <trkpt lat="44.12426" lon="3.24918">
        <ele>739.9</ele>
        <time>2016-09-25T09:23:45Z</time>
      </trkpt>
      <trkpt lat="44.12431" lon="3.2491">
        <ele>740</ele>
        <time>2016-09-25T09:23:48Z</time>
      </trkpt>
      <trkpt lat="44.12438" lon="3.249">
        <ele>740.5</ele>
        <time>2016-09-25T09:23:52Z</time>
      </trkpt>
      <trkpt lat="44.12443" lon="3.24893">
        <ele>740.8</ele>
        <time>2016-09-25T09:23:55Z</time>
      </trkpt>
      <trkpt lat="44.1245" lon="3.24886">
        <ele>741</ele>
        <time>2016-09-25T09:23:58Z</time>
      </trkpt>
      <trkpt lat="44.12457" lon="3.24881">
        <ele>741.3</ele>
        <time>2016-09-25T09:24:01Z</time>
      </trkpt>
      <trkpt lat="44.12463" lon="3.24875">
        <ele>741.6</ele>
        <time>2016-09-25T09:24:04Z</time>
      </trkpt>
      <trkpt lat="44.12469" lon="3.24869">
        <ele>741.9</ele>
        <time>2016-09-25T09:24:07Z</time>
      </trkpt>
      <trkpt lat="44.12476" lon="3.24864">
        <ele>742.2</ele>
        <time>2016-09-25T09:24:10Z</time>
      </trkpt>
      <trkpt lat="44.12482" lon="3.24858">
        <ele>742.6</ele>
        <time>2016-09-25T09:24:13Z</time>
      </trkpt>
      <trkpt lat="44.12489" lon="3.24853">
        <ele>742.9</ele>
        <time>2016-09-25T09:24:16Z</time>
      </trkpt>
      <trkpt lat="44.12497" lon="3.24846">
        <ele>743.3</ele>
        <time>2016-09-25T09:24:20Z</time>
      </trkpt>
      <trkpt lat="44.12504" lon="3.2484">
        <ele>743.7</ele>
        <time>2016-09-25T09:24:24Z</time>
      </trkpt>
      <trkpt lat="44.12511" lon="3.24832">
        <ele>744.2</ele>
        <time>2016-09-25T09:24:28Z</time>
      </trkpt>
      <trkpt lat="44.12517" lon="3.24826">
        <ele>744.4</ele>
        <time>2016-09-25T09:24:31Z</time>
      </trkpt>
      <trkpt lat="44.12525" lon="3.2482">
        <ele>744.8</ele>
        <time>2016-09-25T09:24:35Z</time>
      </trkpt>
      <trkpt lat="44.12532" lon="3.24813">
        <ele>745.4</ele>
        <time>2016-09-25T09:24:39Z</time>
      </trkpt>
      <trkpt lat="44.12539" lon="3.24808">
        <ele>746</ele>
        <time>2016-09-25T09:24:42Z</time>
      </trkpt>
      <trkpt lat="44.12546" lon="3.24802">
        <ele>746.7</ele>
        <time>2016-09-25T09:24:46Z</time>
      </trkpt>
      <trkpt lat="44.12554" lon="3.24796">
        <ele>747.5</ele>
        <time>2016-09-25T09:24:50Z</time>
      </trkpt>
      <trkpt lat="44.1256" lon="3.24791">
        <ele>748.2</ele>
        <time>2016-09-25T09:24:53Z</time>
      </trkpt>
      <trkpt lat="44.12568" lon="3.24787">
        <ele>748.8</ele>
        <time>2016-09-25T09:24:57Z</time>
      </trkpt>
      <trkpt lat="44.12577" lon="3.24783">
        <ele>749.4</ele>
        <time>2016-09-25T09:25:01Z</time>
      </trkpt>
      <trkpt lat="44.12586" lon="3.24785">
        <ele>749.8</ele>
        <time>2016-09-25T09:25:05Z</time>
      </trkpt>
      <trkpt lat="44.12593" lon="3.24788">
        <ele>750.3</ele>
        <time>2016-09-25T09:25:09Z</time>
      </trkpt>
      <trkpt lat="44.12598" lon="3.24794">
        <ele>750.7</ele>
        <time>2016-09-25T09:25:13Z</time>
      </trkpt>
      <trkpt lat="44.12605" lon="3.24802">
        <ele>750.9</ele>
        <time>2016-09-25T09:25:17Z</time>
      </trkpt>
      <trkpt lat="44.1261" lon="3.2481">
        <ele>751.1</ele>
        <time>2016-09-25T09:25:21Z</time>
      </trkpt>
      <trkpt lat="44.12616" lon="3.24818">
        <ele>751.4</ele>
        <time>2016-09-25T09:25:25Z</time>
      </trkpt>
      <trkpt lat="44.12624" lon="3.24826">
        <ele>751.7</ele>
        <time>2016-09-25T09:25:29Z</time>
      </trkpt>
      <trkpt lat="44.12631" lon="3.2483">
        <ele>752.4</ele>
        <time>2016-09-25T09:25:33Z</time>
      </trkpt>
      <trkpt lat="44.12638" lon="3.24834">
        <ele>753.1</ele>
        <time>2016-09-25T09:25:37Z</time>
      </trkpt>
      <trkpt lat="44.12646" lon="3.24838">
        <ele>754</ele>
        <time>2016-09-25T09:25:42Z</time>
      </trkpt>
      <trkpt lat="44.12654" lon="3.24842">
        <ele>754.9</ele>
        <time>2016-09-25T09:25:47Z</time>
      </trkpt>
      <trkpt lat="44.12661" lon="3.24846">
        <ele>755.4</ele>
        <time>2016-09-25T09:25:51Z</time>
      </trkpt>
      <trkpt lat="44.12669" lon="3.24853">
        <ele>756</ele>
        <time>2016-09-25T09:25:56Z</time>
      </trkpt>
      <trkpt lat="44.12676" lon="3.2486">
        <ele>756.7</ele>
        <time>2016-09-25T09:26:01Z</time>
      </trkpt>
      <trkpt lat="44.12683" lon="3.24866">
        <ele>757.3</ele>
        <time>2016-09-25T09:26:05Z</time>
      </trkpt>
      <trkpt lat="44.1269" lon="3.24871">
        <ele>757.9</ele>
        <time>2016-09-25T09:26:09Z</time>
      </trkpt>
      <trkpt lat="44.12697" lon="3.24877">
        <ele>758.5</ele>
        <time>2016-09-25T09:26:13Z</time>
      </trkpt>
      <trkpt lat="44.12705" lon="3.24881">
        <ele>759</ele>
        <time>2016-09-25T09:26:17Z</time>
      </trkpt>
      <trkpt lat="44.12713" lon="3.24884">
        <ele>759.6</ele>
        <time>2016-09-25T09:26:21Z</time>
      </trkpt>
      <trkpt lat="44.12722" lon="3.24884">
        <ele>760.3</ele>
        <time>2016-09-25T09:26:25Z</time>
      </trkpt>
      <trkpt lat="44.12731" lon="3.24885">
        <ele>761.2</ele>
        <time>2016-09-25T09:26:30Z</time>
      </trkpt>
      <trkpt lat="44.1274" lon="3.24886">
        <ele>761.9</ele>
        <time>2016-09-25T09:26:34Z</time>
      </trkpt>
      <trkpt lat="44.12748" lon="3.24889">
        <ele>762.5</ele>
        <time>2016-09-25T09:26:38Z</time>
      </trkpt>
      <trkpt lat="44.12755" lon="3.24892">
        <ele>762.8</ele>
        <time>2016-09-25T09:26:42Z</time>
      </trkpt>
      <trkpt lat="44.12764" lon="3.24896">
        <ele>763.3</ele>
        <time>2016-09-25T09:26:46Z</time>
      </trkpt>
      <trkpt lat="44.12772" lon="3.24897">
        <ele>763.6</ele>
        <time>2016-09-25T09:26:49Z</time>
      </trkpt>
      <trkpt lat="44.12781" lon="3.24897">
        <ele>764</ele>
        <time>2016-09-25T09:26:53Z</time>
      </trkpt>
      <trkpt lat="44.12789" lon="3.24897">
        <ele>764.5</ele>
        <time>2016-09-25T09:26:57Z</time>
      </trkpt>
      <trkpt lat="44.12797" lon="3.24897">
        <ele>765</ele>
        <time>2016-09-25T09:27:01Z</time>
      </trkpt>
      <trkpt lat="44.12806" lon="3.24898">
        <ele>765.5</ele>
        <time>2016-09-25T09:27:05Z</time>
      </trkpt>
      <trkpt lat="44.12815" lon="3.24899">
        <ele>766.1</ele>
        <time>2016-09-25T09:27:09Z</time>
      </trkpt>
      <trkpt lat="44.12824" lon="3.24898">
        <ele>766.7</ele>
        <time>2016-09-25T09:27:13Z</time>
      </trkpt>
      <trkpt lat="44.12832" lon="3.24897">
        <ele>767.1</ele>
        <time>2016-09-25T09:27:16Z</time>
      </trkpt>
      <trkpt lat="44.1284" lon="3.24895">
        <ele>767.4</ele>
        <time>2016-09-25T09:27:19Z</time>
      </trkpt>
      <trkpt lat="44.12847" lon="3.24893">
        <ele>767.6</ele>
        <time>2016-09-25T09:27:22Z</time>
      </trkpt>
      <trkpt lat="44.12856" lon="3.24892">
        <ele>768.1</ele>
        <time>2016-09-25T09:27:26Z</time>
      </trkpt>
      <trkpt lat="44.12864" lon="3.24891">
        <ele>768.4</ele>
        <time>2016-09-25T09:27:29Z</time>
      </trkpt>
      <trkpt lat="44.12874" lon="3.24891">
        <ele>769</ele>
        <time>2016-09-25T09:27:33Z</time>
      </trkpt>
      <trkpt lat="44.12881" lon="3.24891">
        <ele>769.4</ele>
        <time>2016-09-25T09:27:36Z</time>
      </trkpt>
      <trkpt lat="44.12889" lon="3.24891">
        <ele>769.7</ele>
        <time>2016-09-25T09:27:39Z</time>
      </trkpt>
      <trkpt lat="44.12896" lon="3.24891">
        <ele>770</ele>
        <time>2016-09-25T09:27:42Z</time>
      </trkpt>
      <trkpt lat="44.12904" lon="3.24891">
        <ele>770.3</ele>
        <time>2016-09-25T09:27:45Z</time>
      </trkpt>
      <trkpt lat="44.12912" lon="3.24892">
        <ele>770.6</ele>
        <time>2016-09-25T09:27:48Z</time>
      </trkpt>
      <trkpt lat="44.12921" lon="3.24891">
        <ele>771</ele>
        <time>2016-09-25T09:27:52Z</time>
      </trkpt>
      <trkpt lat="44.1293" lon="3.24891">
        <ele>771.4</ele>
        <time>2016-09-25T09:27:56Z</time>
      </trkpt>
      <trkpt lat="44.12938" lon="3.24893">
        <ele>772.1</ele>
        <time>2016-09-25T09:28:00Z</time>
      </trkpt>
      <trkpt lat="44.12947" lon="3.24894">
        <ele>772.8</ele>
        <time>2016-09-25T09:28:04Z</time>
      </trkpt>
      <trkpt lat="44.12955" lon="3.24894">
        <ele>773.2</ele>
        <time>2016-09-25T09:28:07Z</time>
      </trkpt>
      <trkpt lat="44.12964" lon="3.24894">
        <ele>773.9</ele>
        <time>2016-09-25T09:28:11Z</time>
      </trkpt>
      <trkpt lat="44.12974" lon="3.24891">
        <ele>774.7</ele>
        <time>2016-09-25T09:28:15Z</time>
      </trkpt>
      <trkpt lat="44.12982" lon="3.24888">
        <ele>775.4</ele>
        <time>2016-09-25T09:28:19Z</time>
      </trkpt>
      <trkpt lat="44.1299" lon="3.24885">
        <ele>776.2</ele>
        <time>2016-09-25T09:28:23Z</time>
      </trkpt>
      <trkpt lat="44.12998" lon="3.24882">
        <ele>776.8</ele>
        <time>2016-09-25T09:28:27Z</time>
      </trkpt>
      <trkpt lat="44.13006" lon="3.24881">
        <ele>777.4</ele>
        <time>2016-09-25T09:28:31Z</time>
      </trkpt>
      <trkpt lat="44.13014" lon="3.24881">
        <ele>777.8</ele>
        <time>2016-09-25T09:28:35Z</time>
      </trkpt>
      <trkpt lat="44.13024" lon="3.24882">
        <ele>778.2</ele>
        <time>2016-09-25T09:28:39Z</time>
      </trkpt>
      <trkpt lat="44.13032" lon="3.24883">
        <ele>778.5</ele>
        <time>2016-09-25T09:28:43Z</time>
      </trkpt>
      <trkpt lat="44.1304" lon="3.24884">
        <ele>778.8</ele>
        <time>2016-09-25T09:28:47Z</time>
      </trkpt>
      <trkpt lat="44.13047" lon="3.24886">
        <ele>779.2</ele>
        <time>2016-09-25T09:28:51Z</time>
      </trkpt>
      <trkpt lat="44.13055" lon="3.24889">
        <ele>779.7</ele>
        <time>2016-09-25T09:28:55Z</time>
      </trkpt>
      <trkpt lat="44.13063" lon="3.24893">
        <ele>780.2</ele>
        <time>2016-09-25T09:28:59Z</time>
      </trkpt>
      <trkpt lat="44.13071" lon="3.24896">
        <ele>780.7</ele>
        <time>2016-09-25T09:29:03Z</time>
      </trkpt>
      <trkpt lat="44.13078" lon="3.249">
        <ele>781.5</ele>
        <time>2016-09-25T09:29:08Z</time>
      </trkpt>
      <trkpt lat="44.13086" lon="3.24906">
        <ele>782.1</ele>
        <time>2016-09-25T09:29:13Z</time>
      </trkpt>
      <trkpt lat="44.13093" lon="3.24912">
        <ele>782.6</ele>
        <time>2016-09-25T09:29:17Z</time>
      </trkpt>
      <trkpt lat="44.13099" lon="3.24916">
        <ele>783.2</ele>
        <time>2016-09-25T09:29:21Z</time>
      </trkpt>
      <trkpt lat="44.13106" lon="3.24922">
        <ele>784</ele>
        <time>2016-09-25T09:29:26Z</time>
      </trkpt>
      <trkpt lat="44.13113" lon="3.24928">
        <ele>784.7</ele>
        <time>2016-09-25T09:29:30Z</time>
      </trkpt>
      <trkpt lat="44.13119" lon="3.24934">
        <ele>785.4</ele>
        <time>2016-09-25T09:29:34Z</time>
      </trkpt>
      <trkpt lat="44.13126" lon="3.24942">
        <ele>786.2</ele>
        <time>2016-09-25T09:29:39Z</time>
      </trkpt>
      <trkpt lat="44.13132" lon="3.24948">
        <ele>786.8</ele>
        <time>2016-09-25T09:29:43Z</time>
      </trkpt>
      <trkpt lat="44.13138" lon="3.24956">
        <ele>787.6</ele>
        <time>2016-09-25T09:29:48Z</time>
      </trkpt>
      <trkpt lat="44.13145" lon="3.24963">
        <ele>788.4</ele>
        <time>2016-09-25T09:29:53Z</time>
      </trkpt>
      <trkpt lat="44.13152" lon="3.2497">
        <ele>789.2</ele>
        <time>2016-09-25T09:29:57Z</time>
      </trkpt>
      <trkpt lat="44.13158" lon="3.24978">
        <ele>790.2</ele>
        <time>2016-09-25T09:30:02Z</time>
      </trkpt>
      <trkpt lat="44.13163" lon="3.24986">
        <ele>791</ele>
        <time>2016-09-25T09:30:06Z</time>
      </trkpt>
      <trkpt lat="44.13169" lon="3.24993">
        <ele>791.7</ele>
        <time>2016-09-25T09:30:10Z</time>
      </trkpt>
      <trkpt lat="44.13174" lon="3.25">
        <ele>792.3</ele>
        <time>2016-09-25T09:30:14Z</time>
      </trkpt>
      <trkpt lat="44.13181" lon="3.25008">
        <ele>793.3</ele>
        <time>2016-09-25T09:30:19Z</time>
      </trkpt>
      <trkpt lat="44.13188" lon="3.25016">
        <ele>794.1</ele>
        <time>2016-09-25T09:30:24Z</time>
      </trkpt>
      <trkpt lat="44.13194" lon="3.25022">
        <ele>794.6</ele>
        <time>2016-09-25T09:30:28Z</time>
      </trkpt>
      <trkpt lat="44.132" lon="3.25031">
        <ele>795.3</ele>
        <time>2016-09-25T09:30:33Z</time>
      </trkpt>
      <trkpt lat="44.13205" lon="3.25038">
        <ele>796</ele>
        <time>2016-09-25T09:30:38Z</time>
      </trkpt>
      <trkpt lat="44.13211" lon="3.25047">
        <ele>796.6</ele>
        <time>2016-09-25T09:30:43Z</time>
      </trkpt>
      <trkpt lat="44.13216" lon="3.25055">
        <ele>797.1</ele>
        <time>2016-09-25T09:30:47Z</time>
      </trkpt>
      <trkpt lat="44.13221" lon="3.25066">
        <ele>798.2</ele>
        <time>2016-09-25T09:30:52Z</time>
      </trkpt>
      <trkpt lat="44.13226" lon="3.25073">
        <ele>799.3</ele>
        <time>2016-09-25T09:30:57Z</time>
      </trkpt>
      <trkpt lat="44.13233" lon="3.2508">
        <ele>800.3</ele>
        <time>2016-09-25T09:31:02Z</time>
      </trkpt>
      <trkpt lat="44.13239" lon="3.25085">
        <ele>801.3</ele>
        <time>2016-09-25T09:31:06Z</time>
      </trkpt>
      <trkpt lat="44.13247" lon="3.25086">
        <ele>802.3</ele>
        <time>2016-09-25T09:31:10Z</time>
      </trkpt>
      <trkpt lat="44.13255" lon="3.25086">
        <ele>803.2</ele>
        <time>2016-09-25T09:31:14Z</time>
      </trkpt>
      <trkpt lat="44.13263" lon="3.25084">
        <ele>804</ele>
        <time>2016-09-25T09:31:18Z</time>
      </trkpt>
      <trkpt lat="44.13272" lon="3.25081">
        <ele>804.7</ele>
        <time>2016-09-25T09:31:22Z</time>
      </trkpt>
      <trkpt lat="44.1328" lon="3.2508">
        <ele>805.3</ele>
        <time>2016-09-25T09:31:26Z</time>
      </trkpt>
      <trkpt lat="44.13287" lon="3.2508">
        <ele>805.9</ele>
        <time>2016-09-25T09:31:30Z</time>
      </trkpt>
      <trkpt lat="44.13295" lon="3.25081">
        <ele>806.8</ele>
        <time>2016-09-25T09:31:35Z</time>
      </trkpt>
      <trkpt lat="44.13303" lon="3.25082">
        <ele>807.5</ele>
        <time>2016-09-25T09:31:39Z</time>
      </trkpt>
      <trkpt lat="44.13311" lon="3.25086">
        <ele>808.1</ele>
        <time>2016-09-25T09:31:43Z</time>
      </trkpt>
      <trkpt lat="44.13318" lon="3.25091">
        <ele>808.6</ele>
        <time>2016-09-25T09:31:47Z</time>
      </trkpt>
      <trkpt lat="44.13325" lon="3.25097">
        <ele>809.1</ele>
        <time>2016-09-25T09:31:51Z</time>
      </trkpt>
      <trkpt lat="44.13332" lon="3.25104">
        <ele>809.5</ele>
        <time>2016-09-25T09:31:55Z</time>
      </trkpt>
      <trkpt lat="44.13338" lon="3.25111">
        <ele>810.2</ele>
        <time>2016-09-25T09:31:59Z</time>
      </trkpt>
      <trkpt lat="44.13345" lon="3.25118">
        <ele>810.7</ele>
        <time>2016-09-25T09:32:03Z</time>
      </trkpt>
      <trkpt lat="44.13351" lon="3.25123">
        <ele>810.9</ele>
        <time>2016-09-25T09:32:06Z</time>
      </trkpt>
      <trkpt lat="44.13358" lon="3.25131">
        <ele>811.1</ele>
        <time>2016-09-25T09:32:10Z</time>
      </trkpt>
      <trkpt lat="44.13364" lon="3.25139">
        <ele>812</ele>
        <time>2016-09-25T09:32:15Z</time>
      </trkpt>
      <trkpt lat="44.13371" lon="3.25146">
        <ele>812.8</ele>
        <time>2016-09-25T09:32:19Z</time>
      </trkpt>
      <trkpt lat="44.13377" lon="3.25153">
        <ele>813.7</ele>
        <time>2016-09-25T09:32:23Z</time>
      </trkpt>
      <trkpt lat="44.13385" lon="3.25159">
        <ele>814.2</ele>
        <time>2016-09-25T09:32:27Z</time>
      </trkpt>
      <trkpt lat="44.13393" lon="3.25166">
        <ele>814.7</ele>
        <time>2016-09-25T09:32:31Z</time>
      </trkpt>
      <trkpt lat="44.13401" lon="3.25172">
        <ele>815.2</ele>
        <time>2016-09-25T09:32:35Z</time>
      </trkpt>
      <trkpt lat="44.13408" lon="3.25178">
        <ele>815.7</ele>
        <time>2016-09-25T09:32:39Z</time>
      </trkpt>
      <trkpt lat="44.13416" lon="3.25185">
        <ele>816.3</ele>
        <time>2016-09-25T09:32:43Z</time>
      </trkpt>
      <trkpt lat="44.13422" lon="3.25191">
        <ele>816.6</ele>
        <time>2016-09-25T09:32:46Z</time>
      </trkpt>
      <trkpt lat="44.1343" lon="3.25197">
        <ele>817.3</ele>
        <time>2016-09-25T09:32:50Z</time>
      </trkpt>
      <trkpt lat="44.13437" lon="3.25203">
        <ele>817.9</ele>
        <time>2016-09-25T09:32:54Z</time>
      </trkpt>
      <trkpt lat="44.13445" lon="3.25209">
        <ele>818.5</ele>
        <time>2016-09-25T09:32:58Z</time>
      </trkpt>
      <trkpt lat="44.13453" lon="3.25216">
        <ele>819.3</ele>
        <time>2016-09-25T09:33:02Z</time>
      </trkpt>
      <trkpt lat="44.1346" lon="3.25224">
        <ele>820.1</ele>
        <time>2016-09-25T09:33:06Z</time>
      </trkpt>
      <trkpt lat="44.13468" lon="3.25232">
        <ele>820.7</ele>
        <time>2016-09-25T09:33:10Z</time>
      </trkpt>
      <trkpt lat="44.13474" lon="3.25237">
        <ele>821.2</ele>
        <time>2016-09-25T09:33:13Z</time>
      </trkpt>
      <trkpt lat="44.13481" lon="3.25245">
        <ele>821.5</ele>
        <time>2016-09-25T09:33:17Z</time>
      </trkpt>
      <trkpt lat="44.13487" lon="3.25253">
        <ele>821.8</ele>
        <time>2016-09-25T09:33:20Z</time>
      </trkpt>
      <trkpt lat="44.13493" lon="3.2526">
        <ele>822.1</ele>
        <time>2016-09-25T09:33:23Z</time>
      </trkpt>
      <trkpt lat="44.13499" lon="3.25267">
        <ele>822.4</ele>
        <time>2016-09-25T09:33:26Z</time>
      </trkpt>
      <trkpt lat="44.13506" lon="3.25276">
        <ele>822.8</ele>
        <time>2016-09-25T09:33:30Z</time>
      </trkpt>
      <trkpt lat="44.13511" lon="3.25283">
        <ele>823.2</ele>
        <time>2016-09-25T09:33:33Z</time>
      </trkpt>
      <trkpt lat="44.13518" lon="3.25291">
        <ele>823.6</ele>
        <time>2016-09-25T09:33:36Z</time>
      </trkpt>
      <trkpt lat="44.13524" lon="3.25299">
        <ele>824</ele>
        <time>2016-09-25T09:33:39Z</time>
      </trkpt>
      <trkpt lat="44.13529" lon="3.25307">
        <ele>824.4</ele>
        <time>2016-09-25T09:33:42Z</time>
      </trkpt>
      <trkpt lat="44.13535" lon="3.25314">
        <ele>824.9</ele>
        <time>2016-09-25T09:33:45Z</time>
      </trkpt>
      <trkpt lat="44.13541" lon="3.25322">
        <ele>825.4</ele>
        <time>2016-09-25T09:33:48Z</time>
      </trkpt>
      <trkpt lat="44.13547" lon="3.25329">
        <ele>825.8</ele>
        <time>2016-09-25T09:33:51Z</time>
      </trkpt>
      <trkpt lat="44.13553" lon="3.25337">
        <ele>826.3</ele>
        <time>2016-09-25T09:33:54Z</time>
      </trkpt>
      <trkpt lat="44.1356" lon="3.25346">
        <ele>826.8</ele>
        <time>2016-09-25T09:33:57Z</time>
      </trkpt>
      <trkpt lat="44.13566" lon="3.25355">
        <ele>827.3</ele>
        <time>2016-09-25T09:34:00Z</time>
      </trkpt>
      <trkpt lat="44.13574" lon="3.25364">
        <ele>827.7</ele>
        <time>2016-09-25T09:34:03Z</time>
      </trkpt>
      <trkpt lat="44.13579" lon="3.25373">
        <ele>828.2</ele>
        <time>2016-09-25T09:34:06Z</time>
      </trkpt>
      <trkpt lat="44.13585" lon="3.25383">
        <ele>828.7</ele>
        <time>2016-09-25T09:34:09Z</time>
      </trkpt>
      <trkpt lat="44.13591" lon="3.25394">
        <ele>829.2</ele>
        <time>2016-09-25T09:34:12Z</time>
      </trkpt>
      <trkpt lat="44.13597" lon="3.25403">
        <ele>829.7</ele>
        <time>2016-09-25T09:34:15Z</time>
      </trkpt>
      <trkpt lat="44.13601" lon="3.25412">
        <ele>830</ele>
        <time>2016-09-25T09:34:18Z</time>
      </trkpt>
      <trkpt lat="44.13604" lon="3.25422">
        <ele>830.4</ele>
        <time>2016-09-25T09:34:22Z</time>
      </trkpt>
      <trkpt lat="44.13607" lon="3.25432">
        <ele>830.9</ele>
        <time>2016-09-25T09:34:26Z</time>
      </trkpt>
      <trkpt lat="44.13609" lon="3.25444">
        <ele>831.5</ele>
        <time>2016-09-25T09:34:30Z</time>
      </trkpt>
      <trkpt lat="44.13612" lon="3.25456">
        <ele>832.1</ele>
        <time>2016-09-25T09:34:35Z</time>
      </trkpt>
      <trkpt lat="44.13615" lon="3.25468">
        <ele>832.8</ele>
        <time>2016-09-25T09:34:39Z</time>
      </trkpt>
      <trkpt lat="44.13618" lon="3.2548">
        <ele>833.3</ele>
        <time>2016-09-25T09:34:43Z</time>
      </trkpt>
      <trkpt lat="44.13621" lon="3.25491">
        <ele>833.8</ele>
        <time>2016-09-25T09:34:47Z</time>
      </trkpt>
      <trkpt lat="44.13624" lon="3.25502">
        <ele>834.4</ele>
        <time>2016-09-25T09:34:51Z</time>
      </trkpt>
      <trkpt lat="44.13628" lon="3.25513">
        <ele>835</ele>
        <time>2016-09-25T09:34:55Z</time>
      </trkpt>
      <trkpt lat="44.13631" lon="3.25523">
        <ele>835.3</ele>
        <time>2016-09-25T09:34:58Z</time>
      </trkpt>
      <trkpt lat="44.13635" lon="3.25532">
        <ele>835.5</ele>
        <time>2016-09-25T09:35:01Z</time>
      </trkpt>
      <trkpt lat="44.13639" lon="3.25541">
        <ele>835.6</ele>
        <time>2016-09-25T09:35:04Z</time>
      </trkpt>
      <trkpt lat="44.13644" lon="3.25552">
        <ele>835.7</ele>
        <time>2016-09-25T09:35:08Z</time>
      </trkpt>
      <trkpt lat="44.13648" lon="3.25561">
        <ele>835.9</ele>
        <time>2016-09-25T09:35:12Z</time>
      </trkpt>
      <trkpt lat="44.1365" lon="3.25569">
        <ele>836.2</ele>
        <time>2016-09-25T09:35:19Z</time>
      </trkpt>
      <trkpt lat="44.13648" lon="3.25558">
        <ele>836.6</ele>
        <time>2016-09-25T09:35:26Z</time>
      </trkpt>
      <trkpt lat="44.13644" lon="3.25547">
        <ele>836.7</ele>
        <time>2016-09-25T09:35:30Z</time>
      </trkpt>
      <trkpt lat="44.13642" lon="3.25537">
        <ele>836.6</ele>
        <time>2016-09-25T09:35:33Z</time>
      </trkpt>
      <trkpt lat="44.13638" lon="3.25525">
        <ele>836.4</ele>
        <time>2016-09-25T09:35:36Z</time>
      </trkpt>
      <trkpt lat="44.13634" lon="3.25512">
        <ele>836.3</ele>
        <time>2016-09-25T09:35:39Z</time>
      </trkpt>
      <trkpt lat="44.13632" lon="3.25502">
        <ele>835.2</ele>
        <time>2016-09-25T09:35:41Z</time>
      </trkpt>
      <trkpt lat="44.13629" lon="3.25492">
        <ele>833.4</ele>
        <time>2016-09-25T09:35:43Z</time>
      </trkpt>
      <trkpt lat="44.13626" lon="3.25482">
        <ele>832.1</ele>
        <time>2016-09-25T09:35:45Z</time>
      </trkpt>
      <trkpt lat="44.13623" lon="3.2547">
        <ele>831.2</ele>
        <time>2016-09-25T09:35:47Z</time>
      </trkpt>
      <trkpt lat="44.1362" lon="3.25458">
        <ele>830.9</ele>
        <time>2016-09-25T09:35:49Z</time>
      </trkpt>
      <trkpt lat="44.13616" lon="3.25445">
        <ele>830.9</ele>
        <time>2016-09-25T09:35:51Z</time>
      </trkpt>
      <trkpt lat="44.13613" lon="3.25433">
        <ele>831.4</ele>
        <time>2016-09-25T09:35:53Z</time>
      </trkpt>
      <trkpt lat="44.1361" lon="3.25421">
        <ele>832.1</ele>
        <time>2016-09-25T09:35:55Z</time>
      </trkpt>
      <trkpt lat="44.13606" lon="3.25411">
        <ele>832.6</ele>
        <time>2016-09-25T09:35:57Z</time>
      </trkpt>
      <trkpt lat="44.13601" lon="3.25397">
        <ele>832.8</ele>
        <time>2016-09-25T09:35:59Z</time>
      </trkpt>
      <trkpt lat="44.13595" lon="3.25385">
        <ele>832.2</ele>
        <time>2016-09-25T09:36:01Z</time>
      </trkpt>
      <trkpt lat="44.13589" lon="3.25375">
        <ele>831.8</ele>
        <time>2016-09-25T09:36:03Z</time>
      </trkpt>
      <trkpt lat="44.13583" lon="3.25365">
        <ele>831.9</ele>
        <time>2016-09-25T09:36:06Z</time>
      </trkpt>
      <trkpt lat="44.13588" lon="3.25356">
        <ele>831.5</ele>
        <time>2016-09-25T09:36:12Z</time>
      </trkpt>
      <trkpt lat="44.13598" lon="3.25356">
        <ele>830</ele>
        <time>2016-09-25T09:36:14Z</time>
      </trkpt>
      <trkpt lat="44.13607" lon="3.25354">
        <ele>829.8</ele>
        <time>2016-09-25T09:36:16Z</time>
      </trkpt>
      <trkpt lat="44.13615" lon="3.25354">
        <ele>829.5</ele>
        <time>2016-09-25T09:36:18Z</time>
      </trkpt>
      <trkpt lat="44.13624" lon="3.25354">
        <ele>829.4</ele>
        <time>2016-09-25T09:36:21Z</time>
      </trkpt>
      <trkpt lat="44.13632" lon="3.25353">
        <ele>829.2</ele>
        <time>2016-09-25T09:36:24Z</time>
      </trkpt>
      <trkpt lat="44.13641" lon="3.25351">
        <ele>829.1</ele>
        <time>2016-09-25T09:36:29Z</time>
      </trkpt>
      <trkpt lat="44.13649" lon="3.2535">
        <ele>829.1</ele>
        <time>2016-09-25T09:36:34Z</time>
      </trkpt>
      <trkpt lat="44.13656" lon="3.25345">
        <ele>829.7</ele>
        <time>2016-09-25T09:36:40Z</time>
      </trkpt>
      <trkpt lat="44.13665" lon="3.25343">
        <ele>830.7</ele>
        <time>2016-09-25T09:36:46Z</time>
      </trkpt>
      <trkpt lat="44.13674" lon="3.25341">
        <ele>831.5</ele>
        <time>2016-09-25T09:36:50Z</time>
      </trkpt>
      <trkpt lat="44.13682" lon="3.25339">
        <ele>832.2</ele>
        <time>2016-09-25T09:36:55Z</time>
      </trkpt>
      <trkpt lat="44.13689" lon="3.2534">
        <ele>832.6</ele>
        <time>2016-09-25T09:36:59Z</time>
      </trkpt>
      <trkpt lat="44.13698" lon="3.2534">
        <ele>832.9</ele>
        <time>2016-09-25T09:37:03Z</time>
      </trkpt>
      <trkpt lat="44.13706" lon="3.2534">
        <ele>833.3</ele>
        <time>2016-09-25T09:37:08Z</time>
      </trkpt>
      <trkpt lat="44.13714" lon="3.25343">
        <ele>833.9</ele>
        <time>2016-09-25T09:37:13Z</time>
      </trkpt>
      <trkpt lat="44.13723" lon="3.25344">
        <ele>834.4</ele>
        <time>2016-09-25T09:37:18Z</time>
      </trkpt>
      <trkpt lat="44.1373" lon="3.25345">
        <ele>834.7</ele>
        <time>2016-09-25T09:37:23Z</time>
      </trkpt>
      <trkpt lat="44.13739" lon="3.25342">
        <ele>834.8</ele>
        <time>2016-09-25T09:37:27Z</time>
      </trkpt>
      <trkpt lat="44.13746" lon="3.25341">
        <ele>835.1</ele>
        <time>2016-09-25T09:37:31Z</time>
      </trkpt>
      <trkpt lat="44.13756" lon="3.25341">
        <ele>835.5</ele>
        <time>2016-09-25T09:37:36Z</time>
      </trkpt>
      <trkpt lat="44.13763" lon="3.25338">
        <ele>835.9</ele>
        <time>2016-09-25T09:37:41Z</time>
      </trkpt>
      <trkpt lat="44.13771" lon="3.25337">
        <ele>836.4</ele>
        <time>2016-09-25T09:37:46Z</time>
      </trkpt>
      <trkpt lat="44.1378" lon="3.25335">
        <ele>837</ele>
        <time>2016-09-25T09:37:51Z</time>
      </trkpt>
      <trkpt lat="44.13788" lon="3.25334">
        <ele>837.7</ele>
        <time>2016-09-25T09:37:56Z</time>
      </trkpt>
      <trkpt lat="44.13795" lon="3.25334">
        <ele>838.3</ele>
        <time>2016-09-25T09:38:00Z</time>
      </trkpt>
      <trkpt lat="44.13803" lon="3.25331">
        <ele>838.9</ele>
        <time>2016-09-25T09:38:04Z</time>
      </trkpt>
      <trkpt lat="44.13811" lon="3.25329">
        <ele>839.3</ele>
        <time>2016-09-25T09:38:09Z</time>
      </trkpt>
      <trkpt lat="44.13818" lon="3.25327">
        <ele>839.9</ele>
        <time>2016-09-25T09:38:14Z</time>
      </trkpt>
      <trkpt lat="44.13826" lon="3.25326">
        <ele>840.2</ele>
        <time>2016-09-25T09:38:18Z</time>
      </trkpt>
      <trkpt lat="44.13835" lon="3.25323">
        <ele>840.7</ele>
        <time>2016-09-25T09:38:23Z</time>
      </trkpt>
      <trkpt lat="44.13844" lon="3.25321">
        <ele>841.3</ele>
        <time>2016-09-25T09:38:28Z</time>
      </trkpt>
      <trkpt lat="44.13851" lon="3.25318">
        <ele>841.8</ele>
        <time>2016-09-25T09:38:33Z</time>
      </trkpt>
      <trkpt lat="44.13855" lon="3.2531">
        <ele>842.3</ele>
        <time>2016-09-25T09:38:38Z</time>
      </trkpt>
      <trkpt lat="44.13857" lon="3.25299">
        <ele>842.6</ele>
        <time>2016-09-25T09:38:43Z</time>
      </trkpt>
      <trkpt lat="44.1386" lon="3.25289">
        <ele>843</ele>
        <time>2016-09-25T09:38:48Z</time>
      </trkpt>
      <trkpt lat="44.13863" lon="3.25278">
        <ele>843.4</ele>
        <time>2016-09-25T09:38:53Z</time>
      </trkpt>
      <trkpt lat="44.13865" lon="3.25267">
        <ele>843.5</ele>
        <time>2016-09-25T09:38:57Z</time>
      </trkpt>
      <trkpt lat="44.13867" lon="3.25256">
        <ele>843.7</ele>
        <time>2016-09-25T09:39:01Z</time>
      </trkpt>
      <trkpt lat="44.13869" lon="3.25243">
        <ele>843.9</ele>
        <time>2016-09-25T09:39:05Z</time>
      </trkpt>
      <trkpt lat="44.1387" lon="3.25234">
        <ele>844</ele>
        <time>2016-09-25T09:39:08Z</time>
      </trkpt>
      <trkpt lat="44.13872" lon="3.25221">
        <ele>844</ele>
        <time>2016-09-25T09:39:11Z</time>
      </trkpt>
      <trkpt lat="44.13875" lon="3.25208">
        <ele>843.9</ele>
        <time>2016-09-25T09:39:14Z</time>
      </trkpt>
      <trkpt lat="44.13877" lon="3.25196">
        <ele>843.9</ele>
        <time>2016-09-25T09:39:17Z</time>
      </trkpt>
      <trkpt lat="44.13878" lon="3.25185">
        <ele>843.9</ele>
        <time>2016-09-25T09:39:20Z</time>
      </trkpt>
      <trkpt lat="44.13879" lon="3.25174">
        <ele>844</ele>
        <time>2016-09-25T09:39:23Z</time>
      </trkpt>
      <trkpt lat="44.13879" lon="3.25164">
        <ele>844</ele>
        <time>2016-09-25T09:39:26Z</time>
      </trkpt>
      <trkpt lat="44.13879" lon="3.25152">
        <ele>844.1</ele>
        <time>2016-09-25T09:39:30Z</time>
      </trkpt>
      <trkpt lat="44.13879" lon="3.25142">
        <ele>844.2</ele>
        <time>2016-09-25T09:39:34Z</time>
      </trkpt>
      <trkpt lat="44.13876" lon="3.2513">
        <ele>844.4</ele>
        <time>2016-09-25T09:39:39Z</time>
      </trkpt>
      <trkpt lat="44.13873" lon="3.25121">
        <ele>845</ele>
        <time>2016-09-25T09:39:44Z</time>
      </trkpt>
      <trkpt lat="44.13871" lon="3.25111">
        <ele>845.6</ele>
        <time>2016-09-25T09:39:49Z</time>
      </trkpt>
      <trkpt lat="44.13874" lon="3.25101">
        <ele>846.2</ele>
        <time>2016-09-25T09:39:53Z</time>
      </trkpt>
      <trkpt lat="44.13878" lon="3.25091">
        <ele>846.8</ele>
        <time>2016-09-25T09:39:58Z</time>
      </trkpt>
      <trkpt lat="44.13883" lon="3.25082">
        <ele>847.4</ele>
        <time>2016-09-25T09:40:02Z</time>
      </trkpt>
      <trkpt lat="44.13888" lon="3.25073">
        <ele>847.7</ele>
        <time>2016-09-25T09:40:05Z</time>
      </trkpt>
      <trkpt lat="44.13894" lon="3.25063">
        <ele>848.2</ele>
        <time>2016-09-25T09:40:09Z</time>
      </trkpt>
      <trkpt lat="44.139" lon="3.25055">
        <ele>848.6</ele>
        <time>2016-09-25T09:40:13Z</time>
      </trkpt>
      <trkpt lat="44.13907" lon="3.25048">
        <ele>849.1</ele>
        <time>2016-09-25T09:40:17Z</time>
      </trkpt>
      <trkpt lat="44.13913" lon="3.2504">
        <ele>849.5</ele>
        <time>2016-09-25T09:40:21Z</time>
      </trkpt>
      <trkpt lat="44.13919" lon="3.25032">
        <ele>850</ele>
        <time>2016-09-25T09:40:25Z</time>
      </trkpt>
      <trkpt lat="44.13926" lon="3.25024">
        <ele>850.4</ele>
        <time>2016-09-25T09:40:29Z</time>
      </trkpt>
      <trkpt lat="44.13933" lon="3.25016">
        <ele>850.8</ele>
        <time>2016-09-25T09:40:33Z</time>
      </trkpt>
      <trkpt lat="44.13939" lon="3.25009">
        <ele>851.2</ele>
        <time>2016-09-25T09:40:36Z</time>
      </trkpt>
      <trkpt lat="44.13946" lon="3.25002">
        <ele>851.6</ele>
        <time>2016-09-25T09:40:39Z</time>
      </trkpt>
      <trkpt lat="44.13953" lon="3.24996">
        <ele>852</ele>
        <time>2016-09-25T09:40:42Z</time>
      </trkpt>
      <trkpt lat="44.1396" lon="3.2499">
        <ele>852.3</ele>
        <time>2016-09-25T09:40:45Z</time>
      </trkpt>
      <trkpt lat="44.13968" lon="3.24983">
        <ele>852.8</ele>
        <time>2016-09-25T09:40:49Z</time>
      </trkpt>
      <trkpt lat="44.13975" lon="3.24974">
        <ele>853.5</ele>
        <time>2016-09-25T09:40:53Z</time>
      </trkpt>
      <trkpt lat="44.13982" lon="3.24966">
        <ele>854.3</ele>
        <time>2016-09-25T09:40:57Z</time>
      </trkpt>
      <trkpt lat="44.13989" lon="3.24958">
        <ele>855.1</ele>
        <time>2016-09-25T09:41:01Z</time>
      </trkpt>
      <trkpt lat="44.13996" lon="3.24949">
        <ele>855.9</ele>
        <time>2016-09-25T09:41:05Z</time>
      </trkpt>
      <trkpt lat="44.14" lon="3.24941">
        <ele>856.4</ele>
        <time>2016-09-25T09:41:08Z</time>
      </trkpt>
      <trkpt lat="44.14005" lon="3.24932">
        <ele>856.8</ele>
        <time>2016-09-25T09:41:11Z</time>
      </trkpt>
      <trkpt lat="44.14008" lon="3.24922">
        <ele>857.2</ele>
        <time>2016-09-25T09:41:14Z</time>
      </trkpt>
      <trkpt lat="44.14011" lon="3.24913">
        <ele>857.6</ele>
        <time>2016-09-25T09:41:17Z</time>
      </trkpt>
      <trkpt lat="44.14013" lon="3.24903">
        <ele>857.9</ele>
        <time>2016-09-25T09:41:20Z</time>
      </trkpt>
      <trkpt lat="44.14014" lon="3.24893">
        <ele>858.2</ele>
        <time>2016-09-25T09:41:23Z</time>
      </trkpt>
      <trkpt lat="44.14014" lon="3.24882">
        <ele>858.6</ele>
        <time>2016-09-25T09:41:26Z</time>
      </trkpt>
      <trkpt lat="44.14011" lon="3.24871">
        <ele>859</ele>
        <time>2016-09-25T09:41:29Z</time>
      </trkpt>
      <trkpt lat="44.14004" lon="3.24862">
        <ele>859.4</ele>
        <time>2016-09-25T09:41:32Z</time>
      </trkpt>
      <trkpt lat="44.13995" lon="3.24854">
        <ele>859.8</ele>
        <time>2016-09-25T09:41:35Z</time>
      </trkpt>
      <trkpt lat="44.13987" lon="3.24846">
        <ele>860.2</ele>
        <time>2016-09-25T09:41:38Z</time>
      </trkpt>
      <trkpt lat="44.13978" lon="3.24838">
        <ele>860.5</ele>
        <time>2016-09-25T09:41:41Z</time>
      </trkpt>
      <trkpt lat="44.13971" lon="3.24832">
        <ele>862.7</ele>
        <time>2016-09-25T09:41:43Z</time>
      </trkpt>
      <trkpt lat="44.13964" lon="3.24826">
        <ele>863.7</ele>
        <time>2016-09-25T09:41:45Z</time>
      </trkpt>
      <trkpt lat="44.13958" lon="3.24821">
        <ele>863.8</ele>
        <time>2016-09-25T09:41:47Z</time>
      </trkpt>
      <trkpt lat="44.13947" lon="3.24815">
        <ele>864.2</ele>
        <time>2016-09-25T09:41:50Z</time>
      </trkpt>
      <trkpt lat="44.1394" lon="3.24811">
        <ele>864.3</ele>
        <time>2016-09-25T09:41:52Z</time>
      </trkpt>
      <trkpt lat="44.13932" lon="3.24804">
        <ele>864.9</ele>
        <time>2016-09-25T09:41:55Z</time>
      </trkpt>
      <trkpt lat="44.13924" lon="3.24797">
        <ele>865</ele>
        <time>2016-09-25T09:41:58Z</time>
      </trkpt>
      <trkpt lat="44.13916" lon="3.24789">
        <ele>865.1</ele>
        <time>2016-09-25T09:42:01Z</time>
      </trkpt>
      <trkpt lat="44.13909" lon="3.24781">
        <ele>865.2</ele>
        <time>2016-09-25T09:42:04Z</time>
      </trkpt>
      <trkpt lat="44.13902" lon="3.2477">
        <ele>865.3</ele>
        <time>2016-09-25T09:42:07Z</time>
      </trkpt>
      <trkpt lat="44.13898" lon="3.24759">
        <ele>865.4</ele>
        <time>2016-09-25T09:42:10Z</time>
      </trkpt>
      <trkpt lat="44.13898" lon="3.24746">
        <ele>865.5</ele>
        <time>2016-09-25T09:42:13Z</time>
      </trkpt>
      <trkpt lat="44.139" lon="3.24733">
        <ele>865.5</ele>
        <time>2016-09-25T09:42:16Z</time>
      </trkpt>
      <trkpt lat="44.13905" lon="3.24721">
        <ele>865.4</ele>
        <time>2016-09-25T09:42:19Z</time>
      </trkpt>
      <trkpt lat="44.13908" lon="3.24707">
        <ele>865.3</ele>
        <time>2016-09-25T09:42:22Z</time>
      </trkpt>
      <trkpt lat="44.13911" lon="3.24695">
        <ele>865.2</ele>
        <time>2016-09-25T09:42:25Z</time>
      </trkpt>
      <trkpt lat="44.13914" lon="3.24682">
        <ele>865.2</ele>
        <time>2016-09-25T09:42:28Z</time>
      </trkpt>
      <trkpt lat="44.13922" lon="3.24671">
        <ele>865</ele>
        <time>2016-09-25T09:42:31Z</time>
      </trkpt>
      <trkpt lat="44.13928" lon="3.2466">
        <ele>865</ele>
        <time>2016-09-25T09:42:34Z</time>
      </trkpt>
      <trkpt lat="44.13935" lon="3.2465">
        <ele>865</ele>
        <time>2016-09-25T09:42:37Z</time>
      </trkpt>
      <trkpt lat="44.13944" lon="3.24642">
        <ele>864.9</ele>
        <time>2016-09-25T09:42:40Z</time>
      </trkpt>
      <trkpt lat="44.1395" lon="3.24638">
        <ele>864.9</ele>
        <time>2016-09-25T09:42:42Z</time>
      </trkpt>
      <trkpt lat="44.13958" lon="3.24634">
        <ele>865</ele>
        <time>2016-09-25T09:42:44Z</time>
      </trkpt>
      <trkpt lat="44.13967" lon="3.24633">
        <ele>865</ele>
        <time>2016-09-25T09:42:47Z</time>
      </trkpt>
      <trkpt lat="44.13974" lon="3.2464">
        <ele>865.2</ele>
        <time>2016-09-25T09:42:50Z</time>
      </trkpt>
      <trkpt lat="44.13983" lon="3.24643">
        <ele>865.6</ele>
        <time>2016-09-25T09:42:54Z</time>
      </trkpt>
      <trkpt lat="44.13991" lon="3.24645">
        <ele>865.8</ele>
        <time>2016-09-25T09:42:57Z</time>
      </trkpt>
      <trkpt lat="44.13999" lon="3.24648">
        <ele>866</ele>
        <time>2016-09-25T09:43:00Z</time>
      </trkpt>
      <trkpt lat="44.14007" lon="3.24649">
        <ele>866.1</ele>
        <time>2016-09-25T09:43:03Z</time>
      </trkpt>
      <trkpt lat="44.14017" lon="3.24645">
        <ele>866.2</ele>
        <time>2016-09-25T09:43:06Z</time>
      </trkpt>
      <trkpt lat="44.14026" lon="3.24638">
        <ele>866.3</ele>
        <time>2016-09-25T09:43:09Z</time>
      </trkpt>
      <trkpt lat="44.14035" lon="3.24633">
        <ele>866.4</ele>
        <time>2016-09-25T09:43:12Z</time>
      </trkpt>
      <trkpt lat="44.14044" lon="3.2463">
        <ele>866.4</ele>
        <time>2016-09-25T09:43:15Z</time>
      </trkpt>
      <trkpt lat="44.14055" lon="3.24631">
        <ele>865.9</ele>
        <time>2016-09-25T09:43:18Z</time>
      </trkpt>
      <trkpt lat="44.14061" lon="3.24627">
        <ele>865.6</ele>
        <time>2016-09-25T09:43:20Z</time>
      </trkpt>
      <trkpt lat="44.14068" lon="3.24621">
        <ele>865.5</ele>
        <time>2016-09-25T09:43:22Z</time>
      </trkpt>
      <trkpt lat="44.14074" lon="3.24614">
        <ele>865.5</ele>
        <time>2016-09-25T09:43:24Z</time>
      </trkpt>
      <trkpt lat="44.14081" lon="3.24604">
        <ele>865.3</ele>
        <time>2016-09-25T09:43:27Z</time>
      </trkpt>
      <trkpt lat="44.14088" lon="3.24596">
        <ele>865.3</ele>
        <time>2016-09-25T09:43:30Z</time>
      </trkpt>
      <trkpt lat="44.14095" lon="3.24587">
        <ele>865.3</ele>
        <time>2016-09-25T09:43:33Z</time>
      </trkpt>
      <trkpt lat="44.14102" lon="3.24579">
        <ele>865.5</ele>
        <time>2016-09-25T09:43:36Z</time>
      </trkpt>
      <trkpt lat="44.1411" lon="3.2457">
        <ele>865.7</ele>
        <time>2016-09-25T09:43:39Z</time>
      </trkpt>
      <trkpt lat="44.14116" lon="3.24564">
        <ele>865.8</ele>
        <time>2016-09-25T09:43:41Z</time>
      </trkpt>
      <trkpt lat="44.14123" lon="3.24558">
        <ele>865.8</ele>
        <time>2016-09-25T09:43:43Z</time>
      </trkpt>
      <trkpt lat="44.14129" lon="3.24551">
        <ele>865.4</ele>
        <time>2016-09-25T09:43:45Z</time>
      </trkpt>
      <trkpt lat="44.14136" lon="3.24545">
        <ele>864.9</ele>
        <time>2016-09-25T09:43:47Z</time>
      </trkpt>
      <trkpt lat="44.14143" lon="3.24537">
        <ele>864.5</ele>
        <time>2016-09-25T09:43:49Z</time>
      </trkpt>
      <trkpt lat="44.14149" lon="3.2453">
        <ele>864.4</ele>
        <time>2016-09-25T09:43:51Z</time>
      </trkpt>
      <trkpt lat="44.14155" lon="3.24523">
        <ele>864.4</ele>
        <time>2016-09-25T09:43:53Z</time>
      </trkpt>
      <trkpt lat="44.14161" lon="3.24517">
        <ele>864.5</ele>
        <time>2016-09-25T09:43:55Z</time>
      </trkpt>
      <trkpt lat="44.14167" lon="3.2451">
        <ele>864.6</ele>
        <time>2016-09-25T09:43:57Z</time>
      </trkpt>
      <trkpt lat="44.14173" lon="3.24503">
        <ele>864.5</ele>
        <time>2016-09-25T09:43:59Z</time>
      </trkpt>
      <trkpt lat="44.14179" lon="3.24497">
        <ele>864.5</ele>
        <time>2016-09-25T09:44:01Z</time>
      </trkpt>
      <trkpt lat="44.14185" lon="3.24491">
        <ele>864.5</ele>
        <time>2016-09-25T09:44:03Z</time>
      </trkpt>
      <trkpt lat="44.1419" lon="3.24485">
        <ele>864.9</ele>
        <time>2016-09-25T09:44:05Z</time>
      </trkpt>
      <trkpt lat="44.14196" lon="3.24478">
        <ele>865.5</ele>
        <time>2016-09-25T09:44:07Z</time>
      </trkpt>
      <trkpt lat="44.14203" lon="3.24472">
        <ele>866</ele>
        <time>2016-09-25T09:44:09Z</time>
      </trkpt>
      <trkpt lat="44.14209" lon="3.24466">
        <ele>866.5</ele>
        <time>2016-09-25T09:44:11Z</time>
      </trkpt>
      <trkpt lat="44.14216" lon="3.24459">
        <ele>866.9</ele>
        <time>2016-09-25T09:44:13Z</time>
      </trkpt>
      <trkpt lat="44.14222" lon="3.24453">
        <ele>867.5</ele>
        <time>2016-09-25T09:44:15Z</time>
      </trkpt>
      <trkpt lat="44.14227" lon="3.24446">
        <ele>867.5</ele>
        <time>2016-09-25T09:44:17Z</time>
      </trkpt>
      <trkpt lat="44.14236" lon="3.24437">
        <ele>867.6</ele>
        <time>2016-09-25T09:44:20Z</time>
      </trkpt>
      <trkpt lat="44.14244" lon="3.24428">
        <ele>867.6</ele>
        <time>2016-09-25T09:44:23Z</time>
      </trkpt>
      <trkpt lat="44.14252" lon="3.2442">
        <ele>867.8</ele>
        <time>2016-09-25T09:44:26Z</time>
      </trkpt>
      <trkpt lat="44.1426" lon="3.24411">
        <ele>867.9</ele>
        <time>2016-09-25T09:44:29Z</time>
      </trkpt>
      <trkpt lat="44.14269" lon="3.24403">
        <ele>868</ele>
        <time>2016-09-25T09:44:32Z</time>
      </trkpt>
      <trkpt lat="44.14276" lon="3.24395">
        <ele>868.2</ele>
        <time>2016-09-25T09:44:35Z</time>
      </trkpt>
      <trkpt lat="44.14284" lon="3.24387">
        <ele>868.5</ele>
        <time>2016-09-25T09:44:38Z</time>
      </trkpt>
      <trkpt lat="44.14291" lon="3.24379">
        <ele>868.7</ele>
        <time>2016-09-25T09:44:41Z</time>
      </trkpt>
      <trkpt lat="44.14299" lon="3.24372">
        <ele>868.9</ele>
        <time>2016-09-25T09:44:44Z</time>
      </trkpt>
      <trkpt lat="44.14306" lon="3.24364">
        <ele>869.3</ele>
        <time>2016-09-25T09:44:47Z</time>
      </trkpt>
      <trkpt lat="44.14313" lon="3.24357">
        <ele>869.6</ele>
        <time>2016-09-25T09:44:50Z</time>
      </trkpt>
      <trkpt lat="44.1432" lon="3.2435">
        <ele>870</ele>
        <time>2016-09-25T09:44:53Z</time>
      </trkpt>
      <trkpt lat="44.14327" lon="3.24343">
        <ele>870.4</ele>
        <time>2016-09-25T09:44:56Z</time>
      </trkpt>
      <trkpt lat="44.14334" lon="3.24335">
        <ele>871</ele>
        <time>2016-09-25T09:45:00Z</time>
      </trkpt>
      <trkpt lat="44.14341" lon="3.24328">
        <ele>871.4</ele>
        <time>2016-09-25T09:45:03Z</time>
      </trkpt>
      <trkpt lat="44.14346" lon="3.24321">
        <ele>871.8</ele>
        <time>2016-09-25T09:45:06Z</time>
      </trkpt>
      <trkpt lat="44.14352" lon="3.24314">
        <ele>872.1</ele>
        <time>2016-09-25T09:45:09Z</time>
      </trkpt>
      <trkpt lat="44.14359" lon="3.24305">
        <ele>872.6</ele>
        <time>2016-09-25T09:45:13Z</time>
      </trkpt>
      <trkpt lat="44.14366" lon="3.24299">
        <ele>872.9</ele>
        <time>2016-09-25T09:45:16Z</time>
      </trkpt>
      <trkpt lat="44.14372" lon="3.24292">
        <ele>873.3</ele>
        <time>2016-09-25T09:45:19Z</time>
      </trkpt>
      <trkpt lat="44.14377" lon="3.24286">
        <ele>873.8</ele>
        <time>2016-09-25T09:45:22Z</time>
      </trkpt>
      <trkpt lat="44.14385" lon="3.24278">
        <ele>874.3</ele>
        <time>2016-09-25T09:45:26Z</time>
      </trkpt>
      <trkpt lat="44.14392" lon="3.2427">
        <ele>875</ele>
        <time>2016-09-25T09:45:30Z</time>
      </trkpt>
      <trkpt lat="44.14399" lon="3.24263">
        <ele>875.4</ele>
        <time>2016-09-25T09:45:33Z</time>
      </trkpt>
      <trkpt lat="44.14404" lon="3.24257">
        <ele>875.9</ele>
        <time>2016-09-25T09:45:36Z</time>
      </trkpt>
      <trkpt lat="44.14412" lon="3.24249">
        <ele>876.5</ele>
        <time>2016-09-25T09:45:40Z</time>
      </trkpt>
      <trkpt lat="44.1442" lon="3.24241">
        <ele>877.2</ele>
        <time>2016-09-25T09:45:44Z</time>
      </trkpt>
      <trkpt lat="44.14426" lon="3.24237">
        <ele>877.7</ele>
        <time>2016-09-25T09:45:47Z</time>
      </trkpt>
      <trkpt lat="44.14433" lon="3.24232">
        <ele>878.1</ele>
        <time>2016-09-25T09:45:50Z</time>
      </trkpt>
      <trkpt lat="44.14441" lon="3.24227">
        <ele>878.8</ele>
        <time>2016-09-25T09:45:54Z</time>
      </trkpt>
      <trkpt lat="44.1445" lon="3.24224">
        <ele>879.4</ele>
        <time>2016-09-25T09:45:58Z</time>
      </trkpt>
      <trkpt lat="44.1446" lon="3.24223">
        <ele>880.1</ele>
        <time>2016-09-25T09:46:02Z</time>
      </trkpt>
      <trkpt lat="44.14469" lon="3.24224">
        <ele>880.9</ele>
        <time>2016-09-25T09:46:06Z</time>
      </trkpt>
      <trkpt lat="44.14477" lon="3.24225">
        <ele>881.4</ele>
        <time>2016-09-25T09:46:09Z</time>
      </trkpt>
      <trkpt lat="44.14486" lon="3.24224">
        <ele>881.8</ele>
        <time>2016-09-25T09:46:12Z</time>
      </trkpt>
      <trkpt lat="44.14493" lon="3.24223">
        <ele>882.2</ele>
        <time>2016-09-25T09:46:15Z</time>
      </trkpt>
      <trkpt lat="44.145" lon="3.24216">
        <ele>882.5</ele>
        <time>2016-09-25T09:46:19Z</time>
      </trkpt>
      <trkpt lat="44.14501" lon="3.24203">
        <ele>883.1</ele>
        <time>2016-09-25T09:46:24Z</time>
      </trkpt>
      <trkpt lat="44.145" lon="3.24193">
        <ele>883.6</ele>
        <time>2016-09-25T09:46:27Z</time>
      </trkpt>
      <trkpt lat="44.145" lon="3.24179">
        <ele>884.2</ele>
        <time>2016-09-25T09:46:31Z</time>
      </trkpt>
      <trkpt lat="44.145" lon="3.24169">
        <ele>884.6</ele>
        <time>2016-09-25T09:46:34Z</time>
      </trkpt>
      <trkpt lat="44.145" lon="3.24156">
        <ele>884.9</ele>
        <time>2016-09-25T09:46:37Z</time>
      </trkpt>
      <trkpt lat="44.145" lon="3.24144">
        <ele>885.1</ele>
        <time>2016-09-25T09:46:40Z</time>
      </trkpt>
      <trkpt lat="44.145" lon="3.24131">
        <ele>885.4</ele>
        <time>2016-09-25T09:46:44Z</time>
      </trkpt>
      <trkpt lat="44.14501" lon="3.24121">
        <ele>885.6</ele>
        <time>2016-09-25T09:46:47Z</time>
      </trkpt>
      <trkpt lat="44.14502" lon="3.2411">
        <ele>885.9</ele>
        <time>2016-09-25T09:46:50Z</time>
      </trkpt>
      <trkpt lat="44.14503" lon="3.241">
        <ele>886.1</ele>
        <time>2016-09-25T09:46:53Z</time>
      </trkpt>
      <trkpt lat="44.14505" lon="3.24089">
        <ele>886.3</ele>
        <time>2016-09-25T09:46:56Z</time>
      </trkpt>
      <trkpt lat="44.14506" lon="3.24077">
        <ele>886.6</ele>
        <time>2016-09-25T09:46:59Z</time>
      </trkpt>
      <trkpt lat="44.14507" lon="3.24066">
        <ele>886.8</ele>
        <time>2016-09-25T09:47:02Z</time>
      </trkpt>
      <trkpt lat="44.14509" lon="3.24052">
        <ele>887.1</ele>
        <time>2016-09-25T09:47:05Z</time>
      </trkpt>
      <trkpt lat="44.14511" lon="3.24039">
        <ele>887.3</ele>
        <time>2016-09-25T09:47:08Z</time>
      </trkpt>
      <trkpt lat="44.14512" lon="3.24026">
        <ele>887.6</ele>
        <time>2016-09-25T09:47:11Z</time>
      </trkpt>
      <trkpt lat="44.14514" lon="3.24015">
        <ele>887.8</ele>
        <time>2016-09-25T09:47:14Z</time>
      </trkpt>
      <trkpt lat="44.14514" lon="3.24004">
        <ele>888.1</ele>
        <time>2016-09-25T09:47:18Z</time>
      </trkpt>
      <trkpt lat="44.14516" lon="3.23994">
        <ele>888.5</ele>
        <time>2016-09-25T09:47:23Z</time>
      </trkpt>
      <trkpt lat="44.14518" lon="3.23982">
        <ele>889</ele>
        <time>2016-09-25T09:47:28Z</time>
      </trkpt>
      <trkpt lat="44.1452" lon="3.2397">
        <ele>889.4</ele>
        <time>2016-09-25T09:47:32Z</time>
      </trkpt>
      <trkpt lat="44.14521" lon="3.23958">
        <ele>889.7</ele>
        <time>2016-09-25T09:47:36Z</time>
      </trkpt>
      <trkpt lat="44.14523" lon="3.23946">
        <ele>890</ele>
        <time>2016-09-25T09:47:40Z</time>
      </trkpt>
      <trkpt lat="44.14525" lon="3.23933">
        <ele>890.3</ele>
        <time>2016-09-25T09:47:44Z</time>
      </trkpt>
      <trkpt lat="44.14526" lon="3.23923">
        <ele>890.5</ele>
        <time>2016-09-25T09:47:47Z</time>
      </trkpt>
      <trkpt lat="44.14528" lon="3.2391">
        <ele>890.7</ele>
        <time>2016-09-25T09:47:51Z</time>
      </trkpt>
      <trkpt lat="44.1453" lon="3.23899">
        <ele>890.9</ele>
        <time>2016-09-25T09:47:55Z</time>
      </trkpt>
      <trkpt lat="44.14533" lon="3.23889">
        <ele>891.2</ele>
        <time>2016-09-25T09:47:59Z</time>
      </trkpt>
      <trkpt lat="44.14536" lon="3.2388">
        <ele>891.7</ele>
        <time>2016-09-25T09:48:03Z</time>
      </trkpt>
      <trkpt lat="44.1454" lon="3.23869">
        <ele>892.1</ele>
        <time>2016-09-25T09:48:07Z</time>
      </trkpt>
      <trkpt lat="44.14544" lon="3.23858">
        <ele>892.4</ele>
        <time>2016-09-25T09:48:11Z</time>
      </trkpt>
      <trkpt lat="44.14548" lon="3.23846">
        <ele>892.7</ele>
        <time>2016-09-25T09:48:15Z</time>
      </trkpt>
      <trkpt lat="44.14552" lon="3.23837">
        <ele>893</ele>
        <time>2016-09-25T09:48:18Z</time>
      </trkpt>
      <trkpt lat="44.14555" lon="3.23828">
        <ele>893.2</ele>
        <time>2016-09-25T09:48:21Z</time>
      </trkpt>
      <trkpt lat="44.1456" lon="3.23817">
        <ele>893.6</ele>
        <time>2016-09-25T09:48:25Z</time>
      </trkpt>
      <trkpt lat="44.14564" lon="3.23808">
        <ele>893.8</ele>
        <time>2016-09-25T09:48:28Z</time>
      </trkpt>
      <trkpt lat="44.14567" lon="3.23798">
        <ele>894.1</ele>
        <time>2016-09-25T09:48:31Z</time>
      </trkpt>
      <trkpt lat="44.1457" lon="3.23787">
        <ele>894.4</ele>
        <time>2016-09-25T09:48:35Z</time>
      </trkpt>
      <trkpt lat="44.14576" lon="3.23777">
        <ele>894.7</ele>
        <time>2016-09-25T09:48:39Z</time>
      </trkpt>
      <trkpt lat="44.14581" lon="3.23766">
        <ele>895</ele>
        <time>2016-09-25T09:48:43Z</time>
      </trkpt>
      <trkpt lat="44.14586" lon="3.23758">
        <ele>895.3</ele>
        <time>2016-09-25T09:48:46Z</time>
      </trkpt>
      <trkpt lat="44.1459" lon="3.23749">
        <ele>895.5</ele>
        <time>2016-09-25T09:48:49Z</time>
      </trkpt>
      <trkpt lat="44.14595" lon="3.23739">
        <ele>895.7</ele>
        <time>2016-09-25T09:48:52Z</time>
      </trkpt>
      <trkpt lat="44.146" lon="3.23728">
        <ele>896.7</ele>
        <time>2016-09-25T09:48:55Z</time>
      </trkpt>
      <trkpt lat="44.14604" lon="3.23719">
        <ele>898</ele>
        <time>2016-09-25T09:48:57Z</time>
      </trkpt>
      <trkpt lat="44.1461" lon="3.2371">
        <ele>898.6</ele>
        <time>2016-09-25T09:48:59Z</time>
      </trkpt>
      <trkpt lat="44.14616" lon="3.23701">
        <ele>898.6</ele>
        <time>2016-09-25T09:49:01Z</time>
      </trkpt>
      <trkpt lat="44.14624" lon="3.23692">
        <ele>898.3</ele>
        <time>2016-09-25T09:49:03Z</time>
      </trkpt>
      <trkpt lat="44.14632" lon="3.23684">
        <ele>897.9</ele>
        <time>2016-09-25T09:49:05Z</time>
      </trkpt>
      <trkpt lat="44.1464" lon="3.23676">
        <ele>897.2</ele>
        <time>2016-09-25T09:49:07Z</time>
      </trkpt>
      <trkpt lat="44.14646" lon="3.23664">
        <ele>896.2</ele>
        <time>2016-09-25T09:49:09Z</time>
      </trkpt>
      <trkpt lat="44.14644" lon="3.23649">
        <ele>896</ele>
        <time>2016-09-25T09:49:11Z</time>
      </trkpt>
      <trkpt lat="44.14638" lon="3.23637">
        <ele>897</ele>
        <time>2016-09-25T09:49:13Z</time>
      </trkpt>
      <trkpt lat="44.14633" lon="3.23622">
        <ele>897.8</ele>
        <time>2016-09-25T09:49:15Z</time>
      </trkpt>
      <trkpt lat="44.14628" lon="3.23607">
        <ele>897.6</ele>
        <time>2016-09-25T09:49:17Z</time>
      </trkpt>
      <trkpt lat="44.14621" lon="3.23596">
        <ele>896.9</ele>
        <time>2016-09-25T09:49:19Z</time>
      </trkpt>
      <trkpt lat="44.14614" lon="3.23589">
        <ele>895.8</ele>
        <time>2016-09-25T09:49:21Z</time>
      </trkpt>
      <trkpt lat="44.14606" lon="3.23584">
        <ele>894.9</ele>
        <time>2016-09-25T09:49:23Z</time>
      </trkpt>
      <trkpt lat="44.14597" lon="3.23579">
        <ele>894.2</ele>
        <time>2016-09-25T09:49:25Z</time>
      </trkpt>
      <trkpt lat="44.14587" lon="3.23575">
        <ele>893.5</ele>
        <time>2016-09-25T09:49:27Z</time>
      </trkpt>
      <trkpt lat="44.14576" lon="3.23573">
        <ele>892.7</ele>
        <time>2016-09-25T09:49:29Z</time>
      </trkpt>
      <trkpt lat="44.14568" lon="3.23572">
        <ele>892.1</ele>
        <time>2016-09-25T09:49:30Z</time>
      </trkpt>
      <trkpt lat="44.1456" lon="3.2357">
        <ele>891.4</ele>
        <time>2016-09-25T09:49:31Z</time>
      </trkpt>
      <trkpt lat="44.14551" lon="3.23569">
        <ele>890.3</ele>
        <time>2016-09-25T09:49:32Z</time>
      </trkpt>
      <trkpt lat="44.14542" lon="3.23568">
        <ele>889.4</ele>
        <time>2016-09-25T09:49:33Z</time>
      </trkpt>
      <trkpt lat="44.14534" lon="3.23566">
        <ele>888.5</ele>
        <time>2016-09-25T09:49:34Z</time>
      </trkpt>
      <trkpt lat="44.14525" lon="3.23564">
        <ele>887.7</ele>
        <time>2016-09-25T09:49:35Z</time>
      </trkpt>
      <trkpt lat="44.14516" lon="3.23562">
        <ele>887.1</ele>
        <time>2016-09-25T09:49:36Z</time>
      </trkpt>
      <trkpt lat="44.14507" lon="3.23559">
        <ele>886.5</ele>
        <time>2016-09-25T09:49:37Z</time>
      </trkpt>
      <trkpt lat="44.14499" lon="3.23556">
        <ele>885.9</ele>
        <time>2016-09-25T09:49:38Z</time>
      </trkpt>
      <trkpt lat="44.1449" lon="3.23552">
        <ele>885.2</ele>
        <time>2016-09-25T09:49:39Z</time>
      </trkpt>
      <trkpt lat="44.14481" lon="3.23549">
        <ele>884.5</ele>
        <time>2016-09-25T09:49:40Z</time>
      </trkpt>
      <trkpt lat="44.14473" lon="3.23547">
        <ele>883.6</ele>
        <time>2016-09-25T09:49:41Z</time>
      </trkpt>
      <trkpt lat="44.14464" lon="3.23545">
        <ele>882.9</ele>
        <time>2016-09-25T09:49:42Z</time>
      </trkpt>
      <trkpt lat="44.14455" lon="3.23545">
        <ele>882.3</ele>
        <time>2016-09-25T09:49:43Z</time>
      </trkpt>
      <trkpt lat="44.14447" lon="3.23544">
        <ele>881.6</ele>
        <time>2016-09-25T09:49:44Z</time>
      </trkpt>
      <trkpt lat="44.14438" lon="3.23544">
        <ele>881.1</ele>
        <time>2016-09-25T09:49:45Z</time>
      </trkpt>
      <trkpt lat="44.1443" lon="3.23543">
        <ele>880.4</ele>
        <time>2016-09-25T09:49:46Z</time>
      </trkpt>
      <trkpt lat="44.14421" lon="3.23541">
        <ele>880</ele>
        <time>2016-09-25T09:49:47Z</time>
      </trkpt>
      <trkpt lat="44.14412" lon="3.2354">
        <ele>879.6</ele>
        <time>2016-09-25T09:49:48Z</time>
      </trkpt>
      <trkpt lat="44.14403" lon="3.23537">
        <ele>879.1</ele>
        <time>2016-09-25T09:49:49Z</time>
      </trkpt>
      <trkpt lat="44.14394" lon="3.23534">
        <ele>878.5</ele>
        <time>2016-09-25T09:49:50Z</time>
      </trkpt>
      <trkpt lat="44.14385" lon="3.23531">
        <ele>877.9</ele>
        <time>2016-09-25T09:49:51Z</time>
      </trkpt>
      <trkpt lat="44.14376" lon="3.2353">
        <ele>877.3</ele>
        <time>2016-09-25T09:49:52Z</time>
      </trkpt>
      <trkpt lat="44.14367" lon="3.23529">
        <ele>876.6</ele>
        <time>2016-09-25T09:49:53Z</time>
      </trkpt>
      <trkpt lat="44.14358" lon="3.23529">
        <ele>876.1</ele>
        <time>2016-09-25T09:49:54Z</time>
      </trkpt>
      <trkpt lat="44.1435" lon="3.23529">
        <ele>875.7</ele>
        <time>2016-09-25T09:49:55Z</time>
      </trkpt>
      <trkpt lat="44.14336" lon="3.23527">
        <ele>875.1</ele>
        <time>2016-09-25T09:49:57Z</time>
      </trkpt>
      <trkpt lat="44.14323" lon="3.23525">
        <ele>874.8</ele>
        <time>2016-09-25T09:49:59Z</time>
      </trkpt>
      <trkpt lat="44.14312" lon="3.23521">
        <ele>874.4</ele>
        <time>2016-09-25T09:50:01Z</time>
      </trkpt>
      <trkpt lat="44.14303" lon="3.23517">
        <ele>874.2</ele>
        <time>2016-09-25T09:50:03Z</time>
      </trkpt>
      <trkpt lat="44.14295" lon="3.23513">
        <ele>874.9</ele>
        <time>2016-09-25T09:50:05Z</time>
      </trkpt>
      <trkpt lat="44.14287" lon="3.23508">
        <ele>875.2</ele>
        <time>2016-09-25T09:50:08Z</time>
      </trkpt>
      <trkpt lat="44.14278" lon="3.23502">
        <ele>875.5</ele>
        <time>2016-09-25T09:50:11Z</time>
      </trkpt>
      <trkpt lat="44.14269" lon="3.23498">
        <ele>875.7</ele>
        <time>2016-09-25T09:50:14Z</time>
      </trkpt>
      <trkpt lat="44.14259" lon="3.23496">
        <ele>875.9</ele>
        <time>2016-09-25T09:50:17Z</time>
      </trkpt>
      <trkpt lat="44.14251" lon="3.23495">
        <ele>876.2</ele>
        <time>2016-09-25T09:50:20Z</time>
      </trkpt>
      <trkpt lat="44.14244" lon="3.23494">
        <ele>876.6</ele>
        <time>2016-09-25T09:50:23Z</time>
      </trkpt>
      <trkpt lat="44.14235" lon="3.23492">
        <ele>876.9</ele>
        <time>2016-09-25T09:50:26Z</time>
      </trkpt>
      <trkpt lat="44.14226" lon="3.23492">
        <ele>877.3</ele>
        <time>2016-09-25T09:50:29Z</time>
      </trkpt>
      <trkpt lat="44.14219" lon="3.23492">
        <ele>877.9</ele>
        <time>2016-09-25T09:50:32Z</time>
      </trkpt>
      <trkpt lat="44.1421" lon="3.23496">
        <ele>878.5</ele>
        <time>2016-09-25T09:50:36Z</time>
      </trkpt>
      <trkpt lat="44.14203" lon="3.235">
        <ele>878.9</ele>
        <time>2016-09-25T09:50:39Z</time>
      </trkpt>
      <trkpt lat="44.14194" lon="3.23503">
        <ele>879.2</ele>
        <time>2016-09-25T09:50:42Z</time>
      </trkpt>
      <trkpt lat="44.14186" lon="3.23507">
        <ele>879.5</ele>
        <time>2016-09-25T09:50:45Z</time>
      </trkpt>
      <trkpt lat="44.14178" lon="3.23509">
        <ele>879.8</ele>
        <time>2016-09-25T09:50:48Z</time>
      </trkpt>
      <trkpt lat="44.14171" lon="3.2351">
        <ele>880.1</ele>
        <time>2016-09-25T09:50:51Z</time>
      </trkpt>
      <trkpt lat="44.14163" lon="3.23507">
        <ele>880.7</ele>
        <time>2016-09-25T09:50:55Z</time>
      </trkpt>
      <trkpt lat="44.14157" lon="3.23501">
        <ele>881.7</ele>
        <time>2016-09-25T09:51:01Z</time>
      </trkpt>
      <trkpt lat="44.14152" lon="3.23493">
        <ele>882.7</ele>
        <time>2016-09-25T09:51:08Z</time>
      </trkpt>
      <trkpt lat="44.14151" lon="3.23489">
        <ele>883.3</ele>
        <time>2016-09-25T09:51:15Z</time>
      </trkpt>
      <trkpt lat="44.1416" lon="3.23486">
        <ele>888.9</ele>
        <time>2016-09-25T09:55:25Z</time>
      </trkpt>
      <trkpt lat="44.14159" lon="3.23484">
        <ele>888</ele>
        <time>2016-09-25T09:55:41Z</time>
      </trkpt>
      <trkpt lat="44.14157" lon="3.23486">
        <ele>887.9</ele>
        <time>2016-09-25T09:55:48Z</time>
      </trkpt>
      <trkpt lat="44.14153" lon="3.23488">
        <ele>887</ele>
        <time>2016-09-25T09:56:33Z</time>
      </trkpt>
      <trkpt lat="44.14158" lon="3.23485">
        <ele>887.5</ele>
        <time>2016-09-25T09:57:34Z</time>
      </trkpt>
      <trkpt lat="44.1416" lon="3.23486">
        <ele>883.1</ele>
        <time>2016-09-25T09:59:25Z</time>
      </trkpt>
      <trkpt lat="44.14157" lon="3.23487">
        <ele>883.1</ele>
        <time>2016-09-25T09:59:42Z</time>
      </trkpt>
      <trkpt lat="44.14157" lon="3.23489">
        <ele>884.2</ele>
        <time>2016-09-25T10:03:04Z</time>
      </trkpt>
      <trkpt lat="44.14155" lon="3.23487">
        <ele>884.3</ele>
        <time>2016-09-25T10:03:11Z</time>
      </trkpt>
      <trkpt lat="44.14157" lon="3.23485">
        <ele>884.7</ele>
        <time>2016-09-25T10:02:58Z</time>
      </trkpt>
      <trkpt lat="44.14156" lon="3.23481">
        <ele>884.5</ele>
        <time>2016-09-25T10:04:10Z</time>
      </trkpt>
      <trkpt lat="44.14158" lon="3.23485">
        <ele>883.6</ele>
        <time>2016-09-25T10:04:39Z</time>
      </trkpt>
      <trkpt lat="44.14157" lon="3.23491">
        <ele>883.7</ele>
        <time>2016-09-25T10:05:00Z</time>
      </trkpt>
      <trkpt lat="44.14157" lon="3.23491">
        <ele>883.7</ele>
        <time>2016-09-25T10:05:09Z</time>
      </trkpt>
      <trkpt lat="44.14155" lon="3.2349">
        <ele>883.8</ele>
        <time>2016-09-25T10:05:16Z</time>
      </trkpt>
      <trkpt lat="44.14154" lon="3.23483">
        <ele>887.1</ele>
        <time>2016-09-25T10:05:12Z</time>
      </trkpt>
      <trkpt lat="44.14155" lon="3.23484">
        <ele>887.9</ele>
        <time>2016-09-25T10:06:54Z</time>
      </trkpt>
      <trkpt lat="44.14158" lon="3.23483">
        <ele>888</ele>
        <time>2016-09-25T10:07:01Z</time>
      </trkpt>
      <trkpt lat="44.14151" lon="3.23486">
        <ele>889.5</ele>
        <time>2016-09-25T10:07:32Z</time>
      </trkpt>
      <trkpt lat="44.1415" lon="3.23487">
        <ele>889.3</ele>
        <time>2016-09-25T10:07:39Z</time>
      </trkpt>
      <trkpt lat="44.1415" lon="3.23491">
        <ele>890.3</ele>
        <time>2016-09-25T10:08:11Z</time>
      </trkpt>
      <trkpt lat="44.14148" lon="3.23488">
        <ele>890.9</ele>
        <time>2016-09-25T10:08:18Z</time>
      </trkpt>
      <trkpt lat="44.14139" lon="3.23488">
        <ele>889.8</ele>
        <time>2016-09-25T10:08:32Z</time>
      </trkpt>
      <trkpt lat="44.14132" lon="3.23483">
        <ele>889.9</ele>
        <time>2016-09-25T10:08:39Z</time>
      </trkpt>
      <trkpt lat="44.14124" lon="3.2348">
        <ele>889.9</ele>
        <time>2016-09-25T10:08:44Z</time>
      </trkpt>
      <trkpt lat="44.14116" lon="3.23475">
        <ele>890</ele>
        <time>2016-09-25T10:08:49Z</time>
      </trkpt>
      <trkpt lat="44.14109" lon="3.23472">
        <ele>890.1</ele>
        <time>2016-09-25T10:08:53Z</time>
      </trkpt>
      <trkpt lat="44.14101" lon="3.2347">
        <ele>890.3</ele>
        <time>2016-09-25T10:08:57Z</time>
      </trkpt>
      <trkpt lat="44.14092" lon="3.2347">
        <ele>890.3</ele>
        <time>2016-09-25T10:09:01Z</time>
      </trkpt>
      <trkpt lat="44.14083" lon="3.2347">
        <ele>890.3</ele>
        <time>2016-09-25T10:09:06Z</time>
      </trkpt>
      <trkpt lat="44.14074" lon="3.2347">
        <ele>890.4</ele>
        <time>2016-09-25T10:09:11Z</time>
      </trkpt>
      <trkpt lat="44.14067" lon="3.23469">
        <ele>890.6</ele>
        <time>2016-09-25T10:09:15Z</time>
      </trkpt>
      <trkpt lat="44.14059" lon="3.23466">
        <ele>890.8</ele>
        <time>2016-09-25T10:09:19Z</time>
      </trkpt>
      <trkpt lat="44.14052" lon="3.23463">
        <ele>891.1</ele>
        <time>2016-09-25T10:09:23Z</time>
      </trkpt>
      <trkpt lat="44.14043" lon="3.23461">
        <ele>891.4</ele>
        <time>2016-09-25T10:09:27Z</time>
      </trkpt>
      <trkpt lat="44.14036" lon="3.23461">
        <ele>891.7</ele>
        <time>2016-09-25T10:09:30Z</time>
      </trkpt>
      <trkpt lat="44.14027" lon="3.2346">
        <ele>891.7</ele>
        <time>2016-09-25T10:09:34Z</time>
      </trkpt>
      <trkpt lat="44.14019" lon="3.2346">
        <ele>891.7</ele>
        <time>2016-09-25T10:09:38Z</time>
      </trkpt>
      <trkpt lat="44.14012" lon="3.23457">
        <ele>892</ele>
        <time>2016-09-25T10:09:43Z</time>
      </trkpt>
      <trkpt lat="44.14004" lon="3.23455">
        <ele>892.8</ele>
        <time>2016-09-25T10:09:48Z</time>
      </trkpt>
      <trkpt lat="44.13994" lon="3.23453">
        <ele>893.3</ele>
        <time>2016-09-25T10:09:52Z</time>
      </trkpt>
      <trkpt lat="44.13985" lon="3.23455">
        <ele>893.5</ele>
        <time>2016-09-25T10:09:55Z</time>
      </trkpt>
      <trkpt lat="44.13977" lon="3.23453">
        <ele>893.8</ele>
        <time>2016-09-25T10:09:59Z</time>
      </trkpt>
      <trkpt lat="44.1397" lon="3.23448">
        <ele>893.9</ele>
        <time>2016-09-25T10:10:03Z</time>
      </trkpt>
      <trkpt lat="44.13962" lon="3.23448">
        <ele>893.9</ele>
        <time>2016-09-25T10:10:06Z</time>
      </trkpt>
      <trkpt lat="44.13953" lon="3.23446">
        <ele>893.7</ele>
        <time>2016-09-25T10:10:09Z</time>
      </trkpt>
      <trkpt lat="44.13943" lon="3.23445">
        <ele>893.5</ele>
        <time>2016-09-25T10:10:11Z</time>
      </trkpt>
      <trkpt lat="44.13937" lon="3.2344">
        <ele>893.3</ele>
        <time>2016-09-25T10:10:13Z</time>
      </trkpt>
      <trkpt lat="44.13934" lon="3.23428">
        <ele>891.4</ele>
        <time>2016-09-25T10:10:15Z</time>
      </trkpt>
      <trkpt lat="44.13934" lon="3.23411">
        <ele>889.7</ele>
        <time>2016-09-25T10:10:17Z</time>
      </trkpt>
      <trkpt lat="44.13936" lon="3.23395">
        <ele>888.7</ele>
        <time>2016-09-25T10:10:19Z</time>
      </trkpt>
      <trkpt lat="44.13937" lon="3.23379">
        <ele>889.3</ele>
        <time>2016-09-25T10:10:21Z</time>
      </trkpt>
      <trkpt lat="44.13933" lon="3.23368">
        <ele>889.9</ele>
        <time>2016-09-25T10:10:23Z</time>
      </trkpt>
      <trkpt lat="44.13926" lon="3.23361">
        <ele>889.8</ele>
        <time>2016-09-25T10:10:25Z</time>
      </trkpt>
      <trkpt lat="44.1392" lon="3.23351">
        <ele>889.8</ele>
        <time>2016-09-25T10:10:27Z</time>
      </trkpt>
      <trkpt lat="44.1392" lon="3.23337">
        <ele>890.1</ele>
        <time>2016-09-25T10:10:30Z</time>
      </trkpt>
      <trkpt lat="44.13922" lon="3.23328">
        <ele>890.3</ele>
        <time>2016-09-25T10:10:33Z</time>
      </trkpt>
      <trkpt lat="44.13925" lon="3.23318">
        <ele>890.3</ele>
        <time>2016-09-25T10:10:35Z</time>
      </trkpt>
      <trkpt lat="44.13927" lon="3.23307">
        <ele>890.5</ele>
        <time>2016-09-25T10:10:37Z</time>
      </trkpt>
      <trkpt lat="44.13929" lon="3.23297">
        <ele>890.5</ele>
        <time>2016-09-25T10:10:39Z</time>
      </trkpt>
      <trkpt lat="44.1393" lon="3.23286">
        <ele>890</ele>
        <time>2016-09-25T10:10:41Z</time>
      </trkpt>
      <trkpt lat="44.1393" lon="3.23275">
        <ele>890.2</ele>
        <time>2016-09-25T10:10:43Z</time>
      </trkpt>
      <trkpt lat="44.13933" lon="3.2326">
        <ele>890.3</ele>
        <time>2016-09-25T10:10:46Z</time>
      </trkpt>
      <trkpt lat="44.13938" lon="3.23247">
        <ele>890.3</ele>
        <time>2016-09-25T10:10:49Z</time>
      </trkpt>
      <trkpt lat="44.13943" lon="3.23238">
        <ele>889.1</ele>
        <time>2016-09-25T10:10:51Z</time>
      </trkpt>
      <trkpt lat="44.13947" lon="3.23228">
        <ele>888.4</ele>
        <time>2016-09-25T10:10:53Z</time>
      </trkpt>
      <trkpt lat="44.13954" lon="3.23218">
        <ele>888.4</ele>
        <time>2016-09-25T10:10:55Z</time>
      </trkpt>
      <trkpt lat="44.1396" lon="3.23209">
        <ele>888.2</ele>
        <time>2016-09-25T10:10:57Z</time>
      </trkpt>
      <trkpt lat="44.13968" lon="3.23198">
        <ele>886.7</ele>
        <time>2016-09-25T10:10:59Z</time>
      </trkpt>
      <trkpt lat="44.13974" lon="3.23189">
        <ele>885.5</ele>
        <time>2016-09-25T10:11:01Z</time>
      </trkpt>
      <trkpt lat="44.1398" lon="3.2318">
        <ele>883.7</ele>
        <time>2016-09-25T10:11:03Z</time>
      </trkpt>
      <trkpt lat="44.13986" lon="3.23171">
        <ele>881.7</ele>
        <time>2016-09-25T10:11:05Z</time>
      </trkpt>
      <trkpt lat="44.13992" lon="3.23161">
        <ele>881.4</ele>
        <time>2016-09-25T10:11:07Z</time>
      </trkpt>
      <trkpt lat="44.13997" lon="3.2315">
        <ele>880.6</ele>
        <time>2016-09-25T10:11:09Z</time>
      </trkpt>
      <trkpt lat="44.14002" lon="3.23139">
        <ele>880.8</ele>
        <time>2016-09-25T10:11:11Z</time>
      </trkpt>
      <trkpt lat="44.14003" lon="3.23126">
        <ele>880.9</ele>
        <time>2016-09-25T10:11:13Z</time>
      </trkpt>
      <trkpt lat="44.13999" lon="3.2311">
        <ele>883</ele>
        <time>2016-09-25T10:11:16Z</time>
      </trkpt>
      <trkpt lat="44.13996" lon="3.23094">
        <ele>884.4</ele>
        <time>2016-09-25T10:11:18Z</time>
      </trkpt>
      <trkpt lat="44.13992" lon="3.23074">
        <ele>885.1</ele>
        <time>2016-09-25T10:11:20Z</time>
      </trkpt>
      <trkpt lat="44.1399" lon="3.23064">
        <ele>885.6</ele>
        <time>2016-09-25T10:11:21Z</time>
      </trkpt>
      <trkpt lat="44.13987" lon="3.23055">
        <ele>886</ele>
        <time>2016-09-25T10:11:22Z</time>
      </trkpt>
      <trkpt lat="44.13985" lon="3.23045">
        <ele>886.3</ele>
        <time>2016-09-25T10:11:23Z</time>
      </trkpt>
      <trkpt lat="44.13982" lon="3.23036">
        <ele>886.4</ele>
        <time>2016-09-25T10:11:24Z</time>
      </trkpt>
      <trkpt lat="44.13982" lon="3.23016">
        <ele>886.6</ele>
        <time>2016-09-25T10:11:26Z</time>
      </trkpt>
      <trkpt lat="44.13988" lon="3.22999">
        <ele>886.7</ele>
        <time>2016-09-25T10:11:28Z</time>
      </trkpt>
      <trkpt lat="44.13993" lon="3.22986">
        <ele>886.7</ele>
        <time>2016-09-25T10:11:30Z</time>
      </trkpt>
      <trkpt lat="44.13998" lon="3.22977">
        <ele>886.6</ele>
        <time>2016-09-25T10:11:33Z</time>
      </trkpt>
      <trkpt lat="44.14002" lon="3.22967">
        <ele>886.5</ele>
        <time>2016-09-25T10:11:40Z</time>
      </trkpt>
      <trkpt lat="44.14" lon="3.2296">
        <ele>886.9</ele>
        <time>2016-09-25T10:11:47Z</time>
      </trkpt>
      <trkpt lat="44.13992" lon="3.22958">
        <ele>888.7</ele>
        <time>2016-09-25T10:14:03Z</time>
      </trkpt>
      <trkpt lat="44.13985" lon="3.22957">
        <ele>888.9</ele>
        <time>2016-09-25T10:14:07Z</time>
      </trkpt>
      <trkpt lat="44.13977" lon="3.22958">
        <ele>889</ele>
        <time>2016-09-25T10:14:12Z</time>
      </trkpt>
      <trkpt lat="44.13969" lon="3.22959">
        <ele>889</ele>
        <time>2016-09-25T10:14:18Z</time>
      </trkpt>
      <trkpt lat="44.13959" lon="3.22959">
        <ele>888.9</ele>
        <time>2016-09-25T10:14:21Z</time>
      </trkpt>
      <trkpt lat="44.13953" lon="3.22954">
        <ele>889.1</ele>
        <time>2016-09-25T10:14:24Z</time>
      </trkpt>
      <trkpt lat="44.13946" lon="3.22943">
        <ele>889.2</ele>
        <time>2016-09-25T10:14:28Z</time>
      </trkpt>
      <trkpt lat="44.13942" lon="3.22931">
        <ele>889</ele>
        <time>2016-09-25T10:14:32Z</time>
      </trkpt>
      <trkpt lat="44.1394" lon="3.22921">
        <ele>889.1</ele>
        <time>2016-09-25T10:14:35Z</time>
      </trkpt>
      <trkpt lat="44.1394" lon="3.22911">
        <ele>889.1</ele>
        <time>2016-09-25T10:14:39Z</time>
      </trkpt>
      <trkpt lat="44.1394" lon="3.229">
        <ele>889.1</ele>
        <time>2016-09-25T10:14:43Z</time>
      </trkpt>
      <trkpt lat="44.13936" lon="3.22891">
        <ele>889</ele>
        <time>2016-09-25T10:14:46Z</time>
      </trkpt>
      <trkpt lat="44.13932" lon="3.22882">
        <ele>889.1</ele>
        <time>2016-09-25T10:14:50Z</time>
      </trkpt>
      <trkpt lat="44.13931" lon="3.22871">
        <ele>889.1</ele>
        <time>2016-09-25T10:14:56Z</time>
      </trkpt>
      <trkpt lat="44.1393" lon="3.22867">
        <ele>889.1</ele>
        <time>2016-09-25T10:15:03Z</time>
      </trkpt>
      <trkpt lat="44.13928" lon="3.22857">
        <ele>890.4</ele>
        <time>2016-09-25T10:15:30Z</time>
      </trkpt>
      <trkpt lat="44.13928" lon="3.22856">
        <ele>890.4</ele>
        <time>2016-09-25T10:15:37Z</time>
      </trkpt>
      <trkpt lat="44.13922" lon="3.22847">
        <ele>889.2</ele>
        <time>2016-09-25T10:15:23Z</time>
      </trkpt>
      <trkpt lat="44.13916" lon="3.22839">
        <ele>889</ele>
        <time>2016-09-25T10:16:31Z</time>
      </trkpt>
      <trkpt lat="44.13909" lon="3.22829">
        <ele>888.9</ele>
        <time>2016-09-25T10:16:34Z</time>
      </trkpt>
      <trkpt lat="44.13902" lon="3.22822">
        <ele>888.7</ele>
        <time>2016-09-25T10:16:37Z</time>
      </trkpt>
      <trkpt lat="44.13893" lon="3.22816">
        <ele>888.2</ele>
        <time>2016-09-25T10:16:40Z</time>
      </trkpt>
      <trkpt lat="44.13885" lon="3.22814">
        <ele>887.9</ele>
        <time>2016-09-25T10:16:47Z</time>
      </trkpt>
      <trkpt lat="44.13884" lon="3.22812">
        <ele>887.5</ele>
        <time>2016-09-25T10:16:54Z</time>
      </trkpt>
      <trkpt lat="44.13878" lon="3.22818">
        <ele>887.4</ele>
        <time>2016-09-25T10:16:58Z</time>
      </trkpt>
      <trkpt lat="44.13869" lon="3.22814">
        <ele>887.2</ele>
        <time>2016-09-25T10:17:02Z</time>
      </trkpt>
      <trkpt lat="44.13862" lon="3.22812">
        <ele>887.1</ele>
        <time>2016-09-25T10:17:05Z</time>
      </trkpt>
      <trkpt lat="44.13854" lon="3.22813">
        <ele>887.1</ele>
        <time>2016-09-25T10:17:07Z</time>
      </trkpt>
      <trkpt lat="44.13851" lon="3.22813">
        <ele>887</ele>
        <time>2016-09-25T10:17:14Z</time>
      </trkpt>
      <trkpt lat="44.13845" lon="3.22813">
        <ele>886.3</ele>
        <time>2016-09-25T10:17:21Z</time>
      </trkpt>
      <trkpt lat="44.13841" lon="3.22817">
        <ele>885.8</ele>
        <time>2016-09-25T10:17:28Z</time>
      </trkpt>
      <trkpt lat="44.13837" lon="3.22825">
        <ele>885.7</ele>
        <time>2016-09-25T10:17:35Z</time>
      </trkpt>
      <trkpt lat="44.13833" lon="3.2283">
        <ele>885.4</ele>
        <time>2016-09-25T10:17:42Z</time>
      </trkpt>
      <trkpt lat="44.13827" lon="3.22838">
        <ele>885.1</ele>
        <time>2016-09-25T10:17:46Z</time>
      </trkpt>
      <trkpt lat="44.13823" lon="3.2285">
        <ele>885</ele>
        <time>2016-09-25T10:17:50Z</time>
      </trkpt>
      <trkpt lat="44.13818" lon="3.22859">
        <ele>884.9</ele>
        <time>2016-09-25T10:17:53Z</time>
      </trkpt>
      <trkpt lat="44.13812" lon="3.22867">
        <ele>884.9</ele>
        <time>2016-09-25T10:17:56Z</time>
      </trkpt>
      <trkpt lat="44.13802" lon="3.22874">
        <ele>885.1</ele>
        <time>2016-09-25T10:17:59Z</time>
      </trkpt>
      <trkpt lat="44.13795" lon="3.22878">
        <ele>885.2</ele>
        <time>2016-09-25T10:18:03Z</time>
      </trkpt>
      <trkpt lat="44.13784" lon="3.22878">
        <ele>885.8</ele>
        <time>2016-09-25T10:18:06Z</time>
      </trkpt>
      <trkpt lat="44.13775" lon="3.22878">
        <ele>885.8</ele>
        <time>2016-09-25T10:18:08Z</time>
      </trkpt>
      <trkpt lat="44.13767" lon="3.22881">
        <ele>886.3</ele>
        <time>2016-09-25T10:18:10Z</time>
      </trkpt>
      <trkpt lat="44.1376" lon="3.22886">
        <ele>886.5</ele>
        <time>2016-09-25T10:18:12Z</time>
      </trkpt>
      <trkpt lat="44.13752" lon="3.22884">
        <ele>886.7</ele>
        <time>2016-09-25T10:18:26Z</time>
      </trkpt>
      <trkpt lat="44.13749" lon="3.22883">
        <ele>886.7</ele>
        <time>2016-09-25T10:18:33Z</time>
      </trkpt>
      <trkpt lat="44.13747" lon="3.22873">
        <ele>886.3</ele>
        <time>2016-09-25T10:18:38Z</time>
      </trkpt>
      <trkpt lat="44.13746" lon="3.22866">
        <ele>886.2</ele>
        <time>2016-09-25T10:18:45Z</time>
      </trkpt>
      <trkpt lat="44.13746" lon="3.22865">
        <ele>887.1</ele>
        <time>2016-09-25T10:19:09Z</time>
      </trkpt>
      <trkpt lat="44.13747" lon="3.22862">
        <ele>885.1</ele>
        <time>2016-09-25T10:19:16Z</time>
      </trkpt>
      <trkpt lat="44.13747" lon="3.22859">
        <ele>884</ele>
        <time>2016-09-25T10:19:23Z</time>
      </trkpt>
      <trkpt lat="44.13748" lon="3.22851">
        <ele>883.8</ele>
        <time>2016-09-25T10:20:14Z</time>
      </trkpt>
      <trkpt lat="44.13748" lon="3.2285">
        <ele>883.9</ele>
        <time>2016-09-25T10:20:21Z</time>
      </trkpt>
      <trkpt lat="44.13743" lon="3.22851">
        <ele>883.2</ele>
        <time>2016-09-25T10:20:41Z</time>
      </trkpt>
      <trkpt lat="44.13742" lon="3.22848">
        <ele>882.9</ele>
        <time>2016-09-25T10:20:59Z</time>
      </trkpt>
      <trkpt lat="44.1374" lon="3.22849">
        <ele>882.2</ele>
        <time>2016-09-25T10:21:15Z</time>
      </trkpt>
      <trkpt lat="44.13743" lon="3.22863">
        <ele>882.6</ele>
        <time>2016-09-25T10:21:48Z</time>
      </trkpt>
      <trkpt lat="44.13746" lon="3.22871">
        <ele>883.7</ele>
        <time>2016-09-25T10:22:11Z</time>
      </trkpt>
      <trkpt lat="44.13744" lon="3.22874">
        <ele>884.4</ele>
        <time>2016-09-25T10:22:49Z</time>
      </trkpt>
      <trkpt lat="44.13741" lon="3.22886">
        <ele>884.2</ele>
        <time>2016-09-25T10:22:52Z</time>
      </trkpt>
      <trkpt lat="44.13735" lon="3.22893">
        <ele>883</ele>
        <time>2016-09-25T10:22:54Z</time>
      </trkpt>
      <trkpt lat="44.13729" lon="3.229">
        <ele>881.8</ele>
        <time>2016-09-25T10:22:56Z</time>
      </trkpt>
      <trkpt lat="44.13723" lon="3.22906">
        <ele>881.9</ele>
        <time>2016-09-25T10:22:59Z</time>
      </trkpt>
      <trkpt lat="44.13715" lon="3.22908">
        <ele>882</ele>
        <time>2016-09-25T10:23:03Z</time>
      </trkpt>
      <trkpt lat="44.13708" lon="3.22912">
        <ele>882.1</ele>
        <time>2016-09-25T10:23:06Z</time>
      </trkpt>
      <trkpt lat="44.13701" lon="3.22918">
        <ele>882.1</ele>
        <time>2016-09-25T10:23:10Z</time>
      </trkpt>
      <trkpt lat="44.13694" lon="3.22924">
        <ele>882</ele>
        <time>2016-09-25T10:23:15Z</time>
      </trkpt>
      <trkpt lat="44.13686" lon="3.22925">
        <ele>881.9</ele>
        <time>2016-09-25T10:23:19Z</time>
      </trkpt>
      <trkpt lat="44.13678" lon="3.22929">
        <ele>882</ele>
        <time>2016-09-25T10:23:24Z</time>
      </trkpt>
      <trkpt lat="44.13672" lon="3.22936">
        <ele>882.4</ele>
        <time>2016-09-25T10:23:30Z</time>
      </trkpt>
      <trkpt lat="44.13669" lon="3.2294">
        <ele>882.7</ele>
        <time>2016-09-25T10:23:37Z</time>
      </trkpt>
      <trkpt lat="44.13672" lon="3.22939">
        <ele>883.1</ele>
        <time>2016-09-25T10:23:44Z</time>
      </trkpt>
      <trkpt lat="44.13664" lon="3.2294">
        <ele>882.9</ele>
        <time>2016-09-25T10:24:04Z</time>
      </trkpt>
      <trkpt lat="44.13656" lon="3.22937">
        <ele>882.9</ele>
        <time>2016-09-25T10:24:07Z</time>
      </trkpt>
      <trkpt lat="44.13647" lon="3.22933">
        <ele>882.9</ele>
        <time>2016-09-25T10:24:11Z</time>
      </trkpt>
      <trkpt lat="44.13639" lon="3.22931">
        <ele>883.2</ele>
        <time>2016-09-25T10:24:15Z</time>
      </trkpt>
      <trkpt lat="44.1363" lon="3.22932">
        <ele>883.4</ele>
        <time>2016-09-25T10:24:19Z</time>
      </trkpt>
      <trkpt lat="44.13623" lon="3.22938">
        <ele>883.6</ele>
        <time>2016-09-25T10:24:23Z</time>
      </trkpt>
      <trkpt lat="44.13615" lon="3.22942">
        <ele>883.9</ele>
        <time>2016-09-25T10:24:29Z</time>
      </trkpt>
      <trkpt lat="44.13608" lon="3.22946">
        <ele>884.5</ele>
        <time>2016-09-25T10:24:36Z</time>
      </trkpt>
      <trkpt lat="44.13602" lon="3.22951">
        <ele>884.6</ele>
        <time>2016-09-25T10:24:43Z</time>
      </trkpt>
      <trkpt lat="44.13599" lon="3.22954">
        <ele>885.5</ele>
        <time>2016-09-25T10:24:50Z</time>
      </trkpt>
      <trkpt lat="44.13598" lon="3.22958">
        <ele>886.7</ele>
        <time>2016-09-25T10:24:57Z</time>
      </trkpt>
      <trkpt lat="44.13597" lon="3.22962">
        <ele>887.2</ele>
        <time>2016-09-25T10:25:04Z</time>
      </trkpt>
      <trkpt lat="44.13591" lon="3.22971">
        <ele>887.7</ele>
        <time>2016-09-25T10:25:09Z</time>
      </trkpt>
      <trkpt lat="44.13586" lon="3.22978">
        <ele>887.9</ele>
        <time>2016-09-25T10:25:14Z</time>
      </trkpt>
      <trkpt lat="44.13583" lon="3.2299">
        <ele>888.2</ele>
        <time>2016-09-25T10:25:19Z</time>
      </trkpt>
      <trkpt lat="44.1358" lon="3.22999">
        <ele>888.4</ele>
        <time>2016-09-25T10:25:25Z</time>
      </trkpt>
      <trkpt lat="44.13576" lon="3.23008">
        <ele>888.9</ele>
        <time>2016-09-25T10:25:32Z</time>
      </trkpt>
      <trkpt lat="44.13571" lon="3.23013">
        <ele>889.8</ele>
        <time>2016-09-25T10:25:39Z</time>
      </trkpt>
      <trkpt lat="44.13563" lon="3.23016">
        <ele>890.2</ele>
        <time>2016-09-25T10:25:42Z</time>
      </trkpt>
      <trkpt lat="44.13552" lon="3.23012">
        <ele>890.7</ele>
        <time>2016-09-25T10:25:46Z</time>
      </trkpt>
      <trkpt lat="44.13545" lon="3.23006">
        <ele>891.1</ele>
        <time>2016-09-25T10:25:50Z</time>
      </trkpt>
      <trkpt lat="44.13544" lon="3.22993">
        <ele>891.4</ele>
        <time>2016-09-25T10:25:54Z</time>
      </trkpt>
      <trkpt lat="44.13542" lon="3.2298">
        <ele>891.7</ele>
        <time>2016-09-25T10:25:57Z</time>
      </trkpt>
      <trkpt lat="44.13541" lon="3.22966">
        <ele>892</ele>
        <time>2016-09-25T10:26:00Z</time>
      </trkpt>
      <trkpt lat="44.13538" lon="3.22953">
        <ele>892.3</ele>
        <time>2016-09-25T10:26:03Z</time>
      </trkpt>
      <trkpt lat="44.1354" lon="3.22943">
        <ele>892.6</ele>
        <time>2016-09-25T10:26:07Z</time>
      </trkpt>
      <trkpt lat="44.13548" lon="3.22936">
        <ele>893</ele>
        <time>2016-09-25T10:26:12Z</time>
      </trkpt>
      <trkpt lat="44.13553" lon="3.22929">
        <ele>893.1</ele>
        <time>2016-09-25T10:26:16Z</time>
      </trkpt>
      <trkpt lat="44.13556" lon="3.22919">
        <ele>893.5</ele>
        <time>2016-09-25T10:26:21Z</time>
      </trkpt>
      <trkpt lat="44.13562" lon="3.2291">
        <ele>894.2</ele>
        <time>2016-09-25T10:26:27Z</time>
      </trkpt>
      <trkpt lat="44.13564" lon="3.229">
        <ele>895.3</ele>
        <time>2016-09-25T10:26:33Z</time>
      </trkpt>
      <trkpt lat="44.13562" lon="3.22889">
        <ele>896.2</ele>
        <time>2016-09-25T10:26:40Z</time>
      </trkpt>
      <trkpt lat="44.13562" lon="3.22879">
        <ele>897.1</ele>
        <time>2016-09-25T10:26:45Z</time>
      </trkpt>
      <trkpt lat="44.13563" lon="3.22868">
        <ele>898</ele>
        <time>2016-09-25T10:26:49Z</time>
      </trkpt>
      <trkpt lat="44.13559" lon="3.22858">
        <ele>898.5</ele>
        <time>2016-09-25T10:26:52Z</time>
      </trkpt>
      <trkpt lat="44.13556" lon="3.22847">
        <ele>898.9</ele>
        <time>2016-09-25T10:26:54Z</time>
      </trkpt>
      <trkpt lat="44.13551" lon="3.22838">
        <ele>899.2</ele>
        <time>2016-09-25T10:26:57Z</time>
      </trkpt>
      <trkpt lat="44.13548" lon="3.22837">
        <ele>899.5</ele>
        <time>2016-09-25T10:27:04Z</time>
      </trkpt>
      <trkpt lat="44.13552" lon="3.22845">
        <ele>899.7</ele>
        <time>2016-09-25T10:27:31Z</time>
      </trkpt>
      <trkpt lat="44.13554" lon="3.22845">
        <ele>900</ele>
        <time>2016-09-25T10:27:38Z</time>
      </trkpt>
      <trkpt lat="44.13555" lon="3.22846">
        <ele>900.7</ele>
        <time>2016-09-25T10:27:47Z</time>
      </trkpt>
      <trkpt lat="44.1355" lon="3.22844">
        <ele>901</ele>
        <time>2016-09-25T10:27:54Z</time>
      </trkpt>
      <trkpt lat="44.13545" lon="3.22838">
        <ele>903</ele>
        <time>2016-09-25T10:29:18Z</time>
      </trkpt>
      <trkpt lat="44.13545" lon="3.2283">
        <ele>902.9</ele>
        <time>2016-09-25T10:29:34Z</time>
      </trkpt>
      <trkpt lat="44.13547" lon="3.2282">
        <ele>902.9</ele>
        <time>2016-09-25T10:29:36Z</time>
      </trkpt>
      <trkpt lat="44.13546" lon="3.22816">
        <ele>902.9</ele>
        <time>2016-09-25T10:29:43Z</time>
      </trkpt>
      <trkpt lat="44.13546" lon="3.22821">
        <ele>902.8</ele>
        <time>2016-09-25T10:29:50Z</time>
      </trkpt>
      <trkpt lat="44.13542" lon="3.2283">
        <ele>902.6</ele>
        <time>2016-09-25T10:29:57Z</time>
      </trkpt>
      <trkpt lat="44.13542" lon="3.22834">
        <ele>902.4</ele>
        <time>2016-09-25T10:30:04Z</time>
      </trkpt>
      <trkpt lat="44.13537" lon="3.22832">
        <ele>902.9</ele>
        <time>2016-09-25T10:30:34Z</time>
      </trkpt>
      <trkpt lat="44.13531" lon="3.2283">
        <ele>903.2</ele>
        <time>2016-09-25T10:30:41Z</time>
      </trkpt>
      <trkpt lat="44.13528" lon="3.22826">
        <ele>903.9</ele>
        <time>2016-09-25T10:31:15Z</time>
      </trkpt>
      <trkpt lat="44.1353" lon="3.2283">
        <ele>903.3</ele>
        <time>2016-09-25T10:31:27Z</time>
      </trkpt>
      <trkpt lat="44.13524" lon="3.22837">
        <ele>903</ele>
        <time>2016-09-25T10:31:30Z</time>
      </trkpt>
      <trkpt lat="44.13518" lon="3.22844">
        <ele>902.7</ele>
        <time>2016-09-25T10:31:32Z</time>
      </trkpt>
      <trkpt lat="44.13507" lon="3.22846">
        <ele>902.2</ele>
        <time>2016-09-25T10:31:35Z</time>
      </trkpt>
      <trkpt lat="44.13501" lon="3.22855">
        <ele>899.1</ele>
        <time>2016-09-25T10:31:37Z</time>
      </trkpt>
      <trkpt lat="44.13494" lon="3.22868">
        <ele>895.3</ele>
        <time>2016-09-25T10:31:39Z</time>
      </trkpt>
      <trkpt lat="44.13488" lon="3.2288">
        <ele>893.7</ele>
        <time>2016-09-25T10:31:41Z</time>
      </trkpt>
      <trkpt lat="44.13479" lon="3.22893">
        <ele>891.1</ele>
        <time>2016-09-25T10:31:43Z</time>
      </trkpt>
      <trkpt lat="44.13472" lon="3.22903">
        <ele>888.3</ele>
        <time>2016-09-25T10:31:45Z</time>
      </trkpt>
      <trkpt lat="44.13466" lon="3.22913">
        <ele>886.8</ele>
        <time>2016-09-25T10:31:47Z</time>
      </trkpt>
      <trkpt lat="44.13462" lon="3.22924">
        <ele>886.4</ele>
        <time>2016-09-25T10:31:51Z</time>
      </trkpt>
      <trkpt lat="44.13457" lon="3.22935">
        <ele>885.8</ele>
        <time>2016-09-25T10:31:55Z</time>
      </trkpt>
      <trkpt lat="44.1345" lon="3.22945">
        <ele>885.6</ele>
        <time>2016-09-25T10:31:57Z</time>
      </trkpt>
      <trkpt lat="44.13443" lon="3.22954">
        <ele>883</ele>
        <time>2016-09-25T10:31:59Z</time>
      </trkpt>
      <trkpt lat="44.13437" lon="3.22965">
        <ele>881.1</ele>
        <time>2016-09-25T10:32:01Z</time>
      </trkpt>
      <trkpt lat="44.13436" lon="3.22979">
        <ele>880.9</ele>
        <time>2016-09-25T10:32:03Z</time>
      </trkpt>
      <trkpt lat="44.13438" lon="3.22994">
        <ele>879.6</ele>
        <time>2016-09-25T10:32:05Z</time>
      </trkpt>
      <trkpt lat="44.13439" lon="3.23006">
        <ele>877.3</ele>
        <time>2016-09-25T10:32:07Z</time>
      </trkpt>
      <trkpt lat="44.13438" lon="3.2302">
        <ele>876.2</ele>
        <time>2016-09-25T10:32:09Z</time>
      </trkpt>
      <trkpt lat="44.13434" lon="3.2303">
        <ele>876.1</ele>
        <time>2016-09-25T10:32:11Z</time>
      </trkpt>
      <trkpt lat="44.13427" lon="3.23039">
        <ele>875</ele>
        <time>2016-09-25T10:32:13Z</time>
      </trkpt>
      <trkpt lat="44.1342" lon="3.23045">
        <ele>875.1</ele>
        <time>2016-09-25T10:32:15Z</time>
      </trkpt>
      <trkpt lat="44.13412" lon="3.23056">
        <ele>872.5</ele>
        <time>2016-09-25T10:32:17Z</time>
      </trkpt>
      <trkpt lat="44.13406" lon="3.2307">
        <ele>870</ele>
        <time>2016-09-25T10:32:19Z</time>
      </trkpt>
      <trkpt lat="44.13398" lon="3.2308">
        <ele>869.2</ele>
        <time>2016-09-25T10:32:21Z</time>
      </trkpt>
      <trkpt lat="44.13391" lon="3.23095">
        <ele>869.5</ele>
        <time>2016-09-25T10:32:23Z</time>
      </trkpt>
      <trkpt lat="44.13387" lon="3.23113">
        <ele>869.4</ele>
        <time>2016-09-25T10:32:25Z</time>
      </trkpt>
      <trkpt lat="44.13385" lon="3.23125">
        <ele>868.8</ele>
        <time>2016-09-25T10:32:27Z</time>
      </trkpt>
      <trkpt lat="44.13382" lon="3.2314">
        <ele>868.1</ele>
        <time>2016-09-25T10:32:29Z</time>
      </trkpt>
      <trkpt lat="44.13382" lon="3.23154">
        <ele>868.1</ele>
        <time>2016-09-25T10:32:31Z</time>
      </trkpt>
      <trkpt lat="44.13381" lon="3.23173">
        <ele>868</ele>
        <time>2016-09-25T10:32:33Z</time>
      </trkpt>
      <trkpt lat="44.13374" lon="3.23189">
        <ele>867.5</ele>
        <time>2016-09-25T10:32:35Z</time>
      </trkpt>
      <trkpt lat="44.13365" lon="3.23195">
        <ele>865.8</ele>
        <time>2016-09-25T10:32:37Z</time>
      </trkpt>
      <trkpt lat="44.13358" lon="3.23199">
        <ele>864.8</ele>
        <time>2016-09-25T10:32:39Z</time>
      </trkpt>
      <trkpt lat="44.13352" lon="3.23206">
        <ele>865.2</ele>
        <time>2016-09-25T10:32:41Z</time>
      </trkpt>
      <trkpt lat="44.13346" lon="3.23213">
        <ele>865.4</ele>
        <time>2016-09-25T10:32:43Z</time>
      </trkpt>
      <trkpt lat="44.13343" lon="3.23215">
        <ele>865.8</ele>
        <time>2016-09-25T10:32:50Z</time>
      </trkpt>
      <trkpt lat="44.13342" lon="3.23218">
        <ele>866</ele>
        <time>2016-09-25T10:32:57Z</time>
      </trkpt>
      <trkpt lat="44.13342" lon="3.23222">
        <ele>866.1</ele>
        <time>2016-09-25T10:33:04Z</time>
      </trkpt>
      <trkpt lat="44.1334" lon="3.23222">
        <ele>866.3</ele>
        <time>2016-09-25T10:33:11Z</time>
      </trkpt>
      <trkpt lat="44.13331" lon="3.23221">
        <ele>866.2</ele>
        <time>2016-09-25T10:33:15Z</time>
      </trkpt>
      <trkpt lat="44.13323" lon="3.23223">
        <ele>866.2</ele>
        <time>2016-09-25T10:33:19Z</time>
      </trkpt>
      <trkpt lat="44.13314" lon="3.23228">
        <ele>866.1</ele>
        <time>2016-09-25T10:33:23Z</time>
      </trkpt>
      <trkpt lat="44.13305" lon="3.23237">
        <ele>866.1</ele>
        <time>2016-09-25T10:33:26Z</time>
      </trkpt>
      <trkpt lat="44.13304" lon="3.23249">
        <ele>866.2</ele>
        <time>2016-09-25T10:33:29Z</time>
      </trkpt>
      <trkpt lat="44.13301" lon="3.2326">
        <ele>866.3</ele>
        <time>2016-09-25T10:33:32Z</time>
      </trkpt>
      <trkpt lat="44.13293" lon="3.23263">
        <ele>866.5</ele>
        <time>2016-09-25T10:33:36Z</time>
      </trkpt>
      <trkpt lat="44.13289" lon="3.23254">
        <ele>866.7</ele>
        <time>2016-09-25T10:33:39Z</time>
      </trkpt>
      <trkpt lat="44.13284" lon="3.23244">
        <ele>867</ele>
        <time>2016-09-25T10:33:43Z</time>
      </trkpt>
      <trkpt lat="44.1328" lon="3.23234">
        <ele>867.3</ele>
        <time>2016-09-25T10:33:47Z</time>
      </trkpt>
      <trkpt lat="44.13273" lon="3.23233">
        <ele>868.5</ele>
        <time>2016-09-25T10:34:01Z</time>
      </trkpt>
      <trkpt lat="44.13269" lon="3.23233">
        <ele>868.8</ele>
        <time>2016-09-25T10:34:08Z</time>
      </trkpt>
      <trkpt lat="44.13265" lon="3.23232">
        <ele>868.7</ele>
        <time>2016-09-25T10:34:15Z</time>
      </trkpt>
      <trkpt lat="44.13257" lon="3.23234">
        <ele>869.8</ele>
        <time>2016-09-25T10:34:29Z</time>
      </trkpt>
      <trkpt lat="44.13252" lon="3.23236">
        <ele>870.7</ele>
        <time>2016-09-25T10:34:36Z</time>
      </trkpt>
      <trkpt lat="44.13247" lon="3.23235">
        <ele>871</ele>
        <time>2016-09-25T10:34:43Z</time>
      </trkpt>
      <trkpt lat="44.13244" lon="3.23233">
        <ele>871.6</ele>
        <time>2016-09-25T10:34:50Z</time>
      </trkpt>
      <trkpt lat="44.13239" lon="3.23235">
        <ele>872.7</ele>
        <time>2016-09-25T10:34:57Z</time>
      </trkpt>
      <trkpt lat="44.13235" lon="3.23242">
        <ele>873.8</ele>
        <time>2016-09-25T10:35:04Z</time>
      </trkpt>
      <trkpt lat="44.13233" lon="3.23247">
        <ele>874.8</ele>
        <time>2016-09-25T10:35:11Z</time>
      </trkpt>
      <trkpt lat="44.13226" lon="3.23254">
        <ele>875.5</ele>
        <time>2016-09-25T10:35:17Z</time>
      </trkpt>
      <trkpt lat="44.13219" lon="3.23262">
        <ele>876</ele>
        <time>2016-09-25T10:35:21Z</time>
      </trkpt>
      <trkpt lat="44.13213" lon="3.2327">
        <ele>877</ele>
        <time>2016-09-25T10:35:27Z</time>
      </trkpt>
      <trkpt lat="44.13206" lon="3.23275">
        <ele>877.8</ele>
        <time>2016-09-25T10:35:32Z</time>
      </trkpt>
      <trkpt lat="44.13198" lon="3.23279">
        <ele>878.2</ele>
        <time>2016-09-25T10:35:35Z</time>
      </trkpt>
      <trkpt lat="44.13189" lon="3.23281">
        <ele>878.6</ele>
        <time>2016-09-25T10:35:38Z</time>
      </trkpt>
      <trkpt lat="44.13181" lon="3.23282">
        <ele>880.2</ele>
        <time>2016-09-25T10:35:40Z</time>
      </trkpt>
      <trkpt lat="44.13172" lon="3.23285">
        <ele>880.9</ele>
        <time>2016-09-25T10:35:42Z</time>
      </trkpt>
      <trkpt lat="44.1316" lon="3.23286">
        <ele>880.1</ele>
        <time>2016-09-25T10:35:44Z</time>
      </trkpt>
      <trkpt lat="44.13151" lon="3.2329">
        <ele>878.6</ele>
        <time>2016-09-25T10:35:46Z</time>
      </trkpt>
      <trkpt lat="44.13144" lon="3.23299">
        <ele>877.8</ele>
        <time>2016-09-25T10:35:48Z</time>
      </trkpt>
      <trkpt lat="44.13139" lon="3.23306">
        <ele>877.4</ele>
        <time>2016-09-25T10:35:50Z</time>
      </trkpt>
      <trkpt lat="44.13133" lon="3.23313">
        <ele>877.7</ele>
        <time>2016-09-25T10:35:52Z</time>
      </trkpt>
      <trkpt lat="44.13127" lon="3.2332">
        <ele>878</ele>
        <time>2016-09-25T10:35:54Z</time>
      </trkpt>
      <trkpt lat="44.13121" lon="3.23328">
        <ele>878.9</ele>
        <time>2016-09-25T10:35:56Z</time>
      </trkpt>
      <trkpt lat="44.13114" lon="3.23338">
        <ele>879.6</ele>
        <time>2016-09-25T10:35:58Z</time>
      </trkpt>
      <trkpt lat="44.13106" lon="3.23346">
        <ele>879.4</ele>
        <time>2016-09-25T10:36:00Z</time>
      </trkpt>
      <trkpt lat="44.13098" lon="3.23355">
        <ele>879.3</ele>
        <time>2016-09-25T10:36:03Z</time>
      </trkpt>
      <trkpt lat="44.13095" lon="3.23358">
        <ele>879</ele>
        <time>2016-09-25T10:36:10Z</time>
      </trkpt>
      <trkpt lat="44.13093" lon="3.23364">
        <ele>877.8</ele>
        <time>2016-09-25T10:36:43Z</time>
      </trkpt>
      <trkpt lat="44.13088" lon="3.23375">
        <ele>877.3</ele>
        <time>2016-09-25T10:36:48Z</time>
      </trkpt>
      <trkpt lat="44.1308" lon="3.23383">
        <ele>877.1</ele>
        <time>2016-09-25T10:36:52Z</time>
      </trkpt>
      <trkpt lat="44.13071" lon="3.23388">
        <ele>877</ele>
        <time>2016-09-25T10:36:55Z</time>
      </trkpt>
      <trkpt lat="44.13062" lon="3.23392">
        <ele>877</ele>
        <time>2016-09-25T10:36:58Z</time>
      </trkpt>
      <trkpt lat="44.13053" lon="3.23395">
        <ele>877.1</ele>
        <time>2016-09-25T10:37:01Z</time>
      </trkpt>
      <trkpt lat="44.13045" lon="3.23397">
        <ele>877.2</ele>
        <time>2016-09-25T10:37:04Z</time>
      </trkpt>
      <trkpt lat="44.13037" lon="3.23396">
        <ele>877.3</ele>
        <time>2016-09-25T10:37:08Z</time>
      </trkpt>
      <trkpt lat="44.13028" lon="3.23397">
        <ele>877.5</ele>
        <time>2016-09-25T10:37:11Z</time>
      </trkpt>
      <trkpt lat="44.13019" lon="3.23399">
        <ele>877.3</ele>
        <time>2016-09-25T10:37:13Z</time>
      </trkpt>
      <trkpt lat="44.13012" lon="3.23403">
        <ele>877.1</ele>
        <time>2016-09-25T10:37:15Z</time>
      </trkpt>
      <trkpt lat="44.13005" lon="3.23407">
        <ele>876.6</ele>
        <time>2016-09-25T10:37:18Z</time>
      </trkpt>
      <trkpt lat="44.12998" lon="3.23412">
        <ele>876.2</ele>
        <time>2016-09-25T10:37:21Z</time>
      </trkpt>
      <trkpt lat="44.12991" lon="3.23418">
        <ele>875.8</ele>
        <time>2016-09-25T10:37:24Z</time>
      </trkpt>
      <trkpt lat="44.12986" lon="3.23428">
        <ele>875.3</ele>
        <time>2016-09-25T10:37:28Z</time>
      </trkpt>
      <trkpt lat="44.12981" lon="3.23437">
        <ele>875</ele>
        <time>2016-09-25T10:37:31Z</time>
      </trkpt>
      <trkpt lat="44.12977" lon="3.23443">
        <ele>874.5</ele>
        <time>2016-09-25T10:37:38Z</time>
      </trkpt>
      <trkpt lat="44.12971" lon="3.2345">
        <ele>874.4</ele>
        <time>2016-09-25T10:37:45Z</time>
      </trkpt>
      <trkpt lat="44.12964" lon="3.23458">
        <ele>874.3</ele>
        <time>2016-09-25T10:37:49Z</time>
      </trkpt>
      <trkpt lat="44.12957" lon="3.23464">
        <ele>874.1</ele>
        <time>2016-09-25T10:37:51Z</time>
      </trkpt>
      <trkpt lat="44.1295" lon="3.23472">
        <ele>873.5</ele>
        <time>2016-09-25T10:37:53Z</time>
      </trkpt>
      <trkpt lat="44.12941" lon="3.23482">
        <ele>872.1</ele>
        <time>2016-09-25T10:37:55Z</time>
      </trkpt>
      <trkpt lat="44.12931" lon="3.2349">
        <ele>869.5</ele>
        <time>2016-09-25T10:37:57Z</time>
      </trkpt>
      <trkpt lat="44.12924" lon="3.235">
        <ele>868.2</ele>
        <time>2016-09-25T10:37:59Z</time>
      </trkpt>
      <trkpt lat="44.12914" lon="3.23509">
        <ele>867</ele>
        <time>2016-09-25T10:38:01Z</time>
      </trkpt>
      <trkpt lat="44.12904" lon="3.23513">
        <ele>866.2</ele>
        <time>2016-09-25T10:38:03Z</time>
      </trkpt>
      <trkpt lat="44.12893" lon="3.23518">
        <ele>865.4</ele>
        <time>2016-09-25T10:38:05Z</time>
      </trkpt>
      <trkpt lat="44.12882" lon="3.23522">
        <ele>864.7</ele>
        <time>2016-09-25T10:38:07Z</time>
      </trkpt>
      <trkpt lat="44.12871" lon="3.23522">
        <ele>864</ele>
        <time>2016-09-25T10:38:09Z</time>
      </trkpt>
      <trkpt lat="44.12862" lon="3.23525">
        <ele>863.3</ele>
        <time>2016-09-25T10:38:11Z</time>
      </trkpt>
      <trkpt lat="44.12852" lon="3.23531">
        <ele>861.9</ele>
        <time>2016-09-25T10:38:13Z</time>
      </trkpt>
      <trkpt lat="44.12843" lon="3.23541">
        <ele>860.8</ele>
        <time>2016-09-25T10:38:15Z</time>
      </trkpt>
      <trkpt lat="44.12833" lon="3.23548">
        <ele>860.2</ele>
        <time>2016-09-25T10:38:17Z</time>
      </trkpt>
      <trkpt lat="44.12823" lon="3.23555">
        <ele>860</ele>
        <time>2016-09-25T10:38:19Z</time>
      </trkpt>
      <trkpt lat="44.12816" lon="3.23563">
        <ele>859.1</ele>
        <time>2016-09-25T10:38:21Z</time>
      </trkpt>
      <trkpt lat="44.12808" lon="3.23572">
        <ele>858.1</ele>
        <time>2016-09-25T10:38:23Z</time>
      </trkpt>
      <trkpt lat="44.12801" lon="3.23579">
        <ele>855.5</ele>
        <time>2016-09-25T10:38:25Z</time>
      </trkpt>
      <trkpt lat="44.12793" lon="3.23586">
        <ele>854.1</ele>
        <time>2016-09-25T10:38:27Z</time>
      </trkpt>
      <trkpt lat="44.12784" lon="3.23593">
        <ele>853.7</ele>
        <time>2016-09-25T10:38:30Z</time>
      </trkpt>
      <trkpt lat="44.12777" lon="3.23596">
        <ele>853</ele>
        <time>2016-09-25T10:38:34Z</time>
      </trkpt>
      <trkpt lat="44.12776" lon="3.23596">
        <ele>851.5</ele>
        <time>2016-09-25T10:39:01Z</time>
      </trkpt>
      <trkpt lat="44.1277" lon="3.23598">
        <ele>850.6</ele>
        <time>2016-09-25T10:39:13Z</time>
      </trkpt>
      <trkpt lat="44.12763" lon="3.23602">
        <ele>849.7</ele>
        <time>2016-09-25T10:39:18Z</time>
      </trkpt>
      <trkpt lat="44.12756" lon="3.23607">
        <ele>848.4</ele>
        <time>2016-09-25T10:39:24Z</time>
      </trkpt>
      <trkpt lat="44.12749" lon="3.23618">
        <ele>844.3</ele>
        <time>2016-09-25T10:41:03Z</time>
      </trkpt>
      <trkpt lat="44.12746" lon="3.23618">
        <ele>841.9</ele>
        <time>2016-09-25T10:41:19Z</time>
      </trkpt>
      <trkpt lat="44.12746" lon="3.23618">
        <ele>840.3</ele>
        <time>2016-09-25T10:41:26Z</time>
      </trkpt>
      <trkpt lat="44.12744" lon="3.23622">
        <ele>836.8</ele>
        <time>2016-09-25T10:41:20Z</time>
      </trkpt>
      <trkpt lat="44.12741" lon="3.23621">
        <ele>836.8</ele>
        <time>2016-09-25T10:42:32Z</time>
      </trkpt>
      <trkpt lat="44.12738" lon="3.23623">
        <ele>837.2</ele>
        <time>2016-09-25T10:43:03Z</time>
      </trkpt>
      <trkpt lat="44.1273" lon="3.23624">
        <ele>837.1</ele>
        <time>2016-09-25T10:43:06Z</time>
      </trkpt>
      <trkpt lat="44.12722" lon="3.23628">
        <ele>836.6</ele>
        <time>2016-09-25T10:43:09Z</time>
      </trkpt>
      <trkpt lat="44.12714" lon="3.23629">
        <ele>835.8</ele>
        <time>2016-09-25T10:43:13Z</time>
      </trkpt>
      <trkpt lat="44.12706" lon="3.23634">
        <ele>834.5</ele>
        <time>2016-09-25T10:43:19Z</time>
      </trkpt>
      <trkpt lat="44.127" lon="3.23642">
        <ele>834.1</ele>
        <time>2016-09-25T10:43:23Z</time>
      </trkpt>
      <trkpt lat="44.12689" lon="3.23647">
        <ele>833.5</ele>
        <time>2016-09-25T10:43:27Z</time>
      </trkpt>
      <trkpt lat="44.12682" lon="3.2365">
        <ele>833.1</ele>
        <time>2016-09-25T10:43:29Z</time>
      </trkpt>
      <trkpt lat="44.12672" lon="3.23654">
        <ele>828.4</ele>
        <time>2016-09-25T10:43:31Z</time>
      </trkpt>
      <trkpt lat="44.12664" lon="3.23659">
        <ele>824.8</ele>
        <time>2016-09-25T10:43:33Z</time>
      </trkpt>
      <trkpt lat="44.12658" lon="3.23666">
        <ele>824.4</ele>
        <time>2016-09-25T10:43:35Z</time>
      </trkpt>
      <trkpt lat="44.12651" lon="3.23673">
        <ele>822.1</ele>
        <time>2016-09-25T10:43:37Z</time>
      </trkpt>
      <trkpt lat="44.12644" lon="3.23679">
        <ele>820.2</ele>
        <time>2016-09-25T10:43:39Z</time>
      </trkpt>
      <trkpt lat="44.12637" lon="3.2368">
        <ele>819.7</ele>
        <time>2016-09-25T10:43:42Z</time>
      </trkpt>
      <trkpt lat="44.12629" lon="3.23687">
        <ele>819</ele>
        <time>2016-09-25T10:43:46Z</time>
      </trkpt>
      <trkpt lat="44.12624" lon="3.23691">
        <ele>817.8</ele>
        <time>2016-09-25T10:43:53Z</time>
      </trkpt>
      <trkpt lat="44.12622" lon="3.23694">
        <ele>816.9</ele>
        <time>2016-09-25T10:44:00Z</time>
      </trkpt>
      <trkpt lat="44.12619" lon="3.23693">
        <ele>816</ele>
        <time>2016-09-25T10:44:07Z</time>
      </trkpt>
      <trkpt lat="44.12616" lon="3.2369">
        <ele>814.6</ele>
        <time>2016-09-25T10:44:14Z</time>
      </trkpt>
      <trkpt lat="44.12619" lon="3.23679">
        <ele>813.6</ele>
        <time>2016-09-25T10:44:18Z</time>
      </trkpt>
      <trkpt lat="44.12616" lon="3.23673">
        <ele>811.3</ele>
        <time>2016-09-25T10:44:25Z</time>
      </trkpt>
      <trkpt lat="44.12608" lon="3.23675">
        <ele>810.4</ele>
        <time>2016-09-25T10:44:28Z</time>
      </trkpt>
      <trkpt lat="44.12599" lon="3.23675">
        <ele>809.4</ele>
        <time>2016-09-25T10:44:31Z</time>
      </trkpt>
      <trkpt lat="44.12593" lon="3.23681">
        <ele>808.5</ele>
        <time>2016-09-25T10:44:34Z</time>
      </trkpt>
      <trkpt lat="44.12586" lon="3.23689">
        <ele>807.4</ele>
        <time>2016-09-25T10:44:37Z</time>
      </trkpt>
      <trkpt lat="44.12582" lon="3.23701">
        <ele>806.2</ele>
        <time>2016-09-25T10:44:40Z</time>
      </trkpt>
      <trkpt lat="44.12578" lon="3.23709">
        <ele>804.1</ele>
        <time>2016-09-25T10:44:45Z</time>
      </trkpt>
      <trkpt lat="44.12576" lon="3.23718">
        <ele>801.3</ele>
        <time>2016-09-25T10:44:52Z</time>
      </trkpt>
      <trkpt lat="44.12573" lon="3.23722">
        <ele>798.6</ele>
        <time>2016-09-25T10:44:59Z</time>
      </trkpt>
      <trkpt lat="44.1257" lon="3.23726">
        <ele>797.1</ele>
        <time>2016-09-25T10:45:06Z</time>
      </trkpt>
      <trkpt lat="44.12567" lon="3.23731">
        <ele>795.8</ele>
        <time>2016-09-25T10:45:13Z</time>
      </trkpt>
      <trkpt lat="44.12563" lon="3.23738">
        <ele>793.9</ele>
        <time>2016-09-25T10:45:20Z</time>
      </trkpt>
      <trkpt lat="44.12559" lon="3.23749">
        <ele>791.8</ele>
        <time>2016-09-25T10:45:27Z</time>
      </trkpt>
      <trkpt lat="44.12555" lon="3.23759">
        <ele>790.3</ele>
        <time>2016-09-25T10:45:32Z</time>
      </trkpt>
      <trkpt lat="44.12552" lon="3.23771">
        <ele>789</ele>
        <time>2016-09-25T10:45:36Z</time>
      </trkpt>
      <trkpt lat="44.12549" lon="3.23782">
        <ele>788.1</ele>
        <time>2016-09-25T10:45:38Z</time>
      </trkpt>
      <trkpt lat="44.12549" lon="3.23792">
        <ele>785.3</ele>
        <time>2016-09-25T10:45:45Z</time>
      </trkpt>
      <trkpt lat="44.12548" lon="3.23797">
        <ele>783.4</ele>
        <time>2016-09-25T10:45:52Z</time>
      </trkpt>
      <trkpt lat="44.12543" lon="3.23805">
        <ele>781.7</ele>
        <time>2016-09-25T10:45:58Z</time>
      </trkpt>
      <trkpt lat="44.12538" lon="3.23815">
        <ele>780.7</ele>
        <time>2016-09-25T10:46:01Z</time>
      </trkpt>
      <trkpt lat="44.12532" lon="3.23823">
        <ele>779.4</ele>
        <time>2016-09-25T10:46:05Z</time>
      </trkpt>
      <trkpt lat="44.12526" lon="3.23829">
        <ele>778.1</ele>
        <time>2016-09-25T10:46:09Z</time>
      </trkpt>
      <trkpt lat="44.12521" lon="3.23837">
        <ele>776.1</ele>
        <time>2016-09-25T10:46:15Z</time>
      </trkpt>
      <trkpt lat="44.12517" lon="3.23848">
        <ele>774.1</ele>
        <time>2016-09-25T10:46:22Z</time>
      </trkpt>
      <trkpt lat="44.12515" lon="3.23857">
        <ele>772.1</ele>
        <time>2016-09-25T10:46:29Z</time>
      </trkpt>
      <trkpt lat="44.12511" lon="3.23868">
        <ele>770.8</ele>
        <time>2016-09-25T10:46:33Z</time>
      </trkpt>
      <trkpt lat="44.12506" lon="3.23876">
        <ele>769.9</ele>
        <time>2016-09-25T10:46:36Z</time>
      </trkpt>
      <trkpt lat="44.125" lon="3.23887">
        <ele>768.6</ele>
        <time>2016-09-25T10:46:40Z</time>
      </trkpt>
      <trkpt lat="44.12496" lon="3.23901">
        <ele>767.5</ele>
        <time>2016-09-25T10:46:43Z</time>
      </trkpt>
      <trkpt lat="44.12494" lon="3.23911">
        <ele>763.9</ele>
        <time>2016-09-25T10:46:45Z</time>
      </trkpt>
      <trkpt lat="44.12496" lon="3.23924">
        <ele>760.7</ele>
        <time>2016-09-25T10:46:48Z</time>
      </trkpt>
      <trkpt lat="44.12502" lon="3.23934">
        <ele>760</ele>
        <time>2016-09-25T10:46:51Z</time>
      </trkpt>
      <trkpt lat="44.12509" lon="3.23938">
        <ele>759.3</ele>
        <time>2016-09-25T10:46:54Z</time>
      </trkpt>
      <trkpt lat="44.12518" lon="3.2394">
        <ele>757.9</ele>
        <time>2016-09-25T10:46:59Z</time>
      </trkpt>
      <trkpt lat="44.12525" lon="3.23939">
        <ele>757.4</ele>
        <time>2016-09-25T10:47:01Z</time>
      </trkpt>
      <trkpt lat="44.12534" lon="3.23935">
        <ele>756.5</ele>
        <time>2016-09-25T10:47:04Z</time>
      </trkpt>
      <trkpt lat="44.12543" lon="3.23933">
        <ele>755.3</ele>
        <time>2016-09-25T10:47:08Z</time>
      </trkpt>
      <trkpt lat="44.12551" lon="3.23929">
        <ele>754.1</ele>
        <time>2016-09-25T10:47:13Z</time>
      </trkpt>
      <trkpt lat="44.12558" lon="3.23929">
        <ele>753.5</ele>
        <time>2016-09-25T10:47:17Z</time>
      </trkpt>
      <trkpt lat="44.12566" lon="3.2393">
        <ele>753.2</ele>
        <time>2016-09-25T10:47:20Z</time>
      </trkpt>
      <trkpt lat="44.12574" lon="3.23933">
        <ele>753.1</ele>
        <time>2016-09-25T10:47:22Z</time>
      </trkpt>
      <trkpt lat="44.12582" lon="3.23934">
        <ele>752.9</ele>
        <time>2016-09-25T10:47:24Z</time>
      </trkpt>
      <trkpt lat="44.1259" lon="3.23934">
        <ele>752.2</ele>
        <time>2016-09-25T10:47:28Z</time>
      </trkpt>
      <trkpt lat="44.12596" lon="3.23939">
        <ele>751.9</ele>
        <time>2016-09-25T10:47:31Z</time>
      </trkpt>
      <trkpt lat="44.12606" lon="3.23942">
        <ele>749.8</ele>
        <time>2016-09-25T10:47:34Z</time>
      </trkpt>
      <trkpt lat="44.12614" lon="3.23944">
        <ele>749.5</ele>
        <time>2016-09-25T10:47:36Z</time>
      </trkpt>
      <trkpt lat="44.12623" lon="3.23949">
        <ele>749</ele>
        <time>2016-09-25T10:47:39Z</time>
      </trkpt>
      <trkpt lat="44.12633" lon="3.23951">
        <ele>748.4</ele>
        <time>2016-09-25T10:47:42Z</time>
      </trkpt>
      <trkpt lat="44.12641" lon="3.23952">
        <ele>747.6</ele>
        <time>2016-09-25T10:47:45Z</time>
      </trkpt>
      <trkpt lat="44.12648" lon="3.23955">
        <ele>746.7</ele>
        <time>2016-09-25T10:47:48Z</time>
      </trkpt>
      <trkpt lat="44.12657" lon="3.2396">
        <ele>745.7</ele>
        <time>2016-09-25T10:47:51Z</time>
      </trkpt>
      <trkpt lat="44.12665" lon="3.23964">
        <ele>744.6</ele>
        <time>2016-09-25T10:47:55Z</time>
      </trkpt>
      <trkpt lat="44.12674" lon="3.23968">
        <ele>743.5</ele>
        <time>2016-09-25T10:47:58Z</time>
      </trkpt>
      <trkpt lat="44.12681" lon="3.2397">
        <ele>739.1</ele>
        <time>2016-09-25T10:48:00Z</time>
      </trkpt>
      <trkpt lat="44.12689" lon="3.23973">
        <ele>735.2</ele>
        <time>2016-09-25T10:48:02Z</time>
      </trkpt>
      <trkpt lat="44.12696" lon="3.23979">
        <ele>734.3</ele>
        <time>2016-09-25T10:48:05Z</time>
      </trkpt>
      <trkpt lat="44.12703" lon="3.23988">
        <ele>733.3</ele>
        <time>2016-09-25T10:48:08Z</time>
      </trkpt>
      <trkpt lat="44.12709" lon="3.23997">
        <ele>728</ele>
        <time>2016-09-25T10:48:10Z</time>
      </trkpt>
      <trkpt lat="44.12716" lon="3.24002">
        <ele>727.4</ele>
        <time>2016-09-25T10:48:13Z</time>
      </trkpt>
      <trkpt lat="44.12713" lon="3.24014">
        <ele>726.3</ele>
        <time>2016-09-25T10:48:18Z</time>
      </trkpt>
      <trkpt lat="44.12711" lon="3.24025">
        <ele>725.7</ele>
        <time>2016-09-25T10:48:21Z</time>
      </trkpt>
      <trkpt lat="44.1271" lon="3.24037">
        <ele>722.5</ele>
        <time>2016-09-25T10:48:23Z</time>
      </trkpt>
      <trkpt lat="44.12709" lon="3.24052">
        <ele>720.2</ele>
        <time>2016-09-25T10:48:25Z</time>
      </trkpt>
      <trkpt lat="44.12708" lon="3.24063">
        <ele>719.2</ele>
        <time>2016-09-25T10:48:26Z</time>
      </trkpt>
      <trkpt lat="44.12708" lon="3.24073">
        <ele>718.2</ele>
        <time>2016-09-25T10:48:27Z</time>
      </trkpt>
      <trkpt lat="44.12707" lon="3.24089">
        <ele>715.4</ele>
        <time>2016-09-25T10:48:29Z</time>
      </trkpt>
      <trkpt lat="44.12706" lon="3.24099">
        <ele>715</ele>
        <time>2016-09-25T10:48:31Z</time>
      </trkpt>
      <trkpt lat="44.12708" lon="3.2411">
        <ele>714.3</ele>
        <time>2016-09-25T10:48:35Z</time>
      </trkpt>
      <trkpt lat="44.12715" lon="3.24117">
        <ele>712.1</ele>
        <time>2016-09-25T10:48:37Z</time>
      </trkpt>
      <trkpt lat="44.12724" lon="3.24128">
        <ele>709.4</ele>
        <time>2016-09-25T10:48:39Z</time>
      </trkpt>
      <trkpt lat="44.12731" lon="3.24137">
        <ele>707.4</ele>
        <time>2016-09-25T10:48:41Z</time>
      </trkpt>
      <trkpt lat="44.12739" lon="3.24138">
        <ele>704.5</ele>
        <time>2016-09-25T10:49:04Z</time>
      </trkpt>
      <trkpt lat="44.12749" lon="3.24138">
        <ele>702.7</ele>
        <time>2016-09-25T10:49:11Z</time>
      </trkpt>
      <trkpt lat="44.12756" lon="3.24138">
        <ele>701.9</ele>
        <time>2016-09-25T10:49:14Z</time>
      </trkpt>
      <trkpt lat="44.12767" lon="3.24135">
        <ele>700.8</ele>
        <time>2016-09-25T10:49:18Z</time>
      </trkpt>
      <trkpt lat="44.12773" lon="3.2413">
        <ele>697</ele>
        <time>2016-09-25T10:49:20Z</time>
      </trkpt>
      <trkpt lat="44.12782" lon="3.24123">
        <ele>691</ele>
        <time>2016-09-25T10:49:22Z</time>
      </trkpt>
      <trkpt lat="44.12791" lon="3.24121">
        <ele>690.6</ele>
        <time>2016-09-25T10:49:24Z</time>
      </trkpt>
      <trkpt lat="44.12795" lon="3.24125">
        <ele>689.4</ele>
        <time>2016-09-25T10:49:31Z</time>
      </trkpt>
      <trkpt lat="44.12794" lon="3.24127">
        <ele>689.1</ele>
        <time>2016-09-25T10:49:38Z</time>
      </trkpt>
      <trkpt lat="44.12793" lon="3.2412">
        <ele>689.1</ele>
        <time>2016-09-25T10:49:58Z</time>
      </trkpt>
      <trkpt lat="44.12795" lon="3.24124">
        <ele>689.3</ele>
        <time>2016-09-25T10:50:12Z</time>
      </trkpt>
      <trkpt lat="44.12792" lon="3.24119">
        <ele>689.2</ele>
        <time>2016-09-25T10:50:32Z</time>
      </trkpt>
      <trkpt lat="44.12787" lon="3.24125">
        <ele>690.1</ele>
        <time>2016-09-25T10:51:20Z</time>
      </trkpt>
      <trkpt lat="44.1278" lon="3.24135">
        <ele>690</ele>
        <time>2016-09-25T10:51:22Z</time>
      </trkpt>
      <trkpt lat="44.12772" lon="3.24146">
        <ele>689.6</ele>
        <time>2016-09-25T10:51:24Z</time>
      </trkpt>
      <trkpt lat="44.12762" lon="3.24158">
        <ele>687.6</ele>
        <time>2016-09-25T10:51:26Z</time>
      </trkpt>
      <trkpt lat="44.12751" lon="3.24168">
        <ele>684.1</ele>
        <time>2016-09-25T10:51:28Z</time>
      </trkpt>
      <trkpt lat="44.12738" lon="3.24171">
        <ele>681.1</ele>
        <time>2016-09-25T10:51:30Z</time>
      </trkpt>
      <trkpt lat="44.12724" lon="3.24172">
        <ele>678.3</ele>
        <time>2016-09-25T10:51:32Z</time>
      </trkpt>
      <trkpt lat="44.12716" lon="3.24172">
        <ele>676.9</ele>
        <time>2016-09-25T10:51:33Z</time>
      </trkpt>
      <trkpt lat="44.12706" lon="3.24172">
        <ele>675.7</ele>
        <time>2016-09-25T10:51:34Z</time>
      </trkpt>
      <trkpt lat="44.12698" lon="3.24171">
        <ele>674.7</ele>
        <time>2016-09-25T10:51:35Z</time>
      </trkpt>
      <trkpt lat="44.12689" lon="3.24171">
        <ele>674.1</ele>
        <time>2016-09-25T10:51:36Z</time>
      </trkpt>
      <trkpt lat="44.1268" lon="3.24169">
        <ele>673</ele>
        <time>2016-09-25T10:51:37Z</time>
      </trkpt>
      <trkpt lat="44.12671" lon="3.24167">
        <ele>672.2</ele>
        <time>2016-09-25T10:51:38Z</time>
      </trkpt>
      <trkpt lat="44.12663" lon="3.24165">
        <ele>671.6</ele>
        <time>2016-09-25T10:51:39Z</time>
      </trkpt>
      <trkpt lat="44.12655" lon="3.24162">
        <ele>671</ele>
        <time>2016-09-25T10:51:40Z</time>
      </trkpt>
      <trkpt lat="44.12648" lon="3.24149">
        <ele>669.7</ele>
        <time>2016-09-25T10:51:42Z</time>
      </trkpt>
      <trkpt lat="44.12644" lon="3.24136">
        <ele>668.6</ele>
        <time>2016-09-25T10:51:44Z</time>
      </trkpt>
      <trkpt lat="44.12644" lon="3.24117">
        <ele>667</ele>
        <time>2016-09-25T10:51:46Z</time>
      </trkpt>
      <trkpt lat="44.12644" lon="3.24101">
        <ele>666.5</ele>
        <time>2016-09-25T10:51:48Z</time>
      </trkpt>
      <trkpt lat="44.12641" lon="3.24088">
        <ele>666.5</ele>
        <time>2016-09-25T10:51:50Z</time>
      </trkpt>
      <trkpt lat="44.12633" lon="3.24083">
        <ele>667.5</ele>
        <time>2016-09-25T10:51:52Z</time>
      </trkpt>
      <trkpt lat="44.12621" lon="3.24079">
        <ele>667.5</ele>
        <time>2016-09-25T10:51:54Z</time>
      </trkpt>
      <trkpt lat="44.12611" lon="3.24075">
        <ele>667.4</ele>
        <time>2016-09-25T10:51:56Z</time>
      </trkpt>
      <trkpt lat="44.12601" lon="3.24076">
        <ele>666.7</ele>
        <time>2016-09-25T10:51:58Z</time>
      </trkpt>
      <trkpt lat="44.1259" lon="3.24079">
        <ele>665.6</ele>
        <time>2016-09-25T10:52:00Z</time>
      </trkpt>
      <trkpt lat="44.12577" lon="3.2408">
        <ele>665</ele>
        <time>2016-09-25T10:52:02Z</time>
      </trkpt>
      <trkpt lat="44.12564" lon="3.24081">
        <ele>665.2</ele>
        <time>2016-09-25T10:52:04Z</time>
      </trkpt>
      <trkpt lat="44.12553" lon="3.24082">
        <ele>664.8</ele>
        <time>2016-09-25T10:52:06Z</time>
      </trkpt>
      <trkpt lat="44.1254" lon="3.24084">
        <ele>664.8</ele>
        <time>2016-09-25T10:52:08Z</time>
      </trkpt>
      <trkpt lat="44.12527" lon="3.24087">
        <ele>665.3</ele>
        <time>2016-09-25T10:52:10Z</time>
      </trkpt>
      <trkpt lat="44.12516" lon="3.24091">
        <ele>665.7</ele>
        <time>2016-09-25T10:52:12Z</time>
      </trkpt>
      <trkpt lat="44.12503" lon="3.24095">
        <ele>665.9</ele>
        <time>2016-09-25T10:52:14Z</time>
      </trkpt>
      <trkpt lat="44.1249" lon="3.24097">
        <ele>664.5</ele>
        <time>2016-09-25T10:52:16Z</time>
      </trkpt>
      <trkpt lat="44.12478" lon="3.24099">
        <ele>663.8</ele>
        <time>2016-09-25T10:52:18Z</time>
      </trkpt>
      <trkpt lat="44.12464" lon="3.241">
        <ele>663.4</ele>
        <time>2016-09-25T10:52:20Z</time>
      </trkpt>
      <trkpt lat="44.12456" lon="3.241">
        <ele>663.4</ele>
        <time>2016-09-25T10:52:21Z</time>
      </trkpt>
      <trkpt lat="44.12447" lon="3.241">
        <ele>663</ele>
        <time>2016-09-25T10:52:22Z</time>
      </trkpt>
      <trkpt lat="44.1244" lon="3.241">
        <ele>663</ele>
        <time>2016-09-25T10:52:23Z</time>
      </trkpt>
      <trkpt lat="44.12431" lon="3.241">
        <ele>663.2</ele>
        <time>2016-09-25T10:52:24Z</time>
      </trkpt>
      <trkpt lat="44.12416" lon="3.24099">
        <ele>662.3</ele>
        <time>2016-09-25T10:52:26Z</time>
      </trkpt>
      <trkpt lat="44.12403" lon="3.241">
        <ele>660.8</ele>
        <time>2016-09-25T10:52:28Z</time>
      </trkpt>
      <trkpt lat="44.12391" lon="3.24095">
        <ele>660</ele>
        <time>2016-09-25T10:52:30Z</time>
      </trkpt>
      <trkpt lat="44.1238" lon="3.24085">
        <ele>659.2</ele>
        <time>2016-09-25T10:52:32Z</time>
      </trkpt>
      <trkpt lat="44.12374" lon="3.24079">
        <ele>658</ele>
        <time>2016-09-25T10:52:33Z</time>
      </trkpt>
      <trkpt lat="44.12367" lon="3.24072">
        <ele>657.4</ele>
        <time>2016-09-25T10:52:34Z</time>
      </trkpt>
      <trkpt lat="44.12361" lon="3.24066">
        <ele>656.5</ele>
        <time>2016-09-25T10:52:35Z</time>
      </trkpt>
      <trkpt lat="44.12354" lon="3.24059">
        <ele>655.4</ele>
        <time>2016-09-25T10:52:36Z</time>
      </trkpt>
      <trkpt lat="44.12344" lon="3.24049">
        <ele>654.4</ele>
        <time>2016-09-25T10:52:38Z</time>
      </trkpt>
      <trkpt lat="44.12336" lon="3.24036">
        <ele>653.5</ele>
        <time>2016-09-25T10:52:40Z</time>
      </trkpt>
      <trkpt lat="44.1233" lon="3.24018">
        <ele>652.5</ele>
        <time>2016-09-25T10:52:42Z</time>
      </trkpt>
      <trkpt lat="44.12327" lon="3.24008">
        <ele>651.9</ele>
        <time>2016-09-25T10:52:43Z</time>
      </trkpt>
      <trkpt lat="44.12325" lon="3.23991">
        <ele>650.4</ele>
        <time>2016-09-25T10:52:45Z</time>
      </trkpt>
      <trkpt lat="44.12325" lon="3.23973">
        <ele>649.3</ele>
        <time>2016-09-25T10:52:47Z</time>
      </trkpt>
      <trkpt lat="44.12324" lon="3.23961">
        <ele>648.6</ele>
        <time>2016-09-25T10:52:48Z</time>
      </trkpt>
      <trkpt lat="44.12323" lon="3.2395">
        <ele>648.3</ele>
        <time>2016-09-25T10:52:49Z</time>
      </trkpt>
      <trkpt lat="44.12322" lon="3.23939">
        <ele>647.7</ele>
        <time>2016-09-25T10:52:50Z</time>
      </trkpt>
      <trkpt lat="44.1232" lon="3.23929">
        <ele>647.3</ele>
        <time>2016-09-25T10:52:51Z</time>
      </trkpt>
      <trkpt lat="44.12319" lon="3.23918">
        <ele>647.1</ele>
        <time>2016-09-25T10:52:52Z</time>
      </trkpt>
      <trkpt lat="44.12318" lon="3.239">
        <ele>646.8</ele>
        <time>2016-09-25T10:52:54Z</time>
      </trkpt>
      <trkpt lat="44.12317" lon="3.23889">
        <ele>646.1</ele>
        <time>2016-09-25T10:52:55Z</time>
      </trkpt>
      <trkpt lat="44.12315" lon="3.23878">
        <ele>646.2</ele>
        <time>2016-09-25T10:52:56Z</time>
      </trkpt>
      <trkpt lat="44.12314" lon="3.23867">
        <ele>646</ele>
        <time>2016-09-25T10:52:57Z</time>
      </trkpt>
      <trkpt lat="44.12313" lon="3.23855">
        <ele>645.1</ele>
        <time>2016-09-25T10:52:58Z</time>
      </trkpt>
      <trkpt lat="44.12311" lon="3.23839">
        <ele>644</ele>
        <time>2016-09-25T10:53:00Z</time>
      </trkpt>
      <trkpt lat="44.12312" lon="3.23822">
        <ele>643.5</ele>
        <time>2016-09-25T10:53:02Z</time>
      </trkpt>
      <trkpt lat="44.12314" lon="3.23805">
        <ele>642.3</ele>
        <time>2016-09-25T10:53:04Z</time>
      </trkpt>
      <trkpt lat="44.12317" lon="3.23786">
        <ele>641.2</ele>
        <time>2016-09-25T10:53:06Z</time>
      </trkpt>
      <trkpt lat="44.12314" lon="3.23768">
        <ele>639.9</ele>
        <time>2016-09-25T10:53:08Z</time>
      </trkpt>
      <trkpt lat="44.12312" lon="3.23757">
        <ele>639.3</ele>
        <time>2016-09-25T10:53:09Z</time>
      </trkpt>
      <trkpt lat="44.12309" lon="3.23747">
        <ele>638.8</ele>
        <time>2016-09-25T10:53:10Z</time>
      </trkpt>
      <trkpt lat="44.12306" lon="3.23738">
        <ele>638.4</ele>
        <time>2016-09-25T10:53:11Z</time>
      </trkpt>
      <trkpt lat="44.12301" lon="3.2372">
        <ele>638.3</ele>
        <time>2016-09-25T10:53:13Z</time>
      </trkpt>
      <trkpt lat="44.12297" lon="3.23705">
        <ele>637.4</ele>
        <time>2016-09-25T10:53:15Z</time>
      </trkpt>
      <trkpt lat="44.12293" lon="3.23691">
        <ele>635.9</ele>
        <time>2016-09-25T10:53:17Z</time>
      </trkpt>
      <trkpt lat="44.12293" lon="3.23676">
        <ele>635.1</ele>
        <time>2016-09-25T10:53:20Z</time>
      </trkpt>
      <trkpt lat="44.12292" lon="3.23663">
        <ele>634.9</ele>
        <time>2016-09-25T10:53:22Z</time>
      </trkpt>
      <trkpt lat="44.12291" lon="3.2365">
        <ele>633.6</ele>
        <time>2016-09-25T10:53:24Z</time>
      </trkpt>
      <trkpt lat="44.12291" lon="3.23636">
        <ele>632</ele>
        <time>2016-09-25T10:53:26Z</time>
      </trkpt>
      <trkpt lat="44.12291" lon="3.23619">
        <ele>630.4</ele>
        <time>2016-09-25T10:53:28Z</time>
      </trkpt>
      <trkpt lat="44.12291" lon="3.23608">
        <ele>630.2</ele>
        <time>2016-09-25T10:53:29Z</time>
      </trkpt>
      <trkpt lat="44.12291" lon="3.23591">
        <ele>629.3</ele>
        <time>2016-09-25T10:53:31Z</time>
      </trkpt>
      <trkpt lat="44.12292" lon="3.23578">
        <ele>628.5</ele>
        <time>2016-09-25T10:53:33Z</time>
      </trkpt>
      <trkpt lat="44.12295" lon="3.23565">
        <ele>628.3</ele>
        <time>2016-09-25T10:53:36Z</time>
      </trkpt>
      <trkpt lat="44.12298" lon="3.23555">
        <ele>628.2</ele>
        <time>2016-09-25T10:53:39Z</time>
      </trkpt>
      <trkpt lat="44.12301" lon="3.23541">
        <ele>628.5</ele>
        <time>2016-09-25T10:53:42Z</time>
      </trkpt>
      <trkpt lat="44.12303" lon="3.23529">
        <ele>628.5</ele>
        <time>2016-09-25T10:53:44Z</time>
      </trkpt>
      <trkpt lat="44.12307" lon="3.23516">
        <ele>629.4</ele>
        <time>2016-09-25T10:53:46Z</time>
      </trkpt>
      <trkpt lat="44.1231" lon="3.23503">
        <ele>629.4</ele>
        <time>2016-09-25T10:53:48Z</time>
      </trkpt>
      <trkpt lat="44.12313" lon="3.23491">
        <ele>629.2</ele>
        <time>2016-09-25T10:53:50Z</time>
      </trkpt>
      <trkpt lat="44.12316" lon="3.23481">
        <ele>629</ele>
        <time>2016-09-25T10:53:53Z</time>
      </trkpt>
      <trkpt lat="44.12317" lon="3.23468">
        <ele>628.1</ele>
        <time>2016-09-25T10:53:56Z</time>
      </trkpt>
      <trkpt lat="44.1232" lon="3.23453">
        <ele>627.3</ele>
        <time>2016-09-25T10:53:59Z</time>
      </trkpt>
      <trkpt lat="44.12322" lon="3.23443">
        <ele>627.2</ele>
        <time>2016-09-25T10:54:01Z</time>
      </trkpt>
      <trkpt lat="44.12323" lon="3.23428">
        <ele>627.3</ele>
        <time>2016-09-25T10:54:04Z</time>
      </trkpt>
      <trkpt lat="44.12325" lon="3.23415">
        <ele>627.4</ele>
        <time>2016-09-25T10:54:07Z</time>
      </trkpt>
      <trkpt lat="44.12327" lon="3.23405">
        <ele>627.5</ele>
        <time>2016-09-25T10:54:09Z</time>
      </trkpt>
      <trkpt lat="44.12329" lon="3.23391">
        <ele>627.8</ele>
        <time>2016-09-25T10:54:12Z</time>
      </trkpt>
      <trkpt lat="44.12331" lon="3.23377">
        <ele>627.8</ele>
        <time>2016-09-25T10:54:15Z</time>
      </trkpt>
      <trkpt lat="44.12335" lon="3.23368">
        <ele>627.7</ele>
        <time>2016-09-25T10:54:17Z</time>
      </trkpt>
      <trkpt lat="44.12339" lon="3.23357">
        <ele>626.5</ele>
        <time>2016-09-25T10:54:19Z</time>
      </trkpt>
      <trkpt lat="44.12344" lon="3.23347">
        <ele>626</ele>
        <time>2016-09-25T10:54:21Z</time>
      </trkpt>
      <trkpt lat="44.1235" lon="3.23336">
        <ele>626.1</ele>
        <time>2016-09-25T10:54:23Z</time>
      </trkpt>
      <trkpt lat="44.12357" lon="3.23324">
        <ele>626.1</ele>
        <time>2016-09-25T10:54:25Z</time>
      </trkpt>
      <trkpt lat="44.12361" lon="3.23316">
        <ele>625.8</ele>
        <time>2016-09-25T10:54:26Z</time>
      </trkpt>
      <trkpt lat="44.12367" lon="3.23307">
        <ele>625.2</ele>
        <time>2016-09-25T10:54:28Z</time>
      </trkpt>
      <trkpt lat="44.12362" lon="3.23295">
        <ele>625.2</ele>
        <time>2016-09-25T10:54:32Z</time>
      </trkpt>
      <trkpt lat="44.12358" lon="3.23283">
        <ele>625.7</ele>
        <time>2016-09-25T10:54:34Z</time>
      </trkpt>
      <trkpt lat="44.12355" lon="3.23269">
        <ele>625.5</ele>
        <time>2016-09-25T10:54:36Z</time>
      </trkpt>
      <trkpt lat="44.12357" lon="3.23256">
        <ele>623.6</ele>
        <time>2016-09-25T10:54:38Z</time>
      </trkpt>
      <trkpt lat="44.12357" lon="3.23245">
        <ele>623.2</ele>
        <time>2016-09-25T10:54:41Z</time>
      </trkpt>
      <trkpt lat="44.12363" lon="3.23249">
        <ele>622.8</ele>
        <time>2016-09-25T10:54:44Z</time>
      </trkpt>
      <trkpt lat="44.1237" lon="3.23255">
        <ele>622.5</ele>
        <time>2016-09-25T10:54:46Z</time>
      </trkpt>
      <trkpt lat="44.1238" lon="3.23263">
        <ele>620.1</ele>
        <time>2016-09-25T10:54:49Z</time>
      </trkpt>
      <trkpt lat="44.1239" lon="3.23261">
        <ele>617.3</ele>
        <time>2016-09-25T10:54:51Z</time>
      </trkpt>
      <trkpt lat="44.124" lon="3.2326">
        <ele>615.3</ele>
        <time>2016-09-25T10:54:53Z</time>
      </trkpt>
      <trkpt lat="44.12408" lon="3.23257">
        <ele>614.3</ele>
        <time>2016-09-25T10:54:55Z</time>
      </trkpt>
      <trkpt lat="44.12416" lon="3.23254">
        <ele>613.4</ele>
        <time>2016-09-25T10:54:57Z</time>
      </trkpt>
      <trkpt lat="44.12424" lon="3.23252">
        <ele>613.3</ele>
        <time>2016-09-25T10:54:59Z</time>
      </trkpt>
      <trkpt lat="44.12432" lon="3.2325">
        <ele>612.1</ele>
        <time>2016-09-25T10:55:01Z</time>
      </trkpt>
      <trkpt lat="44.1244" lon="3.23246">
        <ele>610.4</ele>
        <time>2016-09-25T10:55:03Z</time>
      </trkpt>
      <trkpt lat="44.12447" lon="3.23242">
        <ele>608.9</ele>
        <time>2016-09-25T10:55:06Z</time>
      </trkpt>
      <trkpt lat="44.12456" lon="3.23236">
        <ele>607.5</ele>
        <time>2016-09-25T10:55:07Z</time>
      </trkpt>
      <trkpt lat="44.12466" lon="3.23231">
        <ele>605.5</ele>
        <time>2016-09-25T10:55:09Z</time>
      </trkpt>
      <trkpt lat="44.12476" lon="3.23221">
        <ele>604.7</ele>
        <time>2016-09-25T10:55:11Z</time>
      </trkpt>
      <trkpt lat="44.12481" lon="3.23214">
        <ele>604.6</ele>
        <time>2016-09-25T10:55:13Z</time>
      </trkpt>
      <trkpt lat="44.12473" lon="3.23209">
        <ele>603.8</ele>
        <time>2016-09-25T10:55:17Z</time>
      </trkpt>
      <trkpt lat="44.12462" lon="3.2321">
        <ele>602.1</ele>
        <time>2016-09-25T10:55:19Z</time>
      </trkpt>
      <trkpt lat="44.1245" lon="3.23209">
        <ele>599.8</ele>
        <time>2016-09-25T10:55:21Z</time>
      </trkpt>
      <trkpt lat="44.12436" lon="3.23209">
        <ele>597.6</ele>
        <time>2016-09-25T10:55:23Z</time>
      </trkpt>
      <trkpt lat="44.12422" lon="3.23208">
        <ele>594.3</ele>
        <time>2016-09-25T10:55:25Z</time>
      </trkpt>
      <trkpt lat="44.12413" lon="3.23199">
        <ele>591.8</ele>
        <time>2016-09-25T10:55:27Z</time>
      </trkpt>
      <trkpt lat="44.12402" lon="3.2319">
        <ele>588.9</ele>
        <time>2016-09-25T10:55:29Z</time>
      </trkpt>
      <trkpt lat="44.12391" lon="3.23183">
        <ele>586</ele>
        <time>2016-09-25T10:55:31Z</time>
      </trkpt>
      <trkpt lat="44.1238" lon="3.23179">
        <ele>583.4</ele>
        <time>2016-09-25T10:55:33Z</time>
      </trkpt>
      <trkpt lat="44.12369" lon="3.23172">
        <ele>581.6</ele>
        <time>2016-09-25T10:55:35Z</time>
      </trkpt>
      <trkpt lat="44.12357" lon="3.23168">
        <ele>579</ele>
        <time>2016-09-25T10:55:37Z</time>
      </trkpt>
      <trkpt lat="44.12346" lon="3.23164">
        <ele>577.7</ele>
        <time>2016-09-25T10:55:39Z</time>
      </trkpt>
      <trkpt lat="44.12338" lon="3.23163">
        <ele>577.6</ele>
        <time>2016-09-25T10:55:41Z</time>
      </trkpt>
      <trkpt lat="44.1234" lon="3.23158">
        <ele>577.1</ele>
        <time>2016-09-25T10:55:48Z</time>
      </trkpt>
      <trkpt lat="44.12347" lon="3.23155">
        <ele>577.1</ele>
        <time>2016-09-25T10:55:50Z</time>
      </trkpt>
      <trkpt lat="44.12355" lon="3.23154">
        <ele>577</ele>
        <time>2016-09-25T10:55:53Z</time>
      </trkpt>
      <trkpt lat="44.12363" lon="3.23152">
        <ele>576.9</ele>
        <time>2016-09-25T10:55:55Z</time>
      </trkpt>
      <trkpt lat="44.12371" lon="3.23148">
        <ele>576.8</ele>
        <time>2016-09-25T10:55:57Z</time>
      </trkpt>
      <trkpt lat="44.12383" lon="3.23146">
        <ele>576.1</ele>
        <time>2016-09-25T10:55:59Z</time>
      </trkpt>
      <trkpt lat="44.12395" lon="3.23146">
        <ele>574.2</ele>
        <time>2016-09-25T10:56:01Z</time>
      </trkpt>
      <trkpt lat="44.12405" lon="3.23147">
        <ele>572.9</ele>
        <time>2016-09-25T10:56:03Z</time>
      </trkpt>
      <trkpt lat="44.124" lon="3.23138">
        <ele>571.9</ele>
        <time>2016-09-25T10:56:10Z</time>
      </trkpt>
      <trkpt lat="44.1239" lon="3.23132">
        <ele>567.6</ele>
        <time>2016-09-25T10:56:12Z</time>
      </trkpt>
      <trkpt lat="44.1238" lon="3.23125">
        <ele>565.5</ele>
        <time>2016-09-25T10:56:14Z</time>
      </trkpt>
      <trkpt lat="44.1237" lon="3.2312">
        <ele>563.1</ele>
        <time>2016-09-25T10:56:16Z</time>
      </trkpt>
      <trkpt lat="44.12361" lon="3.23116">
        <ele>560.1</ele>
        <time>2016-09-25T10:56:18Z</time>
      </trkpt>
      <trkpt lat="44.12352" lon="3.23115">
        <ele>558</ele>
        <time>2016-09-25T10:56:20Z</time>
      </trkpt>
      <trkpt lat="44.12342" lon="3.23117">
        <ele>556.1</ele>
        <time>2016-09-25T10:56:22Z</time>
      </trkpt>
      <trkpt lat="44.12335" lon="3.23122">
        <ele>555.9</ele>
        <time>2016-09-25T10:56:24Z</time>
      </trkpt>
      <trkpt lat="44.12328" lon="3.23127">
        <ele>555.7</ele>
        <time>2016-09-25T10:56:27Z</time>
      </trkpt>
      <trkpt lat="44.12322" lon="3.23134">
        <ele>555.5</ele>
        <time>2016-09-25T10:56:30Z</time>
      </trkpt>
      <trkpt lat="44.12316" lon="3.23141">
        <ele>555.3</ele>
        <time>2016-09-25T10:56:32Z</time>
      </trkpt>
      <trkpt lat="44.12318" lon="3.23131">
        <ele>555.2</ele>
        <time>2016-09-25T10:56:37Z</time>
      </trkpt>
      <trkpt lat="44.12324" lon="3.23123">
        <ele>554.2</ele>
        <time>2016-09-25T10:56:39Z</time>
      </trkpt>
      <trkpt lat="44.12335" lon="3.23114">
        <ele>553.5</ele>
        <time>2016-09-25T10:56:41Z</time>
      </trkpt>
      <trkpt lat="44.12347" lon="3.23106">
        <ele>552.9</ele>
        <time>2016-09-25T10:56:43Z</time>
      </trkpt>
      <trkpt lat="44.12356" lon="3.23099">
        <ele>551.1</ele>
        <time>2016-09-25T10:56:45Z</time>
      </trkpt>
      <trkpt lat="44.12366" lon="3.23097">
        <ele>549.1</ele>
        <time>2016-09-25T10:56:47Z</time>
      </trkpt>
      <trkpt lat="44.12377" lon="3.23097">
        <ele>547.9</ele>
        <time>2016-09-25T10:56:49Z</time>
      </trkpt>
      <trkpt lat="44.12389" lon="3.23096">
        <ele>546.2</ele>
        <time>2016-09-25T10:56:51Z</time>
      </trkpt>
      <trkpt lat="44.12398" lon="3.23096">
        <ele>545.6</ele>
        <time>2016-09-25T10:56:53Z</time>
      </trkpt>
      <trkpt lat="44.12404" lon="3.23089">
        <ele>545.4</ele>
        <time>2016-09-25T10:56:56Z</time>
      </trkpt>
      <trkpt lat="44.12394" lon="3.23083">
        <ele>544.9</ele>
        <time>2016-09-25T10:57:00Z</time>
      </trkpt>
      <trkpt lat="44.12384" lon="3.23078">
        <ele>542.8</ele>
        <time>2016-09-25T10:57:02Z</time>
      </trkpt>
      <trkpt lat="44.12377" lon="3.23072">
        <ele>540.2</ele>
        <time>2016-09-25T10:57:04Z</time>
      </trkpt>
      <trkpt lat="44.12368" lon="3.23065">
        <ele>539.8</ele>
        <time>2016-09-25T10:57:07Z</time>
      </trkpt>
      <trkpt lat="44.12361" lon="3.23059">
        <ele>539.4</ele>
        <time>2016-09-25T10:57:10Z</time>
      </trkpt>
      <trkpt lat="44.12352" lon="3.23053">
        <ele>539</ele>
        <time>2016-09-25T10:57:13Z</time>
      </trkpt>
      <trkpt lat="44.12363" lon="3.23053">
        <ele>538.3</ele>
        <time>2016-09-25T10:57:18Z</time>
      </trkpt>
      <trkpt lat="44.12371" lon="3.23055">
        <ele>535.5</ele>
        <time>2016-09-25T10:57:20Z</time>
      </trkpt>
      <trkpt lat="44.12381" lon="3.23058">
        <ele>533.3</ele>
        <time>2016-09-25T10:57:22Z</time>
      </trkpt>
      <trkpt lat="44.12391" lon="3.23056">
        <ele>532.7</ele>
        <time>2016-09-25T10:57:25Z</time>
      </trkpt>
      <trkpt lat="44.12401" lon="3.23058">
        <ele>530.4</ele>
        <time>2016-09-25T10:57:27Z</time>
      </trkpt>
      <trkpt lat="44.12412" lon="3.23055">
        <ele>527.7</ele>
        <time>2016-09-25T10:57:29Z</time>
      </trkpt>
      <trkpt lat="44.1242" lon="3.23051">
        <ele>523.8</ele>
        <time>2016-09-25T10:57:31Z</time>
      </trkpt>
      <trkpt lat="44.12428" lon="3.23036">
        <ele>521</ele>
        <time>2016-09-25T10:57:33Z</time>
      </trkpt>
      <trkpt lat="44.1243" lon="3.23021">
        <ele>519.1</ele>
        <time>2016-09-25T10:57:35Z</time>
      </trkpt>
      <trkpt lat="44.12435" lon="3.23005">
        <ele>516.2</ele>
        <time>2016-09-25T10:57:37Z</time>
      </trkpt>
      <trkpt lat="44.12437" lon="3.22993">
        <ele>513.7</ele>
        <time>2016-09-25T10:57:39Z</time>
      </trkpt>
      <trkpt lat="44.12439" lon="3.22981">
        <ele>512.2</ele>
        <time>2016-09-25T10:57:41Z</time>
      </trkpt>
      <trkpt lat="44.1244" lon="3.22969">
        <ele>509.6</ele>
        <time>2016-09-25T10:57:43Z</time>
      </trkpt>
      <trkpt lat="44.12445" lon="3.22958">
        <ele>508.5</ele>
        <time>2016-09-25T10:57:45Z</time>
      </trkpt>
      <trkpt lat="44.12453" lon="3.2295">
        <ele>508.2</ele>
        <time>2016-09-25T10:57:47Z</time>
      </trkpt>
      <trkpt lat="44.12457" lon="3.22938">
        <ele>508.2</ele>
        <time>2016-09-25T10:57:49Z</time>
      </trkpt>
      <trkpt lat="44.12465" lon="3.2293">
        <ele>507.4</ele>
        <time>2016-09-25T10:57:51Z</time>
      </trkpt>
      <trkpt lat="44.1247" lon="3.22918">
        <ele>506.2</ele>
        <time>2016-09-25T10:57:53Z</time>
      </trkpt>
      <trkpt lat="44.12477" lon="3.2291">
        <ele>505</ele>
        <time>2016-09-25T10:57:55Z</time>
      </trkpt>
      <trkpt lat="44.12485" lon="3.22897">
        <ele>503.6</ele>
        <time>2016-09-25T10:57:57Z</time>
      </trkpt>
      <trkpt lat="44.12492" lon="3.22886">
        <ele>501.5</ele>
        <time>2016-09-25T10:57:59Z</time>
      </trkpt>
      <trkpt lat="44.125" lon="3.22883">
        <ele>501.1</ele>
        <time>2016-09-25T10:58:02Z</time>
      </trkpt>
      <trkpt lat="44.12509" lon="3.22882">
        <ele>500.8</ele>
        <time>2016-09-25T10:58:06Z</time>
      </trkpt>
      <trkpt lat="44.12516" lon="3.22885">
        <ele>500.7</ele>
        <time>2016-09-25T10:58:09Z</time>
      </trkpt>
      <trkpt lat="44.12523" lon="3.22885">
        <ele>500.7</ele>
        <time>2016-09-25T10:58:12Z</time>
      </trkpt>
      <trkpt lat="44.12528" lon="3.22874">
        <ele>500.8</ele>
        <time>2016-09-25T10:58:15Z</time>
      </trkpt>
      <trkpt lat="44.12533" lon="3.22861">
        <ele>499.7</ele>
        <time>2016-09-25T10:58:17Z</time>
      </trkpt>
      <trkpt lat="44.12533" lon="3.22849">
        <ele>499.1</ele>
        <time>2016-09-25T10:58:19Z</time>
      </trkpt>
      <trkpt lat="44.12533" lon="3.22838">
        <ele>497.4</ele>
        <time>2016-09-25T10:58:21Z</time>
      </trkpt>
      <trkpt lat="44.12534" lon="3.22828">
        <ele>497.2</ele>
        <time>2016-09-25T10:58:23Z</time>
      </trkpt>
      <trkpt lat="44.12533" lon="3.22818">
        <ele>496.9</ele>
        <time>2016-09-25T10:58:26Z</time>
      </trkpt>
      <trkpt lat="44.1253" lon="3.22807">
        <ele>495.3</ele>
        <time>2016-09-25T10:58:28Z</time>
      </trkpt>
      <trkpt lat="44.1253" lon="3.22793">
        <ele>494.7</ele>
        <time>2016-09-25T10:58:30Z</time>
      </trkpt>
      <trkpt lat="44.12533" lon="3.2278">
        <ele>493.2</ele>
        <time>2016-09-25T10:58:32Z</time>
      </trkpt>
      <trkpt lat="44.12536" lon="3.22763">
        <ele>491.8</ele>
        <time>2016-09-25T10:58:34Z</time>
      </trkpt>
      <trkpt lat="44.1254" lon="3.22745">
        <ele>489.5</ele>
        <time>2016-09-25T10:58:36Z</time>
      </trkpt>
      <trkpt lat="44.12547" lon="3.22731">
        <ele>488.2</ele>
        <time>2016-09-25T10:58:38Z</time>
      </trkpt>
      <trkpt lat="44.12554" lon="3.22716">
        <ele>486.7</ele>
        <time>2016-09-25T10:58:40Z</time>
      </trkpt>
      <trkpt lat="44.12557" lon="3.22706">
        <ele>486</ele>
        <time>2016-09-25T10:58:41Z</time>
      </trkpt>
      <trkpt lat="44.12561" lon="3.22697">
        <ele>485.5</ele>
        <time>2016-09-25T10:58:42Z</time>
      </trkpt>
      <trkpt lat="44.12568" lon="3.22687">
        <ele>485.4</ele>
        <time>2016-09-25T10:58:44Z</time>
      </trkpt>
      <trkpt lat="44.12576" lon="3.22678">
        <ele>485.2</ele>
        <time>2016-09-25T10:58:47Z</time>
      </trkpt>
      <trkpt lat="44.12583" lon="3.22668">
        <ele>485.1</ele>
        <time>2016-09-25T10:58:50Z</time>
      </trkpt>
      <trkpt lat="44.12589" lon="3.2266">
        <ele>485.3</ele>
        <time>2016-09-25T10:58:54Z</time>
      </trkpt>
      <trkpt lat="44.12584" lon="3.22651">
        <ele>485.3</ele>
        <time>2016-09-25T10:58:59Z</time>
      </trkpt>
      <trkpt lat="44.12577" lon="3.22646">
        <ele>485.4</ele>
        <time>2016-09-25T10:59:03Z</time>
      </trkpt>
      <trkpt lat="44.12571" lon="3.2264">
        <ele>485.7</ele>
        <time>2016-09-25T10:59:08Z</time>
      </trkpt>
      <trkpt lat="44.12566" lon="3.22631">
        <ele>486.4</ele>
        <time>2016-09-25T10:59:13Z</time>
      </trkpt>
      <trkpt lat="44.12564" lon="3.22618">
        <ele>486.8</ele>
        <time>2016-09-25T10:59:16Z</time>
      </trkpt>
      <trkpt lat="44.12561" lon="3.22607">
        <ele>486.9</ele>
        <time>2016-09-25T10:59:19Z</time>
      </trkpt>
      <trkpt lat="44.12563" lon="3.22596">
        <ele>487</ele>
        <time>2016-09-25T10:59:23Z</time>
      </trkpt>
      <trkpt lat="44.12566" lon="3.22585">
        <ele>487.1</ele>
        <time>2016-09-25T10:59:26Z</time>
      </trkpt>
      <trkpt lat="44.12568" lon="3.22573">
        <ele>487.3</ele>
        <time>2016-09-25T10:59:30Z</time>
      </trkpt>
      <trkpt lat="44.12569" lon="3.22561">
        <ele>487.2</ele>
        <time>2016-09-25T10:59:33Z</time>
      </trkpt>
      <trkpt lat="44.1257" lon="3.2255">
        <ele>487.3</ele>
        <time>2016-09-25T10:59:36Z</time>
      </trkpt>
      <trkpt lat="44.12568" lon="3.22537">
        <ele>487.3</ele>
        <time>2016-09-25T10:59:39Z</time>
      </trkpt>
      <trkpt lat="44.12567" lon="3.22526">
        <ele>487.3</ele>
        <time>2016-09-25T10:59:41Z</time>
      </trkpt>
      <trkpt lat="44.12566" lon="3.22511">
        <ele>487.2</ele>
        <time>2016-09-25T10:59:44Z</time>
      </trkpt>
      <trkpt lat="44.12565" lon="3.22498">
        <ele>487.5</ele>
        <time>2016-09-25T10:59:46Z</time>
      </trkpt>
      <trkpt lat="44.12565" lon="3.22486">
        <ele>487</ele>
        <time>2016-09-25T10:59:48Z</time>
      </trkpt>
      <trkpt lat="44.12566" lon="3.22474">
        <ele>487.1</ele>
        <time>2016-09-25T10:59:50Z</time>
      </trkpt>
      <trkpt lat="44.12566" lon="3.22461">
        <ele>487.1</ele>
        <time>2016-09-25T10:59:53Z</time>
      </trkpt>
      <trkpt lat="44.12565" lon="3.22448">
        <ele>486.2</ele>
        <time>2016-09-25T10:59:54Z</time>
      </trkpt>
    </trkseg>
  </trk>
</gpx>